<?xml version="1.0" encoding="UTF-8" standalone="no" ?>
<gpx xmlns="http://www.topografix.com/GPX/1/1" xmlns:xsi="http://www.w3.org/2001/XMLSchema-instance" xsi:schemaLocation="http://www.topografix.com/GPX/1/1 http://www.topografix.com/GPX/1/1/gpx.xsd" version="1.1" creator="VisuGPX - https://www.visugpx.com">
  <metadata>
    <name>gap dignes</name>
    <desc><![CDATA[Trop de la balle, paysages fabuleux, circuit technique et varié.]]></desc>
  </metadata>
  <trk>
    <name><![CDATA[Tracé actuel: 26 MAI 2012 11:26]]></name>
    <trkseg>
      <trkpt lat="44.56279" lon="6.06539">
        <ele>867.73</ele>
        <time>2012-05-26T09:26:15Z</time>
      </trkpt>
      <trkpt lat="44.56275" lon="6.06538">
        <ele>871.09</ele>
        <time>2012-05-26T09:33:37Z</time>
      </trkpt>
      <trkpt lat="44.56266" lon="6.06555">
        <ele>870.61</ele>
        <time>2012-05-26T09:33:52Z</time>
      </trkpt>
      <trkpt lat="44.56234" lon="6.06615">
        <ele>867.73</ele>
        <time>2012-05-26T09:34:35Z</time>
      </trkpt>
      <trkpt lat="44.56176" lon="6.06601">
        <ele>864.84</ele>
        <time>2012-05-26T09:35:35Z</time>
      </trkpt>
      <trkpt lat="44.56176" lon="6.06595">
        <ele>859.56</ele>
        <time>2012-05-26T09:40:17Z</time>
      </trkpt>
      <trkpt lat="44.56187" lon="6.06617">
        <ele>858.11</ele>
        <time>2012-05-26T09:43:32Z</time>
      </trkpt>
      <trkpt lat="44.5616" lon="6.0659">
        <ele>856.67</ele>
        <time>2012-05-26T09:45:04Z</time>
      </trkpt>
      <trkpt lat="44.56156" lon="6.06586">
        <ele>856.67</ele>
        <time>2012-05-26T09:45:05Z</time>
      </trkpt>
      <trkpt lat="44.56142" lon="6.06573">
        <ele>855.71</ele>
        <time>2012-05-26T09:45:08Z</time>
      </trkpt>
      <trkpt lat="44.56076" lon="6.0652">
        <ele>853.31</ele>
        <time>2012-05-26T09:45:21Z</time>
      </trkpt>
      <trkpt lat="44.56063" lon="6.06526">
        <ele>852.83</ele>
        <time>2012-05-26T09:45:24Z</time>
      </trkpt>
      <trkpt lat="44.56059" lon="6.0653">
        <ele>852.83</ele>
        <time>2012-05-26T09:45:25Z</time>
      </trkpt>
      <trkpt lat="44.56034" lon="6.06581">
        <ele>853.31</ele>
        <time>2012-05-26T09:45:34Z</time>
      </trkpt>
      <trkpt lat="44.56019" lon="6.06616">
        <ele>848.98</ele>
        <time>2012-05-26T09:45:38Z</time>
      </trkpt>
      <trkpt lat="44.55999" lon="6.06658">
        <ele>844.18</ele>
        <time>2012-05-26T09:45:42Z</time>
      </trkpt>
      <trkpt lat="44.55971" lon="6.06702">
        <ele>836</ele>
        <time>2012-05-26T09:45:46Z</time>
      </trkpt>
      <trkpt lat="44.55945" lon="6.06742">
        <ele>831.68</ele>
        <time>2012-05-26T09:45:49Z</time>
      </trkpt>
      <trkpt lat="44.55916" lon="6.06783">
        <ele>827.83</ele>
        <time>2012-05-26T09:45:52Z</time>
      </trkpt>
      <trkpt lat="44.55881" lon="6.06814">
        <ele>823.51</ele>
        <time>2012-05-26T09:45:55Z</time>
      </trkpt>
      <trkpt lat="44.55869" lon="6.06821">
        <ele>822.06</ele>
        <time>2012-05-26T09:45:56Z</time>
      </trkpt>
      <trkpt lat="44.55847" lon="6.06835">
        <ele>818.22</ele>
        <time>2012-05-26T09:45:58Z</time>
      </trkpt>
      <trkpt lat="44.55829" lon="6.06846">
        <ele>814.37</ele>
        <time>2012-05-26T09:46:00Z</time>
      </trkpt>
      <trkpt lat="44.55812" lon="6.06858">
        <ele>811.01</ele>
        <time>2012-05-26T09:46:03Z</time>
      </trkpt>
      <trkpt lat="44.55807" lon="6.0686">
        <ele>809.57</ele>
        <time>2012-05-26T09:46:05Z</time>
      </trkpt>
      <trkpt lat="44.55799" lon="6.06856">
        <ele>809.09</ele>
        <time>2012-05-26T09:46:10Z</time>
      </trkpt>
      <trkpt lat="44.5579" lon="6.06842">
        <ele>808.61</ele>
        <time>2012-05-26T09:46:15Z</time>
      </trkpt>
      <trkpt lat="44.55778" lon="6.06863">
        <ele>808.61</ele>
        <time>2012-05-26T09:46:21Z</time>
      </trkpt>
      <trkpt lat="44.55762" lon="6.06929">
        <ele>805.72</ele>
        <time>2012-05-26T09:46:29Z</time>
      </trkpt>
      <trkpt lat="44.55757" lon="6.06937">
        <ele>805.72</ele>
        <time>2012-05-26T09:46:30Z</time>
      </trkpt>
      <trkpt lat="44.55697" lon="6.07009">
        <ele>801.88</ele>
        <time>2012-05-26T09:46:40Z</time>
      </trkpt>
      <trkpt lat="44.55664" lon="6.07098">
        <ele>796.11</ele>
        <time>2012-05-26T09:46:48Z</time>
      </trkpt>
      <trkpt lat="44.55657" lon="6.07123">
        <ele>792.26</ele>
        <time>2012-05-26T09:46:50Z</time>
      </trkpt>
      <trkpt lat="44.55633" lon="6.07132">
        <ele>788.42</ele>
        <time>2012-05-26T09:46:53Z</time>
      </trkpt>
      <trkpt lat="44.55616" lon="6.07123">
        <ele>784.09</ele>
        <time>2012-05-26T09:46:55Z</time>
      </trkpt>
      <trkpt lat="44.5561" lon="6.07119">
        <ele>783.13</ele>
        <time>2012-05-26T09:46:56Z</time>
      </trkpt>
      <trkpt lat="44.55606" lon="6.07117">
        <ele>783.13</ele>
        <time>2012-05-26T09:46:57Z</time>
      </trkpt>
      <trkpt lat="44.55589" lon="6.07163">
        <ele>777.84</ele>
        <time>2012-05-26T09:47:08Z</time>
      </trkpt>
      <trkpt lat="44.55584" lon="6.07179">
        <ele>776.4</ele>
        <time>2012-05-26T09:47:11Z</time>
      </trkpt>
      <trkpt lat="44.55563" lon="6.07258">
        <ele>770.15</ele>
        <time>2012-05-26T09:47:19Z</time>
      </trkpt>
      <trkpt lat="44.55543" lon="6.07318">
        <ele>765.35</ele>
        <time>2012-05-26T09:47:24Z</time>
      </trkpt>
      <trkpt lat="44.5553" lon="6.07357">
        <ele>761.98</ele>
        <time>2012-05-26T09:47:27Z</time>
      </trkpt>
      <trkpt lat="44.55516" lon="6.074">
        <ele>758.62</ele>
        <time>2012-05-26T09:47:30Z</time>
      </trkpt>
      <trkpt lat="44.55503" lon="6.07437">
        <ele>754.77</ele>
        <time>2012-05-26T09:47:33Z</time>
      </trkpt>
      <trkpt lat="44.55494" lon="6.07465">
        <ele>752.37</ele>
        <time>2012-05-26T09:47:38Z</time>
      </trkpt>
      <trkpt lat="44.55493" lon="6.07464">
        <ele>752.37</ele>
        <time>2012-05-26T09:47:39Z</time>
      </trkpt>
      <trkpt lat="44.55457" lon="6.07413">
        <ele>753.33</ele>
        <time>2012-05-26T09:47:51Z</time>
      </trkpt>
      <trkpt lat="44.55424" lon="6.07366">
        <ele>753.81</ele>
        <time>2012-05-26T09:48:05Z</time>
      </trkpt>
      <trkpt lat="44.55417" lon="6.07353">
        <ele>753.33</ele>
        <time>2012-05-26T09:48:19Z</time>
      </trkpt>
      <trkpt lat="44.55415" lon="6.07343">
        <ele>752.37</ele>
        <time>2012-05-26T09:49:45Z</time>
      </trkpt>
      <trkpt lat="44.5542" lon="6.07352">
        <ele>751.89</ele>
        <time>2012-05-26T09:51:14Z</time>
      </trkpt>
      <trkpt lat="44.55409" lon="6.07337">
        <ele>751.41</ele>
        <time>2012-05-26T09:53:10Z</time>
      </trkpt>
      <trkpt lat="44.55398" lon="6.0733">
        <ele>750.93</ele>
        <time>2012-05-26T09:53:24Z</time>
      </trkpt>
      <trkpt lat="44.55401" lon="6.0733">
        <ele>750.93</ele>
        <time>2012-05-26T09:54:04Z</time>
      </trkpt>
      <trkpt lat="44.55401" lon="6.07332">
        <ele>750.93</ele>
        <time>2012-05-26T09:54:12Z</time>
      </trkpt>
      <trkpt lat="44.55403" lon="6.07342">
        <ele>750.45</ele>
        <time>2012-05-26T09:54:33Z</time>
      </trkpt>
      <trkpt lat="44.5537" lon="6.07315">
        <ele>750.45</ele>
        <time>2012-05-26T09:54:53Z</time>
      </trkpt>
      <trkpt lat="44.55401" lon="6.07298">
        <ele>750.93</ele>
        <time>2012-05-26T09:55:15Z</time>
      </trkpt>
      <trkpt lat="44.55401" lon="6.0733">
        <ele>750.45</ele>
        <time>2012-05-26T09:57:16Z</time>
      </trkpt>
      <trkpt lat="44.55378" lon="6.0731">
        <ele>749.97</ele>
        <time>2012-05-26T09:58:28Z</time>
      </trkpt>
      <trkpt lat="44.55358" lon="6.07289">
        <ele>750.45</ele>
        <time>2012-05-26T09:58:35Z</time>
      </trkpt>
      <trkpt lat="44.55272" lon="6.07182">
        <ele>750.45</ele>
        <time>2012-05-26T09:59:04Z</time>
      </trkpt>
      <trkpt lat="44.55166" lon="6.07052">
        <ele>752.85</ele>
        <time>2012-05-26T09:59:37Z</time>
      </trkpt>
      <trkpt lat="44.55123" lon="6.07001">
        <ele>752.85</ele>
        <time>2012-05-26T09:59:49Z</time>
      </trkpt>
      <trkpt lat="44.54984" lon="6.06827">
        <ele>753.81</ele>
        <time>2012-05-26T10:00:29Z</time>
      </trkpt>
      <trkpt lat="44.54876" lon="6.06694">
        <ele>753.81</ele>
        <time>2012-05-26T10:00:58Z</time>
      </trkpt>
      <trkpt lat="44.54869" lon="6.06687">
        <ele>753.81</ele>
        <time>2012-05-26T10:01:00Z</time>
      </trkpt>
      <trkpt lat="44.54784" lon="6.06581">
        <ele>753.33</ele>
        <time>2012-05-26T10:01:23Z</time>
      </trkpt>
      <trkpt lat="44.54577" lon="6.06327">
        <ele>754.29</ele>
        <time>2012-05-26T10:02:20Z</time>
      </trkpt>
      <trkpt lat="44.54575" lon="6.06322">
        <ele>754.29</ele>
        <time>2012-05-26T10:02:21Z</time>
      </trkpt>
      <trkpt lat="44.54521" lon="6.0626">
        <ele>755.25</ele>
        <time>2012-05-26T10:02:38Z</time>
      </trkpt>
      <trkpt lat="44.54486" lon="6.06217">
        <ele>755.73</ele>
        <time>2012-05-26T10:02:48Z</time>
      </trkpt>
      <trkpt lat="44.54325" lon="6.06014">
        <ele>752.37</ele>
        <time>2012-05-26T10:03:28Z</time>
      </trkpt>
      <trkpt lat="44.54319" lon="6.06008">
        <ele>752.37</ele>
        <time>2012-05-26T10:03:29Z</time>
      </trkpt>
      <trkpt lat="44.54214" lon="6.05879">
        <ele>753.81</ele>
        <time>2012-05-26T10:03:54Z</time>
      </trkpt>
      <trkpt lat="44.54112" lon="6.05755">
        <ele>758.14</ele>
        <time>2012-05-26T10:04:27Z</time>
      </trkpt>
      <trkpt lat="44.54006" lon="6.05639">
        <ele>762.94</ele>
        <time>2012-05-26T10:05:02Z</time>
      </trkpt>
      <trkpt lat="44.53947" lon="6.05568">
        <ele>766.31</ele>
        <time>2012-05-26T10:05:23Z</time>
      </trkpt>
      <trkpt lat="44.53839" lon="6.05435">
        <ele>772.08</ele>
        <time>2012-05-26T10:06:02Z</time>
      </trkpt>
      <trkpt lat="44.53752" lon="6.05327">
        <ele>775.44</ele>
        <time>2012-05-26T10:06:33Z</time>
      </trkpt>
      <trkpt lat="44.53532" lon="6.05106">
        <ele>780.25</ele>
        <time>2012-05-26T10:07:39Z</time>
      </trkpt>
      <trkpt lat="44.53533" lon="6.05104">
        <ele>779.77</ele>
        <time>2012-05-26T10:07:42Z</time>
      </trkpt>
      <trkpt lat="44.53547" lon="6.05106">
        <ele>779.77</ele>
        <time>2012-05-26T10:07:47Z</time>
      </trkpt>
      <trkpt lat="44.53565" lon="6.05117">
        <ele>779.29</ele>
        <time>2012-05-26T10:07:51Z</time>
      </trkpt>
      <trkpt lat="44.53696" lon="6.05163">
        <ele>779.29</ele>
        <time>2012-05-26T10:08:17Z</time>
      </trkpt>
      <trkpt lat="44.53751" lon="6.05172">
        <ele>779.29</ele>
        <time>2012-05-26T10:08:27Z</time>
      </trkpt>
      <trkpt lat="44.53769" lon="6.05188">
        <ele>779.29</ele>
        <time>2012-05-26T10:08:31Z</time>
      </trkpt>
      <trkpt lat="44.53785" lon="6.05174">
        <ele>779.77</ele>
        <time>2012-05-26T10:08:36Z</time>
      </trkpt>
      <trkpt lat="44.5378" lon="6.05156">
        <ele>779.77</ele>
        <time>2012-05-26T10:08:39Z</time>
      </trkpt>
      <trkpt lat="44.53774" lon="6.05145">
        <ele>780.25</ele>
        <time>2012-05-26T10:08:41Z</time>
      </trkpt>
      <trkpt lat="44.53768" lon="6.05069">
        <ele>780.73</ele>
        <time>2012-05-26T10:08:52Z</time>
      </trkpt>
      <trkpt lat="44.53727" lon="6.04949">
        <ele>778.81</ele>
        <time>2012-05-26T10:09:09Z</time>
      </trkpt>
      <trkpt lat="44.53608" lon="6.04774">
        <ele>773.04</ele>
        <time>2012-05-26T10:09:32Z</time>
      </trkpt>
      <trkpt lat="44.53603" lon="6.04766">
        <ele>773.04</ele>
        <time>2012-05-26T10:09:33Z</time>
      </trkpt>
      <trkpt lat="44.5348" lon="6.0456">
        <ele>772.08</ele>
        <time>2012-05-26T10:10:02Z</time>
      </trkpt>
      <trkpt lat="44.53387" lon="6.04466">
        <ele>772.08</ele>
        <time>2012-05-26T10:10:23Z</time>
      </trkpt>
      <trkpt lat="44.53386" lon="6.0445">
        <ele>772.08</ele>
        <time>2012-05-26T10:10:26Z</time>
      </trkpt>
      <trkpt lat="44.53361" lon="6.04419">
        <ele>771.6</ele>
        <time>2012-05-26T10:10:31Z</time>
      </trkpt>
      <trkpt lat="44.53313" lon="6.04366">
        <ele>771.6</ele>
        <time>2012-05-26T10:10:43Z</time>
      </trkpt>
      <trkpt lat="44.53294" lon="6.04359">
        <ele>771.6</ele>
        <time>2012-05-26T10:10:47Z</time>
      </trkpt>
      <trkpt lat="44.53279" lon="6.04315">
        <ele>769.67</ele>
        <time>2012-05-26T10:10:53Z</time>
      </trkpt>
      <trkpt lat="44.53251" lon="6.04232">
        <ele>766.31</ele>
        <time>2012-05-26T10:11:02Z</time>
      </trkpt>
      <trkpt lat="44.53246" lon="6.04212">
        <ele>765.35</ele>
        <time>2012-05-26T10:11:04Z</time>
      </trkpt>
      <trkpt lat="44.53243" lon="6.04202">
        <ele>765.35</ele>
        <time>2012-05-26T10:11:05Z</time>
      </trkpt>
      <trkpt lat="44.5321" lon="6.04071">
        <ele>763.42</ele>
        <time>2012-05-26T10:11:19Z</time>
      </trkpt>
      <trkpt lat="44.53158" lon="6.03971">
        <ele>764.87</ele>
        <time>2012-05-26T10:11:36Z</time>
      </trkpt>
      <trkpt lat="44.53128" lon="6.03948">
        <ele>768.23</ele>
        <time>2012-05-26T10:11:49Z</time>
      </trkpt>
      <trkpt lat="44.5311" lon="6.03939">
        <ele>771.6</ele>
        <time>2012-05-26T10:11:58Z</time>
      </trkpt>
      <trkpt lat="44.531" lon="6.0393">
        <ele>771.6</ele>
        <time>2012-05-26T10:12:06Z</time>
      </trkpt>
      <trkpt lat="44.53078" lon="6.03894">
        <ele>775.44</ele>
        <time>2012-05-26T10:12:24Z</time>
      </trkpt>
      <trkpt lat="44.53058" lon="6.03874">
        <ele>776.88</ele>
        <time>2012-05-26T10:12:36Z</time>
      </trkpt>
      <trkpt lat="44.5305" lon="6.03866">
        <ele>778.32</ele>
        <time>2012-05-26T10:12:43Z</time>
      </trkpt>
      <trkpt lat="44.53022" lon="6.0383">
        <ele>782.17</ele>
        <time>2012-05-26T10:13:01Z</time>
      </trkpt>
      <trkpt lat="44.53021" lon="6.03828">
        <ele>781.69</ele>
        <time>2012-05-26T10:13:02Z</time>
      </trkpt>
      <trkpt lat="44.53001" lon="6.03782">
        <ele>784.57</ele>
        <time>2012-05-26T10:13:20Z</time>
      </trkpt>
      <trkpt lat="44.52957" lon="6.0373">
        <ele>790.34</ele>
        <time>2012-05-26T10:13:52Z</time>
      </trkpt>
      <trkpt lat="44.52915" lon="6.03686">
        <ele>796.11</ele>
        <time>2012-05-26T10:14:19Z</time>
      </trkpt>
      <trkpt lat="44.52916" lon="6.03642">
        <ele>796.11</ele>
        <time>2012-05-26T10:14:31Z</time>
      </trkpt>
      <trkpt lat="44.5292" lon="6.03586">
        <ele>795.15</ele>
        <time>2012-05-26T10:14:39Z</time>
      </trkpt>
      <trkpt lat="44.52888" lon="6.03493">
        <ele>800.92</ele>
        <time>2012-05-26T10:15:02Z</time>
      </trkpt>
      <trkpt lat="44.52884" lon="6.03484">
        <ele>801.4</ele>
        <time>2012-05-26T10:15:05Z</time>
      </trkpt>
      <trkpt lat="44.52882" lon="6.03468">
        <ele>802.36</ele>
        <time>2012-05-26T10:15:10Z</time>
      </trkpt>
      <trkpt lat="44.52938" lon="6.03389">
        <ele>808.13</ele>
        <time>2012-05-26T10:15:44Z</time>
      </trkpt>
      <trkpt lat="44.52971" lon="6.03381">
        <ele>811.49</ele>
        <time>2012-05-26T10:15:59Z</time>
      </trkpt>
      <trkpt lat="44.53012" lon="6.03382">
        <ele>814.85</ele>
        <time>2012-05-26T10:16:17Z</time>
      </trkpt>
      <trkpt lat="44.53074" lon="6.03402">
        <ele>820.62</ele>
        <time>2012-05-26T10:16:48Z</time>
      </trkpt>
      <trkpt lat="44.53106" lon="6.03412">
        <ele>823.99</ele>
        <time>2012-05-26T10:17:05Z</time>
      </trkpt>
      <trkpt lat="44.53135" lon="6.03401">
        <ele>827.35</ele>
        <time>2012-05-26T10:17:23Z</time>
      </trkpt>
      <trkpt lat="44.53156" lon="6.03368">
        <ele>832.64</ele>
        <time>2012-05-26T10:17:47Z</time>
      </trkpt>
      <trkpt lat="44.53157" lon="6.0337">
        <ele>832.64</ele>
        <time>2012-05-26T10:17:48Z</time>
      </trkpt>
      <trkpt lat="44.53169" lon="6.03378">
        <ele>836.48</ele>
        <time>2012-05-26T10:17:57Z</time>
      </trkpt>
      <trkpt lat="44.5319" lon="6.03398">
        <ele>838.41</ele>
        <time>2012-05-26T10:18:14Z</time>
      </trkpt>
      <trkpt lat="44.53306" lon="6.03462">
        <ele>841.77</ele>
        <time>2012-05-26T10:19:11Z</time>
      </trkpt>
      <trkpt lat="44.53361" lon="6.03491">
        <ele>845.62</ele>
        <time>2012-05-26T10:19:41Z</time>
      </trkpt>
      <trkpt lat="44.53396" lon="6.03504">
        <ele>849.46</ele>
        <time>2012-05-26T10:20:03Z</time>
      </trkpt>
      <trkpt lat="44.53422" lon="6.03515">
        <ele>852.83</ele>
        <time>2012-05-26T10:20:20Z</time>
      </trkpt>
      <trkpt lat="44.53431" lon="6.03522">
        <ele>854.27</ele>
        <time>2012-05-26T10:20:27Z</time>
      </trkpt>
      <trkpt lat="44.53465" lon="6.03529">
        <ele>857.63</ele>
        <time>2012-05-26T10:21:01Z</time>
      </trkpt>
      <trkpt lat="44.53496" lon="6.03531">
        <ele>861.48</ele>
        <time>2012-05-26T10:21:32Z</time>
      </trkpt>
      <trkpt lat="44.53523" lon="6.03533">
        <ele>864.84</ele>
        <time>2012-05-26T10:21:50Z</time>
      </trkpt>
      <trkpt lat="44.53548" lon="6.03538">
        <ele>869.17</ele>
        <time>2012-05-26T10:22:07Z</time>
      </trkpt>
      <trkpt lat="44.53549" lon="6.03539">
        <ele>869.17</ele>
        <time>2012-05-26T10:22:08Z</time>
      </trkpt>
      <trkpt lat="44.5356" lon="6.03542">
        <ele>871.57</ele>
        <time>2012-05-26T10:22:16Z</time>
      </trkpt>
      <trkpt lat="44.53592" lon="6.0355">
        <ele>875.42</ele>
        <time>2012-05-26T10:22:38Z</time>
      </trkpt>
      <trkpt lat="44.53595" lon="6.0355">
        <ele>874.94</ele>
        <time>2012-05-26T10:22:40Z</time>
      </trkpt>
      <trkpt lat="44.5362" lon="6.03549">
        <ele>878.3</ele>
        <time>2012-05-26T10:22:58Z</time>
      </trkpt>
      <trkpt lat="44.53623" lon="6.03549">
        <ele>878.3</ele>
        <time>2012-05-26T10:23:00Z</time>
      </trkpt>
      <trkpt lat="44.5366" lon="6.03545">
        <ele>882.63</ele>
        <time>2012-05-26T10:23:25Z</time>
      </trkpt>
      <trkpt lat="44.53673" lon="6.03523">
        <ele>884.55</ele>
        <time>2012-05-26T10:23:41Z</time>
      </trkpt>
      <trkpt lat="44.53652" lon="6.03478">
        <ele>888.88</ele>
        <time>2012-05-26T10:24:07Z</time>
      </trkpt>
      <trkpt lat="44.53649" lon="6.03448">
        <ele>890.32</ele>
        <time>2012-05-26T10:24:18Z</time>
      </trkpt>
      <trkpt lat="44.53677" lon="6.03398">
        <ele>892.24</ele>
        <time>2012-05-26T10:24:51Z</time>
      </trkpt>
      <trkpt lat="44.53693" lon="6.03385">
        <ele>890.8</ele>
        <time>2012-05-26T10:24:58Z</time>
      </trkpt>
      <trkpt lat="44.5368" lon="6.03373">
        <ele>887.91</ele>
        <time>2012-05-26T10:25:03Z</time>
      </trkpt>
      <trkpt lat="44.53659" lon="6.03363">
        <ele>884.07</ele>
        <time>2012-05-26T10:25:07Z</time>
      </trkpt>
      <trkpt lat="44.53655" lon="6.03356">
        <ele>883.59</ele>
        <time>2012-05-26T10:25:08Z</time>
      </trkpt>
      <trkpt lat="44.5365" lon="6.03348">
        <ele>883.11</ele>
        <time>2012-05-26T10:25:09Z</time>
      </trkpt>
      <trkpt lat="44.53616" lon="6.03316">
        <ele>879.74</ele>
        <time>2012-05-26T10:25:14Z</time>
      </trkpt>
      <trkpt lat="44.53603" lon="6.03293">
        <ele>878.3</ele>
        <time>2012-05-26T10:25:19Z</time>
      </trkpt>
      <trkpt lat="44.5357" lon="6.03242">
        <ele>879.74</ele>
        <time>2012-05-26T10:25:50Z</time>
      </trkpt>
      <trkpt lat="44.53561" lon="6.03211">
        <ele>883.59</ele>
        <time>2012-05-26T10:26:05Z</time>
      </trkpt>
      <trkpt lat="44.53557" lon="6.0319">
        <ele>884.55</ele>
        <time>2012-05-26T10:26:15Z</time>
      </trkpt>
      <trkpt lat="44.53537" lon="6.03114">
        <ele>886.95</ele>
        <time>2012-05-26T10:26:50Z</time>
      </trkpt>
      <trkpt lat="44.53531" lon="6.03077">
        <ele>889.36</ele>
        <time>2012-05-26T10:27:07Z</time>
      </trkpt>
      <trkpt lat="44.53502" lon="6.02979">
        <ele>885.51</ele>
        <time>2012-05-26T10:27:30Z</time>
      </trkpt>
      <trkpt lat="44.53485" lon="6.0294">
        <ele>883.11</ele>
        <time>2012-05-26T10:27:41Z</time>
      </trkpt>
      <trkpt lat="44.53481" lon="6.02937">
        <ele>883.11</ele>
        <time>2012-05-26T10:27:43Z</time>
      </trkpt>
      <trkpt lat="44.53448" lon="6.02962">
        <ele>878.78</ele>
        <time>2012-05-26T10:28:02Z</time>
      </trkpt>
      <trkpt lat="44.53412" lon="6.02967">
        <ele>876.86</ele>
        <time>2012-05-26T10:28:16Z</time>
      </trkpt>
      <trkpt lat="44.53407" lon="6.02965">
        <ele>876.86</ele>
        <time>2012-05-26T10:28:18Z</time>
      </trkpt>
      <trkpt lat="44.53374" lon="6.02945">
        <ele>873.98</ele>
        <time>2012-05-26T10:28:26Z</time>
      </trkpt>
      <trkpt lat="44.53368" lon="6.02945">
        <ele>873.5</ele>
        <time>2012-05-26T10:28:27Z</time>
      </trkpt>
      <trkpt lat="44.53348" lon="6.02948">
        <ele>871.09</ele>
        <time>2012-05-26T10:28:30Z</time>
      </trkpt>
      <trkpt lat="44.53323" lon="6.02962">
        <ele>870.13</ele>
        <time>2012-05-26T10:28:36Z</time>
      </trkpt>
      <trkpt lat="44.53289" lon="6.0294">
        <ele>871.09</ele>
        <time>2012-05-26T10:28:54Z</time>
      </trkpt>
      <trkpt lat="44.53276" lon="6.02929">
        <ele>871.57</ele>
        <time>2012-05-26T10:29:11Z</time>
      </trkpt>
      <trkpt lat="44.53277" lon="6.0293">
        <ele>871.57</ele>
        <time>2012-05-26T10:29:20Z</time>
      </trkpt>
      <trkpt lat="44.53303" lon="6.0295">
        <ele>871.09</ele>
        <time>2012-05-26T10:29:32Z</time>
      </trkpt>
      <trkpt lat="44.53315" lon="6.02958">
        <ele>870.13</ele>
        <time>2012-05-26T10:29:39Z</time>
      </trkpt>
      <trkpt lat="44.53314" lon="6.02956">
        <ele>869.65</ele>
        <time>2012-05-26T10:29:41Z</time>
      </trkpt>
      <trkpt lat="44.53253" lon="6.02913">
        <ele>873.01</ele>
        <time>2012-05-26T10:30:02Z</time>
      </trkpt>
      <trkpt lat="44.53195" lon="6.02857">
        <ele>878.3</ele>
        <time>2012-05-26T10:30:26Z</time>
      </trkpt>
      <trkpt lat="44.53168" lon="6.02806">
        <ele>884.55</ele>
        <time>2012-05-26T10:30:50Z</time>
      </trkpt>
      <trkpt lat="44.53182" lon="6.02728">
        <ele>888.4</ele>
        <time>2012-05-26T10:31:18Z</time>
      </trkpt>
      <trkpt lat="44.53189" lon="6.02624">
        <ele>893.68</ele>
        <time>2012-05-26T10:31:49Z</time>
      </trkpt>
      <trkpt lat="44.53197" lon="6.02541">
        <ele>897.05</ele>
        <time>2012-05-26T10:32:14Z</time>
      </trkpt>
      <trkpt lat="44.53195" lon="6.02533">
        <ele>897.05</ele>
        <time>2012-05-26T10:32:16Z</time>
      </trkpt>
      <trkpt lat="44.53164" lon="6.0244">
        <ele>899.45</ele>
        <time>2012-05-26T10:32:54Z</time>
      </trkpt>
      <trkpt lat="44.53177" lon="6.0242">
        <ele>901.37</ele>
        <time>2012-05-26T10:33:03Z</time>
      </trkpt>
      <trkpt lat="44.53179" lon="6.02415">
        <ele>901.85</ele>
        <time>2012-05-26T10:33:05Z</time>
      </trkpt>
      <trkpt lat="44.53171" lon="6.02382">
        <ele>905.22</ele>
        <time>2012-05-26T10:33:19Z</time>
      </trkpt>
      <trkpt lat="44.53162" lon="6.02348">
        <ele>908.58</ele>
        <time>2012-05-26T10:33:34Z</time>
      </trkpt>
      <trkpt lat="44.53155" lon="6.0229">
        <ele>913.87</ele>
        <time>2012-05-26T10:33:59Z</time>
      </trkpt>
      <trkpt lat="44.53155" lon="6.02287">
        <ele>913.87</ele>
        <time>2012-05-26T10:34:00Z</time>
      </trkpt>
      <trkpt lat="44.53161" lon="6.02246">
        <ele>917.24</ele>
        <time>2012-05-26T10:34:18Z</time>
      </trkpt>
      <trkpt lat="44.53162" lon="6.02187">
        <ele>922.04</ele>
        <time>2012-05-26T10:34:44Z</time>
      </trkpt>
      <trkpt lat="44.53162" lon="6.02157">
        <ele>925.41</ele>
        <time>2012-05-26T10:34:59Z</time>
      </trkpt>
      <trkpt lat="44.53163" lon="6.02129">
        <ele>928.77</ele>
        <time>2012-05-26T10:35:14Z</time>
      </trkpt>
      <trkpt lat="44.53171" lon="6.02098">
        <ele>931.65</ele>
        <time>2012-05-26T10:35:30Z</time>
      </trkpt>
      <trkpt lat="44.53177" lon="6.02074">
        <ele>935.02</ele>
        <time>2012-05-26T10:35:43Z</time>
      </trkpt>
      <trkpt lat="44.53185" lon="6.0201">
        <ele>941.27</ele>
        <time>2012-05-26T10:36:14Z</time>
      </trkpt>
      <trkpt lat="44.53184" lon="6.01882">
        <ele>945.59</ele>
        <time>2012-05-26T10:36:54Z</time>
      </trkpt>
      <trkpt lat="44.53192" lon="6.0184">
        <ele>948.96</ele>
        <time>2012-05-26T10:37:07Z</time>
      </trkpt>
      <trkpt lat="44.53206" lon="6.01829">
        <ele>952.32</ele>
        <time>2012-05-26T10:37:17Z</time>
      </trkpt>
      <trkpt lat="44.53222" lon="6.01817">
        <ele>955.69</ele>
        <time>2012-05-26T10:37:29Z</time>
      </trkpt>
      <trkpt lat="44.53223" lon="6.01815">
        <ele>955.69</ele>
        <time>2012-05-26T10:37:30Z</time>
      </trkpt>
      <trkpt lat="44.53221" lon="6.01808">
        <ele>956.17</ele>
        <time>2012-05-26T10:37:33Z</time>
      </trkpt>
      <trkpt lat="44.532" lon="6.01718">
        <ele>954.25</ele>
        <time>2012-05-26T10:37:52Z</time>
      </trkpt>
      <trkpt lat="44.5321" lon="6.0171">
        <ele>955.21</ele>
        <time>2012-05-26T10:37:57Z</time>
      </trkpt>
      <trkpt lat="44.53265" lon="6.01693">
        <ele>960.49</ele>
        <time>2012-05-26T10:38:29Z</time>
      </trkpt>
      <trkpt lat="44.5331" lon="6.01636">
        <ele>966.26</ele>
        <time>2012-05-26T10:39:02Z</time>
      </trkpt>
      <trkpt lat="44.53319" lon="6.01628">
        <ele>965.78</ele>
        <time>2012-05-26T10:39:16Z</time>
      </trkpt>
      <trkpt lat="44.5332" lon="6.0163">
        <ele>965.3</ele>
        <time>2012-05-26T10:46:12Z</time>
      </trkpt>
      <trkpt lat="44.53349" lon="6.01565">
        <ele>964.34</ele>
        <time>2012-05-26T10:47:59Z</time>
      </trkpt>
      <trkpt lat="44.53355" lon="6.0155">
        <ele>963.86</ele>
        <time>2012-05-26T10:48:02Z</time>
      </trkpt>
      <trkpt lat="44.53369" lon="6.01536">
        <ele>963.38</ele>
        <time>2012-05-26T10:48:06Z</time>
      </trkpt>
      <trkpt lat="44.53437" lon="6.01471">
        <ele>962.42</ele>
        <time>2012-05-26T10:48:25Z</time>
      </trkpt>
      <trkpt lat="44.53452" lon="6.01436">
        <ele>959.53</ele>
        <time>2012-05-26T10:48:29Z</time>
      </trkpt>
      <trkpt lat="44.53462" lon="6.01404">
        <ele>955.69</ele>
        <time>2012-05-26T10:48:35Z</time>
      </trkpt>
      <trkpt lat="44.53472" lon="6.0138">
        <ele>951.84</ele>
        <time>2012-05-26T10:48:40Z</time>
      </trkpt>
      <trkpt lat="44.53509" lon="6.01362">
        <ele>950.4</ele>
        <time>2012-05-26T10:48:48Z</time>
      </trkpt>
      <trkpt lat="44.53515" lon="6.01362">
        <ele>950.88</ele>
        <time>2012-05-26T10:48:49Z</time>
      </trkpt>
      <trkpt lat="44.53582" lon="6.01367">
        <ele>954.25</ele>
        <time>2012-05-26T10:49:02Z</time>
      </trkpt>
      <trkpt lat="44.53632" lon="6.0136">
        <ele>955.69</ele>
        <time>2012-05-26T10:49:17Z</time>
      </trkpt>
      <trkpt lat="44.53624" lon="6.01339">
        <ele>956.17</ele>
        <time>2012-05-26T10:49:23Z</time>
      </trkpt>
      <trkpt lat="44.53604" lon="6.01297">
        <ele>957.61</ele>
        <time>2012-05-26T10:49:31Z</time>
      </trkpt>
      <trkpt lat="44.53599" lon="6.01118">
        <ele>958.57</ele>
        <time>2012-05-26T10:50:03Z</time>
      </trkpt>
      <trkpt lat="44.53597" lon="6.01089">
        <ele>958.57</ele>
        <time>2012-05-26T10:50:08Z</time>
      </trkpt>
      <trkpt lat="44.53599" lon="6.01072">
        <ele>959.05</ele>
        <time>2012-05-26T10:50:11Z</time>
      </trkpt>
      <trkpt lat="44.53594" lon="6.01029">
        <ele>960.49</ele>
        <time>2012-05-26T10:50:18Z</time>
      </trkpt>
      <trkpt lat="44.53588" lon="6.00998">
        <ele>961.46</ele>
        <time>2012-05-26T10:50:26Z</time>
      </trkpt>
      <trkpt lat="44.5359" lon="6.00967">
        <ele>961.46</ele>
        <time>2012-05-26T10:50:39Z</time>
      </trkpt>
      <trkpt lat="44.53592" lon="6.00998">
        <ele>962.42</ele>
        <time>2012-05-26T10:50:44Z</time>
      </trkpt>
      <trkpt lat="44.53566" lon="6.01024">
        <ele>960.98</ele>
        <time>2012-05-26T10:50:51Z</time>
      </trkpt>
      <trkpt lat="44.53559" lon="6.01024">
        <ele>960.49</ele>
        <time>2012-05-26T10:50:53Z</time>
      </trkpt>
      <trkpt lat="44.53544" lon="6.01023">
        <ele>958.09</ele>
        <time>2012-05-26T10:50:58Z</time>
      </trkpt>
      <trkpt lat="44.5354" lon="6.0102">
        <ele>958.09</ele>
        <time>2012-05-26T10:50:59Z</time>
      </trkpt>
      <trkpt lat="44.5353" lon="6.01005">
        <ele>957.13</ele>
        <time>2012-05-26T10:51:02Z</time>
      </trkpt>
      <trkpt lat="44.53512" lon="6.00982">
        <ele>956.17</ele>
        <time>2012-05-26T10:51:06Z</time>
      </trkpt>
      <trkpt lat="44.5349" lon="6.00961">
        <ele>955.69</ele>
        <time>2012-05-26T10:51:10Z</time>
      </trkpt>
      <trkpt lat="44.53458" lon="6.00918">
        <ele>954.25</ele>
        <time>2012-05-26T10:51:16Z</time>
      </trkpt>
      <trkpt lat="44.53447" lon="6.00912">
        <ele>953.28</ele>
        <time>2012-05-26T10:51:18Z</time>
      </trkpt>
      <trkpt lat="44.53441" lon="6.00909">
        <ele>953.28</ele>
        <time>2012-05-26T10:51:20Z</time>
      </trkpt>
      <trkpt lat="44.53462" lon="6.00864">
        <ele>953.28</ele>
        <time>2012-05-26T10:51:33Z</time>
      </trkpt>
      <trkpt lat="44.53509" lon="6.00831">
        <ele>956.17</ele>
        <time>2012-05-26T10:51:47Z</time>
      </trkpt>
      <trkpt lat="44.53586" lon="6.00766">
        <ele>957.13</ele>
        <time>2012-05-26T10:52:13Z</time>
      </trkpt>
      <trkpt lat="44.53628" lon="6.00662">
        <ele>960.01</ele>
        <time>2012-05-26T10:52:39Z</time>
      </trkpt>
      <trkpt lat="44.5365" lon="6.00609">
        <ele>961.94</ele>
        <time>2012-05-26T10:52:53Z</time>
      </trkpt>
      <trkpt lat="44.53677" lon="6.00537">
        <ele>963.38</ele>
        <time>2012-05-26T10:53:10Z</time>
      </trkpt>
      <trkpt lat="44.53684" lon="6.00474">
        <ele>964.34</ele>
        <time>2012-05-26T10:53:24Z</time>
      </trkpt>
      <trkpt lat="44.53651" lon="6.00388">
        <ele>967.7</ele>
        <time>2012-05-26T10:53:48Z</time>
      </trkpt>
      <trkpt lat="44.53588" lon="6.00265">
        <ele>973.95</ele>
        <time>2012-05-26T10:54:23Z</time>
      </trkpt>
      <trkpt lat="44.53554" lon="6.00244">
        <ele>977.32</ele>
        <time>2012-05-26T10:54:38Z</time>
      </trkpt>
      <trkpt lat="44.53545" lon="6.00191">
        <ele>982.12</ele>
        <time>2012-05-26T10:54:57Z</time>
      </trkpt>
      <trkpt lat="44.53485" lon="6.00128">
        <ele>988.37</ele>
        <time>2012-05-26T10:55:31Z</time>
      </trkpt>
      <trkpt lat="44.53458" lon="6.0008">
        <ele>991.74</ele>
        <time>2012-05-26T10:55:51Z</time>
      </trkpt>
      <trkpt lat="44.53421" lon="6.00031">
        <ele>994.62</ele>
        <time>2012-05-26T10:56:14Z</time>
      </trkpt>
      <trkpt lat="44.53399" lon="6">
        <ele>997.99</ele>
        <time>2012-05-26T10:56:31Z</time>
      </trkpt>
      <trkpt lat="44.53382" lon="5.99984">
        <ele>1000.87</ele>
        <time>2012-05-26T10:56:43Z</time>
      </trkpt>
      <trkpt lat="44.53381" lon="5.99948">
        <ele>1005.2</ele>
        <time>2012-05-26T10:56:58Z</time>
      </trkpt>
      <trkpt lat="44.53387" lon="5.99903">
        <ele>1008.08</ele>
        <time>2012-05-26T10:57:22Z</time>
      </trkpt>
      <trkpt lat="44.53385" lon="5.99865">
        <ele>1011.44</ele>
        <time>2012-05-26T10:57:37Z</time>
      </trkpt>
      <trkpt lat="44.53392" lon="5.99798">
        <ele>1015.77</ele>
        <time>2012-05-26T10:58:05Z</time>
      </trkpt>
      <trkpt lat="44.53367" lon="5.99862">
        <ele>1019.13</ele>
        <time>2012-05-26T10:58:34Z</time>
      </trkpt>
      <trkpt lat="44.5331" lon="5.99923">
        <ele>1025.38</ele>
        <time>2012-05-26T10:59:12Z</time>
      </trkpt>
      <trkpt lat="44.53234" lon="5.99892">
        <ele>1030.19</ele>
        <time>2012-05-26T10:59:51Z</time>
      </trkpt>
      <trkpt lat="44.53211" lon="5.9988">
        <ele>1033.55</ele>
        <time>2012-05-26T11:00:03Z</time>
      </trkpt>
      <trkpt lat="44.53102" lon="5.99873">
        <ele>1038.36</ele>
        <time>2012-05-26T11:00:55Z</time>
      </trkpt>
      <trkpt lat="44.53102" lon="5.99873">
        <ele>1038.36</ele>
        <time>2012-05-26T11:01:26Z</time>
      </trkpt>
      <trkpt lat="44.53056" lon="5.99899">
        <ele>1043.17</ele>
        <time>2012-05-26T11:02:50Z</time>
      </trkpt>
      <trkpt lat="44.52994" lon="5.99947">
        <ele>1048.94</ele>
        <time>2012-05-26T11:03:17Z</time>
      </trkpt>
      <trkpt lat="44.52954" lon="5.99966">
        <ele>1048.94</ele>
        <time>2012-05-26T11:03:31Z</time>
      </trkpt>
      <trkpt lat="44.52947" lon="5.99973">
        <ele>1048.94</ele>
        <time>2012-05-26T11:03:33Z</time>
      </trkpt>
      <trkpt lat="44.52841" lon="6.00097">
        <ele>1050.86</ele>
        <time>2012-05-26T11:04:07Z</time>
      </trkpt>
      <trkpt lat="44.52821" lon="6.00181">
        <ele>1050.86</ele>
        <time>2012-05-26T11:04:20Z</time>
      </trkpt>
      <trkpt lat="44.52783" lon="6.00241">
        <ele>1052.3</ele>
        <time>2012-05-26T11:04:35Z</time>
      </trkpt>
      <trkpt lat="44.52764" lon="6.00276">
        <ele>1048.94</ele>
        <time>2012-05-26T11:04:40Z</time>
      </trkpt>
      <trkpt lat="44.52759" lon="6.00283">
        <ele>1048.94</ele>
        <time>2012-05-26T11:04:41Z</time>
      </trkpt>
      <trkpt lat="44.52729" lon="6.00302">
        <ele>1047.01</ele>
        <time>2012-05-26T11:04:46Z</time>
      </trkpt>
      <trkpt lat="44.52722" lon="6.00303">
        <ele>1047.49</ele>
        <time>2012-05-26T11:04:47Z</time>
      </trkpt>
      <trkpt lat="44.52685" lon="6.00315">
        <ele>1044.13</ele>
        <time>2012-05-26T11:04:52Z</time>
      </trkpt>
      <trkpt lat="44.52653" lon="6.00319">
        <ele>1041.25</ele>
        <time>2012-05-26T11:04:56Z</time>
      </trkpt>
      <trkpt lat="44.52645" lon="6.00319">
        <ele>1041.25</ele>
        <time>2012-05-26T11:04:57Z</time>
      </trkpt>
      <trkpt lat="44.52605" lon="6.00301">
        <ele>1040.28</ele>
        <time>2012-05-26T11:05:03Z</time>
      </trkpt>
      <trkpt lat="44.52573" lon="6.00272">
        <ele>1038.84</ele>
        <time>2012-05-26T11:05:08Z</time>
      </trkpt>
      <trkpt lat="44.52535" lon="6.00262">
        <ele>1038.36</ele>
        <time>2012-05-26T11:05:13Z</time>
      </trkpt>
      <trkpt lat="44.52479" lon="6.00265">
        <ele>1037.4</ele>
        <time>2012-05-26T11:05:21Z</time>
      </trkpt>
      <trkpt lat="44.52463" lon="6.00261">
        <ele>1036.44</ele>
        <time>2012-05-26T11:05:23Z</time>
      </trkpt>
      <trkpt lat="44.52342" lon="6.0018">
        <ele>1032.59</ele>
        <time>2012-05-26T11:05:39Z</time>
      </trkpt>
      <trkpt lat="44.52306" lon="6.00145">
        <ele>1030.67</ele>
        <time>2012-05-26T11:05:45Z</time>
      </trkpt>
      <trkpt lat="44.52272" lon="6.00098">
        <ele>1027.79</ele>
        <time>2012-05-26T11:05:52Z</time>
      </trkpt>
      <trkpt lat="44.52266" lon="6.00087">
        <ele>1027.79</ele>
        <time>2012-05-26T11:05:54Z</time>
      </trkpt>
      <trkpt lat="44.52277" lon="6.00062">
        <ele>1027.79</ele>
        <time>2012-05-26T11:06:00Z</time>
      </trkpt>
      <trkpt lat="44.52306" lon="5.9998">
        <ele>1031.63</ele>
        <time>2012-05-26T11:06:16Z</time>
      </trkpt>
      <trkpt lat="44.52341" lon="5.99955">
        <ele>1035</ele>
        <time>2012-05-26T11:06:30Z</time>
      </trkpt>
      <trkpt lat="44.5236" lon="5.99934">
        <ele>1037.88</ele>
        <time>2012-05-26T11:06:40Z</time>
      </trkpt>
      <trkpt lat="44.52382" lon="5.99911">
        <ele>1041.25</ele>
        <time>2012-05-26T11:06:53Z</time>
      </trkpt>
      <trkpt lat="44.52403" lon="5.99861">
        <ele>1044.61</ele>
        <time>2012-05-26T11:07:12Z</time>
      </trkpt>
      <trkpt lat="44.52474" lon="5.99743">
        <ele>1050.38</ele>
        <time>2012-05-26T11:07:55Z</time>
      </trkpt>
      <trkpt lat="44.52516" lon="5.99677">
        <ele>1049.42</ele>
        <time>2012-05-26T11:08:07Z</time>
      </trkpt>
      <trkpt lat="44.52558" lon="5.99605">
        <ele>1047.49</ele>
        <time>2012-05-26T11:08:17Z</time>
      </trkpt>
      <trkpt lat="44.52564" lon="5.996">
        <ele>1047.49</ele>
        <time>2012-05-26T11:08:18Z</time>
      </trkpt>
      <trkpt lat="44.52603" lon="5.99578">
        <ele>1047.01</ele>
        <time>2012-05-26T11:08:24Z</time>
      </trkpt>
      <trkpt lat="44.52627" lon="5.99543">
        <ele>1047.49</ele>
        <time>2012-05-26T11:08:29Z</time>
      </trkpt>
      <trkpt lat="44.5263" lon="5.99535">
        <ele>1047.01</ele>
        <time>2012-05-26T11:08:30Z</time>
      </trkpt>
      <trkpt lat="44.52698" lon="5.99421">
        <ele>1047.97</ele>
        <time>2012-05-26T11:08:43Z</time>
      </trkpt>
      <trkpt lat="44.52725" lon="5.99378">
        <ele>1052.3</ele>
        <time>2012-05-26T11:08:50Z</time>
      </trkpt>
      <trkpt lat="44.5275" lon="5.99344">
        <ele>1052.78</ele>
        <time>2012-05-26T11:08:57Z</time>
      </trkpt>
      <trkpt lat="44.52804" lon="5.99256">
        <ele>1055.18</ele>
        <time>2012-05-26T11:09:13Z</time>
      </trkpt>
      <trkpt lat="44.52864" lon="5.99163">
        <ele>1055.18</ele>
        <time>2012-05-26T11:09:29Z</time>
      </trkpt>
      <trkpt lat="44.52867" lon="5.99156">
        <ele>1055.18</ele>
        <time>2012-05-26T11:09:30Z</time>
      </trkpt>
      <trkpt lat="44.52892" lon="5.99047">
        <ele>1051.82</ele>
        <time>2012-05-26T11:09:43Z</time>
      </trkpt>
      <trkpt lat="44.5292" lon="5.99013">
        <ele>1049.9</ele>
        <time>2012-05-26T11:09:48Z</time>
      </trkpt>
      <trkpt lat="44.52928" lon="5.99012">
        <ele>1050.38</ele>
        <time>2012-05-26T11:09:49Z</time>
      </trkpt>
      <trkpt lat="44.53002" lon="5.98968">
        <ele>1052.78</ele>
        <time>2012-05-26T11:10:02Z</time>
      </trkpt>
      <trkpt lat="44.53038" lon="5.98934">
        <ele>1056.63</ele>
        <time>2012-05-26T11:10:16Z</time>
      </trkpt>
      <trkpt lat="44.53079" lon="5.98858">
        <ele>1060.47</ele>
        <time>2012-05-26T11:10:38Z</time>
      </trkpt>
      <trkpt lat="44.53099" lon="5.98735">
        <ele>1060.47</ele>
        <time>2012-05-26T11:11:04Z</time>
      </trkpt>
      <trkpt lat="44.53099" lon="5.98728">
        <ele>1059.99</ele>
        <time>2012-05-26T11:11:05Z</time>
      </trkpt>
      <trkpt lat="44.53096" lon="5.98703">
        <ele>1059.03</ele>
        <time>2012-05-26T11:11:08Z</time>
      </trkpt>
      <trkpt lat="44.53117" lon="5.98628">
        <ele>1058.07</ele>
        <time>2012-05-26T11:11:19Z</time>
      </trkpt>
      <trkpt lat="44.53147" lon="5.98555">
        <ele>1061.43</ele>
        <time>2012-05-26T11:11:35Z</time>
      </trkpt>
      <trkpt lat="44.53168" lon="5.98493">
        <ele>1064.8</ele>
        <time>2012-05-26T11:11:53Z</time>
      </trkpt>
      <trkpt lat="44.53184" lon="5.98418">
        <ele>1068.64</ele>
        <time>2012-05-26T11:12:16Z</time>
      </trkpt>
      <trkpt lat="44.53193" lon="5.98329">
        <ele>1070.57</ele>
        <time>2012-05-26T11:12:41Z</time>
      </trkpt>
      <trkpt lat="44.53194" lon="5.98243">
        <ele>1069.12</ele>
        <time>2012-05-26T11:12:57Z</time>
      </trkpt>
      <trkpt lat="44.53193" lon="5.98232">
        <ele>1069.12</ele>
        <time>2012-05-26T11:13:00Z</time>
      </trkpt>
      <trkpt lat="44.53173" lon="5.98122">
        <ele>1072.49</ele>
        <time>2012-05-26T11:13:25Z</time>
      </trkpt>
      <trkpt lat="44.5315" lon="5.9809">
        <ele>1073.93</ele>
        <time>2012-05-26T11:13:37Z</time>
      </trkpt>
      <trkpt lat="44.53126" lon="5.98057">
        <ele>1075.85</ele>
        <time>2012-05-26T11:13:52Z</time>
      </trkpt>
      <trkpt lat="44.53111" lon="5.98049">
        <ele>1076.81</ele>
        <time>2012-05-26T11:14:00Z</time>
      </trkpt>
      <trkpt lat="44.53096" lon="5.98025">
        <ele>1080.18</ele>
        <time>2012-05-26T11:14:13Z</time>
      </trkpt>
      <trkpt lat="44.53094" lon="5.98024">
        <ele>1080.18</ele>
        <time>2012-05-26T11:14:14Z</time>
      </trkpt>
      <trkpt lat="44.53076" lon="5.9804">
        <ele>1083.54</ele>
        <time>2012-05-26T11:14:30Z</time>
      </trkpt>
      <trkpt lat="44.53058" lon="5.98049">
        <ele>1086.43</ele>
        <time>2012-05-26T11:14:45Z</time>
      </trkpt>
      <trkpt lat="44.53052" lon="5.98023">
        <ele>1090.27</ele>
        <time>2012-05-26T11:15:01Z</time>
      </trkpt>
      <trkpt lat="44.53051" lon="5.98021">
        <ele>1090.27</ele>
        <time>2012-05-26T11:15:02Z</time>
      </trkpt>
      <trkpt lat="44.53047" lon="5.98017">
        <ele>1091.23</ele>
        <time>2012-05-26T11:15:06Z</time>
      </trkpt>
      <trkpt lat="44.53041" lon="5.98012">
        <ele>1092.68</ele>
        <time>2012-05-26T11:15:11Z</time>
      </trkpt>
      <trkpt lat="44.53041" lon="5.98012">
        <ele>1092.68</ele>
        <time>2012-05-26T11:15:12Z</time>
      </trkpt>
      <trkpt lat="44.53025" lon="5.98016">
        <ele>1096.04</ele>
        <time>2012-05-26T11:15:26Z</time>
      </trkpt>
      <trkpt lat="44.5301" lon="5.98022">
        <ele>1099.89</ele>
        <time>2012-05-26T11:15:40Z</time>
      </trkpt>
      <trkpt lat="44.5298" lon="5.98033">
        <ele>1104.21</ele>
        <time>2012-05-26T11:16:07Z</time>
      </trkpt>
      <trkpt lat="44.52934" lon="5.98043">
        <ele>1109.5</ele>
        <time>2012-05-26T11:16:47Z</time>
      </trkpt>
      <trkpt lat="44.52928" lon="5.98028">
        <ele>1110.94</ele>
        <time>2012-05-26T11:16:58Z</time>
      </trkpt>
      <trkpt lat="44.52901" lon="5.97974">
        <ele>1114.79</ele>
        <time>2012-05-26T11:17:33Z</time>
      </trkpt>
      <trkpt lat="44.52873" lon="5.97954">
        <ele>1116.71</ele>
        <time>2012-05-26T11:17:51Z</time>
      </trkpt>
      <trkpt lat="44.52844" lon="5.97932">
        <ele>1120.55</ele>
        <time>2012-05-26T11:18:14Z</time>
      </trkpt>
      <trkpt lat="44.52829" lon="5.97925">
        <ele>1123.92</ele>
        <time>2012-05-26T11:18:27Z</time>
      </trkpt>
      <trkpt lat="44.52786" lon="5.97923">
        <ele>1128.73</ele>
        <time>2012-05-26T11:19:02Z</time>
      </trkpt>
      <trkpt lat="44.52777" lon="5.97925">
        <ele>1129.69</ele>
        <time>2012-05-26T11:19:09Z</time>
      </trkpt>
      <trkpt lat="44.52771" lon="5.97916">
        <ele>1131.13</ele>
        <time>2012-05-26T11:19:16Z</time>
      </trkpt>
      <trkpt lat="44.5277" lon="5.97914">
        <ele>1131.61</ele>
        <time>2012-05-26T11:19:18Z</time>
      </trkpt>
      <trkpt lat="44.5277" lon="5.97891">
        <ele>1134.97</ele>
        <time>2012-05-26T11:19:32Z</time>
      </trkpt>
      <trkpt lat="44.52769" lon="5.9789">
        <ele>1134.97</ele>
        <time>2012-05-26T11:19:33Z</time>
      </trkpt>
      <trkpt lat="44.52758" lon="5.97882">
        <ele>1137.86</ele>
        <time>2012-05-26T11:19:46Z</time>
      </trkpt>
      <trkpt lat="44.52738" lon="5.97858">
        <ele>1141.22</ele>
        <time>2012-05-26T11:20:10Z</time>
      </trkpt>
      <trkpt lat="44.52708" lon="5.97852">
        <ele>1143.63</ele>
        <time>2012-05-26T11:20:36Z</time>
      </trkpt>
      <trkpt lat="44.52699" lon="5.97843">
        <ele>1145.55</ele>
        <time>2012-05-26T11:20:47Z</time>
      </trkpt>
      <trkpt lat="44.5268" lon="5.97855">
        <ele>1147.95</ele>
        <time>2012-05-26T11:21:07Z</time>
      </trkpt>
      <trkpt lat="44.52678" lon="5.97856">
        <ele>1147.95</ele>
        <time>2012-05-26T11:21:08Z</time>
      </trkpt>
      <trkpt lat="44.52656" lon="5.97858">
        <ele>1150.35</ele>
        <time>2012-05-26T11:21:25Z</time>
      </trkpt>
      <trkpt lat="44.5263" lon="5.97858">
        <ele>1155.16</ele>
        <time>2012-05-26T11:21:49Z</time>
      </trkpt>
      <trkpt lat="44.52616" lon="5.97847">
        <ele>1159.01</ele>
        <time>2012-05-26T11:22:21Z</time>
      </trkpt>
      <trkpt lat="44.52598" lon="5.97843">
        <ele>1163.33</ele>
        <time>2012-05-26T11:23:04Z</time>
      </trkpt>
      <trkpt lat="44.52593" lon="5.97839">
        <ele>1164.77</ele>
        <time>2012-05-26T11:23:28Z</time>
      </trkpt>
      <trkpt lat="44.52592" lon="5.9784">
        <ele>1164.77</ele>
        <time>2012-05-26T11:23:29Z</time>
      </trkpt>
      <trkpt lat="44.5258" lon="5.97838">
        <ele>1167.66</ele>
        <time>2012-05-26T11:23:46Z</time>
      </trkpt>
      <trkpt lat="44.5256" lon="5.97832">
        <ele>1171.02</ele>
        <time>2012-05-26T11:24:16Z</time>
      </trkpt>
      <trkpt lat="44.52544" lon="5.97844">
        <ele>1172.95</ele>
        <time>2012-05-26T11:24:43Z</time>
      </trkpt>
      <trkpt lat="44.52521" lon="5.97848">
        <ele>1176.79</ele>
        <time>2012-05-26T11:25:10Z</time>
      </trkpt>
      <trkpt lat="44.52505" lon="5.97838">
        <ele>1180.64</ele>
        <time>2012-05-26T11:25:41Z</time>
      </trkpt>
      <trkpt lat="44.52495" lon="5.97819">
        <ele>1184.48</ele>
        <time>2012-05-26T11:26:10Z</time>
      </trkpt>
      <trkpt lat="44.52479" lon="5.97838">
        <ele>1188.33</ele>
        <time>2012-05-26T11:26:39Z</time>
      </trkpt>
      <trkpt lat="44.52473" lon="5.97841">
        <ele>1187.85</ele>
        <time>2012-05-26T11:27:02Z</time>
      </trkpt>
      <trkpt lat="44.52461" lon="5.9784">
        <ele>1191.21</ele>
        <time>2012-05-26T11:27:11Z</time>
      </trkpt>
      <trkpt lat="44.52449" lon="5.97841">
        <ele>1194.58</ele>
        <time>2012-05-26T11:27:21Z</time>
      </trkpt>
      <trkpt lat="44.52446" lon="5.97841">
        <ele>1194.09</ele>
        <time>2012-05-26T11:27:22Z</time>
      </trkpt>
      <trkpt lat="44.52427" lon="5.97848">
        <ele>1198.42</ele>
        <time>2012-05-26T11:27:40Z</time>
      </trkpt>
      <trkpt lat="44.52414" lon="5.97871">
        <ele>1200.34</ele>
        <time>2012-05-26T11:27:57Z</time>
      </trkpt>
      <trkpt lat="44.52392" lon="5.97878">
        <ele>1204.19</ele>
        <time>2012-05-26T11:28:19Z</time>
      </trkpt>
      <trkpt lat="44.52364" lon="5.97872">
        <ele>1208.51</ele>
        <time>2012-05-26T11:28:45Z</time>
      </trkpt>
      <trkpt lat="44.52352" lon="5.97874">
        <ele>1211.4</ele>
        <time>2012-05-26T11:28:59Z</time>
      </trkpt>
      <trkpt lat="44.52331" lon="5.97884">
        <ele>1214.28</ele>
        <time>2012-05-26T11:29:17Z</time>
      </trkpt>
      <trkpt lat="44.52323" lon="5.97885">
        <ele>1216.21</ele>
        <time>2012-05-26T11:29:26Z</time>
      </trkpt>
      <trkpt lat="44.52308" lon="5.97882">
        <ele>1219.57</ele>
        <time>2012-05-26T11:29:41Z</time>
      </trkpt>
      <trkpt lat="44.52285" lon="5.97865">
        <ele>1224.38</ele>
        <time>2012-05-26T11:30:04Z</time>
      </trkpt>
      <trkpt lat="44.52277" lon="5.97856">
        <ele>1225.82</ele>
        <time>2012-05-26T11:30:13Z</time>
      </trkpt>
      <trkpt lat="44.52253" lon="5.97859">
        <ele>1229.66</ele>
        <time>2012-05-26T11:30:39Z</time>
      </trkpt>
      <trkpt lat="44.52246" lon="5.97863">
        <ele>1230.14</ele>
        <time>2012-05-26T11:30:47Z</time>
      </trkpt>
      <trkpt lat="44.52235" lon="5.97859">
        <ele>1232.07</ele>
        <time>2012-05-26T11:30:56Z</time>
      </trkpt>
      <trkpt lat="44.52229" lon="5.97857">
        <ele>1233.03</ele>
        <time>2012-05-26T11:31:01Z</time>
      </trkpt>
      <trkpt lat="44.52227" lon="5.9786">
        <ele>1233.03</ele>
        <time>2012-05-26T11:31:04Z</time>
      </trkpt>
      <trkpt lat="44.52226" lon="5.9787">
        <ele>1233.03</ele>
        <time>2012-05-26T11:31:10Z</time>
      </trkpt>
      <trkpt lat="44.52219" lon="5.97876">
        <ele>1233.99</ele>
        <time>2012-05-26T11:31:17Z</time>
      </trkpt>
      <trkpt lat="44.52218" lon="5.97877">
        <ele>1233.99</ele>
        <time>2012-05-26T11:31:18Z</time>
      </trkpt>
      <trkpt lat="44.52215" lon="5.97871">
        <ele>1234.47</ele>
        <time>2012-05-26T11:31:22Z</time>
      </trkpt>
      <trkpt lat="44.52216" lon="5.97867">
        <ele>1235.43</ele>
        <time>2012-05-26T11:31:24Z</time>
      </trkpt>
      <trkpt lat="44.52224" lon="5.97845">
        <ele>1236.39</ele>
        <time>2012-05-26T11:31:37Z</time>
      </trkpt>
      <trkpt lat="44.52225" lon="5.97844">
        <ele>1236.39</ele>
        <time>2012-05-26T11:31:38Z</time>
      </trkpt>
      <trkpt lat="44.52232" lon="5.97827">
        <ele>1237.83</ele>
        <time>2012-05-26T11:31:49Z</time>
      </trkpt>
      <trkpt lat="44.52233" lon="5.97826">
        <ele>1237.83</ele>
        <time>2012-05-26T11:31:50Z</time>
      </trkpt>
      <trkpt lat="44.52241" lon="5.97813">
        <ele>1239.76</ele>
        <time>2012-05-26T11:32:02Z</time>
      </trkpt>
      <trkpt lat="44.52247" lon="5.97808">
        <ele>1240.24</ele>
        <time>2012-05-26T11:32:07Z</time>
      </trkpt>
      <trkpt lat="44.52241" lon="5.9778">
        <ele>1243.12</ele>
        <time>2012-05-26T11:32:26Z</time>
      </trkpt>
      <trkpt lat="44.5224" lon="5.97765">
        <ele>1246.49</ele>
        <time>2012-05-26T11:32:35Z</time>
      </trkpt>
      <trkpt lat="44.52241" lon="5.97763">
        <ele>1246.49</ele>
        <time>2012-05-26T11:32:36Z</time>
      </trkpt>
      <trkpt lat="44.52238" lon="5.97747">
        <ele>1247.45</ele>
        <time>2012-05-26T11:32:59Z</time>
      </trkpt>
      <trkpt lat="44.52235" lon="5.97746">
        <ele>1247.93</ele>
        <time>2012-05-26T11:37:36Z</time>
      </trkpt>
      <trkpt lat="44.52247" lon="5.97725">
        <ele>1248.89</ele>
        <time>2012-05-26T11:37:49Z</time>
      </trkpt>
      <trkpt lat="44.52252" lon="5.97711">
        <ele>1250.33</ele>
        <time>2012-05-26T11:38:03Z</time>
      </trkpt>
      <trkpt lat="44.52253" lon="5.97706">
        <ele>1249.85</ele>
        <time>2012-05-26T11:38:06Z</time>
      </trkpt>
      <trkpt lat="44.52259" lon="5.97669">
        <ele>1254.18</ele>
        <time>2012-05-26T11:38:49Z</time>
      </trkpt>
      <trkpt lat="44.52261" lon="5.97664">
        <ele>1254.18</ele>
        <time>2012-05-26T11:38:50Z</time>
      </trkpt>
      <trkpt lat="44.52264" lon="5.97658">
        <ele>1254.66</ele>
        <time>2012-05-26T11:38:53Z</time>
      </trkpt>
      <trkpt lat="44.52258" lon="5.97636">
        <ele>1258.02</ele>
        <time>2012-05-26T11:39:07Z</time>
      </trkpt>
      <trkpt lat="44.52255" lon="5.97618">
        <ele>1258.98</ele>
        <time>2012-05-26T11:39:20Z</time>
      </trkpt>
      <trkpt lat="44.52241" lon="5.97588">
        <ele>1263.79</ele>
        <time>2012-05-26T11:39:43Z</time>
      </trkpt>
      <trkpt lat="44.52241" lon="5.97587">
        <ele>1263.31</ele>
        <time>2012-05-26T11:39:44Z</time>
      </trkpt>
      <trkpt lat="44.52238" lon="5.97583">
        <ele>1263.79</ele>
        <time>2012-05-26T11:39:47Z</time>
      </trkpt>
      <trkpt lat="44.52224" lon="5.97565">
        <ele>1267.16</ele>
        <time>2012-05-26T11:40:11Z</time>
      </trkpt>
      <trkpt lat="44.52218" lon="5.97554">
        <ele>1270.52</ele>
        <time>2012-05-26T11:40:25Z</time>
      </trkpt>
      <trkpt lat="44.52227" lon="5.97526">
        <ele>1274.36</ele>
        <time>2012-05-26T11:40:55Z</time>
      </trkpt>
      <trkpt lat="44.52236" lon="5.97513">
        <ele>1276.29</ele>
        <time>2012-05-26T11:41:15Z</time>
      </trkpt>
      <trkpt lat="44.52247" lon="5.97492">
        <ele>1279.65</ele>
        <time>2012-05-26T11:41:33Z</time>
      </trkpt>
      <trkpt lat="44.52247" lon="5.97488">
        <ele>1279.65</ele>
        <time>2012-05-26T11:41:36Z</time>
      </trkpt>
      <trkpt lat="44.52255" lon="5.9746">
        <ele>1282.54</ele>
        <time>2012-05-26T11:41:58Z</time>
      </trkpt>
      <trkpt lat="44.52257" lon="5.97441">
        <ele>1284.94</ele>
        <time>2012-05-26T11:42:11Z</time>
      </trkpt>
      <trkpt lat="44.52263" lon="5.97422">
        <ele>1287.34</ele>
        <time>2012-05-26T11:42:25Z</time>
      </trkpt>
      <trkpt lat="44.52267" lon="5.97404">
        <ele>1288.3</ele>
        <time>2012-05-26T11:42:35Z</time>
      </trkpt>
      <trkpt lat="44.5227" lon="5.97381">
        <ele>1291.19</ele>
        <time>2012-05-26T11:42:51Z</time>
      </trkpt>
      <trkpt lat="44.52277" lon="5.97337">
        <ele>1296.48</ele>
        <time>2012-05-26T11:43:23Z</time>
      </trkpt>
      <trkpt lat="44.52284" lon="5.97319">
        <ele>1298.88</ele>
        <time>2012-05-26T11:43:37Z</time>
      </trkpt>
      <trkpt lat="44.52286" lon="5.97315">
        <ele>1299.36</ele>
        <time>2012-05-26T11:43:40Z</time>
      </trkpt>
      <trkpt lat="44.52296" lon="5.97296">
        <ele>1302.24</ele>
        <time>2012-05-26T11:43:59Z</time>
      </trkpt>
      <trkpt lat="44.52298" lon="5.97284">
        <ele>1303.69</ele>
        <time>2012-05-26T11:44:08Z</time>
      </trkpt>
      <trkpt lat="44.52306" lon="5.9726">
        <ele>1306.57</ele>
        <time>2012-05-26T11:44:27Z</time>
      </trkpt>
      <trkpt lat="44.52307" lon="5.97241">
        <ele>1309.93</ele>
        <time>2012-05-26T11:44:42Z</time>
      </trkpt>
      <trkpt lat="44.52313" lon="5.97217">
        <ele>1313.3</ele>
        <time>2012-05-26T11:45:07Z</time>
      </trkpt>
      <trkpt lat="44.5232" lon="5.97212">
        <ele>1316.66</ele>
        <time>2012-05-26T11:45:23Z</time>
      </trkpt>
      <trkpt lat="44.52309" lon="5.97206">
        <ele>1319.55</ele>
        <time>2012-05-26T11:45:59Z</time>
      </trkpt>
      <trkpt lat="44.52307" lon="5.97207">
        <ele>1319.55</ele>
        <time>2012-05-26T11:46:01Z</time>
      </trkpt>
      <trkpt lat="44.52279" lon="5.97234">
        <ele>1325.31</ele>
        <time>2012-05-26T11:46:33Z</time>
      </trkpt>
      <trkpt lat="44.52254" lon="5.97274">
        <ele>1331.56</ele>
        <time>2012-05-26T11:47:13Z</time>
      </trkpt>
      <trkpt lat="44.52232" lon="5.9731">
        <ele>1335.41</ele>
        <time>2012-05-26T11:47:42Z</time>
      </trkpt>
      <trkpt lat="44.52216" lon="5.97337">
        <ele>1338.77</ele>
        <time>2012-05-26T11:48:03Z</time>
      </trkpt>
      <trkpt lat="44.52192" lon="5.97354">
        <ele>1342.62</ele>
        <time>2012-05-26T11:48:33Z</time>
      </trkpt>
      <trkpt lat="44.52166" lon="5.97368">
        <ele>1346.46</ele>
        <time>2012-05-26T11:49:00Z</time>
      </trkpt>
      <trkpt lat="44.5214" lon="5.97379">
        <ele>1350.31</ele>
        <time>2012-05-26T11:49:27Z</time>
      </trkpt>
      <trkpt lat="44.52118" lon="5.9739">
        <ele>1353.67</ele>
        <time>2012-05-26T11:49:46Z</time>
      </trkpt>
      <trkpt lat="44.52114" lon="5.97394">
        <ele>1353.19</ele>
        <time>2012-05-26T11:49:50Z</time>
      </trkpt>
      <trkpt lat="44.52098" lon="5.97401">
        <ele>1355.6</ele>
        <time>2012-05-26T11:50:22Z</time>
      </trkpt>
      <trkpt lat="44.52097" lon="5.974">
        <ele>1355.6</ele>
        <time>2012-05-26T11:50:23Z</time>
      </trkpt>
      <trkpt lat="44.52068" lon="5.97382">
        <ele>1357.52</ele>
        <time>2012-05-26T11:50:45Z</time>
      </trkpt>
      <trkpt lat="44.52053" lon="5.97374">
        <ele>1358.48</ele>
        <time>2012-05-26T11:50:56Z</time>
      </trkpt>
      <trkpt lat="44.52035" lon="5.97368">
        <ele>1360.88</ele>
        <time>2012-05-26T11:51:10Z</time>
      </trkpt>
      <trkpt lat="44.52012" lon="5.97367">
        <ele>1365.21</ele>
        <time>2012-05-26T11:51:32Z</time>
      </trkpt>
      <trkpt lat="44.51977" lon="5.97368">
        <ele>1369.05</ele>
        <time>2012-05-26T11:52:01Z</time>
      </trkpt>
      <trkpt lat="44.51971" lon="5.97369">
        <ele>1370.02</ele>
        <time>2012-05-26T11:52:05Z</time>
      </trkpt>
      <trkpt lat="44.51944" lon="5.97378">
        <ele>1373.38</ele>
        <time>2012-05-26T11:52:28Z</time>
      </trkpt>
      <trkpt lat="44.51939" lon="5.97374">
        <ele>1373.38</ele>
        <time>2012-05-26T11:52:33Z</time>
      </trkpt>
      <trkpt lat="44.51922" lon="5.97322">
        <ele>1380.11</ele>
        <time>2012-05-26T11:53:07Z</time>
      </trkpt>
      <trkpt lat="44.519" lon="5.973">
        <ele>1382.51</ele>
        <time>2012-05-26T11:53:30Z</time>
      </trkpt>
      <trkpt lat="44.51898" lon="5.97286">
        <ele>1384.44</ele>
        <time>2012-05-26T11:53:38Z</time>
      </trkpt>
      <trkpt lat="44.51895" lon="5.9726">
        <ele>1387.8</ele>
        <time>2012-05-26T11:54:01Z</time>
      </trkpt>
      <trkpt lat="44.51895" lon="5.97259">
        <ele>1387.8</ele>
        <time>2012-05-26T11:54:28Z</time>
      </trkpt>
      <trkpt lat="44.5189" lon="5.97255">
        <ele>1389.24</ele>
        <time>2012-05-26T11:57:39Z</time>
      </trkpt>
      <trkpt lat="44.51861" lon="5.97248">
        <ele>1391.17</ele>
        <time>2012-05-26T11:57:57Z</time>
      </trkpt>
      <trkpt lat="44.51833" lon="5.97241">
        <ele>1393.57</ele>
        <time>2012-05-26T11:58:12Z</time>
      </trkpt>
      <trkpt lat="44.51827" lon="5.9721">
        <ele>1396.45</ele>
        <time>2012-05-26T11:58:31Z</time>
      </trkpt>
      <trkpt lat="44.51831" lon="5.97189">
        <ele>1398.86</ele>
        <time>2012-05-26T11:59:00Z</time>
      </trkpt>
      <trkpt lat="44.51826" lon="5.97158">
        <ele>1403.66</ele>
        <time>2012-05-26T12:00:08Z</time>
      </trkpt>
      <trkpt lat="44.5181" lon="5.97135">
        <ele>1407.03</ele>
        <time>2012-05-26T12:00:36Z</time>
      </trkpt>
      <trkpt lat="44.51784" lon="5.97108">
        <ele>1410.39</ele>
        <time>2012-05-26T12:01:03Z</time>
      </trkpt>
      <trkpt lat="44.51773" lon="5.97114">
        <ele>1412.31</ele>
        <time>2012-05-26T12:01:12Z</time>
      </trkpt>
      <trkpt lat="44.51753" lon="5.97131">
        <ele>1414.24</ele>
        <time>2012-05-26T12:01:42Z</time>
      </trkpt>
      <trkpt lat="44.51725" lon="5.97105">
        <ele>1419.04</ele>
        <time>2012-05-26T12:02:11Z</time>
      </trkpt>
      <trkpt lat="44.51689" lon="5.97095">
        <ele>1421.45</ele>
        <time>2012-05-26T12:02:32Z</time>
      </trkpt>
      <trkpt lat="44.51669" lon="5.97103">
        <ele>1423.37</ele>
        <time>2012-05-26T12:02:49Z</time>
      </trkpt>
      <trkpt lat="44.5163" lon="5.97095">
        <ele>1430.1</ele>
        <time>2012-05-26T12:03:24Z</time>
      </trkpt>
      <trkpt lat="44.51611" lon="5.97079">
        <ele>1433.46</ele>
        <time>2012-05-26T12:03:48Z</time>
      </trkpt>
      <trkpt lat="44.51596" lon="5.97068">
        <ele>1434.91</ele>
        <time>2012-05-26T12:04:16Z</time>
      </trkpt>
      <trkpt lat="44.51584" lon="5.97076">
        <ele>1436.83</ele>
        <time>2012-05-26T12:05:01Z</time>
      </trkpt>
      <trkpt lat="44.51571" lon="5.97094">
        <ele>1439.23</ele>
        <time>2012-05-26T12:05:18Z</time>
      </trkpt>
      <trkpt lat="44.51561" lon="5.9711">
        <ele>1441.15</ele>
        <time>2012-05-26T12:05:31Z</time>
      </trkpt>
      <trkpt lat="44.51552" lon="5.97118">
        <ele>1442.6</ele>
        <time>2012-05-26T12:05:40Z</time>
      </trkpt>
      <trkpt lat="44.51524" lon="5.97099">
        <ele>1446.44</ele>
        <time>2012-05-26T12:06:08Z</time>
      </trkpt>
      <trkpt lat="44.51493" lon="5.97073">
        <ele>1450.29</ele>
        <time>2012-05-26T12:06:39Z</time>
      </trkpt>
      <trkpt lat="44.51468" lon="5.97059">
        <ele>1452.69</ele>
        <time>2012-05-26T12:06:55Z</time>
      </trkpt>
      <trkpt lat="44.51452" lon="5.97063">
        <ele>1454.61</ele>
        <time>2012-05-26T12:07:09Z</time>
      </trkpt>
      <trkpt lat="44.51434" lon="5.97068">
        <ele>1457.02</ele>
        <time>2012-05-26T12:07:24Z</time>
      </trkpt>
      <trkpt lat="44.51432" lon="5.9707">
        <ele>1457.02</ele>
        <time>2012-05-26T12:07:26Z</time>
      </trkpt>
      <trkpt lat="44.51418" lon="5.97076">
        <ele>1460.86</ele>
        <time>2012-05-26T12:07:41Z</time>
      </trkpt>
      <trkpt lat="44.514" lon="5.97077">
        <ele>1463.74</ele>
        <time>2012-05-26T12:07:57Z</time>
      </trkpt>
      <trkpt lat="44.51334" lon="5.97078">
        <ele>1466.63</ele>
        <time>2012-05-26T12:08:39Z</time>
      </trkpt>
      <trkpt lat="44.51319" lon="5.97077">
        <ele>1466.15</ele>
        <time>2012-05-26T12:08:53Z</time>
      </trkpt>
      <trkpt lat="44.51317" lon="5.97077">
        <ele>1466.15</ele>
        <time>2012-05-26T12:09:44Z</time>
      </trkpt>
      <trkpt lat="44.51298" lon="5.97071">
        <ele>1469.03</ele>
        <time>2012-05-26T12:10:01Z</time>
      </trkpt>
      <trkpt lat="44.51291" lon="5.97065">
        <ele>1469.99</ele>
        <time>2012-05-26T12:10:06Z</time>
      </trkpt>
      <trkpt lat="44.51285" lon="5.97062">
        <ele>1471.44</ele>
        <time>2012-05-26T12:10:11Z</time>
      </trkpt>
      <trkpt lat="44.51263" lon="5.97049">
        <ele>1475.76</ele>
        <time>2012-05-26T12:10:31Z</time>
      </trkpt>
      <trkpt lat="44.51224" lon="5.97039">
        <ele>1478.65</ele>
        <time>2012-05-26T12:11:20Z</time>
      </trkpt>
      <trkpt lat="44.51171" lon="5.97046">
        <ele>1475.28</ele>
        <time>2012-05-26T12:11:56Z</time>
      </trkpt>
      <trkpt lat="44.51159" lon="5.97049">
        <ele>1474.32</ele>
        <time>2012-05-26T12:11:58Z</time>
      </trkpt>
      <trkpt lat="44.51142" lon="5.9705">
        <ele>1475.76</ele>
        <time>2012-05-26T12:12:03Z</time>
      </trkpt>
      <trkpt lat="44.51118" lon="5.97047">
        <ele>1481.05</ele>
        <time>2012-05-26T12:12:23Z</time>
      </trkpt>
      <trkpt lat="44.51103" lon="5.97046">
        <ele>1485.85</ele>
        <time>2012-05-26T12:12:39Z</time>
      </trkpt>
      <trkpt lat="44.51085" lon="5.97051">
        <ele>1489.22</ele>
        <time>2012-05-26T12:13:15Z</time>
      </trkpt>
      <trkpt lat="44.51078" lon="5.97052">
        <ele>1490.66</ele>
        <time>2012-05-26T12:13:22Z</time>
      </trkpt>
      <trkpt lat="44.51075" lon="5.9705">
        <ele>1491.14</ele>
        <time>2012-05-26T12:13:28Z</time>
      </trkpt>
      <trkpt lat="44.51073" lon="5.97056">
        <ele>1491.14</ele>
        <time>2012-05-26T12:13:44Z</time>
      </trkpt>
      <trkpt lat="44.51058" lon="5.97049">
        <ele>1491.14</ele>
        <time>2012-05-26T12:14:47Z</time>
      </trkpt>
      <trkpt lat="44.51076" lon="5.97046">
        <ele>1492.1</ele>
        <time>2012-05-26T12:15:38Z</time>
      </trkpt>
      <trkpt lat="44.5108" lon="5.9705">
        <ele>1492.1</ele>
        <time>2012-05-26T12:17:14Z</time>
      </trkpt>
      <trkpt lat="44.51077" lon="5.97055">
        <ele>1495.95</ele>
        <time>2012-05-26T12:24:56Z</time>
      </trkpt>
      <trkpt lat="44.51077" lon="5.97058">
        <ele>1495.47</ele>
        <time>2012-05-26T12:24:57Z</time>
      </trkpt>
      <trkpt lat="44.5106" lon="5.9707">
        <ele>1494.51</ele>
        <time>2012-05-26T12:25:08Z</time>
      </trkpt>
      <trkpt lat="44.51043" lon="5.97089">
        <ele>1495.47</ele>
        <time>2012-05-26T12:25:19Z</time>
      </trkpt>
      <trkpt lat="44.51035" lon="5.97104">
        <ele>1496.43</ele>
        <time>2012-05-26T12:25:42Z</time>
      </trkpt>
      <trkpt lat="44.51032" lon="5.97104">
        <ele>1496.43</ele>
        <time>2012-05-26T12:25:43Z</time>
      </trkpt>
      <trkpt lat="44.5099" lon="5.97131">
        <ele>1499.31</ele>
        <time>2012-05-26T12:26:19Z</time>
      </trkpt>
      <trkpt lat="44.50975" lon="5.97128">
        <ele>1499.79</ele>
        <time>2012-05-26T12:27:08Z</time>
      </trkpt>
      <trkpt lat="44.50923" lon="5.97104">
        <ele>1501.24</ele>
        <time>2012-05-26T12:27:31Z</time>
      </trkpt>
      <trkpt lat="44.50843" lon="5.97066">
        <ele>1497.39</ele>
        <time>2012-05-26T12:27:55Z</time>
      </trkpt>
      <trkpt lat="44.50796" lon="5.9705">
        <ele>1495.47</ele>
        <time>2012-05-26T12:28:02Z</time>
      </trkpt>
      <trkpt lat="44.50789" lon="5.9705">
        <ele>1494.99</ele>
        <time>2012-05-26T12:28:03Z</time>
      </trkpt>
      <trkpt lat="44.50735" lon="5.97041">
        <ele>1491.62</ele>
        <time>2012-05-26T12:28:11Z</time>
      </trkpt>
      <trkpt lat="44.50723" lon="5.97037">
        <ele>1493.06</ele>
        <time>2012-05-26T12:28:13Z</time>
      </trkpt>
      <trkpt lat="44.50717" lon="5.97034">
        <ele>1492.58</ele>
        <time>2012-05-26T12:28:14Z</time>
      </trkpt>
      <trkpt lat="44.50698" lon="5.97023">
        <ele>1492.1</ele>
        <time>2012-05-26T12:28:17Z</time>
      </trkpt>
      <trkpt lat="44.50666" lon="5.97009">
        <ele>1488.74</ele>
        <time>2012-05-26T12:28:25Z</time>
      </trkpt>
      <trkpt lat="44.50669" lon="5.97006">
        <ele>1489.7</ele>
        <time>2012-05-26T12:29:00Z</time>
      </trkpt>
      <trkpt lat="44.5062" lon="5.96993">
        <ele>1489.22</ele>
        <time>2012-05-26T12:31:48Z</time>
      </trkpt>
      <trkpt lat="44.506" lon="5.96955">
        <ele>1488.26</ele>
        <time>2012-05-26T12:31:55Z</time>
      </trkpt>
      <trkpt lat="44.50552" lon="5.96898">
        <ele>1488.74</ele>
        <time>2012-05-26T12:32:10Z</time>
      </trkpt>
      <trkpt lat="44.50519" lon="5.96909">
        <ele>1487.78</ele>
        <time>2012-05-26T12:32:18Z</time>
      </trkpt>
      <trkpt lat="44.50509" lon="5.96909">
        <ele>1487.78</ele>
        <time>2012-05-26T12:32:20Z</time>
      </trkpt>
      <trkpt lat="44.50465" lon="5.96911">
        <ele>1484.41</ele>
        <time>2012-05-26T12:32:27Z</time>
      </trkpt>
      <trkpt lat="44.50445" lon="5.96922">
        <ele>1482.49</ele>
        <time>2012-05-26T12:32:30Z</time>
      </trkpt>
      <trkpt lat="44.50426" lon="5.96925">
        <ele>1479.61</ele>
        <time>2012-05-26T12:32:32Z</time>
      </trkpt>
      <trkpt lat="44.50416" lon="5.96926">
        <ele>1479.61</ele>
        <time>2012-05-26T12:32:33Z</time>
      </trkpt>
      <trkpt lat="44.50384" lon="5.96919">
        <ele>1476.72</ele>
        <time>2012-05-26T12:32:37Z</time>
      </trkpt>
      <trkpt lat="44.50351" lon="5.96909">
        <ele>1473.36</ele>
        <time>2012-05-26T12:32:41Z</time>
      </trkpt>
      <trkpt lat="44.50344" lon="5.96906">
        <ele>1472.88</ele>
        <time>2012-05-26T12:32:42Z</time>
      </trkpt>
      <trkpt lat="44.50297" lon="5.96884">
        <ele>1468.55</ele>
        <time>2012-05-26T12:32:48Z</time>
      </trkpt>
      <trkpt lat="44.50288" lon="5.96881">
        <ele>1469.03</ele>
        <time>2012-05-26T12:32:49Z</time>
      </trkpt>
      <trkpt lat="44.50237" lon="5.96862">
        <ele>1465.19</ele>
        <time>2012-05-26T12:32:55Z</time>
      </trkpt>
      <trkpt lat="44.5023" lon="5.96857">
        <ele>1465.19</ele>
        <time>2012-05-26T12:32:56Z</time>
      </trkpt>
      <trkpt lat="44.50183" lon="5.96834">
        <ele>1461.82</ele>
        <time>2012-05-26T12:33:02Z</time>
      </trkpt>
      <trkpt lat="44.50174" lon="5.96834">
        <ele>1461.82</ele>
        <time>2012-05-26T12:33:03Z</time>
      </trkpt>
      <trkpt lat="44.50136" lon="5.96829">
        <ele>1459.9</ele>
        <time>2012-05-26T12:33:07Z</time>
      </trkpt>
      <trkpt lat="44.50111" lon="5.96819">
        <ele>1457.02</ele>
        <time>2012-05-26T12:33:10Z</time>
      </trkpt>
      <trkpt lat="44.50089" lon="5.96803">
        <ele>1456.53</ele>
        <time>2012-05-26T12:33:13Z</time>
      </trkpt>
      <trkpt lat="44.50044" lon="5.96802">
        <ele>1453.17</ele>
        <time>2012-05-26T12:33:18Z</time>
      </trkpt>
      <trkpt lat="44.50034" lon="5.96806">
        <ele>1453.17</ele>
        <time>2012-05-26T12:33:19Z</time>
      </trkpt>
      <trkpt lat="44.49987" lon="5.96817">
        <ele>1450.29</ele>
        <time>2012-05-26T12:33:24Z</time>
      </trkpt>
      <trkpt lat="44.49958" lon="5.96799">
        <ele>1447.88</ele>
        <time>2012-05-26T12:33:29Z</time>
      </trkpt>
      <trkpt lat="44.49937" lon="5.9668">
        <ele>1445.48</ele>
        <time>2012-05-26T12:33:47Z</time>
      </trkpt>
      <trkpt lat="44.49886" lon="5.96593">
        <ele>1445.48</ele>
        <time>2012-05-26T12:34:03Z</time>
      </trkpt>
      <trkpt lat="44.49883" lon="5.96589">
        <ele>1445.48</ele>
        <time>2012-05-26T12:34:04Z</time>
      </trkpt>
      <trkpt lat="44.49878" lon="5.96579">
        <ele>1445.48</ele>
        <time>2012-05-26T12:34:06Z</time>
      </trkpt>
      <trkpt lat="44.49856" lon="5.96538">
        <ele>1448.36</ele>
        <time>2012-05-26T12:34:17Z</time>
      </trkpt>
      <trkpt lat="44.49823" lon="5.96494">
        <ele>1451.73</ele>
        <time>2012-05-26T12:34:34Z</time>
      </trkpt>
      <trkpt lat="44.4979" lon="5.96424">
        <ele>1456.53</ele>
        <time>2012-05-26T12:35:03Z</time>
      </trkpt>
      <trkpt lat="44.49769" lon="5.96366">
        <ele>1461.34</ele>
        <time>2012-05-26T12:35:30Z</time>
      </trkpt>
      <trkpt lat="44.49706" lon="5.96303">
        <ele>1462.3</ele>
        <time>2012-05-26T12:35:56Z</time>
      </trkpt>
      <trkpt lat="44.49694" lon="5.96285">
        <ele>1462.78</ele>
        <time>2012-05-26T12:36:01Z</time>
      </trkpt>
      <trkpt lat="44.49623" lon="5.96224">
        <ele>1462.3</ele>
        <time>2012-05-26T12:36:23Z</time>
      </trkpt>
      <trkpt lat="44.49532" lon="5.96159">
        <ele>1465.67</ele>
        <time>2012-05-26T12:36:51Z</time>
      </trkpt>
      <trkpt lat="44.4946" lon="5.96125">
        <ele>1466.15</ele>
        <time>2012-05-26T12:37:11Z</time>
      </trkpt>
      <trkpt lat="44.49411" lon="5.96087">
        <ele>1466.15</ele>
        <time>2012-05-26T12:37:25Z</time>
      </trkpt>
      <trkpt lat="44.49409" lon="5.96074">
        <ele>1466.15</ele>
        <time>2012-05-26T12:37:27Z</time>
      </trkpt>
      <trkpt lat="44.49406" lon="5.96053">
        <ele>1465.19</ele>
        <time>2012-05-26T12:37:30Z</time>
      </trkpt>
      <trkpt lat="44.49405" lon="5.96046">
        <ele>1464.71</ele>
        <time>2012-05-26T12:37:31Z</time>
      </trkpt>
      <trkpt lat="44.49397" lon="5.96018">
        <ele>1464.23</ele>
        <time>2012-05-26T12:37:35Z</time>
      </trkpt>
      <trkpt lat="44.49392" lon="5.95972">
        <ele>1463.74</ele>
        <time>2012-05-26T12:37:41Z</time>
      </trkpt>
      <trkpt lat="44.49393" lon="5.95898">
        <ele>1462.3</ele>
        <time>2012-05-26T12:37:51Z</time>
      </trkpt>
      <trkpt lat="44.49392" lon="5.95891">
        <ele>1462.3</ele>
        <time>2012-05-26T12:37:52Z</time>
      </trkpt>
      <trkpt lat="44.49332" lon="5.95736">
        <ele>1458.94</ele>
        <time>2012-05-26T12:38:12Z</time>
      </trkpt>
      <trkpt lat="44.49338" lon="5.95705">
        <ele>1457.5</ele>
        <time>2012-05-26T12:38:16Z</time>
      </trkpt>
      <trkpt lat="44.49349" lon="5.9569">
        <ele>1456.05</ele>
        <time>2012-05-26T12:39:24Z</time>
      </trkpt>
      <trkpt lat="44.49331" lon="5.95723">
        <ele>1457.98</ele>
        <time>2012-05-26T12:39:38Z</time>
      </trkpt>
      <trkpt lat="44.49333" lon="5.95723">
        <ele>1457.98</ele>
        <time>2012-05-26T12:39:41Z</time>
      </trkpt>
      <trkpt lat="44.49343" lon="5.95694">
        <ele>1456.53</ele>
        <time>2012-05-26T12:39:50Z</time>
      </trkpt>
      <trkpt lat="44.49364" lon="5.9564">
        <ele>1453.65</ele>
        <time>2012-05-26T12:39:58Z</time>
      </trkpt>
      <trkpt lat="44.49366" lon="5.95631">
        <ele>1453.65</ele>
        <time>2012-05-26T12:39:59Z</time>
      </trkpt>
      <trkpt lat="44.49376" lon="5.9558">
        <ele>1450.29</ele>
        <time>2012-05-26T12:40:04Z</time>
      </trkpt>
      <trkpt lat="44.49376" lon="5.95571">
        <ele>1449.32</ele>
        <time>2012-05-26T12:40:05Z</time>
      </trkpt>
      <trkpt lat="44.49377" lon="5.95555">
        <ele>1447.4</ele>
        <time>2012-05-26T12:40:18Z</time>
      </trkpt>
      <trkpt lat="44.49377" lon="5.95554">
        <ele>1447.4</ele>
        <time>2012-05-26T12:40:46Z</time>
      </trkpt>
      <trkpt lat="44.49382" lon="5.95516">
        <ele>1446.92</ele>
        <time>2012-05-26T12:40:56Z</time>
      </trkpt>
      <trkpt lat="44.4937" lon="5.95456">
        <ele>1445.96</ele>
        <time>2012-05-26T12:41:03Z</time>
      </trkpt>
      <trkpt lat="44.4941" lon="5.95393">
        <ele>1445.48</ele>
        <time>2012-05-26T12:41:06Z</time>
      </trkpt>
      <trkpt lat="44.49366" lon="5.95379">
        <ele>1443.56</ele>
        <time>2012-05-26T12:41:12Z</time>
      </trkpt>
      <trkpt lat="44.49369" lon="5.95364">
        <ele>1442.6</ele>
        <time>2012-05-26T12:41:14Z</time>
      </trkpt>
      <trkpt lat="44.4937" lon="5.95323">
        <ele>1441.15</ele>
        <time>2012-05-26T12:41:18Z</time>
      </trkpt>
      <trkpt lat="44.4936" lon="5.95265">
        <ele>1437.31</ele>
        <time>2012-05-26T12:41:23Z</time>
      </trkpt>
      <trkpt lat="44.49357" lon="5.95253">
        <ele>1437.79</ele>
        <time>2012-05-26T12:41:24Z</time>
      </trkpt>
      <trkpt lat="44.4934" lon="5.95205">
        <ele>1433.94</ele>
        <time>2012-05-26T12:41:28Z</time>
      </trkpt>
      <trkpt lat="44.49336" lon="5.95192">
        <ele>1433.94</ele>
        <time>2012-05-26T12:41:29Z</time>
      </trkpt>
      <trkpt lat="44.49332" lon="5.95179">
        <ele>1433.46</ele>
        <time>2012-05-26T12:41:30Z</time>
      </trkpt>
      <trkpt lat="44.49308" lon="5.9513">
        <ele>1429.62</ele>
        <time>2012-05-26T12:41:34Z</time>
      </trkpt>
      <trkpt lat="44.49299" lon="5.9512">
        <ele>1430.1</ele>
        <time>2012-05-26T12:41:35Z</time>
      </trkpt>
      <trkpt lat="44.49281" lon="5.95102">
        <ele>1428.18</ele>
        <time>2012-05-26T12:41:37Z</time>
      </trkpt>
      <trkpt lat="44.49258" lon="5.95068">
        <ele>1423.85</ele>
        <time>2012-05-26T12:41:40Z</time>
      </trkpt>
      <trkpt lat="44.49234" lon="5.95019">
        <ele>1420.97</ele>
        <time>2012-05-26T12:41:45Z</time>
      </trkpt>
      <trkpt lat="44.49221" lon="5.94995">
        <ele>1420.49</ele>
        <time>2012-05-26T12:41:48Z</time>
      </trkpt>
      <trkpt lat="44.4921" lon="5.94964">
        <ele>1420</ele>
        <time>2012-05-26T12:41:52Z</time>
      </trkpt>
      <trkpt lat="44.49195" lon="5.94939">
        <ele>1421.45</ele>
        <time>2012-05-26T12:42:02Z</time>
      </trkpt>
      <trkpt lat="44.49196" lon="5.9494">
        <ele>1420.97</ele>
        <time>2012-05-26T12:42:08Z</time>
      </trkpt>
      <trkpt lat="44.49238" lon="5.95025">
        <ele>1419.52</ele>
        <time>2012-05-26T12:42:28Z</time>
      </trkpt>
      <trkpt lat="44.4923" lon="5.95007">
        <ele>1419.52</ele>
        <time>2012-05-26T12:42:51Z</time>
      </trkpt>
      <trkpt lat="44.49206" lon="5.94952">
        <ele>1420.49</ele>
        <time>2012-05-26T12:44:30Z</time>
      </trkpt>
      <trkpt lat="44.49157" lon="5.94871">
        <ele>1426.73</ele>
        <time>2012-05-26T12:44:57Z</time>
      </trkpt>
      <trkpt lat="44.4913" lon="5.94831">
        <ele>1427.7</ele>
        <time>2012-05-26T12:45:12Z</time>
      </trkpt>
      <trkpt lat="44.49106" lon="5.94827">
        <ele>1430.58</ele>
        <time>2012-05-26T12:45:25Z</time>
      </trkpt>
      <trkpt lat="44.49048" lon="5.94844">
        <ele>1436.83</ele>
        <time>2012-05-26T12:45:58Z</time>
      </trkpt>
      <trkpt lat="44.49023" lon="5.94818">
        <ele>1440.19</ele>
        <time>2012-05-26T12:46:21Z</time>
      </trkpt>
      <trkpt lat="44.49059" lon="5.94752">
        <ele>1442.6</ele>
        <time>2012-05-26T12:46:44Z</time>
      </trkpt>
      <trkpt lat="44.49079" lon="5.94715">
        <ele>1445.96</ele>
        <time>2012-05-26T12:47:00Z</time>
      </trkpt>
      <trkpt lat="44.49089" lon="5.94667">
        <ele>1449.32</ele>
        <time>2012-05-26T12:47:18Z</time>
      </trkpt>
      <trkpt lat="44.49103" lon="5.94583">
        <ele>1455.09</ele>
        <time>2012-05-26T12:47:51Z</time>
      </trkpt>
      <trkpt lat="44.49113" lon="5.9449">
        <ele>1461.34</ele>
        <time>2012-05-26T12:48:28Z</time>
      </trkpt>
      <trkpt lat="44.49161" lon="5.94448">
        <ele>1466.63</ele>
        <time>2012-05-26T12:49:06Z</time>
      </trkpt>
      <trkpt lat="44.49188" lon="5.94433">
        <ele>1469.99</ele>
        <time>2012-05-26T12:49:26Z</time>
      </trkpt>
      <trkpt lat="44.49243" lon="5.94389">
        <ele>1473.84</ele>
        <time>2012-05-26T12:50:03Z</time>
      </trkpt>
      <trkpt lat="44.49251" lon="5.94352">
        <ele>1475.28</ele>
        <time>2012-05-26T12:50:17Z</time>
      </trkpt>
      <trkpt lat="44.49264" lon="5.94299">
        <ele>1478.65</ele>
        <time>2012-05-26T12:50:54Z</time>
      </trkpt>
      <trkpt lat="44.49266" lon="5.94211">
        <ele>1484.41</ele>
        <time>2012-05-26T12:52:13Z</time>
      </trkpt>
      <trkpt lat="44.49268" lon="5.94165">
        <ele>1488.26</ele>
        <time>2012-05-26T12:52:34Z</time>
      </trkpt>
      <trkpt lat="44.49268" lon="5.94164">
        <ele>1488.26</ele>
        <time>2012-05-26T12:52:47Z</time>
      </trkpt>
      <trkpt lat="44.49278" lon="5.94113">
        <ele>1492.1</ele>
        <time>2012-05-26T12:53:59Z</time>
      </trkpt>
      <trkpt lat="44.49288" lon="5.94028">
        <ele>1497.87</ele>
        <time>2012-05-26T12:54:37Z</time>
      </trkpt>
      <trkpt lat="44.49288" lon="5.93999">
        <ele>1499.79</ele>
        <time>2012-05-26T12:55:36Z</time>
      </trkpt>
      <trkpt lat="44.49282" lon="5.93988">
        <ele>1496.91</ele>
        <time>2012-05-26T12:55:49Z</time>
      </trkpt>
      <trkpt lat="44.49263" lon="5.93961">
        <ele>1492.1</ele>
        <time>2012-05-26T12:56:15Z</time>
      </trkpt>
      <trkpt lat="44.49264" lon="5.93961">
        <ele>1490.66</ele>
        <time>2012-05-26T12:56:56Z</time>
      </trkpt>
      <trkpt lat="44.49267" lon="5.93966">
        <ele>1491.14</ele>
        <time>2012-05-26T12:57:44Z</time>
      </trkpt>
      <trkpt lat="44.49266" lon="5.93976">
        <ele>1488.26</ele>
        <time>2012-05-26T12:57:48Z</time>
      </trkpt>
      <trkpt lat="44.49265" lon="5.93992">
        <ele>1486.82</ele>
        <time>2012-05-26T12:57:58Z</time>
      </trkpt>
      <trkpt lat="44.49261" lon="5.94001">
        <ele>1485.37</ele>
        <time>2012-05-26T12:58:26Z</time>
      </trkpt>
      <trkpt lat="44.49261" lon="5.94019">
        <ele>1483.45</ele>
        <time>2012-05-26T12:58:57Z</time>
      </trkpt>
      <trkpt lat="44.49249" lon="5.94046">
        <ele>1480.09</ele>
        <time>2012-05-26T12:59:05Z</time>
      </trkpt>
      <trkpt lat="44.49247" lon="5.94088">
        <ele>1475.76</ele>
        <time>2012-05-26T12:59:14Z</time>
      </trkpt>
      <trkpt lat="44.49235" lon="5.94125">
        <ele>1471.92</ele>
        <time>2012-05-26T12:59:22Z</time>
      </trkpt>
      <trkpt lat="44.49235" lon="5.94128">
        <ele>1471.92</ele>
        <time>2012-05-26T12:59:23Z</time>
      </trkpt>
      <trkpt lat="44.49233" lon="5.94155">
        <ele>1468.07</ele>
        <time>2012-05-26T12:59:31Z</time>
      </trkpt>
      <trkpt lat="44.49227" lon="5.94172">
        <ele>1465.67</ele>
        <time>2012-05-26T12:59:36Z</time>
      </trkpt>
      <trkpt lat="44.49227" lon="5.94178">
        <ele>1465.19</ele>
        <time>2012-05-26T12:59:37Z</time>
      </trkpt>
      <trkpt lat="44.49225" lon="5.94193">
        <ele>1463.74</ele>
        <time>2012-05-26T12:59:40Z</time>
      </trkpt>
      <trkpt lat="44.49222" lon="5.94214">
        <ele>1459.9</ele>
        <time>2012-05-26T12:59:44Z</time>
      </trkpt>
      <trkpt lat="44.49218" lon="5.94229">
        <ele>1456.53</ele>
        <time>2012-05-26T12:59:51Z</time>
      </trkpt>
      <trkpt lat="44.49216" lon="5.94261">
        <ele>1452.69</ele>
        <time>2012-05-26T13:00:00Z</time>
      </trkpt>
      <trkpt lat="44.49216" lon="5.94265">
        <ele>1452.69</ele>
        <time>2012-05-26T13:00:01Z</time>
      </trkpt>
      <trkpt lat="44.49215" lon="5.94271">
        <ele>1452.21</ele>
        <time>2012-05-26T13:00:03Z</time>
      </trkpt>
      <trkpt lat="44.49208" lon="5.94292">
        <ele>1448.84</ele>
        <time>2012-05-26T13:00:11Z</time>
      </trkpt>
      <trkpt lat="44.49201" lon="5.94301">
        <ele>1446.92</ele>
        <time>2012-05-26T13:00:16Z</time>
      </trkpt>
      <trkpt lat="44.4919" lon="5.94319">
        <ele>1444.04</ele>
        <time>2012-05-26T13:00:22Z</time>
      </trkpt>
      <trkpt lat="44.49174" lon="5.94343">
        <ele>1440.19</ele>
        <time>2012-05-26T13:00:30Z</time>
      </trkpt>
      <trkpt lat="44.49165" lon="5.94349">
        <ele>1436.35</ele>
        <time>2012-05-26T13:00:35Z</time>
      </trkpt>
      <trkpt lat="44.49162" lon="5.94351">
        <ele>1435.39</ele>
        <time>2012-05-26T13:00:55Z</time>
      </trkpt>
      <trkpt lat="44.49164" lon="5.94363">
        <ele>1432.02</ele>
        <time>2012-05-26T13:01:08Z</time>
      </trkpt>
      <trkpt lat="44.49134" lon="5.94369">
        <ele>1432.02</ele>
        <time>2012-05-26T13:01:30Z</time>
      </trkpt>
      <trkpt lat="44.49112" lon="5.9438">
        <ele>1428.66</ele>
        <time>2012-05-26T13:01:39Z</time>
      </trkpt>
      <trkpt lat="44.49087" lon="5.94381">
        <ele>1424.33</ele>
        <time>2012-05-26T13:01:49Z</time>
      </trkpt>
      <trkpt lat="44.49082" lon="5.94382">
        <ele>1422.41</ele>
        <time>2012-05-26T13:01:51Z</time>
      </trkpt>
      <trkpt lat="44.49069" lon="5.94384">
        <ele>1420.49</ele>
        <time>2012-05-26T13:01:57Z</time>
      </trkpt>
      <trkpt lat="44.49043" lon="5.94386">
        <ele>1416.64</ele>
        <time>2012-05-26T13:02:09Z</time>
      </trkpt>
      <trkpt lat="44.49039" lon="5.94386">
        <ele>1415.68</ele>
        <time>2012-05-26T13:02:26Z</time>
      </trkpt>
      <trkpt lat="44.49011" lon="5.94389">
        <ele>1411.83</ele>
        <time>2012-05-26T13:02:34Z</time>
      </trkpt>
      <trkpt lat="44.4899" lon="5.94391">
        <ele>1407.03</ele>
        <time>2012-05-26T13:02:39Z</time>
      </trkpt>
      <trkpt lat="44.48982" lon="5.94385">
        <ele>1404.14</ele>
        <time>2012-05-26T13:02:58Z</time>
      </trkpt>
      <trkpt lat="44.48976" lon="5.94373">
        <ele>1400.78</ele>
        <time>2012-05-26T13:03:09Z</time>
      </trkpt>
      <trkpt lat="44.48973" lon="5.94366">
        <ele>1398.86</ele>
        <time>2012-05-26T13:03:14Z</time>
      </trkpt>
      <trkpt lat="44.48966" lon="5.94354">
        <ele>1393.57</ele>
        <time>2012-05-26T13:03:40Z</time>
      </trkpt>
      <trkpt lat="44.48963" lon="5.94366">
        <ele>1395.49</ele>
        <time>2012-05-26T13:03:57Z</time>
      </trkpt>
      <trkpt lat="44.48955" lon="5.9444">
        <ele>1391.17</ele>
        <time>2012-05-26T13:04:13Z</time>
      </trkpt>
      <trkpt lat="44.48954" lon="5.94463">
        <ele>1391.17</ele>
        <time>2012-05-26T13:04:16Z</time>
      </trkpt>
      <trkpt lat="44.48954" lon="5.94485">
        <ele>1390.2</ele>
        <time>2012-05-26T13:04:20Z</time>
      </trkpt>
      <trkpt lat="44.48949" lon="5.94536">
        <ele>1384.44</ele>
        <time>2012-05-26T13:04:35Z</time>
      </trkpt>
      <trkpt lat="44.48947" lon="5.94535">
        <ele>1383.96</ele>
        <time>2012-05-26T13:04:50Z</time>
      </trkpt>
      <trkpt lat="44.48942" lon="5.94529">
        <ele>1382.03</ele>
        <time>2012-05-26T13:04:54Z</time>
      </trkpt>
      <trkpt lat="44.48928" lon="5.94517">
        <ele>1378.19</ele>
        <time>2012-05-26T13:05:00Z</time>
      </trkpt>
      <trkpt lat="44.48923" lon="5.94513">
        <ele>1376.26</ele>
        <time>2012-05-26T13:05:02Z</time>
      </trkpt>
      <trkpt lat="44.48916" lon="5.94546">
        <ele>1371.46</ele>
        <time>2012-05-26T13:05:13Z</time>
      </trkpt>
      <trkpt lat="44.48914" lon="5.94546">
        <ele>1371.46</ele>
        <time>2012-05-26T13:05:20Z</time>
      </trkpt>
      <trkpt lat="44.48908" lon="5.94545">
        <ele>1369.54</ele>
        <time>2012-05-26T13:05:29Z</time>
      </trkpt>
      <trkpt lat="44.48893" lon="5.94555">
        <ele>1364.73</ele>
        <time>2012-05-26T13:05:37Z</time>
      </trkpt>
      <trkpt lat="44.48883" lon="5.94569">
        <ele>1360.4</ele>
        <time>2012-05-26T13:05:43Z</time>
      </trkpt>
      <trkpt lat="44.48882" lon="5.94571">
        <ele>1361.36</ele>
        <time>2012-05-26T13:05:44Z</time>
      </trkpt>
      <trkpt lat="44.48863" lon="5.94587">
        <ele>1354.63</ele>
        <time>2012-05-26T13:06:02Z</time>
      </trkpt>
      <trkpt lat="44.48861" lon="5.94586">
        <ele>1354.63</ele>
        <time>2012-05-26T13:06:03Z</time>
      </trkpt>
      <trkpt lat="44.48852" lon="5.94593">
        <ele>1352.23</ele>
        <time>2012-05-26T13:06:28Z</time>
      </trkpt>
      <trkpt lat="44.48819" lon="5.94612">
        <ele>1343.58</ele>
        <time>2012-05-26T13:06:37Z</time>
      </trkpt>
      <trkpt lat="44.48802" lon="5.94627">
        <ele>1340.22</ele>
        <time>2012-05-26T13:06:41Z</time>
      </trkpt>
      <trkpt lat="44.48794" lon="5.94625">
        <ele>1339.73</ele>
        <time>2012-05-26T13:06:42Z</time>
      </trkpt>
      <trkpt lat="44.48763" lon="5.94617">
        <ele>1334.93</ele>
        <time>2012-05-26T13:06:47Z</time>
      </trkpt>
      <trkpt lat="44.48742" lon="5.9462">
        <ele>1329.16</ele>
        <time>2012-05-26T13:06:53Z</time>
      </trkpt>
      <trkpt lat="44.48724" lon="5.9463">
        <ele>1323.87</ele>
        <time>2012-05-26T13:06:59Z</time>
      </trkpt>
      <trkpt lat="44.48712" lon="5.94631">
        <ele>1320.51</ele>
        <time>2012-05-26T13:07:03Z</time>
      </trkpt>
      <trkpt lat="44.4871" lon="5.94632">
        <ele>1320.51</ele>
        <time>2012-05-26T13:07:04Z</time>
      </trkpt>
      <trkpt lat="44.48702" lon="5.94632">
        <ele>1317.14</ele>
        <time>2012-05-26T13:07:07Z</time>
      </trkpt>
      <trkpt lat="44.48695" lon="5.94641">
        <ele>1313.3</ele>
        <time>2012-05-26T13:07:11Z</time>
      </trkpt>
      <trkpt lat="44.48695" lon="5.94645">
        <ele>1313.3</ele>
        <time>2012-05-26T13:07:12Z</time>
      </trkpt>
      <trkpt lat="44.48704" lon="5.94668">
        <ele>1310.41</ele>
        <time>2012-05-26T13:07:18Z</time>
      </trkpt>
      <trkpt lat="44.48707" lon="5.94673">
        <ele>1310.41</ele>
        <time>2012-05-26T13:07:19Z</time>
      </trkpt>
      <trkpt lat="44.48727" lon="5.94706">
        <ele>1305.61</ele>
        <time>2012-05-26T13:07:28Z</time>
      </trkpt>
      <trkpt lat="44.4873" lon="5.94713">
        <ele>1305.13</ele>
        <time>2012-05-26T13:07:30Z</time>
      </trkpt>
      <trkpt lat="44.48723" lon="5.94734">
        <ele>1303.69</ele>
        <time>2012-05-26T13:07:35Z</time>
      </trkpt>
      <trkpt lat="44.48717" lon="5.94752">
        <ele>1302.72</ele>
        <time>2012-05-26T13:07:38Z</time>
      </trkpt>
      <trkpt lat="44.48707" lon="5.94792">
        <ele>1298.88</ele>
        <time>2012-05-26T13:07:45Z</time>
      </trkpt>
      <trkpt lat="44.48703" lon="5.94802">
        <ele>1296.96</ele>
        <time>2012-05-26T13:07:47Z</time>
      </trkpt>
      <trkpt lat="44.48698" lon="5.94826">
        <ele>1292.63</ele>
        <time>2012-05-26T13:07:51Z</time>
      </trkpt>
      <trkpt lat="44.48691" lon="5.94861">
        <ele>1288.3</ele>
        <time>2012-05-26T13:07:55Z</time>
      </trkpt>
      <trkpt lat="44.48688" lon="5.9487">
        <ele>1288.3</ele>
        <time>2012-05-26T13:07:56Z</time>
      </trkpt>
      <trkpt lat="44.48684" lon="5.94893">
        <ele>1284.46</ele>
        <time>2012-05-26T13:07:58Z</time>
      </trkpt>
      <trkpt lat="44.48679" lon="5.94914">
        <ele>1280.61</ele>
        <time>2012-05-26T13:08:02Z</time>
      </trkpt>
      <trkpt lat="44.48677" lon="5.94914">
        <ele>1280.61</ele>
        <time>2012-05-26T13:08:25Z</time>
      </trkpt>
      <trkpt lat="44.48675" lon="5.94919">
        <ele>1279.65</ele>
        <time>2012-05-26T13:08:33Z</time>
      </trkpt>
      <trkpt lat="44.48665" lon="5.94906">
        <ele>1277.73</ele>
        <time>2012-05-26T13:08:42Z</time>
      </trkpt>
      <trkpt lat="44.48657" lon="5.94883">
        <ele>1273.88</ele>
        <time>2012-05-26T13:08:47Z</time>
      </trkpt>
      <trkpt lat="44.48642" lon="5.94876">
        <ele>1269.08</ele>
        <time>2012-05-26T13:08:56Z</time>
      </trkpt>
      <trkpt lat="44.48619" lon="5.9488">
        <ele>1263.31</ele>
        <time>2012-05-26T13:09:05Z</time>
      </trkpt>
      <trkpt lat="44.48612" lon="5.94879">
        <ele>1261.87</ele>
        <time>2012-05-26T13:09:32Z</time>
      </trkpt>
      <trkpt lat="44.48612" lon="5.9488">
        <ele>1261.39</ele>
        <time>2012-05-26T13:09:58Z</time>
      </trkpt>
      <trkpt lat="44.48607" lon="5.94923">
        <ele>1260.91</ele>
        <time>2012-05-26T13:10:14Z</time>
      </trkpt>
      <trkpt lat="44.48606" lon="5.94906">
        <ele>1260.91</ele>
        <time>2012-05-26T13:10:27Z</time>
      </trkpt>
      <trkpt lat="44.48614" lon="5.94966">
        <ele>1260.91</ele>
        <time>2012-05-26T13:10:48Z</time>
      </trkpt>
      <trkpt lat="44.48617" lon="5.94969">
        <ele>1259.94</ele>
        <time>2012-05-26T13:16:34Z</time>
      </trkpt>
      <trkpt lat="44.48614" lon="5.94994">
        <ele>1258.5</ele>
        <time>2012-05-26T13:16:42Z</time>
      </trkpt>
      <trkpt lat="44.48596" lon="5.94982">
        <ele>1256.1</ele>
        <time>2012-05-26T13:16:48Z</time>
      </trkpt>
      <trkpt lat="44.48586" lon="5.94983">
        <ele>1254.66</ele>
        <time>2012-05-26T13:16:50Z</time>
      </trkpt>
      <trkpt lat="44.4858" lon="5.94985">
        <ele>1254.66</ele>
        <time>2012-05-26T13:16:51Z</time>
      </trkpt>
      <trkpt lat="44.48565" lon="5.94986">
        <ele>1250.81</ele>
        <time>2012-05-26T13:16:53Z</time>
      </trkpt>
      <trkpt lat="44.48538" lon="5.9499">
        <ele>1246.97</ele>
        <time>2012-05-26T13:16:57Z</time>
      </trkpt>
      <trkpt lat="44.48534" lon="5.94989">
        <ele>1246.97</ele>
        <time>2012-05-26T13:16:58Z</time>
      </trkpt>
      <trkpt lat="44.48508" lon="5.94882">
        <ele>1249.37</ele>
        <time>2012-05-26T13:17:21Z</time>
      </trkpt>
      <trkpt lat="44.4848" lon="5.94732">
        <ele>1254.18</ele>
        <time>2012-05-26T13:17:56Z</time>
      </trkpt>
      <trkpt lat="44.48463" lon="5.94574">
        <ele>1258.98</ele>
        <time>2012-05-26T13:18:32Z</time>
      </trkpt>
      <trkpt lat="44.48473" lon="5.94499">
        <ele>1261.39</ele>
        <time>2012-05-26T13:18:53Z</time>
      </trkpt>
      <trkpt lat="44.48494" lon="5.94467">
        <ele>1264.75</ele>
        <time>2012-05-26T13:19:09Z</time>
      </trkpt>
      <trkpt lat="44.48514" lon="5.94414">
        <ele>1269.08</ele>
        <time>2012-05-26T13:19:32Z</time>
      </trkpt>
      <trkpt lat="44.48527" lon="5.94363">
        <ele>1272.44</ele>
        <time>2012-05-26T13:19:54Z</time>
      </trkpt>
      <trkpt lat="44.48543" lon="5.94299">
        <ele>1277.25</ele>
        <time>2012-05-26T13:20:24Z</time>
      </trkpt>
      <trkpt lat="44.48544" lon="5.94294">
        <ele>1277.25</ele>
        <time>2012-05-26T13:20:26Z</time>
      </trkpt>
      <trkpt lat="44.48547" lon="5.94289">
        <ele>1277.73</ele>
        <time>2012-05-26T13:20:29Z</time>
      </trkpt>
      <trkpt lat="44.48562" lon="5.94253">
        <ele>1281.09</ele>
        <time>2012-05-26T13:20:47Z</time>
      </trkpt>
      <trkpt lat="44.48583" lon="5.94209">
        <ele>1284.46</ele>
        <time>2012-05-26T13:21:10Z</time>
      </trkpt>
      <trkpt lat="44.4862" lon="5.94121">
        <ele>1290.71</ele>
        <time>2012-05-26T13:21:49Z</time>
      </trkpt>
      <trkpt lat="44.48636" lon="5.94067">
        <ele>1293.11</ele>
        <time>2012-05-26T13:22:11Z</time>
      </trkpt>
      <trkpt lat="44.48573" lon="5.94018">
        <ele>1298.88</ele>
        <time>2012-05-26T13:22:49Z</time>
      </trkpt>
      <trkpt lat="44.48524" lon="5.93941">
        <ele>1303.69</ele>
        <time>2012-05-26T13:23:27Z</time>
      </trkpt>
      <trkpt lat="44.48501" lon="5.93883">
        <ele>1307.05</ele>
        <time>2012-05-26T13:23:51Z</time>
      </trkpt>
      <trkpt lat="44.48494" lon="5.93827">
        <ele>1310.41</ele>
        <time>2012-05-26T13:24:12Z</time>
      </trkpt>
      <trkpt lat="44.48501" lon="5.93762">
        <ele>1314.74</ele>
        <time>2012-05-26T13:24:36Z</time>
      </trkpt>
      <trkpt lat="44.48514" lon="5.93728">
        <ele>1316.18</ele>
        <time>2012-05-26T13:24:53Z</time>
      </trkpt>
      <trkpt lat="44.48515" lon="5.93717">
        <ele>1317.14</ele>
        <time>2012-05-26T13:25:45Z</time>
      </trkpt>
      <trkpt lat="44.48515" lon="5.9372">
        <ele>1314.26</ele>
        <time>2012-05-26T13:52:43Z</time>
      </trkpt>
      <trkpt lat="44.48517" lon="5.93707">
        <ele>1314.26</ele>
        <time>2012-05-26T13:53:38Z</time>
      </trkpt>
      <trkpt lat="44.48521" lon="5.937">
        <ele>1314.26</ele>
        <time>2012-05-26T13:54:18Z</time>
      </trkpt>
      <trkpt lat="44.48522" lon="5.93708">
        <ele>1314.26</ele>
        <time>2012-05-26T13:54:58Z</time>
      </trkpt>
      <trkpt lat="44.48514" lon="5.93713">
        <ele>1314.26</ele>
        <time>2012-05-26T13:55:07Z</time>
      </trkpt>
      <trkpt lat="44.48482" lon="5.93691">
        <ele>1318.1</ele>
        <time>2012-05-26T13:55:28Z</time>
      </trkpt>
      <trkpt lat="44.4846" lon="5.93699">
        <ele>1321.95</ele>
        <time>2012-05-26T13:55:40Z</time>
      </trkpt>
      <trkpt lat="44.48428" lon="5.93728">
        <ele>1326.28</ele>
        <time>2012-05-26T13:56:02Z</time>
      </trkpt>
      <trkpt lat="44.48422" lon="5.93732">
        <ele>1327.72</ele>
        <time>2012-05-26T13:56:08Z</time>
      </trkpt>
      <trkpt lat="44.48421" lon="5.93733">
        <ele>1327.72</ele>
        <time>2012-05-26T13:56:09Z</time>
      </trkpt>
      <trkpt lat="44.48398" lon="5.9375">
        <ele>1331.08</ele>
        <time>2012-05-26T13:56:30Z</time>
      </trkpt>
      <trkpt lat="44.48358" lon="5.93777">
        <ele>1336.85</ele>
        <time>2012-05-26T13:57:06Z</time>
      </trkpt>
      <trkpt lat="44.48338" lon="5.93798">
        <ele>1340.22</ele>
        <time>2012-05-26T13:57:26Z</time>
      </trkpt>
      <trkpt lat="44.48336" lon="5.938">
        <ele>1340.22</ele>
        <time>2012-05-26T13:57:28Z</time>
      </trkpt>
      <trkpt lat="44.48312" lon="5.93811">
        <ele>1343.58</ele>
        <time>2012-05-26T13:57:47Z</time>
      </trkpt>
      <trkpt lat="44.48272" lon="5.93839">
        <ele>1348.87</ele>
        <time>2012-05-26T13:58:23Z</time>
      </trkpt>
      <trkpt lat="44.48253" lon="5.93861">
        <ele>1352.23</ele>
        <time>2012-05-26T13:58:40Z</time>
      </trkpt>
      <trkpt lat="44.48234" lon="5.93873">
        <ele>1354.15</ele>
        <time>2012-05-26T13:58:55Z</time>
      </trkpt>
      <trkpt lat="44.48233" lon="5.93875">
        <ele>1353.67</ele>
        <time>2012-05-26T13:58:56Z</time>
      </trkpt>
      <trkpt lat="44.48216" lon="5.93906">
        <ele>1357.04</ele>
        <time>2012-05-26T13:59:14Z</time>
      </trkpt>
      <trkpt lat="44.48183" lon="5.93951">
        <ele>1363.29</ele>
        <time>2012-05-26T13:59:50Z</time>
      </trkpt>
      <trkpt lat="44.48134" lon="5.94007">
        <ele>1369.05</ele>
        <time>2012-05-26T14:00:44Z</time>
      </trkpt>
      <trkpt lat="44.48119" lon="5.94023">
        <ele>1370.98</ele>
        <time>2012-05-26T14:01:19Z</time>
      </trkpt>
      <trkpt lat="44.48105" lon="5.94052">
        <ele>1374.82</ele>
        <time>2012-05-26T14:01:35Z</time>
      </trkpt>
      <trkpt lat="44.48084" lon="5.94081">
        <ele>1378.19</ele>
        <time>2012-05-26T14:01:53Z</time>
      </trkpt>
      <trkpt lat="44.48047" lon="5.94131">
        <ele>1383.96</ele>
        <time>2012-05-26T14:02:27Z</time>
      </trkpt>
      <trkpt lat="44.48046" lon="5.94131">
        <ele>1383.47</ele>
        <time>2012-05-26T14:02:28Z</time>
      </trkpt>
      <trkpt lat="44.48022" lon="5.94141">
        <ele>1387.8</ele>
        <time>2012-05-26T14:02:44Z</time>
      </trkpt>
      <trkpt lat="44.47964" lon="5.94171">
        <ele>1393.57</ele>
        <time>2012-05-26T14:03:22Z</time>
      </trkpt>
      <trkpt lat="44.4794" lon="5.94185">
        <ele>1397.41</ele>
        <time>2012-05-26T14:03:38Z</time>
      </trkpt>
      <trkpt lat="44.47917" lon="5.94214">
        <ele>1400.78</ele>
        <time>2012-05-26T14:03:57Z</time>
      </trkpt>
      <trkpt lat="44.47901" lon="5.94238">
        <ele>1403.66</ele>
        <time>2012-05-26T14:04:11Z</time>
      </trkpt>
      <trkpt lat="44.47882" lon="5.94273">
        <ele>1407.03</ele>
        <time>2012-05-26T14:04:34Z</time>
      </trkpt>
      <trkpt lat="44.47881" lon="5.94275">
        <ele>1407.03</ele>
        <time>2012-05-26T14:04:35Z</time>
      </trkpt>
      <trkpt lat="44.4787" lon="5.9435">
        <ele>1412.79</ele>
        <time>2012-05-26T14:05:13Z</time>
      </trkpt>
      <trkpt lat="44.47814" lon="5.94386">
        <ele>1419.04</ele>
        <time>2012-05-26T14:05:51Z</time>
      </trkpt>
      <trkpt lat="44.47765" lon="5.94381">
        <ele>1424.33</ele>
        <time>2012-05-26T14:06:22Z</time>
      </trkpt>
      <trkpt lat="44.47719" lon="5.94382">
        <ele>1428.66</ele>
        <time>2012-05-26T14:06:50Z</time>
      </trkpt>
      <trkpt lat="44.47694" lon="5.94398">
        <ele>1432.02</ele>
        <time>2012-05-26T14:07:07Z</time>
      </trkpt>
      <trkpt lat="44.4767" lon="5.94417">
        <ele>1434.91</ele>
        <time>2012-05-26T14:07:25Z</time>
      </trkpt>
      <trkpt lat="44.47645" lon="5.94436">
        <ele>1438.27</ele>
        <time>2012-05-26T14:07:42Z</time>
      </trkpt>
      <trkpt lat="44.47605" lon="5.94464">
        <ele>1442.6</ele>
        <time>2012-05-26T14:08:09Z</time>
      </trkpt>
      <trkpt lat="44.47582" lon="5.94478">
        <ele>1445.48</ele>
        <time>2012-05-26T14:08:27Z</time>
      </trkpt>
      <trkpt lat="44.47557" lon="5.94495">
        <ele>1448.84</ele>
        <time>2012-05-26T14:08:46Z</time>
      </trkpt>
      <trkpt lat="44.47511" lon="5.94538">
        <ele>1454.13</ele>
        <time>2012-05-26T14:09:20Z</time>
      </trkpt>
      <trkpt lat="44.4749" lon="5.94564">
        <ele>1457.5</ele>
        <time>2012-05-26T14:09:37Z</time>
      </trkpt>
      <trkpt lat="44.47464" lon="5.94589">
        <ele>1460.86</ele>
        <time>2012-05-26T14:09:56Z</time>
      </trkpt>
      <trkpt lat="44.47433" lon="5.94617">
        <ele>1464.23</ele>
        <time>2012-05-26T14:10:17Z</time>
      </trkpt>
      <trkpt lat="44.47403" lon="5.94644">
        <ele>1467.11</ele>
        <time>2012-05-26T14:10:38Z</time>
      </trkpt>
      <trkpt lat="44.47387" lon="5.94644">
        <ele>1469.03</ele>
        <time>2012-05-26T14:10:50Z</time>
      </trkpt>
      <trkpt lat="44.47386" lon="5.94639">
        <ele>1469.03</ele>
        <time>2012-05-26T14:10:52Z</time>
      </trkpt>
      <trkpt lat="44.47387" lon="5.94635">
        <ele>1469.51</ele>
        <time>2012-05-26T14:10:54Z</time>
      </trkpt>
      <trkpt lat="44.47411" lon="5.94601">
        <ele>1471.92</ele>
        <time>2012-05-26T14:11:32Z</time>
      </trkpt>
      <trkpt lat="44.47413" lon="5.94599">
        <ele>1473.36</ele>
        <time>2012-05-26T14:13:33Z</time>
      </trkpt>
      <trkpt lat="44.47427" lon="5.94569">
        <ele>1476.24</ele>
        <time>2012-05-26T14:13:50Z</time>
      </trkpt>
      <trkpt lat="44.47451" lon="5.94516">
        <ele>1482.49</ele>
        <time>2012-05-26T14:14:20Z</time>
      </trkpt>
      <trkpt lat="44.47464" lon="5.94478">
        <ele>1485.85</ele>
        <time>2012-05-26T14:14:41Z</time>
      </trkpt>
      <trkpt lat="44.47481" lon="5.94411">
        <ele>1492.1</ele>
        <time>2012-05-26T14:15:17Z</time>
      </trkpt>
      <trkpt lat="44.47505" lon="5.94357">
        <ele>1496.43</ele>
        <time>2012-05-26T14:15:51Z</time>
      </trkpt>
      <trkpt lat="44.47528" lon="5.94336">
        <ele>1498.35</ele>
        <time>2012-05-26T14:16:09Z</time>
      </trkpt>
      <trkpt lat="44.4757" lon="5.94285">
        <ele>1504.6</ele>
        <time>2012-05-26T14:16:47Z</time>
      </trkpt>
      <trkpt lat="44.47602" lon="5.94224">
        <ele>1510.85</ele>
        <time>2012-05-26T14:17:26Z</time>
      </trkpt>
      <trkpt lat="44.47617" lon="5.94175">
        <ele>1515.66</ele>
        <time>2012-05-26T14:17:53Z</time>
      </trkpt>
      <trkpt lat="44.47647" lon="5.94117">
        <ele>1521.42</ele>
        <time>2012-05-26T14:18:33Z</time>
      </trkpt>
      <trkpt lat="44.47672" lon="5.94079">
        <ele>1525.27</ele>
        <time>2012-05-26T14:18:59Z</time>
      </trkpt>
      <trkpt lat="44.47683" lon="5.94061">
        <ele>1527.19</ele>
        <time>2012-05-26T14:19:12Z</time>
      </trkpt>
      <trkpt lat="44.47692" lon="5.94026">
        <ele>1530.56</ele>
        <time>2012-05-26T14:19:34Z</time>
      </trkpt>
      <trkpt lat="44.47694" lon="5.9402">
        <ele>1531.52</ele>
        <time>2012-05-26T14:19:38Z</time>
      </trkpt>
      <trkpt lat="44.47693" lon="5.94007">
        <ele>1532.96</ele>
        <time>2012-05-26T14:19:46Z</time>
      </trkpt>
      <trkpt lat="44.47696" lon="5.93965">
        <ele>1536.8</ele>
        <time>2012-05-26T14:20:10Z</time>
      </trkpt>
      <trkpt lat="44.47701" lon="5.93927">
        <ele>1540.17</ele>
        <time>2012-05-26T14:20:33Z</time>
      </trkpt>
      <trkpt lat="44.47706" lon="5.93884">
        <ele>1543.53</ele>
        <time>2012-05-26T14:20:56Z</time>
      </trkpt>
      <trkpt lat="44.47725" lon="5.93856">
        <ele>1546.42</ele>
        <time>2012-05-26T14:21:19Z</time>
      </trkpt>
      <trkpt lat="44.47737" lon="5.93838">
        <ele>1548.82</ele>
        <time>2012-05-26T14:21:33Z</time>
      </trkpt>
      <trkpt lat="44.47751" lon="5.93795">
        <ele>1552.67</ele>
        <time>2012-05-26T14:21:58Z</time>
      </trkpt>
      <trkpt lat="44.47749" lon="5.9376">
        <ele>1556.03</ele>
        <time>2012-05-26T14:22:17Z</time>
      </trkpt>
      <trkpt lat="44.47752" lon="5.93716">
        <ele>1555.55</ele>
        <time>2012-05-26T14:22:33Z</time>
      </trkpt>
      <trkpt lat="44.47779" lon="5.93632">
        <ele>1559.88</ele>
        <time>2012-05-26T14:23:08Z</time>
      </trkpt>
      <trkpt lat="44.47778" lon="5.9359">
        <ele>1563.24</ele>
        <time>2012-05-26T14:23:27Z</time>
      </trkpt>
      <trkpt lat="44.47769" lon="5.93533">
        <ele>1569.49</ele>
        <time>2012-05-26T14:23:59Z</time>
      </trkpt>
      <trkpt lat="44.47774" lon="5.93519">
        <ele>1569.97</ele>
        <time>2012-05-26T14:24:08Z</time>
      </trkpt>
      <trkpt lat="44.47794" lon="5.93458">
        <ele>1574.78</ele>
        <time>2012-05-26T14:24:41Z</time>
      </trkpt>
      <trkpt lat="44.47764" lon="5.9345">
        <ele>1579.1</ele>
        <time>2012-05-26T14:25:12Z</time>
      </trkpt>
      <trkpt lat="44.47743" lon="5.93437">
        <ele>1582.95</ele>
        <time>2012-05-26T14:25:32Z</time>
      </trkpt>
      <trkpt lat="44.4774" lon="5.93427">
        <ele>1584.39</ele>
        <time>2012-05-26T14:26:26Z</time>
      </trkpt>
      <trkpt lat="44.47743" lon="5.93422">
        <ele>1583.43</ele>
        <time>2012-05-26T14:27:02Z</time>
      </trkpt>
      <trkpt lat="44.47742" lon="5.93422">
        <ele>1585.35</ele>
        <time>2012-05-26T14:27:56Z</time>
      </trkpt>
      <trkpt lat="44.47729" lon="5.93426">
        <ele>1583.91</ele>
        <time>2012-05-26T14:28:02Z</time>
      </trkpt>
      <trkpt lat="44.47682" lon="5.93445">
        <ele>1580.54</ele>
        <time>2012-05-26T14:28:13Z</time>
      </trkpt>
      <trkpt lat="44.47676" lon="5.93446">
        <ele>1580.06</ele>
        <time>2012-05-26T14:28:14Z</time>
      </trkpt>
      <trkpt lat="44.47638" lon="5.93455">
        <ele>1575.74</ele>
        <time>2012-05-26T14:28:20Z</time>
      </trkpt>
      <trkpt lat="44.4757" lon="5.93455">
        <ele>1571.41</ele>
        <time>2012-05-26T14:28:31Z</time>
      </trkpt>
      <trkpt lat="44.47564" lon="5.93453">
        <ele>1571.89</ele>
        <time>2012-05-26T14:28:32Z</time>
      </trkpt>
      <trkpt lat="44.47536" lon="5.93451">
        <ele>1571.89</ele>
        <time>2012-05-26T14:28:44Z</time>
      </trkpt>
      <trkpt lat="44.47524" lon="5.9345">
        <ele>1571.41</ele>
        <time>2012-05-26T14:28:58Z</time>
      </trkpt>
      <trkpt lat="44.47518" lon="5.93443">
        <ele>1569.97</ele>
        <time>2012-05-26T14:29:00Z</time>
      </trkpt>
      <trkpt lat="44.4751" lon="5.93429">
        <ele>1566.61</ele>
        <time>2012-05-26T14:29:04Z</time>
      </trkpt>
      <trkpt lat="44.4751" lon="5.93384">
        <ele>1561.32</ele>
        <time>2012-05-26T14:29:11Z</time>
      </trkpt>
      <trkpt lat="44.47527" lon="5.93368">
        <ele>1556.99</ele>
        <time>2012-05-26T14:29:15Z</time>
      </trkpt>
      <trkpt lat="44.47537" lon="5.93363">
        <ele>1553.63</ele>
        <time>2012-05-26T14:29:21Z</time>
      </trkpt>
      <trkpt lat="44.47514" lon="5.93352">
        <ele>1548.34</ele>
        <time>2012-05-26T14:29:30Z</time>
      </trkpt>
      <trkpt lat="44.4751" lon="5.9335">
        <ele>1548.34</ele>
        <time>2012-05-26T14:29:31Z</time>
      </trkpt>
      <trkpt lat="44.475" lon="5.93349">
        <ele>1544.98</ele>
        <time>2012-05-26T14:29:33Z</time>
      </trkpt>
      <trkpt lat="44.4749" lon="5.93347">
        <ele>1541.61</ele>
        <time>2012-05-26T14:29:35Z</time>
      </trkpt>
      <trkpt lat="44.47482" lon="5.93345">
        <ele>1539.21</ele>
        <time>2012-05-26T14:29:43Z</time>
      </trkpt>
      <trkpt lat="44.47498" lon="5.93326">
        <ele>1535.84</ele>
        <time>2012-05-26T14:29:49Z</time>
      </trkpt>
      <trkpt lat="44.47503" lon="5.93321">
        <ele>1534.4</ele>
        <time>2012-05-26T14:29:51Z</time>
      </trkpt>
      <trkpt lat="44.47505" lon="5.9332">
        <ele>1533.92</ele>
        <time>2012-05-26T14:30:10Z</time>
      </trkpt>
      <trkpt lat="44.47502" lon="5.9332">
        <ele>1532.96</ele>
        <time>2012-05-26T14:30:44Z</time>
      </trkpt>
      <trkpt lat="44.47494" lon="5.93316">
        <ele>1531.52</ele>
        <time>2012-05-26T14:30:47Z</time>
      </trkpt>
      <trkpt lat="44.47479" lon="5.93311">
        <ele>1526.23</ele>
        <time>2012-05-26T14:30:51Z</time>
      </trkpt>
      <trkpt lat="44.47469" lon="5.93311">
        <ele>1522.87</ele>
        <time>2012-05-26T14:30:53Z</time>
      </trkpt>
      <trkpt lat="44.47456" lon="5.93312">
        <ele>1519.98</ele>
        <time>2012-05-26T14:30:55Z</time>
      </trkpt>
      <trkpt lat="44.47449" lon="5.93315">
        <ele>1519.98</ele>
        <time>2012-05-26T14:30:56Z</time>
      </trkpt>
      <trkpt lat="44.47432" lon="5.93327">
        <ele>1515.18</ele>
        <time>2012-05-26T14:30:59Z</time>
      </trkpt>
      <trkpt lat="44.47408" lon="5.93344">
        <ele>1507.97</ele>
        <time>2012-05-26T14:31:06Z</time>
      </trkpt>
      <trkpt lat="44.47404" lon="5.93342">
        <ele>1506.52</ele>
        <time>2012-05-26T14:31:10Z</time>
      </trkpt>
      <trkpt lat="44.47404" lon="5.93339">
        <ele>1506.52</ele>
        <time>2012-05-26T14:31:11Z</time>
      </trkpt>
      <trkpt lat="44.47403" lon="5.93322">
        <ele>1503.16</ele>
        <time>2012-05-26T14:31:15Z</time>
      </trkpt>
      <trkpt lat="44.47402" lon="5.93303">
        <ele>1499.31</ele>
        <time>2012-05-26T14:31:19Z</time>
      </trkpt>
      <trkpt lat="44.47403" lon="5.93286">
        <ele>1496.43</ele>
        <time>2012-05-26T14:31:22Z</time>
      </trkpt>
      <trkpt lat="44.47409" lon="5.93261">
        <ele>1491.14</ele>
        <time>2012-05-26T14:31:26Z</time>
      </trkpt>
      <trkpt lat="44.47414" lon="5.93241">
        <ele>1487.78</ele>
        <time>2012-05-26T14:31:30Z</time>
      </trkpt>
      <trkpt lat="44.47413" lon="5.93236">
        <ele>1484.89</ele>
        <time>2012-05-26T14:31:51Z</time>
      </trkpt>
      <trkpt lat="44.47413" lon="5.93236">
        <ele>1484.41</ele>
        <time>2012-05-26T14:31:52Z</time>
      </trkpt>
      <trkpt lat="44.47408" lon="5.93237">
        <ele>1483.93</ele>
        <time>2012-05-26T14:31:54Z</time>
      </trkpt>
      <trkpt lat="44.47406" lon="5.9324">
        <ele>1482.97</ele>
        <time>2012-05-26T14:31:56Z</time>
      </trkpt>
      <trkpt lat="44.47391" lon="5.93249">
        <ele>1478.16</ele>
        <time>2012-05-26T14:32:15Z</time>
      </trkpt>
      <trkpt lat="44.47362" lon="5.93261">
        <ele>1471.92</ele>
        <time>2012-05-26T14:32:21Z</time>
      </trkpt>
      <trkpt lat="44.47339" lon="5.93272">
        <ele>1466.15</ele>
        <time>2012-05-26T14:32:26Z</time>
      </trkpt>
      <trkpt lat="44.47294" lon="5.9329">
        <ele>1461.34</ele>
        <time>2012-05-26T14:32:34Z</time>
      </trkpt>
      <trkpt lat="44.47287" lon="5.93288">
        <ele>1459.9</ele>
        <time>2012-05-26T14:32:36Z</time>
      </trkpt>
      <trkpt lat="44.47273" lon="5.9328">
        <ele>1456.53</ele>
        <time>2012-05-26T14:32:39Z</time>
      </trkpt>
      <trkpt lat="44.4727" lon="5.93275">
        <ele>1456.05</ele>
        <time>2012-05-26T14:32:40Z</time>
      </trkpt>
      <trkpt lat="44.47238" lon="5.93217">
        <ele>1454.61</ele>
        <time>2012-05-26T14:33:02Z</time>
      </trkpt>
      <trkpt lat="44.47238" lon="5.93216">
        <ele>1454.61</ele>
        <time>2012-05-26T14:33:08Z</time>
      </trkpt>
      <trkpt lat="44.47243" lon="5.93151">
        <ele>1454.13</ele>
        <time>2012-05-26T14:33:27Z</time>
      </trkpt>
      <trkpt lat="44.4724" lon="5.93132">
        <ele>1454.61</ele>
        <time>2012-05-26T14:33:32Z</time>
      </trkpt>
      <trkpt lat="44.47242" lon="5.93056">
        <ele>1453.65</ele>
        <time>2012-05-26T14:33:44Z</time>
      </trkpt>
      <trkpt lat="44.47248" lon="5.92997">
        <ele>1454.61</ele>
        <time>2012-05-26T14:33:56Z</time>
      </trkpt>
      <trkpt lat="44.47256" lon="5.9294">
        <ele>1456.53</ele>
        <time>2012-05-26T14:34:15Z</time>
      </trkpt>
      <trkpt lat="44.47258" lon="5.92934">
        <ele>1457.02</ele>
        <time>2012-05-26T14:34:48Z</time>
      </trkpt>
      <trkpt lat="44.47257" lon="5.92933">
        <ele>1457.02</ele>
        <time>2012-05-26T14:34:49Z</time>
      </trkpt>
      <trkpt lat="44.47253" lon="5.9289">
        <ele>1457.98</ele>
        <time>2012-05-26T14:35:02Z</time>
      </trkpt>
      <trkpt lat="44.47253" lon="5.92878">
        <ele>1458.46</ele>
        <time>2012-05-26T14:35:10Z</time>
      </trkpt>
      <trkpt lat="44.47233" lon="5.92843">
        <ele>1457.5</ele>
        <time>2012-05-26T14:35:28Z</time>
      </trkpt>
      <trkpt lat="44.47226" lon="5.9283">
        <ele>1457.98</ele>
        <time>2012-05-26T14:35:39Z</time>
      </trkpt>
      <trkpt lat="44.47222" lon="5.9277">
        <ele>1457.98</ele>
        <time>2012-05-26T14:35:54Z</time>
      </trkpt>
      <trkpt lat="44.47217" lon="5.92743">
        <ele>1457.5</ele>
        <time>2012-05-26T14:36:15Z</time>
      </trkpt>
      <trkpt lat="44.47214" lon="5.92698">
        <ele>1457.02</ele>
        <time>2012-05-26T14:36:42Z</time>
      </trkpt>
      <trkpt lat="44.47207" lon="5.92668">
        <ele>1456.53</ele>
        <time>2012-05-26T14:37:02Z</time>
      </trkpt>
      <trkpt lat="44.47206" lon="5.92655">
        <ele>1456.05</ele>
        <time>2012-05-26T14:37:12Z</time>
      </trkpt>
      <trkpt lat="44.47205" lon="5.92641">
        <ele>1454.61</ele>
        <time>2012-05-26T14:37:18Z</time>
      </trkpt>
      <trkpt lat="44.47199" lon="5.92615">
        <ele>1451.73</ele>
        <time>2012-05-26T14:37:41Z</time>
      </trkpt>
      <trkpt lat="44.47188" lon="5.92581">
        <ele>1449.32</ele>
        <time>2012-05-26T14:38:30Z</time>
      </trkpt>
      <trkpt lat="44.47178" lon="5.92546">
        <ele>1446.92</ele>
        <time>2012-05-26T14:38:43Z</time>
      </trkpt>
      <trkpt lat="44.47177" lon="5.92545">
        <ele>1446.92</ele>
        <time>2012-05-26T14:38:44Z</time>
      </trkpt>
      <trkpt lat="44.47175" lon="5.92539">
        <ele>1446.44</ele>
        <time>2012-05-26T14:38:48Z</time>
      </trkpt>
      <trkpt lat="44.47174" lon="5.92533">
        <ele>1445</ele>
        <time>2012-05-26T14:38:50Z</time>
      </trkpt>
      <trkpt lat="44.47163" lon="5.92488">
        <ele>1439.71</ele>
        <time>2012-05-26T14:39:11Z</time>
      </trkpt>
      <trkpt lat="44.47162" lon="5.92478">
        <ele>1438.27</ele>
        <time>2012-05-26T14:39:23Z</time>
      </trkpt>
      <trkpt lat="44.47147" lon="5.92448">
        <ele>1437.31</ele>
        <time>2012-05-26T14:39:34Z</time>
      </trkpt>
      <trkpt lat="44.47132" lon="5.92437">
        <ele>1439.23</ele>
        <time>2012-05-26T14:39:59Z</time>
      </trkpt>
      <trkpt lat="44.47128" lon="5.92434">
        <ele>1440.67</ele>
        <time>2012-05-26T14:40:05Z</time>
      </trkpt>
      <trkpt lat="44.47123" lon="5.92423">
        <ele>1440.67</ele>
        <time>2012-05-26T14:40:12Z</time>
      </trkpt>
      <trkpt lat="44.47115" lon="5.92406">
        <ele>1440.19</ele>
        <time>2012-05-26T14:40:18Z</time>
      </trkpt>
      <trkpt lat="44.47101" lon="5.92402">
        <ele>1440.19</ele>
        <time>2012-05-26T14:40:24Z</time>
      </trkpt>
      <trkpt lat="44.47079" lon="5.92417">
        <ele>1442.11</ele>
        <time>2012-05-26T14:40:38Z</time>
      </trkpt>
      <trkpt lat="44.47029" lon="5.92468">
        <ele>1437.79</ele>
        <time>2012-05-26T14:40:59Z</time>
      </trkpt>
      <trkpt lat="44.46962" lon="5.92524">
        <ele>1435.39</ele>
        <time>2012-05-26T14:41:17Z</time>
      </trkpt>
      <trkpt lat="44.4695" lon="5.92532">
        <ele>1433.46</ele>
        <time>2012-05-26T14:41:20Z</time>
      </trkpt>
      <trkpt lat="44.46948" lon="5.9253">
        <ele>1433.46</ele>
        <time>2012-05-26T14:41:21Z</time>
      </trkpt>
      <trkpt lat="44.46946" lon="5.92526">
        <ele>1432.98</ele>
        <time>2012-05-26T14:41:22Z</time>
      </trkpt>
      <trkpt lat="44.46936" lon="5.92514">
        <ele>1429.14</ele>
        <time>2012-05-26T14:41:25Z</time>
      </trkpt>
      <trkpt lat="44.46935" lon="5.9251">
        <ele>1428.66</ele>
        <time>2012-05-26T14:41:26Z</time>
      </trkpt>
      <trkpt lat="44.46931" lon="5.92496">
        <ele>1427.21</ele>
        <time>2012-05-26T14:41:41Z</time>
      </trkpt>
      <trkpt lat="44.46928" lon="5.92488">
        <ele>1426.25</ele>
        <time>2012-05-26T14:45:14Z</time>
      </trkpt>
      <trkpt lat="44.46928" lon="5.92483">
        <ele>1425.77</ele>
        <time>2012-05-26T14:45:15Z</time>
      </trkpt>
      <trkpt lat="44.46917" lon="5.92447">
        <ele>1424.81</ele>
        <time>2012-05-26T14:45:21Z</time>
      </trkpt>
      <trkpt lat="44.469" lon="5.92403">
        <ele>1423.37</ele>
        <time>2012-05-26T14:46:30Z</time>
      </trkpt>
      <trkpt lat="44.46887" lon="5.92345">
        <ele>1421.45</ele>
        <time>2012-05-26T14:47:18Z</time>
      </trkpt>
      <trkpt lat="44.46879" lon="5.92301">
        <ele>1420</ele>
        <time>2012-05-26T14:47:29Z</time>
      </trkpt>
      <trkpt lat="44.4689" lon="5.92233">
        <ele>1423.37</ele>
        <time>2012-05-26T14:47:52Z</time>
      </trkpt>
      <trkpt lat="44.46892" lon="5.92203">
        <ele>1422.41</ele>
        <time>2012-05-26T14:48:03Z</time>
      </trkpt>
      <trkpt lat="44.46872" lon="5.9216">
        <ele>1421.93</ele>
        <time>2012-05-26T14:48:26Z</time>
      </trkpt>
      <trkpt lat="44.46864" lon="5.92154">
        <ele>1420.97</ele>
        <time>2012-05-26T14:48:28Z</time>
      </trkpt>
      <trkpt lat="44.46844" lon="5.92141">
        <ele>1418.08</ele>
        <time>2012-05-26T14:48:48Z</time>
      </trkpt>
      <trkpt lat="44.4684" lon="5.92139">
        <ele>1418.56</ele>
        <time>2012-05-26T14:48:57Z</time>
      </trkpt>
      <trkpt lat="44.46817" lon="5.92118">
        <ele>1414.72</ele>
        <time>2012-05-26T14:49:05Z</time>
      </trkpt>
      <trkpt lat="44.46806" lon="5.9211">
        <ele>1413.76</ele>
        <time>2012-05-26T14:49:08Z</time>
      </trkpt>
      <trkpt lat="44.46779" lon="5.92071">
        <ele>1411.35</ele>
        <time>2012-05-26T14:49:15Z</time>
      </trkpt>
      <trkpt lat="44.46741" lon="5.9204">
        <ele>1407.99</ele>
        <time>2012-05-26T14:49:22Z</time>
      </trkpt>
      <trkpt lat="44.46736" lon="5.92036">
        <ele>1407.99</ele>
        <time>2012-05-26T14:49:23Z</time>
      </trkpt>
      <trkpt lat="44.46721" lon="5.92028">
        <ele>1406.07</ele>
        <time>2012-05-26T14:49:27Z</time>
      </trkpt>
      <trkpt lat="44.46701" lon="5.92012">
        <ele>1404.62</ele>
        <time>2012-05-26T14:49:31Z</time>
      </trkpt>
      <trkpt lat="44.46699" lon="5.92008">
        <ele>1404.14</ele>
        <time>2012-05-26T14:49:32Z</time>
      </trkpt>
      <trkpt lat="44.46696" lon="5.92005">
        <ele>1403.66</ele>
        <time>2012-05-26T14:49:33Z</time>
      </trkpt>
      <trkpt lat="44.46685" lon="5.91982">
        <ele>1400.3</ele>
        <time>2012-05-26T14:49:37Z</time>
      </trkpt>
      <trkpt lat="44.46686" lon="5.91968">
        <ele>1398.86</ele>
        <time>2012-05-26T14:49:39Z</time>
      </trkpt>
      <trkpt lat="44.46692" lon="5.91951">
        <ele>1397.41</ele>
        <time>2012-05-26T14:49:42Z</time>
      </trkpt>
      <trkpt lat="44.46706" lon="5.91933">
        <ele>1393.57</ele>
        <time>2012-05-26T14:49:48Z</time>
      </trkpt>
      <trkpt lat="44.46716" lon="5.91922">
        <ele>1392.61</ele>
        <time>2012-05-26T14:49:51Z</time>
      </trkpt>
      <trkpt lat="44.46725" lon="5.91915">
        <ele>1389.72</ele>
        <time>2012-05-26T14:49:54Z</time>
      </trkpt>
      <trkpt lat="44.46726" lon="5.91914">
        <ele>1389.72</ele>
        <time>2012-05-26T14:49:55Z</time>
      </trkpt>
      <trkpt lat="44.4673" lon="5.9191">
        <ele>1388.76</ele>
        <time>2012-05-26T14:50:49Z</time>
      </trkpt>
      <trkpt lat="44.46758" lon="5.91885">
        <ele>1385.88</ele>
        <time>2012-05-26T14:51:11Z</time>
      </trkpt>
      <trkpt lat="44.46765" lon="5.91877">
        <ele>1384.44</ele>
        <time>2012-05-26T14:51:13Z</time>
      </trkpt>
      <trkpt lat="44.46792" lon="5.91841">
        <ele>1381.07</ele>
        <time>2012-05-26T14:51:20Z</time>
      </trkpt>
      <trkpt lat="44.46797" lon="5.91831">
        <ele>1381.07</ele>
        <time>2012-05-26T14:51:28Z</time>
      </trkpt>
      <trkpt lat="44.46815" lon="5.91802">
        <ele>1379.63</ele>
        <time>2012-05-26T14:51:39Z</time>
      </trkpt>
      <trkpt lat="44.46847" lon="5.9178">
        <ele>1373.86</ele>
        <time>2012-05-26T14:51:47Z</time>
      </trkpt>
      <trkpt lat="44.46865" lon="5.91769">
        <ele>1371.46</ele>
        <time>2012-05-26T14:52:07Z</time>
      </trkpt>
      <trkpt lat="44.46898" lon="5.91759">
        <ele>1366.65</ele>
        <time>2012-05-26T14:52:17Z</time>
      </trkpt>
      <trkpt lat="44.46916" lon="5.9176">
        <ele>1362.33</ele>
        <time>2012-05-26T14:52:29Z</time>
      </trkpt>
      <trkpt lat="44.46916" lon="5.91761">
        <ele>1364.25</ele>
        <time>2012-05-26T14:52:34Z</time>
      </trkpt>
      <trkpt lat="44.46916" lon="5.91759">
        <ele>1362.81</ele>
        <time>2012-05-26T14:52:48Z</time>
      </trkpt>
      <trkpt lat="44.46896" lon="5.91756">
        <ele>1367.61</ele>
        <time>2012-05-26T14:53:00Z</time>
      </trkpt>
      <trkpt lat="44.46892" lon="5.91754">
        <ele>1365.69</ele>
        <time>2012-05-26T14:53:14Z</time>
      </trkpt>
      <trkpt lat="44.46886" lon="5.91749">
        <ele>1364.73</ele>
        <time>2012-05-26T14:54:26Z</time>
      </trkpt>
      <trkpt lat="44.46865" lon="5.91728">
        <ele>1361.36</ele>
        <time>2012-05-26T14:54:33Z</time>
      </trkpt>
      <trkpt lat="44.46849" lon="5.91714">
        <ele>1358.48</ele>
        <time>2012-05-26T14:54:36Z</time>
      </trkpt>
      <trkpt lat="44.46822" lon="5.91677">
        <ele>1354.15</ele>
        <time>2012-05-26T14:54:41Z</time>
      </trkpt>
      <trkpt lat="44.46818" lon="5.91669">
        <ele>1353.19</ele>
        <time>2012-05-26T14:54:42Z</time>
      </trkpt>
      <trkpt lat="44.46812" lon="5.91639">
        <ele>1347.43</ele>
        <time>2012-05-26T14:54:46Z</time>
      </trkpt>
      <trkpt lat="44.46816" lon="5.91607">
        <ele>1344.06</ele>
        <time>2012-05-26T14:54:51Z</time>
      </trkpt>
      <trkpt lat="44.46811" lon="5.916">
        <ele>1344.06</ele>
        <time>2012-05-26T14:55:03Z</time>
      </trkpt>
      <trkpt lat="44.46806" lon="5.91592">
        <ele>1340.7</ele>
        <time>2012-05-26T14:55:20Z</time>
      </trkpt>
      <trkpt lat="44.468" lon="5.91584">
        <ele>1337.33</ele>
        <time>2012-05-26T14:56:00Z</time>
      </trkpt>
      <trkpt lat="44.46789" lon="5.9159">
        <ele>1333.97</ele>
        <time>2012-05-26T14:56:05Z</time>
      </trkpt>
      <trkpt lat="44.46783" lon="5.91593">
        <ele>1331.56</ele>
        <time>2012-05-26T14:56:08Z</time>
      </trkpt>
      <trkpt lat="44.46782" lon="5.91571">
        <ele>1328.2</ele>
        <time>2012-05-26T14:56:16Z</time>
      </trkpt>
      <trkpt lat="44.46781" lon="5.9157">
        <ele>1328.2</ele>
        <time>2012-05-26T14:56:17Z</time>
      </trkpt>
      <trkpt lat="44.46779" lon="5.91572">
        <ele>1327.24</ele>
        <time>2012-05-26T14:56:20Z</time>
      </trkpt>
      <trkpt lat="44.46756" lon="5.91596">
        <ele>1322.43</ele>
        <time>2012-05-26T14:56:30Z</time>
      </trkpt>
      <trkpt lat="44.46754" lon="5.91597">
        <ele>1322.43</ele>
        <time>2012-05-26T14:56:31Z</time>
      </trkpt>
      <trkpt lat="44.46752" lon="5.91594">
        <ele>1320.51</ele>
        <time>2012-05-26T14:56:40Z</time>
      </trkpt>
      <trkpt lat="44.46754" lon="5.9158">
        <ele>1318.59</ele>
        <time>2012-05-26T14:56:44Z</time>
      </trkpt>
      <trkpt lat="44.46754" lon="5.91569">
        <ele>1317.14</ele>
        <time>2012-05-26T14:56:47Z</time>
      </trkpt>
      <trkpt lat="44.46756" lon="5.91552">
        <ele>1313.78</ele>
        <time>2012-05-26T14:56:53Z</time>
      </trkpt>
      <trkpt lat="44.46756" lon="5.9155">
        <ele>1313.78</ele>
        <time>2012-05-26T14:56:54Z</time>
      </trkpt>
      <trkpt lat="44.46734" lon="5.91575">
        <ele>1308.49</ele>
        <time>2012-05-26T14:57:04Z</time>
      </trkpt>
      <trkpt lat="44.46718" lon="5.91586">
        <ele>1305.13</ele>
        <time>2012-05-26T14:57:09Z</time>
      </trkpt>
      <trkpt lat="44.46703" lon="5.91597">
        <ele>1300.8</ele>
        <time>2012-05-26T14:57:25Z</time>
      </trkpt>
      <trkpt lat="44.46703" lon="5.91596">
        <ele>1300.32</ele>
        <time>2012-05-26T14:57:26Z</time>
      </trkpt>
      <trkpt lat="44.46705" lon="5.9159">
        <ele>1299.36</ele>
        <time>2012-05-26T14:57:31Z</time>
      </trkpt>
      <trkpt lat="44.46703" lon="5.91587">
        <ele>1297.92</ele>
        <time>2012-05-26T14:57:43Z</time>
      </trkpt>
      <trkpt lat="44.46693" lon="5.91593">
        <ele>1295.03</ele>
        <time>2012-05-26T14:57:48Z</time>
      </trkpt>
      <trkpt lat="44.46685" lon="5.91598">
        <ele>1291.67</ele>
        <time>2012-05-26T14:57:51Z</time>
      </trkpt>
      <trkpt lat="44.46669" lon="5.91613">
        <ele>1287.82</ele>
        <time>2012-05-26T14:57:55Z</time>
      </trkpt>
      <trkpt lat="44.46654" lon="5.91626">
        <ele>1283.5</ele>
        <time>2012-05-26T14:58:00Z</time>
      </trkpt>
      <trkpt lat="44.46637" lon="5.91642">
        <ele>1279.17</ele>
        <time>2012-05-26T14:58:06Z</time>
      </trkpt>
      <trkpt lat="44.46635" lon="5.91639">
        <ele>1278.21</ele>
        <time>2012-05-26T14:58:09Z</time>
      </trkpt>
      <trkpt lat="44.46637" lon="5.91622">
        <ele>1274.85</ele>
        <time>2012-05-26T14:58:14Z</time>
      </trkpt>
      <trkpt lat="44.4664" lon="5.91599">
        <ele>1271.48</ele>
        <time>2012-05-26T14:58:19Z</time>
      </trkpt>
      <trkpt lat="44.46646" lon="5.91586">
        <ele>1268.6</ele>
        <time>2012-05-26T14:58:57Z</time>
      </trkpt>
      <trkpt lat="44.46647" lon="5.91582">
        <ele>1268.12</ele>
        <time>2012-05-26T14:59:23Z</time>
      </trkpt>
      <trkpt lat="44.46653" lon="5.91553">
        <ele>1263.79</ele>
        <time>2012-05-26T14:59:28Z</time>
      </trkpt>
      <trkpt lat="44.46659" lon="5.91516">
        <ele>1257.06</ele>
        <time>2012-05-26T14:59:33Z</time>
      </trkpt>
      <trkpt lat="44.46661" lon="5.91509">
        <ele>1256.1</ele>
        <time>2012-05-26T14:59:34Z</time>
      </trkpt>
      <trkpt lat="44.46667" lon="5.91486">
        <ele>1252.25</ele>
        <time>2012-05-26T14:59:38Z</time>
      </trkpt>
      <trkpt lat="44.46664" lon="5.91465">
        <ele>1246.97</ele>
        <time>2012-05-26T14:59:43Z</time>
      </trkpt>
      <trkpt lat="44.46662" lon="5.9146">
        <ele>1246.97</ele>
        <time>2012-05-26T14:59:44Z</time>
      </trkpt>
      <trkpt lat="44.46662" lon="5.91446">
        <ele>1243.12</ele>
        <time>2012-05-26T14:59:47Z</time>
      </trkpt>
      <trkpt lat="44.46659" lon="5.91434">
        <ele>1240.24</ele>
        <time>2012-05-26T14:59:50Z</time>
      </trkpt>
      <trkpt lat="44.46657" lon="5.91422">
        <ele>1238.32</ele>
        <time>2012-05-26T14:59:53Z</time>
      </trkpt>
      <trkpt lat="44.46654" lon="5.91397">
        <ele>1233.99</ele>
        <time>2012-05-26T14:59:58Z</time>
      </trkpt>
      <trkpt lat="44.46654" lon="5.91373">
        <ele>1231.11</ele>
        <time>2012-05-26T15:00:02Z</time>
      </trkpt>
      <trkpt lat="44.46653" lon="5.91359">
        <ele>1228.7</ele>
        <time>2012-05-26T15:00:05Z</time>
      </trkpt>
      <trkpt lat="44.46633" lon="5.91374">
        <ele>1221.49</ele>
        <time>2012-05-26T15:00:12Z</time>
      </trkpt>
      <trkpt lat="44.46626" lon="5.91388">
        <ele>1218.13</ele>
        <time>2012-05-26T15:00:16Z</time>
      </trkpt>
      <trkpt lat="44.46624" lon="5.9139">
        <ele>1217.17</ele>
        <time>2012-05-26T15:00:17Z</time>
      </trkpt>
      <trkpt lat="44.46614" lon="5.91397">
        <ele>1212.36</ele>
        <time>2012-05-26T15:00:20Z</time>
      </trkpt>
      <trkpt lat="44.4661" lon="5.914">
        <ele>1212.84</ele>
        <time>2012-05-26T15:00:21Z</time>
      </trkpt>
      <trkpt lat="44.46602" lon="5.91418">
        <ele>1209.48</ele>
        <time>2012-05-26T15:00:38Z</time>
      </trkpt>
      <trkpt lat="44.46601" lon="5.91417">
        <ele>1209</ele>
        <time>2012-05-26T15:00:48Z</time>
      </trkpt>
      <trkpt lat="44.46585" lon="5.9142">
        <ele>1204.19</ele>
        <time>2012-05-26T15:00:52Z</time>
      </trkpt>
      <trkpt lat="44.46569" lon="5.91424">
        <ele>1200.82</ele>
        <time>2012-05-26T15:00:56Z</time>
      </trkpt>
      <trkpt lat="44.46559" lon="5.91429">
        <ele>1197.46</ele>
        <time>2012-05-26T15:00:59Z</time>
      </trkpt>
      <trkpt lat="44.46559" lon="5.91412">
        <ele>1194.09</ele>
        <time>2012-05-26T15:01:03Z</time>
      </trkpt>
      <trkpt lat="44.46547" lon="5.91408">
        <ele>1190.25</ele>
        <time>2012-05-26T15:01:07Z</time>
      </trkpt>
      <trkpt lat="44.46542" lon="5.91378">
        <ele>1183.52</ele>
        <time>2012-05-26T15:01:15Z</time>
      </trkpt>
      <trkpt lat="44.4653" lon="5.91382">
        <ele>1179.67</ele>
        <time>2012-05-26T15:01:21Z</time>
      </trkpt>
      <trkpt lat="44.46521" lon="5.91369">
        <ele>1176.31</ele>
        <time>2012-05-26T15:01:27Z</time>
      </trkpt>
      <trkpt lat="44.46499" lon="5.91385">
        <ele>1172.95</ele>
        <time>2012-05-26T15:01:32Z</time>
      </trkpt>
      <trkpt lat="44.46493" lon="5.91371">
        <ele>1169.58</ele>
        <time>2012-05-26T15:01:38Z</time>
      </trkpt>
      <trkpt lat="44.46481" lon="5.91373">
        <ele>1165.74</ele>
        <time>2012-05-26T15:01:45Z</time>
      </trkpt>
      <trkpt lat="44.46481" lon="5.91372">
        <ele>1166.22</ele>
        <time>2012-05-26T15:01:46Z</time>
      </trkpt>
      <trkpt lat="44.46484" lon="5.91359">
        <ele>1162.85</ele>
        <time>2012-05-26T15:01:50Z</time>
      </trkpt>
      <trkpt lat="44.46477" lon="5.91355">
        <ele>1159.97</ele>
        <time>2012-05-26T15:01:55Z</time>
      </trkpt>
      <trkpt lat="44.46461" lon="5.91343">
        <ele>1155.64</ele>
        <time>2012-05-26T15:02:02Z</time>
      </trkpt>
      <trkpt lat="44.46452" lon="5.91338">
        <ele>1152.28</ele>
        <time>2012-05-26T15:02:06Z</time>
      </trkpt>
      <trkpt lat="44.46468" lon="5.91313">
        <ele>1148.43</ele>
        <time>2012-05-26T15:02:14Z</time>
      </trkpt>
      <trkpt lat="44.46467" lon="5.91311">
        <ele>1146.51</ele>
        <time>2012-05-26T15:02:16Z</time>
      </trkpt>
      <trkpt lat="44.46448" lon="5.913">
        <ele>1143.14</ele>
        <time>2012-05-26T15:02:20Z</time>
      </trkpt>
      <trkpt lat="44.46441" lon="5.91297">
        <ele>1143.14</ele>
        <time>2012-05-26T15:02:21Z</time>
      </trkpt>
      <trkpt lat="44.46435" lon="5.91294">
        <ele>1141.7</ele>
        <time>2012-05-26T15:02:22Z</time>
      </trkpt>
      <trkpt lat="44.4643" lon="5.9129">
        <ele>1141.22</ele>
        <time>2012-05-26T15:02:23Z</time>
      </trkpt>
      <trkpt lat="44.46404" lon="5.91293">
        <ele>1136.9</ele>
        <time>2012-05-26T15:02:27Z</time>
      </trkpt>
      <trkpt lat="44.46395" lon="5.91307">
        <ele>1133.05</ele>
        <time>2012-05-26T15:02:30Z</time>
      </trkpt>
      <trkpt lat="44.46378" lon="5.913">
        <ele>1129.69</ele>
        <time>2012-05-26T15:02:34Z</time>
      </trkpt>
      <trkpt lat="44.4637" lon="5.91296">
        <ele>1126.32</ele>
        <time>2012-05-26T15:02:37Z</time>
      </trkpt>
      <trkpt lat="44.46353" lon="5.91301">
        <ele>1122.96</ele>
        <time>2012-05-26T15:02:41Z</time>
      </trkpt>
      <trkpt lat="44.46337" lon="5.91304">
        <ele>1119.59</ele>
        <time>2012-05-26T15:02:44Z</time>
      </trkpt>
      <trkpt lat="44.46332" lon="5.91303">
        <ele>1119.59</ele>
        <time>2012-05-26T15:02:45Z</time>
      </trkpt>
      <trkpt lat="44.46321" lon="5.91296">
        <ele>1116.23</ele>
        <time>2012-05-26T15:02:49Z</time>
      </trkpt>
      <trkpt lat="44.4632" lon="5.91293">
        <ele>1114.79</ele>
        <time>2012-05-26T15:04:52Z</time>
      </trkpt>
      <trkpt lat="44.46318" lon="5.9129">
        <ele>1113.82</ele>
        <time>2012-05-26T15:06:41Z</time>
      </trkpt>
      <trkpt lat="44.46304" lon="5.91275">
        <ele>1110.46</ele>
        <time>2012-05-26T15:06:45Z</time>
      </trkpt>
      <trkpt lat="44.46293" lon="5.91264">
        <ele>1109.5</ele>
        <time>2012-05-26T15:06:49Z</time>
      </trkpt>
      <trkpt lat="44.46253" lon="5.91234">
        <ele>1106.13</ele>
        <time>2012-05-26T15:07:00Z</time>
      </trkpt>
      <trkpt lat="44.46244" lon="5.91221">
        <ele>1105.17</ele>
        <time>2012-05-26T15:07:03Z</time>
      </trkpt>
      <trkpt lat="44.46216" lon="5.9118">
        <ele>1099.4</ele>
        <time>2012-05-26T15:07:12Z</time>
      </trkpt>
      <trkpt lat="44.4621" lon="5.91176">
        <ele>1099.89</ele>
        <time>2012-05-26T15:07:13Z</time>
      </trkpt>
      <trkpt lat="44.46195" lon="5.91164">
        <ele>1096.52</ele>
        <time>2012-05-26T15:07:16Z</time>
      </trkpt>
      <trkpt lat="44.46171" lon="5.91148">
        <ele>1092.68</ele>
        <time>2012-05-26T15:07:22Z</time>
      </trkpt>
      <trkpt lat="44.4615" lon="5.91135">
        <ele>1087.87</ele>
        <time>2012-05-26T15:07:26Z</time>
      </trkpt>
      <trkpt lat="44.46144" lon="5.91134">
        <ele>1086.43</ele>
        <time>2012-05-26T15:07:28Z</time>
      </trkpt>
      <trkpt lat="44.46132" lon="5.91145">
        <ele>1084.02</ele>
        <time>2012-05-26T15:07:32Z</time>
      </trkpt>
      <trkpt lat="44.46119" lon="5.91157">
        <ele>1081.62</ele>
        <time>2012-05-26T15:07:37Z</time>
      </trkpt>
      <trkpt lat="44.46097" lon="5.91163">
        <ele>1078.26</ele>
        <time>2012-05-26T15:07:43Z</time>
      </trkpt>
      <trkpt lat="44.46088" lon="5.91158">
        <ele>1075.85</ele>
        <time>2012-05-26T15:07:47Z</time>
      </trkpt>
      <trkpt lat="44.46072" lon="5.91152">
        <ele>1072.01</ele>
        <time>2012-05-26T15:07:58Z</time>
      </trkpt>
      <trkpt lat="44.46073" lon="5.91151">
        <ele>1070.08</ele>
        <time>2012-05-26T15:09:04Z</time>
      </trkpt>
      <trkpt lat="44.46072" lon="5.9115">
        <ele>1070.57</ele>
        <time>2012-05-26T15:10:14Z</time>
      </trkpt>
      <trkpt lat="44.46065" lon="5.91139">
        <ele>1067.2</ele>
        <time>2012-05-26T15:10:19Z</time>
      </trkpt>
      <trkpt lat="44.46054" lon="5.91128">
        <ele>1062.87</ele>
        <time>2012-05-26T15:10:26Z</time>
      </trkpt>
      <trkpt lat="44.46049" lon="5.9112">
        <ele>1060.47</ele>
        <time>2012-05-26T15:10:30Z</time>
      </trkpt>
      <trkpt lat="44.46039" lon="5.9112">
        <ele>1057.59</ele>
        <time>2012-05-26T15:10:36Z</time>
      </trkpt>
      <trkpt lat="44.46014" lon="5.9112">
        <ele>1051.34</ele>
        <time>2012-05-26T15:10:51Z</time>
      </trkpt>
      <trkpt lat="44.46012" lon="5.9112">
        <ele>1051.82</ele>
        <time>2012-05-26T15:10:52Z</time>
      </trkpt>
      <trkpt lat="44.46002" lon="5.91117">
        <ele>1048.45</ele>
        <time>2012-05-26T15:10:55Z</time>
      </trkpt>
      <trkpt lat="44.45983" lon="5.91113">
        <ele>1045.09</ele>
        <time>2012-05-26T15:11:01Z</time>
      </trkpt>
      <trkpt lat="44.4598" lon="5.91112">
        <ele>1044.61</ele>
        <time>2012-05-26T15:11:02Z</time>
      </trkpt>
      <trkpt lat="44.45984" lon="5.91119">
        <ele>1041.25</ele>
        <time>2012-05-26T15:11:09Z</time>
      </trkpt>
      <trkpt lat="44.45984" lon="5.91123">
        <ele>1039.8</ele>
        <time>2012-05-26T15:11:27Z</time>
      </trkpt>
      <trkpt lat="44.45969" lon="5.9113">
        <ele>1035.48</ele>
        <time>2012-05-26T15:11:31Z</time>
      </trkpt>
      <trkpt lat="44.45955" lon="5.91122">
        <ele>1031.15</ele>
        <time>2012-05-26T15:11:38Z</time>
      </trkpt>
      <trkpt lat="44.45956" lon="5.91122">
        <ele>1030.19</ele>
        <time>2012-05-26T15:12:28Z</time>
      </trkpt>
      <trkpt lat="44.45957" lon="5.91118">
        <ele>1026.83</ele>
        <time>2012-05-26T15:12:40Z</time>
      </trkpt>
      <trkpt lat="44.45957" lon="5.91117">
        <ele>1026.83</ele>
        <time>2012-05-26T15:12:44Z</time>
      </trkpt>
      <trkpt lat="44.45949" lon="5.91109">
        <ele>1023.46</ele>
        <time>2012-05-26T15:12:57Z</time>
      </trkpt>
      <trkpt lat="44.45943" lon="5.911">
        <ele>1020.1</ele>
        <time>2012-05-26T15:13:12Z</time>
      </trkpt>
      <trkpt lat="44.45939" lon="5.91099">
        <ele>1018.17</ele>
        <time>2012-05-26T15:13:26Z</time>
      </trkpt>
      <trkpt lat="44.45938" lon="5.91082">
        <ele>1012.89</ele>
        <time>2012-05-26T15:13:47Z</time>
      </trkpt>
      <trkpt lat="44.45938" lon="5.91078">
        <ele>1010.48</ele>
        <time>2012-05-26T15:14:00Z</time>
      </trkpt>
      <trkpt lat="44.45935" lon="5.91074">
        <ele>1009.04</ele>
        <time>2012-05-26T15:14:04Z</time>
      </trkpt>
      <trkpt lat="44.45939" lon="5.9106">
        <ele>1007.12</ele>
        <time>2012-05-26T15:14:10Z</time>
      </trkpt>
      <trkpt lat="44.4594" lon="5.9105">
        <ele>1005.2</ele>
        <time>2012-05-26T15:14:13Z</time>
      </trkpt>
      <trkpt lat="44.45954" lon="5.9103">
        <ele>1001.35</ele>
        <time>2012-05-26T15:14:19Z</time>
      </trkpt>
      <trkpt lat="44.45944" lon="5.9102">
        <ele>997.99</ele>
        <time>2012-05-26T15:14:28Z</time>
      </trkpt>
      <trkpt lat="44.45948" lon="5.90996">
        <ele>991.26</ele>
        <time>2012-05-26T15:14:36Z</time>
      </trkpt>
      <trkpt lat="44.45931" lon="5.90987">
        <ele>985.97</ele>
        <time>2012-05-26T15:14:41Z</time>
      </trkpt>
      <trkpt lat="44.45928" lon="5.90987">
        <ele>985.01</ele>
        <time>2012-05-26T15:14:57Z</time>
      </trkpt>
      <trkpt lat="44.45914" lon="5.90992">
        <ele>980.2</ele>
        <time>2012-05-26T15:16:15Z</time>
      </trkpt>
      <trkpt lat="44.45899" lon="5.90968">
        <ele>978.28</ele>
        <time>2012-05-26T15:16:24Z</time>
      </trkpt>
      <trkpt lat="44.45919" lon="5.90912">
        <ele>975.88</ele>
        <time>2012-05-26T15:16:33Z</time>
      </trkpt>
      <trkpt lat="44.45913" lon="5.90891">
        <ele>972.99</ele>
        <time>2012-05-26T15:16:39Z</time>
      </trkpt>
      <trkpt lat="44.45858" lon="5.90885">
        <ele>968.67</ele>
        <time>2012-05-26T15:16:47Z</time>
      </trkpt>
      <trkpt lat="44.45833" lon="5.90884">
        <ele>966.26</ele>
        <time>2012-05-26T15:16:50Z</time>
      </trkpt>
      <trkpt lat="44.45802" lon="5.90878">
        <ele>962.9</ele>
        <time>2012-05-26T15:16:54Z</time>
      </trkpt>
      <trkpt lat="44.45787" lon="5.90875">
        <ele>961.94</ele>
        <time>2012-05-26T15:16:56Z</time>
      </trkpt>
      <trkpt lat="44.45747" lon="5.90873">
        <ele>957.61</ele>
        <time>2012-05-26T15:17:01Z</time>
      </trkpt>
      <trkpt lat="44.45713" lon="5.90866">
        <ele>953.28</ele>
        <time>2012-05-26T15:17:05Z</time>
      </trkpt>
      <trkpt lat="44.45692" lon="5.90876">
        <ele>950.88</ele>
        <time>2012-05-26T15:17:08Z</time>
      </trkpt>
      <trkpt lat="44.45686" lon="5.90883">
        <ele>950.4</ele>
        <time>2012-05-26T15:17:09Z</time>
      </trkpt>
      <trkpt lat="44.45653" lon="5.90895">
        <ele>947.52</ele>
        <time>2012-05-26T15:17:13Z</time>
      </trkpt>
      <trkpt lat="44.45635" lon="5.90899">
        <ele>944.15</ele>
        <time>2012-05-26T15:17:15Z</time>
      </trkpt>
      <trkpt lat="44.45614" lon="5.90909">
        <ele>940.79</ele>
        <time>2012-05-26T15:17:18Z</time>
      </trkpt>
      <trkpt lat="44.45597" lon="5.90942">
        <ele>935.5</ele>
        <time>2012-05-26T15:17:22Z</time>
      </trkpt>
      <trkpt lat="44.45571" lon="5.90986">
        <ele>931.17</ele>
        <time>2012-05-26T15:17:26Z</time>
      </trkpt>
      <trkpt lat="44.45565" lon="5.90994">
        <ele>929.25</ele>
        <time>2012-05-26T15:17:27Z</time>
      </trkpt>
      <trkpt lat="44.45548" lon="5.91008">
        <ele>925.89</ele>
        <time>2012-05-26T15:17:30Z</time>
      </trkpt>
      <trkpt lat="44.4554" lon="5.90988">
        <ele>924.45</ele>
        <time>2012-05-26T15:17:42Z</time>
      </trkpt>
      <trkpt lat="44.45532" lon="5.90901">
        <ele>920.6</ele>
        <time>2012-05-26T15:17:53Z</time>
      </trkpt>
      <trkpt lat="44.45526" lon="5.90868">
        <ele>917.72</ele>
        <time>2012-05-26T15:17:57Z</time>
      </trkpt>
      <trkpt lat="44.45546" lon="5.9085">
        <ele>915.79</ele>
        <time>2012-05-26T15:18:01Z</time>
      </trkpt>
      <trkpt lat="44.45589" lon="5.90806">
        <ele>911.95</ele>
        <time>2012-05-26T15:18:09Z</time>
      </trkpt>
      <trkpt lat="44.45589" lon="5.90797">
        <ele>913.39</ele>
        <time>2012-05-26T15:18:10Z</time>
      </trkpt>
      <trkpt lat="44.45583" lon="5.90737">
        <ele>915.31</ele>
        <time>2012-05-26T15:18:21Z</time>
      </trkpt>
      <trkpt lat="44.45592" lon="5.9071">
        <ele>918.68</ele>
        <time>2012-05-26T15:18:33Z</time>
      </trkpt>
      <trkpt lat="44.45599" lon="5.90688">
        <ele>922.04</ele>
        <time>2012-05-26T15:18:44Z</time>
      </trkpt>
      <trkpt lat="44.456" lon="5.90686">
        <ele>922.04</ele>
        <time>2012-05-26T15:18:45Z</time>
      </trkpt>
      <trkpt lat="44.45603" lon="5.90656">
        <ele>925.89</ele>
        <time>2012-05-26T15:19:04Z</time>
      </trkpt>
      <trkpt lat="44.45608" lon="5.90596">
        <ele>931.17</ele>
        <time>2012-05-26T15:19:43Z</time>
      </trkpt>
      <trkpt lat="44.45607" lon="5.90595">
        <ele>931.17</ele>
        <time>2012-05-26T15:19:44Z</time>
      </trkpt>
      <trkpt lat="44.45606" lon="5.90592">
        <ele>931.65</ele>
        <time>2012-05-26T15:19:46Z</time>
      </trkpt>
      <trkpt lat="44.45578" lon="5.90567">
        <ele>935.98</ele>
        <time>2012-05-26T15:20:13Z</time>
      </trkpt>
      <trkpt lat="44.45528" lon="5.90551">
        <ele>939.83</ele>
        <time>2012-05-26T15:20:48Z</time>
      </trkpt>
      <trkpt lat="44.45502" lon="5.90549">
        <ele>943.19</ele>
        <time>2012-05-26T15:21:08Z</time>
      </trkpt>
      <trkpt lat="44.45466" lon="5.90569">
        <ele>946.56</ele>
        <time>2012-05-26T15:21:34Z</time>
      </trkpt>
      <trkpt lat="44.45408" lon="5.90585">
        <ele>951.84</ele>
        <time>2012-05-26T15:22:10Z</time>
      </trkpt>
      <trkpt lat="44.45334" lon="5.90575">
        <ele>954.73</ele>
        <time>2012-05-26T15:22:44Z</time>
      </trkpt>
      <trkpt lat="44.4531" lon="5.90544">
        <ele>955.69</ele>
        <time>2012-05-26T15:23:16Z</time>
      </trkpt>
      <trkpt lat="44.45313" lon="5.90509">
        <ele>958.09</ele>
        <time>2012-05-26T15:23:47Z</time>
      </trkpt>
      <trkpt lat="44.45312" lon="5.90505">
        <ele>958.57</ele>
        <time>2012-05-26T15:24:01Z</time>
      </trkpt>
      <trkpt lat="44.45312" lon="5.9049">
        <ele>959.53</ele>
        <time>2012-05-26T15:24:10Z</time>
      </trkpt>
      <trkpt lat="44.45296" lon="5.90448">
        <ele>963.86</ele>
        <time>2012-05-26T15:24:31Z</time>
      </trkpt>
      <trkpt lat="44.45266" lon="5.90402">
        <ele>969.15</ele>
        <time>2012-05-26T15:24:58Z</time>
      </trkpt>
      <trkpt lat="44.45262" lon="5.90369">
        <ele>971.07</ele>
        <time>2012-05-26T15:25:12Z</time>
      </trkpt>
      <trkpt lat="44.45251" lon="5.90355">
        <ele>972.99</ele>
        <time>2012-05-26T15:25:21Z</time>
      </trkpt>
      <trkpt lat="44.4525" lon="5.90353">
        <ele>972.99</ele>
        <time>2012-05-26T15:25:22Z</time>
      </trkpt>
      <trkpt lat="44.45241" lon="5.90315">
        <ele>976.84</ele>
        <time>2012-05-26T15:25:39Z</time>
      </trkpt>
      <trkpt lat="44.45228" lon="5.90299">
        <ele>977.32</ele>
        <time>2012-05-26T15:26:04Z</time>
      </trkpt>
      <trkpt lat="44.45203" lon="5.90311">
        <ele>976.36</ele>
        <time>2012-05-26T15:26:48Z</time>
      </trkpt>
      <trkpt lat="44.4515" lon="5.90426">
        <ele>972.03</ele>
        <time>2012-05-26T15:27:05Z</time>
      </trkpt>
      <trkpt lat="44.45131" lon="5.90458">
        <ele>970.59</ele>
        <time>2012-05-26T15:27:09Z</time>
      </trkpt>
      <trkpt lat="44.45101" lon="5.90484">
        <ele>968.18</ele>
        <time>2012-05-26T15:27:13Z</time>
      </trkpt>
      <trkpt lat="44.45091" lon="5.90489">
        <ele>966.74</ele>
        <time>2012-05-26T15:27:14Z</time>
      </trkpt>
      <trkpt lat="44.45081" lon="5.90493">
        <ele>966.74</ele>
        <time>2012-05-26T15:27:15Z</time>
      </trkpt>
      <trkpt lat="44.45052" lon="5.90504">
        <ele>964.34</ele>
        <time>2012-05-26T15:27:18Z</time>
      </trkpt>
      <trkpt lat="44.45021" lon="5.90541">
        <ele>961.94</ele>
        <time>2012-05-26T15:27:22Z</time>
      </trkpt>
      <trkpt lat="44.44971" lon="5.9062">
        <ele>957.61</ele>
        <time>2012-05-26T15:27:29Z</time>
      </trkpt>
      <trkpt lat="44.44905" lon="5.90722">
        <ele>956.17</ele>
        <time>2012-05-26T15:27:40Z</time>
      </trkpt>
      <trkpt lat="44.44895" lon="5.90734">
        <ele>956.65</ele>
        <time>2012-05-26T15:27:42Z</time>
      </trkpt>
      <trkpt lat="44.44869" lon="5.90739">
        <ele>955.21</ele>
        <time>2012-05-26T15:27:46Z</time>
      </trkpt>
      <trkpt lat="44.4483" lon="5.90723">
        <ele>951.84</ele>
        <time>2012-05-26T15:27:51Z</time>
      </trkpt>
      <trkpt lat="44.44813" lon="5.90713">
        <ele>951.36</ele>
        <time>2012-05-26T15:27:53Z</time>
      </trkpt>
      <trkpt lat="44.44786" lon="5.90736">
        <ele>950.88</ele>
        <time>2012-05-26T15:27:58Z</time>
      </trkpt>
      <trkpt lat="44.44797" lon="5.90786">
        <ele>951.36</ele>
        <time>2012-05-26T15:28:05Z</time>
      </trkpt>
      <trkpt lat="44.44802" lon="5.90792">
        <ele>951.36</ele>
        <time>2012-05-26T15:28:06Z</time>
      </trkpt>
      <trkpt lat="44.44818" lon="5.90809">
        <ele>950.4</ele>
        <time>2012-05-26T15:28:09Z</time>
      </trkpt>
      <trkpt lat="44.44836" lon="5.90849">
        <ele>949.44</ele>
        <time>2012-05-26T15:28:14Z</time>
      </trkpt>
      <trkpt lat="44.44838" lon="5.90859">
        <ele>948.96</ele>
        <time>2012-05-26T15:28:15Z</time>
      </trkpt>
      <trkpt lat="44.44838" lon="5.90869">
        <ele>948.48</ele>
        <time>2012-05-26T15:28:16Z</time>
      </trkpt>
      <trkpt lat="44.44843" lon="5.90934">
        <ele>946.07</ele>
        <time>2012-05-26T15:28:22Z</time>
      </trkpt>
      <trkpt lat="44.4483" lon="5.90978">
        <ele>944.15</ele>
        <time>2012-05-26T15:28:26Z</time>
      </trkpt>
      <trkpt lat="44.44802" lon="5.91039">
        <ele>939.35</ele>
        <time>2012-05-26T15:28:31Z</time>
      </trkpt>
      <trkpt lat="44.44781" lon="5.91096">
        <ele>935.5</ele>
        <time>2012-05-26T15:28:35Z</time>
      </trkpt>
      <trkpt lat="44.44775" lon="5.91111">
        <ele>935.5</ele>
        <time>2012-05-26T15:28:36Z</time>
      </trkpt>
      <trkpt lat="44.44746" lon="5.91189">
        <ele>930.69</ele>
        <time>2012-05-26T15:28:41Z</time>
      </trkpt>
      <trkpt lat="44.44719" lon="5.91267">
        <ele>926.85</ele>
        <time>2012-05-26T15:28:46Z</time>
      </trkpt>
      <trkpt lat="44.44691" lon="5.91323">
        <ele>923.48</ele>
        <time>2012-05-26T15:28:50Z</time>
      </trkpt>
      <trkpt lat="44.4466" lon="5.91349">
        <ele>920.12</ele>
        <time>2012-05-26T15:28:53Z</time>
      </trkpt>
      <trkpt lat="44.44648" lon="5.91354">
        <ele>919.64</ele>
        <time>2012-05-26T15:28:54Z</time>
      </trkpt>
      <trkpt lat="44.44589" lon="5.91373">
        <ele>916.27</ele>
        <time>2012-05-26T15:28:59Z</time>
      </trkpt>
      <trkpt lat="44.44553" lon="5.91387">
        <ele>912.91</ele>
        <time>2012-05-26T15:29:02Z</time>
      </trkpt>
      <trkpt lat="44.44541" lon="5.91391">
        <ele>912.91</ele>
        <time>2012-05-26T15:29:03Z</time>
      </trkpt>
      <trkpt lat="44.44493" lon="5.91407">
        <ele>909.54</ele>
        <time>2012-05-26T15:29:07Z</time>
      </trkpt>
      <trkpt lat="44.44481" lon="5.91412">
        <ele>909.54</ele>
        <time>2012-05-26T15:29:08Z</time>
      </trkpt>
      <trkpt lat="44.44434" lon="5.91427">
        <ele>906.18</ele>
        <time>2012-05-26T15:29:12Z</time>
      </trkpt>
      <trkpt lat="44.44365" lon="5.91411">
        <ele>904.26</ele>
        <time>2012-05-26T15:29:18Z</time>
      </trkpt>
      <trkpt lat="44.44301" lon="5.9139">
        <ele>900.89</ele>
        <time>2012-05-26T15:29:24Z</time>
      </trkpt>
      <trkpt lat="44.44257" lon="5.91373">
        <ele>897.53</ele>
        <time>2012-05-26T15:29:28Z</time>
      </trkpt>
      <trkpt lat="44.44145" lon="5.91347">
        <ele>891.28</ele>
        <time>2012-05-26T15:29:38Z</time>
      </trkpt>
      <trkpt lat="44.44095" lon="5.91345">
        <ele>887.91</ele>
        <time>2012-05-26T15:29:43Z</time>
      </trkpt>
      <trkpt lat="44.44067" lon="5.91356">
        <ele>885.99</ele>
        <time>2012-05-26T15:29:46Z</time>
      </trkpt>
      <trkpt lat="44.44038" lon="5.91408">
        <ele>883.11</ele>
        <time>2012-05-26T15:29:51Z</time>
      </trkpt>
      <trkpt lat="44.44022" lon="5.91425">
        <ele>882.15</ele>
        <time>2012-05-26T15:29:53Z</time>
      </trkpt>
      <trkpt lat="44.43998" lon="5.9145">
        <ele>881.19</ele>
        <time>2012-05-26T15:29:56Z</time>
      </trkpt>
      <trkpt lat="44.4397" lon="5.91496">
        <ele>879.26</ele>
        <time>2012-05-26T15:30:00Z</time>
      </trkpt>
      <trkpt lat="44.4393" lon="5.91584">
        <ele>875.42</ele>
        <time>2012-05-26T15:30:07Z</time>
      </trkpt>
      <trkpt lat="44.43901" lon="5.91632">
        <ele>872.05</ele>
        <time>2012-05-26T15:30:11Z</time>
      </trkpt>
      <trkpt lat="44.43882" lon="5.91652">
        <ele>871.09</ele>
        <time>2012-05-26T15:30:13Z</time>
      </trkpt>
      <trkpt lat="44.43809" lon="5.91719">
        <ele>866.29</ele>
        <time>2012-05-26T15:30:20Z</time>
      </trkpt>
      <trkpt lat="44.43777" lon="5.91746">
        <ele>864.36</ele>
        <time>2012-05-26T15:30:23Z</time>
      </trkpt>
      <trkpt lat="44.43732" lon="5.91767">
        <ele>861</ele>
        <time>2012-05-26T15:30:27Z</time>
      </trkpt>
      <trkpt lat="44.43709" lon="5.91745">
        <ele>860.04</ele>
        <time>2012-05-26T15:30:31Z</time>
      </trkpt>
      <trkpt lat="44.43684" lon="5.91716">
        <ele>858.59</ele>
        <time>2012-05-26T15:30:37Z</time>
      </trkpt>
      <trkpt lat="44.43666" lon="5.91741">
        <ele>857.63</ele>
        <time>2012-05-26T15:30:41Z</time>
      </trkpt>
      <trkpt lat="44.43662" lon="5.91748">
        <ele>857.15</ele>
        <time>2012-05-26T15:30:42Z</time>
      </trkpt>
      <trkpt lat="44.43645" lon="5.91799">
        <ele>856.19</ele>
        <time>2012-05-26T15:30:48Z</time>
      </trkpt>
      <trkpt lat="44.43634" lon="5.91809">
        <ele>855.23</ele>
        <time>2012-05-26T15:30:50Z</time>
      </trkpt>
      <trkpt lat="44.43615" lon="5.91813">
        <ele>853.79</ele>
        <time>2012-05-26T15:30:54Z</time>
      </trkpt>
      <trkpt lat="44.4361" lon="5.91816">
        <ele>852.83</ele>
        <time>2012-05-26T15:30:55Z</time>
      </trkpt>
      <trkpt lat="44.43605" lon="5.91818">
        <ele>853.31</ele>
        <time>2012-05-26T15:30:56Z</time>
      </trkpt>
      <trkpt lat="44.43588" lon="5.9182">
        <ele>852.35</ele>
        <time>2012-05-26T15:30:59Z</time>
      </trkpt>
      <trkpt lat="44.43571" lon="5.91813">
        <ele>851.87</ele>
        <time>2012-05-26T15:31:02Z</time>
      </trkpt>
      <trkpt lat="44.43529" lon="5.91788">
        <ele>848.02</ele>
        <time>2012-05-26T15:31:09Z</time>
      </trkpt>
      <trkpt lat="44.43524" lon="5.91791">
        <ele>848.02</ele>
        <time>2012-05-26T15:31:10Z</time>
      </trkpt>
      <trkpt lat="44.4352" lon="5.9181">
        <ele>847.54</ele>
        <time>2012-05-26T15:31:13Z</time>
      </trkpt>
      <trkpt lat="44.43523" lon="5.91852">
        <ele>845.62</ele>
        <time>2012-05-26T15:31:20Z</time>
      </trkpt>
      <trkpt lat="44.43524" lon="5.91838">
        <ele>845.62</ele>
        <time>2012-05-26T15:31:26Z</time>
      </trkpt>
      <trkpt lat="44.4352" lon="5.91803">
        <ele>846.58</ele>
        <time>2012-05-26T15:31:47Z</time>
      </trkpt>
      <trkpt lat="44.43521" lon="5.91804">
        <ele>846.1</ele>
        <time>2012-05-26T15:32:29Z</time>
      </trkpt>
      <trkpt lat="44.43525" lon="5.9182">
        <ele>845.14</ele>
        <time>2012-05-26T15:32:47Z</time>
      </trkpt>
      <trkpt lat="44.43529" lon="5.91847">
        <ele>844.18</ele>
        <time>2012-05-26T15:33:23Z</time>
      </trkpt>
      <trkpt lat="44.43511" lon="5.91858">
        <ele>842.73</ele>
        <time>2012-05-26T15:33:42Z</time>
      </trkpt>
      <trkpt lat="44.43509" lon="5.91857">
        <ele>842.73</ele>
        <time>2012-05-26T15:33:50Z</time>
      </trkpt>
      <trkpt lat="44.43479" lon="5.91871">
        <ele>840.81</ele>
        <time>2012-05-26T15:34:00Z</time>
      </trkpt>
      <trkpt lat="44.43475" lon="5.91874">
        <ele>840.81</ele>
        <time>2012-05-26T15:34:01Z</time>
      </trkpt>
      <trkpt lat="44.43454" lon="5.91911">
        <ele>836.48</ele>
        <time>2012-05-26T15:34:13Z</time>
      </trkpt>
      <trkpt lat="44.43383" lon="5.91973">
        <ele>831.68</ele>
        <time>2012-05-26T15:34:29Z</time>
      </trkpt>
      <trkpt lat="44.43354" lon="5.9196">
        <ele>829.27</ele>
        <time>2012-05-26T15:34:34Z</time>
      </trkpt>
      <trkpt lat="44.4335" lon="5.91953">
        <ele>829.76</ele>
        <time>2012-05-26T15:34:35Z</time>
      </trkpt>
      <trkpt lat="44.43315" lon="5.91915">
        <ele>832.16</ele>
        <time>2012-05-26T15:34:47Z</time>
      </trkpt>
      <trkpt lat="44.43307" lon="5.91911">
        <ele>833.12</ele>
        <time>2012-05-26T15:34:52Z</time>
      </trkpt>
      <trkpt lat="44.43283" lon="5.91921">
        <ele>836.48</ele>
        <time>2012-05-26T15:35:07Z</time>
      </trkpt>
      <trkpt lat="44.43274" lon="5.9193">
        <ele>838.41</ele>
        <time>2012-05-26T15:35:14Z</time>
      </trkpt>
      <trkpt lat="44.43245" lon="5.91953">
        <ele>842.25</ele>
        <time>2012-05-26T15:35:49Z</time>
      </trkpt>
      <trkpt lat="44.43211" lon="5.91986">
        <ele>845.14</ele>
        <time>2012-05-26T15:36:07Z</time>
      </trkpt>
      <trkpt lat="44.43161" lon="5.9198">
        <ele>850.9</ele>
        <time>2012-05-26T15:36:35Z</time>
      </trkpt>
      <trkpt lat="44.43091" lon="5.9192">
        <ele>849.94</ele>
        <time>2012-05-26T15:37:02Z</time>
      </trkpt>
      <trkpt lat="44.43025" lon="5.91887">
        <ele>848.98</ele>
        <time>2012-05-26T15:37:17Z</time>
      </trkpt>
      <trkpt lat="44.43009" lon="5.91862">
        <ele>847.54</ele>
        <time>2012-05-26T15:37:23Z</time>
      </trkpt>
      <trkpt lat="44.42997" lon="5.91876">
        <ele>846.58</ele>
        <time>2012-05-26T15:37:27Z</time>
      </trkpt>
      <trkpt lat="44.42991" lon="5.91885">
        <ele>845.14</ele>
        <time>2012-05-26T15:37:45Z</time>
      </trkpt>
      <trkpt lat="44.42992" lon="5.91886">
        <ele>845.62</ele>
        <time>2012-05-26T15:40:42Z</time>
      </trkpt>
      <trkpt lat="44.4299" lon="5.91894">
        <ele>845.62</ele>
        <time>2012-05-26T15:40:49Z</time>
      </trkpt>
      <trkpt lat="44.42983" lon="5.91906">
        <ele>846.58</ele>
        <time>2012-05-26T15:41:00Z</time>
      </trkpt>
      <trkpt lat="44.42982" lon="5.91906">
        <ele>846.1</ele>
        <time>2012-05-26T15:41:21Z</time>
      </trkpt>
      <trkpt lat="44.42978" lon="5.91927">
        <ele>846.58</ele>
        <time>2012-05-26T15:41:29Z</time>
      </trkpt>
      <trkpt lat="44.42948" lon="5.91935">
        <ele>847.06</ele>
        <time>2012-05-26T15:41:44Z</time>
      </trkpt>
      <trkpt lat="44.4294" lon="5.91936">
        <ele>847.54</ele>
        <time>2012-05-26T15:42:13Z</time>
      </trkpt>
      <trkpt lat="44.42905" lon="5.91949">
        <ele>849.94</ele>
        <time>2012-05-26T15:43:06Z</time>
      </trkpt>
      <trkpt lat="44.42829" lon="5.92033">
        <ele>853.31</ele>
        <time>2012-05-26T15:43:42Z</time>
      </trkpt>
      <trkpt lat="44.42781" lon="5.92076">
        <ele>854.75</ele>
        <time>2012-05-26T15:44:02Z</time>
      </trkpt>
      <trkpt lat="44.42764" lon="5.92091">
        <ele>857.63</ele>
        <time>2012-05-26T15:44:10Z</time>
      </trkpt>
      <trkpt lat="44.42761" lon="5.92091">
        <ele>857.63</ele>
        <time>2012-05-26T15:44:11Z</time>
      </trkpt>
      <trkpt lat="44.42787" lon="5.92039">
        <ele>862.44</ele>
        <time>2012-05-26T15:44:33Z</time>
      </trkpt>
      <trkpt lat="44.42807" lon="5.91995">
        <ele>865.8</ele>
        <time>2012-05-26T15:44:52Z</time>
      </trkpt>
      <trkpt lat="44.42815" lon="5.91954">
        <ele>869.17</ele>
        <time>2012-05-26T15:45:15Z</time>
      </trkpt>
      <trkpt lat="44.42807" lon="5.91959">
        <ele>870.13</ele>
        <time>2012-05-26T15:45:32Z</time>
      </trkpt>
      <trkpt lat="44.42758" lon="5.92014">
        <ele>875.9</ele>
        <time>2012-05-26T15:46:30Z</time>
      </trkpt>
      <trkpt lat="44.42723" lon="5.92035">
        <ele>878.78</ele>
        <time>2012-05-26T15:46:48Z</time>
      </trkpt>
      <trkpt lat="44.42704" lon="5.92063">
        <ele>882.15</ele>
        <time>2012-05-26T15:47:03Z</time>
      </trkpt>
      <trkpt lat="44.42688" lon="5.92087">
        <ele>885.51</ele>
        <time>2012-05-26T15:47:17Z</time>
      </trkpt>
      <trkpt lat="44.42654" lon="5.9213">
        <ele>890.8</ele>
        <time>2012-05-26T15:47:49Z</time>
      </trkpt>
      <trkpt lat="44.42617" lon="5.92166">
        <ele>895.12</ele>
        <time>2012-05-26T15:48:21Z</time>
      </trkpt>
      <trkpt lat="44.42599" lon="5.92185">
        <ele>898.49</ele>
        <time>2012-05-26T15:48:38Z</time>
      </trkpt>
      <trkpt lat="44.42584" lon="5.92193">
        <ele>900.41</ele>
        <time>2012-05-26T15:48:51Z</time>
      </trkpt>
      <trkpt lat="44.42598" lon="5.92157">
        <ele>904.26</ele>
        <time>2012-05-26T15:49:17Z</time>
      </trkpt>
      <trkpt lat="44.42614" lon="5.92141">
        <ele>906.66</ele>
        <time>2012-05-26T15:49:32Z</time>
      </trkpt>
      <trkpt lat="44.42628" lon="5.92109">
        <ele>910.03</ele>
        <time>2012-05-26T15:49:50Z</time>
      </trkpt>
      <trkpt lat="44.42651" lon="5.92058">
        <ele>914.35</ele>
        <time>2012-05-26T15:50:22Z</time>
      </trkpt>
      <trkpt lat="44.42661" lon="5.92021">
        <ele>917.72</ele>
        <time>2012-05-26T15:50:43Z</time>
      </trkpt>
      <trkpt lat="44.42671" lon="5.91983">
        <ele>921.08</ele>
        <time>2012-05-26T15:51:06Z</time>
      </trkpt>
      <trkpt lat="44.42686" lon="5.91946">
        <ele>924.45</ele>
        <time>2012-05-26T15:51:30Z</time>
      </trkpt>
      <trkpt lat="44.4269" lon="5.91929">
        <ele>925.89</ele>
        <time>2012-05-26T15:51:41Z</time>
      </trkpt>
      <trkpt lat="44.42712" lon="5.91901">
        <ele>929.25</ele>
        <time>2012-05-26T15:52:02Z</time>
      </trkpt>
      <trkpt lat="44.42721" lon="5.91882">
        <ele>931.17</ele>
        <time>2012-05-26T15:52:14Z</time>
      </trkpt>
      <trkpt lat="44.42704" lon="5.91879">
        <ele>933.1</ele>
        <time>2012-05-26T15:52:27Z</time>
      </trkpt>
      <trkpt lat="44.42681" lon="5.91906">
        <ele>934.54</ele>
        <time>2012-05-26T15:52:47Z</time>
      </trkpt>
      <trkpt lat="44.42671" lon="5.9192">
        <ele>936.46</ele>
        <time>2012-05-26T15:52:58Z</time>
      </trkpt>
      <trkpt lat="44.42641" lon="5.91959">
        <ele>940.79</ele>
        <time>2012-05-26T15:53:29Z</time>
      </trkpt>
      <trkpt lat="44.42614" lon="5.92003">
        <ele>945.11</ele>
        <time>2012-05-26T15:54:01Z</time>
      </trkpt>
      <trkpt lat="44.42586" lon="5.92041">
        <ele>948.96</ele>
        <time>2012-05-26T15:54:31Z</time>
      </trkpt>
      <trkpt lat="44.42582" lon="5.92047">
        <ele>948.96</ele>
        <time>2012-05-26T15:54:35Z</time>
      </trkpt>
      <trkpt lat="44.42552" lon="5.92083">
        <ele>953.28</ele>
        <time>2012-05-26T15:55:04Z</time>
      </trkpt>
      <trkpt lat="44.42512" lon="5.92126">
        <ele>959.05</ele>
        <time>2012-05-26T15:55:43Z</time>
      </trkpt>
      <trkpt lat="44.42491" lon="5.92155">
        <ele>962.42</ele>
        <time>2012-05-26T15:56:06Z</time>
      </trkpt>
      <trkpt lat="44.42475" lon="5.92174">
        <ele>964.82</ele>
        <time>2012-05-26T15:56:59Z</time>
      </trkpt>
      <trkpt lat="44.42448" lon="5.92211">
        <ele>970.11</ele>
        <time>2012-05-26T16:01:54Z</time>
      </trkpt>
      <trkpt lat="44.42426" lon="5.92228">
        <ele>972.51</ele>
        <time>2012-05-26T16:02:08Z</time>
      </trkpt>
      <trkpt lat="44.42418" lon="5.92201">
        <ele>975.88</ele>
        <time>2012-05-26T16:02:22Z</time>
      </trkpt>
      <trkpt lat="44.42426" lon="5.92114">
        <ele>980.68</ele>
        <time>2012-05-26T16:03:00Z</time>
      </trkpt>
      <trkpt lat="44.42424" lon="5.92071">
        <ele>984.05</ele>
        <time>2012-05-26T16:03:19Z</time>
      </trkpt>
      <trkpt lat="44.42418" lon="5.92014">
        <ele>988.37</ele>
        <time>2012-05-26T16:03:47Z</time>
      </trkpt>
      <trkpt lat="44.42407" lon="5.91938">
        <ele>994.14</ele>
        <time>2012-05-26T16:04:29Z</time>
      </trkpt>
      <trkpt lat="44.42391" lon="5.91884">
        <ele>999.43</ele>
        <time>2012-05-26T16:05:01Z</time>
      </trkpt>
      <trkpt lat="44.42379" lon="5.91841">
        <ele>1002.79</ele>
        <time>2012-05-26T16:05:26Z</time>
      </trkpt>
      <trkpt lat="44.42367" lon="5.91768">
        <ele>1009.04</ele>
        <time>2012-05-26T16:06:06Z</time>
      </trkpt>
      <trkpt lat="44.4236" lon="5.91679">
        <ele>1013.37</ele>
        <time>2012-05-26T16:06:50Z</time>
      </trkpt>
      <trkpt lat="44.42338" lon="5.91631">
        <ele>1018.65</ele>
        <time>2012-05-26T16:07:19Z</time>
      </trkpt>
      <trkpt lat="44.42336" lon="5.9162">
        <ele>1018.65</ele>
        <time>2012-05-26T16:07:25Z</time>
      </trkpt>
      <trkpt lat="44.42303" lon="5.91585">
        <ele>1021.54</ele>
        <time>2012-05-26T16:07:52Z</time>
      </trkpt>
      <trkpt lat="44.42276" lon="5.91569">
        <ele>1022.98</ele>
        <time>2012-05-26T16:08:06Z</time>
      </trkpt>
      <trkpt lat="44.42253" lon="5.91556">
        <ele>1023.94</ele>
        <time>2012-05-26T16:08:18Z</time>
      </trkpt>
      <trkpt lat="44.42264" lon="5.91476">
        <ele>1026.83</ele>
        <time>2012-05-26T16:08:50Z</time>
      </trkpt>
      <trkpt lat="44.42262" lon="5.91471">
        <ele>1026.83</ele>
        <time>2012-05-26T16:09:11Z</time>
      </trkpt>
      <trkpt lat="44.42258" lon="5.91469">
        <ele>1026.34</ele>
        <time>2012-05-26T16:19:02Z</time>
      </trkpt>
      <trkpt lat="44.42258" lon="5.91467">
        <ele>1025.86</ele>
        <time>2012-05-26T16:19:23Z</time>
      </trkpt>
      <trkpt lat="44.42231" lon="5.91437">
        <ele>1029.71</ele>
        <time>2012-05-26T16:19:48Z</time>
      </trkpt>
      <trkpt lat="44.42213" lon="5.91405">
        <ele>1033.07</ele>
        <time>2012-05-26T16:20:09Z</time>
      </trkpt>
      <trkpt lat="44.42183" lon="5.91367">
        <ele>1038.84</ele>
        <time>2012-05-26T16:20:39Z</time>
      </trkpt>
      <trkpt lat="44.42149" lon="5.91316">
        <ele>1045.57</ele>
        <time>2012-05-26T16:21:19Z</time>
      </trkpt>
      <trkpt lat="44.42133" lon="5.91284">
        <ele>1049.42</ele>
        <time>2012-05-26T16:21:43Z</time>
      </trkpt>
      <trkpt lat="44.4209" lon="5.91274">
        <ele>1052.3</ele>
        <time>2012-05-26T16:22:15Z</time>
      </trkpt>
      <trkpt lat="44.4206" lon="5.91253">
        <ele>1053.26</ele>
        <time>2012-05-26T16:22:35Z</time>
      </trkpt>
      <trkpt lat="44.4205" lon="5.91246">
        <ele>1054.22</ele>
        <time>2012-05-26T16:22:42Z</time>
      </trkpt>
      <trkpt lat="44.42044" lon="5.91252">
        <ele>1054.22</ele>
        <time>2012-05-26T16:22:47Z</time>
      </trkpt>
      <trkpt lat="44.4201" lon="5.91351">
        <ele>1056.15</ele>
        <time>2012-05-26T16:23:19Z</time>
      </trkpt>
      <trkpt lat="44.41985" lon="5.91428">
        <ele>1060.47</ele>
        <time>2012-05-26T16:23:47Z</time>
      </trkpt>
      <trkpt lat="44.4197" lon="5.91478">
        <ele>1065.28</ele>
        <time>2012-05-26T16:24:10Z</time>
      </trkpt>
      <trkpt lat="44.41963" lon="5.91516">
        <ele>1068.64</ele>
        <time>2012-05-26T16:24:28Z</time>
      </trkpt>
      <trkpt lat="44.4195" lon="5.9154">
        <ele>1072.01</ele>
        <time>2012-05-26T16:24:43Z</time>
      </trkpt>
      <trkpt lat="44.41921" lon="5.91581">
        <ele>1078.26</ele>
        <time>2012-05-26T16:25:16Z</time>
      </trkpt>
      <trkpt lat="44.41886" lon="5.91604">
        <ele>1082.58</ele>
        <time>2012-05-26T16:25:46Z</time>
      </trkpt>
      <trkpt lat="44.41865" lon="5.91614">
        <ele>1084.02</ele>
        <time>2012-05-26T16:26:02Z</time>
      </trkpt>
      <trkpt lat="44.41841" lon="5.91618">
        <ele>1088.35</ele>
        <time>2012-05-26T16:26:21Z</time>
      </trkpt>
      <trkpt lat="44.41793" lon="5.91608">
        <ele>1093.64</ele>
        <time>2012-05-26T16:26:56Z</time>
      </trkpt>
      <trkpt lat="44.41761" lon="5.91558">
        <ele>1099.4</ele>
        <time>2012-05-26T16:27:29Z</time>
      </trkpt>
      <trkpt lat="44.41749" lon="5.91527">
        <ele>1100.37</ele>
        <time>2012-05-26T16:28:32Z</time>
      </trkpt>
      <trkpt lat="44.41745" lon="5.91511">
        <ele>1102.29</ele>
        <time>2012-05-26T16:28:40Z</time>
      </trkpt>
      <trkpt lat="44.41719" lon="5.91515">
        <ele>1106.13</ele>
        <time>2012-05-26T16:28:58Z</time>
      </trkpt>
      <trkpt lat="44.41679" lon="5.9149">
        <ele>1111.9</ele>
        <time>2012-05-26T16:29:29Z</time>
      </trkpt>
      <trkpt lat="44.41648" lon="5.91455">
        <ele>1116.71</ele>
        <time>2012-05-26T16:30:01Z</time>
      </trkpt>
      <trkpt lat="44.4164" lon="5.91451">
        <ele>1117.67</ele>
        <time>2012-05-26T16:30:07Z</time>
      </trkpt>
      <trkpt lat="44.41619" lon="5.91424">
        <ele>1121.03</ele>
        <time>2012-05-26T16:30:28Z</time>
      </trkpt>
      <trkpt lat="44.41606" lon="5.91385">
        <ele>1124.4</ele>
        <time>2012-05-26T16:30:50Z</time>
      </trkpt>
      <trkpt lat="44.41604" lon="5.9138">
        <ele>1124.4</ele>
        <time>2012-05-26T16:30:53Z</time>
      </trkpt>
      <trkpt lat="44.41604" lon="5.91376">
        <ele>1125.36</ele>
        <time>2012-05-26T16:30:55Z</time>
      </trkpt>
      <trkpt lat="44.416" lon="5.91317">
        <ele>1130.17</ele>
        <time>2012-05-26T16:32:42Z</time>
      </trkpt>
      <trkpt lat="44.41603" lon="5.91284">
        <ele>1133.05</ele>
        <time>2012-05-26T16:32:58Z</time>
      </trkpt>
      <trkpt lat="44.41594" lon="5.91248">
        <ele>1136.42</ele>
        <time>2012-05-26T16:33:17Z</time>
      </trkpt>
      <trkpt lat="44.41581" lon="5.91186">
        <ele>1140.74</ele>
        <time>2012-05-26T16:34:05Z</time>
      </trkpt>
      <trkpt lat="44.41568" lon="5.91129">
        <ele>1145.55</ele>
        <time>2012-05-26T16:34:34Z</time>
      </trkpt>
      <trkpt lat="44.41559" lon="5.91118">
        <ele>1146.51</ele>
        <time>2012-05-26T16:34:44Z</time>
      </trkpt>
      <trkpt lat="44.41564" lon="5.91098">
        <ele>1149.39</ele>
        <time>2012-05-26T16:34:58Z</time>
      </trkpt>
      <trkpt lat="44.41576" lon="5.91066">
        <ele>1152.76</ele>
        <time>2012-05-26T16:35:20Z</time>
      </trkpt>
      <trkpt lat="44.41588" lon="5.91043">
        <ele>1155.64</ele>
        <time>2012-05-26T16:35:39Z</time>
      </trkpt>
      <trkpt lat="44.4159" lon="5.91016">
        <ele>1159.01</ele>
        <time>2012-05-26T16:35:58Z</time>
      </trkpt>
      <trkpt lat="44.41594" lon="5.90975">
        <ele>1161.89</ele>
        <time>2012-05-26T16:36:26Z</time>
      </trkpt>
      <trkpt lat="44.4159" lon="5.90906">
        <ele>1167.66</ele>
        <time>2012-05-26T16:37:10Z</time>
      </trkpt>
      <trkpt lat="44.41592" lon="5.90893">
        <ele>1169.1</ele>
        <time>2012-05-26T16:37:51Z</time>
      </trkpt>
      <trkpt lat="44.41598" lon="5.90869">
        <ele>1172.47</ele>
        <time>2012-05-26T16:38:07Z</time>
      </trkpt>
      <trkpt lat="44.41598" lon="5.90866">
        <ele>1172.47</ele>
        <time>2012-05-26T16:38:09Z</time>
      </trkpt>
      <trkpt lat="44.41599" lon="5.90863">
        <ele>1172.95</ele>
        <time>2012-05-26T16:38:11Z</time>
      </trkpt>
      <trkpt lat="44.41604" lon="5.90814">
        <ele>1178.23</ele>
        <time>2012-05-26T16:38:42Z</time>
      </trkpt>
      <trkpt lat="44.41605" lon="5.9081">
        <ele>1178.23</ele>
        <time>2012-05-26T16:38:44Z</time>
      </trkpt>
      <trkpt lat="44.41615" lon="5.90761">
        <ele>1183.04</ele>
        <time>2012-05-26T16:39:13Z</time>
      </trkpt>
      <trkpt lat="44.41615" lon="5.90744">
        <ele>1184</ele>
        <time>2012-05-26T16:39:23Z</time>
      </trkpt>
      <trkpt lat="44.41615" lon="5.90707">
        <ele>1187.37</ele>
        <time>2012-05-26T16:39:44Z</time>
      </trkpt>
      <trkpt lat="44.41623" lon="5.90653">
        <ele>1190.73</ele>
        <time>2012-05-26T16:40:15Z</time>
      </trkpt>
      <trkpt lat="44.41626" lon="5.90627">
        <ele>1191.21</ele>
        <time>2012-05-26T16:40:27Z</time>
      </trkpt>
      <trkpt lat="44.416" lon="5.90621">
        <ele>1194.58</ele>
        <time>2012-05-26T16:40:50Z</time>
      </trkpt>
      <trkpt lat="44.41593" lon="5.90636">
        <ele>1196.5</ele>
        <time>2012-05-26T16:41:05Z</time>
      </trkpt>
      <trkpt lat="44.41574" lon="5.90677">
        <ele>1200.34</ele>
        <time>2012-05-26T16:41:30Z</time>
      </trkpt>
      <trkpt lat="44.41543" lon="5.90706">
        <ele>1203.71</ele>
        <time>2012-05-26T16:41:58Z</time>
      </trkpt>
      <trkpt lat="44.41526" lon="5.90738">
        <ele>1206.59</ele>
        <time>2012-05-26T16:42:17Z</time>
      </trkpt>
      <trkpt lat="44.41506" lon="5.9076">
        <ele>1210.44</ele>
        <time>2012-05-26T16:42:39Z</time>
      </trkpt>
      <trkpt lat="44.41503" lon="5.90763">
        <ele>1210.44</ele>
        <time>2012-05-26T16:43:00Z</time>
      </trkpt>
      <trkpt lat="44.41479" lon="5.90781">
        <ele>1214.28</ele>
        <time>2012-05-26T16:43:24Z</time>
      </trkpt>
      <trkpt lat="44.41475" lon="5.90788">
        <ele>1215.72</ele>
        <time>2012-05-26T16:44:15Z</time>
      </trkpt>
      <trkpt lat="44.41475" lon="5.90789">
        <ele>1219.09</ele>
        <time>2012-05-26T16:51:43Z</time>
      </trkpt>
      <trkpt lat="44.41466" lon="5.90798">
        <ele>1221.49</ele>
        <time>2012-05-26T16:52:19Z</time>
      </trkpt>
      <trkpt lat="44.41458" lon="5.90819">
        <ele>1224.86</ele>
        <time>2012-05-26T16:52:35Z</time>
      </trkpt>
      <trkpt lat="44.4143" lon="5.90829">
        <ele>1228.7</ele>
        <time>2012-05-26T16:52:58Z</time>
      </trkpt>
      <trkpt lat="44.414" lon="5.90835">
        <ele>1232.55</ele>
        <time>2012-05-26T16:53:21Z</time>
      </trkpt>
      <trkpt lat="44.41359" lon="5.90893">
        <ele>1234.95</ele>
        <time>2012-05-26T16:53:56Z</time>
      </trkpt>
      <trkpt lat="44.41346" lon="5.9088">
        <ele>1238.32</ele>
        <time>2012-05-26T16:54:18Z</time>
      </trkpt>
      <trkpt lat="44.41359" lon="5.90833">
        <ele>1242.16</ele>
        <time>2012-05-26T16:54:38Z</time>
      </trkpt>
      <trkpt lat="44.41379" lon="5.90794">
        <ele>1246.49</ele>
        <time>2012-05-26T16:55:04Z</time>
      </trkpt>
      <trkpt lat="44.4138" lon="5.90793">
        <ele>1245.04</ele>
        <time>2012-05-26T16:55:05Z</time>
      </trkpt>
      <trkpt lat="44.41394" lon="5.90782">
        <ele>1248.41</ele>
        <time>2012-05-26T16:55:16Z</time>
      </trkpt>
      <trkpt lat="44.41424" lon="5.90739">
        <ele>1252.25</ele>
        <time>2012-05-26T16:55:51Z</time>
      </trkpt>
      <trkpt lat="44.41437" lon="5.90694">
        <ele>1256.1</ele>
        <time>2012-05-26T16:56:16Z</time>
      </trkpt>
      <trkpt lat="44.41454" lon="5.90668">
        <ele>1259.46</ele>
        <time>2012-05-26T16:56:33Z</time>
      </trkpt>
      <trkpt lat="44.41505" lon="5.90568">
        <ele>1264.27</ele>
        <time>2012-05-26T16:57:28Z</time>
      </trkpt>
      <trkpt lat="44.41524" lon="5.90488">
        <ele>1269.08</ele>
        <time>2012-05-26T16:58:06Z</time>
      </trkpt>
      <trkpt lat="44.4149" lon="5.9052">
        <ele>1274.36</ele>
        <time>2012-05-26T16:58:38Z</time>
      </trkpt>
      <trkpt lat="44.41452" lon="5.90564">
        <ele>1276.29</ele>
        <time>2012-05-26T16:59:05Z</time>
      </trkpt>
      <trkpt lat="44.41418" lon="5.90623">
        <ele>1280.61</ele>
        <time>2012-05-26T16:59:36Z</time>
      </trkpt>
      <trkpt lat="44.41394" lon="5.90626">
        <ele>1282.54</ele>
        <time>2012-05-26T16:59:51Z</time>
      </trkpt>
      <trkpt lat="44.41369" lon="5.90629">
        <ele>1283.98</ele>
        <time>2012-05-26T17:00:06Z</time>
      </trkpt>
      <trkpt lat="44.41363" lon="5.90634">
        <ele>1283.98</ele>
        <time>2012-05-26T17:00:10Z</time>
      </trkpt>
      <trkpt lat="44.41327" lon="5.90718">
        <ele>1284.94</ele>
        <time>2012-05-26T17:00:39Z</time>
      </trkpt>
      <trkpt lat="44.41309" lon="5.90761">
        <ele>1290.23</ele>
        <time>2012-05-26T17:01:06Z</time>
      </trkpt>
      <trkpt lat="44.41276" lon="5.90765">
        <ele>1295.03</ele>
        <time>2012-05-26T17:02:15Z</time>
      </trkpt>
      <trkpt lat="44.41272" lon="5.90764">
        <ele>1295.03</ele>
        <time>2012-05-26T17:02:18Z</time>
      </trkpt>
      <trkpt lat="44.41265" lon="5.90765">
        <ele>1295.99</ele>
        <time>2012-05-26T17:02:22Z</time>
      </trkpt>
      <trkpt lat="44.41224" lon="5.90758">
        <ele>1302.24</ele>
        <time>2012-05-26T17:02:58Z</time>
      </trkpt>
      <trkpt lat="44.41223" lon="5.90759">
        <ele>1302.24</ele>
        <time>2012-05-26T17:03:08Z</time>
      </trkpt>
      <trkpt lat="44.41202" lon="5.90781">
        <ele>1305.13</ele>
        <time>2012-05-26T17:04:43Z</time>
      </trkpt>
      <trkpt lat="44.41185" lon="5.90801">
        <ele>1308.49</ele>
        <time>2012-05-26T17:04:58Z</time>
      </trkpt>
      <trkpt lat="44.41173" lon="5.90821">
        <ele>1310.41</ele>
        <time>2012-05-26T17:05:12Z</time>
      </trkpt>
      <trkpt lat="44.41156" lon="5.90866">
        <ele>1316.18</ele>
        <time>2012-05-26T17:05:42Z</time>
      </trkpt>
      <trkpt lat="44.41131" lon="5.90916">
        <ele>1321.95</ele>
        <time>2012-05-26T17:06:19Z</time>
      </trkpt>
      <trkpt lat="44.41119" lon="5.90941">
        <ele>1325.31</ele>
        <time>2012-05-26T17:06:40Z</time>
      </trkpt>
      <trkpt lat="44.41118" lon="5.90942">
        <ele>1325.31</ele>
        <time>2012-05-26T17:06:41Z</time>
      </trkpt>
      <trkpt lat="44.41093" lon="5.90994">
        <ele>1330.12</ele>
        <time>2012-05-26T17:07:23Z</time>
      </trkpt>
      <trkpt lat="44.41072" lon="5.91028">
        <ele>1333.97</ele>
        <time>2012-05-26T17:07:50Z</time>
      </trkpt>
      <trkpt lat="44.4105" lon="5.91063">
        <ele>1337.81</ele>
        <time>2012-05-26T17:08:20Z</time>
      </trkpt>
      <trkpt lat="44.41034" lon="5.91101">
        <ele>1341.18</ele>
        <time>2012-05-26T17:08:52Z</time>
      </trkpt>
      <trkpt lat="44.4103" lon="5.91121">
        <ele>1343.1</ele>
        <time>2012-05-26T17:09:07Z</time>
      </trkpt>
      <trkpt lat="44.41019" lon="5.91149">
        <ele>1345.98</ele>
        <time>2012-05-26T17:09:28Z</time>
      </trkpt>
      <trkpt lat="44.41016" lon="5.91151">
        <ele>1345.98</ele>
        <time>2012-05-26T17:09:46Z</time>
      </trkpt>
      <trkpt lat="44.4102" lon="5.91154">
        <ele>1349.83</ele>
        <time>2012-05-26T17:14:47Z</time>
      </trkpt>
      <trkpt lat="44.4102" lon="5.91155">
        <ele>1348.39</ele>
        <time>2012-05-26T17:15:10Z</time>
      </trkpt>
      <trkpt lat="44.41016" lon="5.91149">
        <ele>1351.27</ele>
        <time>2012-05-26T17:24:02Z</time>
      </trkpt>
      <trkpt lat="44.41013" lon="5.91152">
        <ele>1351.27</ele>
        <time>2012-05-26T17:25:23Z</time>
      </trkpt>
      <trkpt lat="44.41001" lon="5.91119">
        <ele>1349.35</ele>
        <time>2012-05-26T17:25:43Z</time>
      </trkpt>
      <trkpt lat="44.40993" lon="5.91088">
        <ele>1345.5</ele>
        <time>2012-05-26T17:25:52Z</time>
      </trkpt>
      <trkpt lat="44.40975" lon="5.91057">
        <ele>1342.14</ele>
        <time>2012-05-26T17:25:58Z</time>
      </trkpt>
      <trkpt lat="44.40955" lon="5.91037">
        <ele>1338.29</ele>
        <time>2012-05-26T17:26:02Z</time>
      </trkpt>
      <trkpt lat="44.40932" lon="5.91026">
        <ele>1334.93</ele>
        <time>2012-05-26T17:26:05Z</time>
      </trkpt>
      <trkpt lat="44.40922" lon="5.91013">
        <ele>1333.49</ele>
        <time>2012-05-26T17:26:06Z</time>
      </trkpt>
      <trkpt lat="44.40916" lon="5.91004">
        <ele>1332.52</ele>
        <time>2012-05-26T17:26:07Z</time>
      </trkpt>
      <trkpt lat="44.40907" lon="5.90959">
        <ele>1327.72</ele>
        <time>2012-05-26T17:26:11Z</time>
      </trkpt>
      <trkpt lat="44.40891" lon="5.90908">
        <ele>1323.87</ele>
        <time>2012-05-26T17:26:15Z</time>
      </trkpt>
      <trkpt lat="44.40874" lon="5.90866">
        <ele>1320.51</ele>
        <time>2012-05-26T17:26:18Z</time>
      </trkpt>
      <trkpt lat="44.4087" lon="5.90852">
        <ele>1320.51</ele>
        <time>2012-05-26T17:26:19Z</time>
      </trkpt>
      <trkpt lat="44.40862" lon="5.90824">
        <ele>1316.66</ele>
        <time>2012-05-26T17:26:21Z</time>
      </trkpt>
      <trkpt lat="44.40847" lon="5.90754">
        <ele>1311.38</ele>
        <time>2012-05-26T17:26:26Z</time>
      </trkpt>
      <trkpt lat="44.40843" lon="5.90663">
        <ele>1305.61</ele>
        <time>2012-05-26T17:26:32Z</time>
      </trkpt>
      <trkpt lat="44.40836" lon="5.90622">
        <ele>1301.28</ele>
        <time>2012-05-26T17:26:35Z</time>
      </trkpt>
      <trkpt lat="44.40828" lon="5.90585">
        <ele>1297.92</ele>
        <time>2012-05-26T17:26:38Z</time>
      </trkpt>
      <trkpt lat="44.40819" lon="5.90531">
        <ele>1291.67</ele>
        <time>2012-05-26T17:26:42Z</time>
      </trkpt>
      <trkpt lat="44.40817" lon="5.9052">
        <ele>1291.19</ele>
        <time>2012-05-26T17:26:43Z</time>
      </trkpt>
      <trkpt lat="44.40816" lon="5.90503">
        <ele>1289.27</ele>
        <time>2012-05-26T17:26:45Z</time>
      </trkpt>
      <trkpt lat="44.40826" lon="5.90479">
        <ele>1284.94</ele>
        <time>2012-05-26T17:26:51Z</time>
      </trkpt>
      <trkpt lat="44.40865" lon="5.90447">
        <ele>1283.02</ele>
        <time>2012-05-26T17:27:05Z</time>
      </trkpt>
      <trkpt lat="44.4088" lon="5.90434">
        <ele>1281.57</ele>
        <time>2012-05-26T17:27:30Z</time>
      </trkpt>
      <trkpt lat="44.4092" lon="5.90407">
        <ele>1280.13</ele>
        <time>2012-05-26T17:27:42Z</time>
      </trkpt>
      <trkpt lat="44.40957" lon="5.9039">
        <ele>1278.69</ele>
        <time>2012-05-26T17:27:48Z</time>
      </trkpt>
      <trkpt lat="44.40981" lon="5.9037">
        <ele>1277.73</ele>
        <time>2012-05-26T17:27:51Z</time>
      </trkpt>
      <trkpt lat="44.41035" lon="5.9033">
        <ele>1274.85</ele>
        <time>2012-05-26T17:27:57Z</time>
      </trkpt>
      <trkpt lat="44.41042" lon="5.9032">
        <ele>1274.85</ele>
        <time>2012-05-26T17:27:58Z</time>
      </trkpt>
      <trkpt lat="44.41042" lon="5.90264">
        <ele>1272.92</ele>
        <time>2012-05-26T17:28:03Z</time>
      </trkpt>
      <trkpt lat="44.41039" lon="5.90253">
        <ele>1272.44</ele>
        <time>2012-05-26T17:28:04Z</time>
      </trkpt>
      <trkpt lat="44.41036" lon="5.90243">
        <ele>1271.96</ele>
        <time>2012-05-26T17:28:05Z</time>
      </trkpt>
      <trkpt lat="44.4103" lon="5.90182">
        <ele>1267.64</ele>
        <time>2012-05-26T17:28:11Z</time>
      </trkpt>
      <trkpt lat="44.41031" lon="5.90174">
        <ele>1267.64</ele>
        <time>2012-05-26T17:28:12Z</time>
      </trkpt>
      <trkpt lat="44.41042" lon="5.90136">
        <ele>1266.19</ele>
        <time>2012-05-26T17:28:16Z</time>
      </trkpt>
      <trkpt lat="44.41045" lon="5.90129">
        <ele>1265.23</ele>
        <time>2012-05-26T17:28:17Z</time>
      </trkpt>
      <trkpt lat="44.41076" lon="5.9008">
        <ele>1261.87</ele>
        <time>2012-05-26T17:28:24Z</time>
      </trkpt>
      <trkpt lat="44.41082" lon="5.90045">
        <ele>1259.94</ele>
        <time>2012-05-26T17:28:29Z</time>
      </trkpt>
      <trkpt lat="44.41082" lon="5.90038">
        <ele>1258.98</ele>
        <time>2012-05-26T17:28:30Z</time>
      </trkpt>
      <trkpt lat="44.4108" lon="5.90029">
        <ele>1258.98</ele>
        <time>2012-05-26T17:28:31Z</time>
      </trkpt>
      <trkpt lat="44.41067" lon="5.89975">
        <ele>1256.58</ele>
        <time>2012-05-26T17:28:36Z</time>
      </trkpt>
      <trkpt lat="44.41062" lon="5.89968">
        <ele>1256.1</ele>
        <time>2012-05-26T17:28:37Z</time>
      </trkpt>
      <trkpt lat="44.41056" lon="5.89923">
        <ele>1254.66</ele>
        <time>2012-05-26T17:28:43Z</time>
      </trkpt>
      <trkpt lat="44.41065" lon="5.89914">
        <ele>1254.66</ele>
        <time>2012-05-26T17:28:53Z</time>
      </trkpt>
      <trkpt lat="44.4113" lon="5.89861">
        <ele>1257.54</ele>
        <time>2012-05-26T17:29:23Z</time>
      </trkpt>
      <trkpt lat="44.41215" lon="5.89803">
        <ele>1260.91</ele>
        <time>2012-05-26T17:30:04Z</time>
      </trkpt>
      <trkpt lat="44.41282" lon="5.89778">
        <ele>1262.83</ele>
        <time>2012-05-26T17:30:25Z</time>
      </trkpt>
      <trkpt lat="44.41311" lon="5.89785">
        <ele>1264.27</ele>
        <time>2012-05-26T17:30:36Z</time>
      </trkpt>
      <trkpt lat="44.41336" lon="5.8979">
        <ele>1265.23</ele>
        <time>2012-05-26T17:30:44Z</time>
      </trkpt>
      <trkpt lat="44.41386" lon="5.89721">
        <ele>1266.19</ele>
        <time>2012-05-26T17:31:08Z</time>
      </trkpt>
      <trkpt lat="44.4142" lon="5.89683">
        <ele>1268.12</ele>
        <time>2012-05-26T17:31:24Z</time>
      </trkpt>
      <trkpt lat="44.41445" lon="5.89669">
        <ele>1268.12</ele>
        <time>2012-05-26T17:31:37Z</time>
      </trkpt>
      <trkpt lat="44.41443" lon="5.89668">
        <ele>1267.64</ele>
        <time>2012-05-26T17:31:39Z</time>
      </trkpt>
      <trkpt lat="44.41462" lon="5.89588">
        <ele>1270.52</ele>
        <time>2012-05-26T17:31:57Z</time>
      </trkpt>
      <trkpt lat="44.4146" lon="5.89574">
        <ele>1269.56</ele>
        <time>2012-05-26T17:32:02Z</time>
      </trkpt>
      <trkpt lat="44.41445" lon="5.89515">
        <ele>1270.04</ele>
        <time>2012-05-26T17:32:27Z</time>
      </trkpt>
      <trkpt lat="44.41467" lon="5.89469">
        <ele>1272.92</ele>
        <time>2012-05-26T17:32:48Z</time>
      </trkpt>
      <trkpt lat="44.41516" lon="5.8944">
        <ele>1274.85</ele>
        <time>2012-05-26T17:33:20Z</time>
      </trkpt>
      <trkpt lat="44.41537" lon="5.89434">
        <ele>1275.81</ele>
        <time>2012-05-26T17:33:46Z</time>
      </trkpt>
      <trkpt lat="44.41545" lon="5.89346">
        <ele>1278.21</ele>
        <time>2012-05-26T17:34:08Z</time>
      </trkpt>
      <trkpt lat="44.41521" lon="5.89294">
        <ele>1277.73</ele>
        <time>2012-05-26T17:34:21Z</time>
      </trkpt>
      <trkpt lat="44.41521" lon="5.89287">
        <ele>1277.25</ele>
        <time>2012-05-26T17:34:22Z</time>
      </trkpt>
      <trkpt lat="44.4154" lon="5.89198">
        <ele>1278.21</ele>
        <time>2012-05-26T17:34:47Z</time>
      </trkpt>
      <trkpt lat="44.41564" lon="5.89176">
        <ele>1277.73</ele>
        <time>2012-05-26T17:35:33Z</time>
      </trkpt>
      <trkpt lat="44.41572" lon="5.89171">
        <ele>1278.69</ele>
        <time>2012-05-26T17:37:10Z</time>
      </trkpt>
      <trkpt lat="44.41604" lon="5.8911">
        <ele>1279.65</ele>
        <time>2012-05-26T17:37:25Z</time>
      </trkpt>
      <trkpt lat="44.41603" lon="5.89105">
        <ele>1279.65</ele>
        <time>2012-05-26T17:37:26Z</time>
      </trkpt>
      <trkpt lat="44.41598" lon="5.89084">
        <ele>1279.17</ele>
        <time>2012-05-26T17:37:30Z</time>
      </trkpt>
      <trkpt lat="44.41609" lon="5.89049">
        <ele>1280.61</ele>
        <time>2012-05-26T17:37:37Z</time>
      </trkpt>
      <trkpt lat="44.4161" lon="5.89045">
        <ele>1281.09</ele>
        <time>2012-05-26T17:37:38Z</time>
      </trkpt>
      <trkpt lat="44.41589" lon="5.88967">
        <ele>1282.06</ele>
        <time>2012-05-26T17:37:54Z</time>
      </trkpt>
      <trkpt lat="44.4158" lon="5.88921">
        <ele>1282.54</ele>
        <time>2012-05-26T17:38:04Z</time>
      </trkpt>
      <trkpt lat="44.41573" lon="5.88883">
        <ele>1283.02</ele>
        <time>2012-05-26T17:38:10Z</time>
      </trkpt>
      <trkpt lat="44.4156" lon="5.8884">
        <ele>1282.06</ele>
        <time>2012-05-26T17:38:18Z</time>
      </trkpt>
      <trkpt lat="44.41565" lon="5.88786">
        <ele>1283.02</ele>
        <time>2012-05-26T17:38:27Z</time>
      </trkpt>
      <trkpt lat="44.41554" lon="5.88765">
        <ele>1283.98</ele>
        <time>2012-05-26T17:38:31Z</time>
      </trkpt>
      <trkpt lat="44.41551" lon="5.88762">
        <ele>1284.46</ele>
        <time>2012-05-26T17:38:32Z</time>
      </trkpt>
      <trkpt lat="44.4154" lon="5.88751">
        <ele>1283.98</ele>
        <time>2012-05-26T17:38:35Z</time>
      </trkpt>
      <trkpt lat="44.4153" lon="5.88726">
        <ele>1283.5</ele>
        <time>2012-05-26T17:38:40Z</time>
      </trkpt>
      <trkpt lat="44.41539" lon="5.88696">
        <ele>1282.54</ele>
        <time>2012-05-26T17:38:57Z</time>
      </trkpt>
      <trkpt lat="44.41547" lon="5.88688">
        <ele>1281.57</ele>
        <time>2012-05-26T17:39:47Z</time>
      </trkpt>
      <trkpt lat="44.41576" lon="5.8866">
        <ele>1278.21</ele>
        <time>2012-05-26T17:39:53Z</time>
      </trkpt>
      <trkpt lat="44.41622" lon="5.88623">
        <ele>1274.36</ele>
        <time>2012-05-26T17:40:01Z</time>
      </trkpt>
      <trkpt lat="44.41643" lon="5.88605">
        <ele>1271</ele>
        <time>2012-05-26T17:40:04Z</time>
      </trkpt>
      <trkpt lat="44.4165" lon="5.886">
        <ele>1271</ele>
        <time>2012-05-26T17:40:05Z</time>
      </trkpt>
      <trkpt lat="44.41705" lon="5.88562">
        <ele>1265.23</ele>
        <time>2012-05-26T17:40:12Z</time>
      </trkpt>
      <trkpt lat="44.41738" lon="5.88544">
        <ele>1260.91</ele>
        <time>2012-05-26T17:40:16Z</time>
      </trkpt>
      <trkpt lat="44.41746" lon="5.88539">
        <ele>1260.91</ele>
        <time>2012-05-26T17:40:17Z</time>
      </trkpt>
      <trkpt lat="44.4177" lon="5.88533">
        <ele>1256.58</ele>
        <time>2012-05-26T17:40:20Z</time>
      </trkpt>
      <trkpt lat="44.41795" lon="5.88528">
        <ele>1252.25</ele>
        <time>2012-05-26T17:40:23Z</time>
      </trkpt>
      <trkpt lat="44.41818" lon="5.885">
        <ele>1248.41</ele>
        <time>2012-05-26T17:40:27Z</time>
      </trkpt>
      <trkpt lat="44.41831" lon="5.88454">
        <ele>1245.04</ele>
        <time>2012-05-26T17:40:31Z</time>
      </trkpt>
      <trkpt lat="44.41834" lon="5.88443">
        <ele>1244.08</ele>
        <time>2012-05-26T17:40:32Z</time>
      </trkpt>
      <trkpt lat="44.41882" lon="5.88405">
        <ele>1238.32</ele>
        <time>2012-05-26T17:40:40Z</time>
      </trkpt>
      <trkpt lat="44.41911" lon="5.88403">
        <ele>1234.95</ele>
        <time>2012-05-26T17:40:44Z</time>
      </trkpt>
      <trkpt lat="44.41915" lon="5.88407">
        <ele>1233.99</ele>
        <time>2012-05-26T17:40:45Z</time>
      </trkpt>
      <trkpt lat="44.41918" lon="5.8841">
        <ele>1234.47</ele>
        <time>2012-05-26T17:40:46Z</time>
      </trkpt>
      <trkpt lat="44.41924" lon="5.88414">
        <ele>1233.51</ele>
        <time>2012-05-26T17:40:47Z</time>
      </trkpt>
      <trkpt lat="44.41947" lon="5.8843">
        <ele>1230.62</ele>
        <time>2012-05-26T17:40:51Z</time>
      </trkpt>
      <trkpt lat="44.41959" lon="5.88429">
        <ele>1228.7</ele>
        <time>2012-05-26T17:40:53Z</time>
      </trkpt>
      <trkpt lat="44.41969" lon="5.8842">
        <ele>1227.74</ele>
        <time>2012-05-26T17:40:55Z</time>
      </trkpt>
      <trkpt lat="44.41971" lon="5.88389">
        <ele>1223.9</ele>
        <time>2012-05-26T17:40:59Z</time>
      </trkpt>
      <trkpt lat="44.41972" lon="5.8838">
        <ele>1222.93</ele>
        <time>2012-05-26T17:41:00Z</time>
      </trkpt>
      <trkpt lat="44.41972" lon="5.8837">
        <ele>1222.93</ele>
        <time>2012-05-26T17:41:01Z</time>
      </trkpt>
      <trkpt lat="44.41971" lon="5.8834">
        <ele>1219.57</ele>
        <time>2012-05-26T17:41:04Z</time>
      </trkpt>
      <trkpt lat="44.41979" lon="5.88306">
        <ele>1216.21</ele>
        <time>2012-05-26T17:41:08Z</time>
      </trkpt>
      <trkpt lat="44.42031" lon="5.88261">
        <ele>1209.96</ele>
        <time>2012-05-26T17:41:18Z</time>
      </trkpt>
      <trkpt lat="44.42043" lon="5.88254">
        <ele>1208.51</ele>
        <time>2012-05-26T17:41:20Z</time>
      </trkpt>
      <trkpt lat="44.42053" lon="5.88248">
        <ele>1206.59</ele>
        <time>2012-05-26T17:41:23Z</time>
      </trkpt>
      <trkpt lat="44.42055" lon="5.88232">
        <ele>1205.15</ele>
        <time>2012-05-26T17:41:27Z</time>
      </trkpt>
      <trkpt lat="44.42056" lon="5.88224">
        <ele>1205.15</ele>
        <time>2012-05-26T17:41:42Z</time>
      </trkpt>
      <trkpt lat="44.42058" lon="5.8822">
        <ele>1203.71</ele>
        <time>2012-05-26T17:43:26Z</time>
      </trkpt>
      <trkpt lat="44.42057" lon="5.8822">
        <ele>1204.19</ele>
        <time>2012-05-26T17:43:27Z</time>
      </trkpt>
      <trkpt lat="44.42048" lon="5.88216">
        <ele>1203.23</ele>
        <time>2012-05-26T17:43:32Z</time>
      </trkpt>
      <trkpt lat="44.42042" lon="5.88212">
        <ele>1202.75</ele>
        <time>2012-05-26T17:43:34Z</time>
      </trkpt>
      <trkpt lat="44.42006" lon="5.88164">
        <ele>1198.42</ele>
        <time>2012-05-26T17:43:43Z</time>
      </trkpt>
      <trkpt lat="44.41985" lon="5.88123">
        <ele>1194.58</ele>
        <time>2012-05-26T17:43:47Z</time>
      </trkpt>
      <trkpt lat="44.41961" lon="5.88091">
        <ele>1190.25</ele>
        <time>2012-05-26T17:43:50Z</time>
      </trkpt>
      <trkpt lat="44.41928" lon="5.88054">
        <ele>1186.4</ele>
        <time>2012-05-26T17:43:54Z</time>
      </trkpt>
      <trkpt lat="44.41915" lon="5.88033">
        <ele>1182.56</ele>
        <time>2012-05-26T17:43:57Z</time>
      </trkpt>
      <trkpt lat="44.41907" lon="5.88043">
        <ele>1178.71</ele>
        <time>2012-05-26T17:44:02Z</time>
      </trkpt>
      <trkpt lat="44.4191" lon="5.88053">
        <ele>1178.23</ele>
        <time>2012-05-26T17:44:04Z</time>
      </trkpt>
      <trkpt lat="44.41914" lon="5.88067">
        <ele>1178.23</ele>
        <time>2012-05-26T17:44:06Z</time>
      </trkpt>
      <trkpt lat="44.41923" lon="5.88107">
        <ele>1174.87</ele>
        <time>2012-05-26T17:44:11Z</time>
      </trkpt>
      <trkpt lat="44.4193" lon="5.88112">
        <ele>1173.43</ele>
        <time>2012-05-26T17:44:13Z</time>
      </trkpt>
      <trkpt lat="44.41926" lon="5.88124">
        <ele>1167.66</ele>
        <time>2012-05-26T17:44:21Z</time>
      </trkpt>
      <trkpt lat="44.41921" lon="5.88123">
        <ele>1167.66</ele>
        <time>2012-05-26T17:44:22Z</time>
      </trkpt>
      <trkpt lat="44.41909" lon="5.88113">
        <ele>1165.26</ele>
        <time>2012-05-26T17:44:25Z</time>
      </trkpt>
      <trkpt lat="44.41895" lon="5.88094">
        <ele>1160.45</ele>
        <time>2012-05-26T17:44:33Z</time>
      </trkpt>
      <trkpt lat="44.41892" lon="5.88093">
        <ele>1160.45</ele>
        <time>2012-05-26T17:44:34Z</time>
      </trkpt>
      <trkpt lat="44.41872" lon="5.88086">
        <ele>1158.53</ele>
        <time>2012-05-26T17:44:38Z</time>
      </trkpt>
      <trkpt lat="44.41868" lon="5.88083">
        <ele>1158.05</ele>
        <time>2012-05-26T17:44:39Z</time>
      </trkpt>
      <trkpt lat="44.41837" lon="5.8805">
        <ele>1152.28</ele>
        <time>2012-05-26T17:44:46Z</time>
      </trkpt>
      <trkpt lat="44.41815" lon="5.88015">
        <ele>1148.91</ele>
        <time>2012-05-26T17:44:54Z</time>
      </trkpt>
      <trkpt lat="44.41798" lon="5.87999">
        <ele>1147.95</ele>
        <time>2012-05-26T17:45:52Z</time>
      </trkpt>
      <trkpt lat="44.41791" lon="5.87987">
        <ele>1143.63</ele>
        <time>2012-05-26T17:47:09Z</time>
      </trkpt>
      <trkpt lat="44.41791" lon="5.87979">
        <ele>1140.26</ele>
        <time>2012-05-26T17:47:34Z</time>
      </trkpt>
      <trkpt lat="44.41791" lon="5.8797">
        <ele>1138.34</ele>
        <time>2012-05-26T17:47:48Z</time>
      </trkpt>
      <trkpt lat="44.41793" lon="5.87954">
        <ele>1134.97</ele>
        <time>2012-05-26T17:47:51Z</time>
      </trkpt>
      <trkpt lat="44.41794" lon="5.87948">
        <ele>1135.45</ele>
        <time>2012-05-26T17:47:52Z</time>
      </trkpt>
      <trkpt lat="44.41793" lon="5.87931">
        <ele>1133.53</ele>
        <time>2012-05-26T17:48:07Z</time>
      </trkpt>
      <trkpt lat="44.41788" lon="5.87906">
        <ele>1132.57</ele>
        <time>2012-05-26T17:48:18Z</time>
      </trkpt>
      <trkpt lat="44.41784" lon="5.87874">
        <ele>1128.73</ele>
        <time>2012-05-26T17:48:24Z</time>
      </trkpt>
      <trkpt lat="44.41783" lon="5.87834">
        <ele>1123.92</ele>
        <time>2012-05-26T17:48:35Z</time>
      </trkpt>
      <trkpt lat="44.41782" lon="5.87804">
        <ele>1120.55</ele>
        <time>2012-05-26T17:48:40Z</time>
      </trkpt>
      <trkpt lat="44.41783" lon="5.87797">
        <ele>1119.59</ele>
        <time>2012-05-26T17:48:41Z</time>
      </trkpt>
      <trkpt lat="44.41787" lon="5.87753">
        <ele>1116.71</ele>
        <time>2012-05-26T17:48:46Z</time>
      </trkpt>
      <trkpt lat="44.41788" lon="5.87712">
        <ele>1112.86</ele>
        <time>2012-05-26T17:48:51Z</time>
      </trkpt>
      <trkpt lat="44.41782" lon="5.87693">
        <ele>1108.54</ele>
        <time>2012-05-26T17:48:56Z</time>
      </trkpt>
      <trkpt lat="44.41782" lon="5.87692">
        <ele>1109.02</ele>
        <time>2012-05-26T17:48:57Z</time>
      </trkpt>
      <trkpt lat="44.41784" lon="5.87693">
        <ele>1108.54</ele>
        <time>2012-05-26T17:49:07Z</time>
      </trkpt>
      <trkpt lat="44.41777" lon="5.87725">
        <ele>1105.65</ele>
        <time>2012-05-26T17:49:13Z</time>
      </trkpt>
      <trkpt lat="44.41771" lon="5.87746">
        <ele>1101.81</ele>
        <time>2012-05-26T17:49:16Z</time>
      </trkpt>
      <trkpt lat="44.41762" lon="5.87763">
        <ele>1097.96</ele>
        <time>2012-05-26T17:49:19Z</time>
      </trkpt>
      <trkpt lat="44.41748" lon="5.87794">
        <ele>1092.2</ele>
        <time>2012-05-26T17:49:25Z</time>
      </trkpt>
      <trkpt lat="44.41748" lon="5.87799">
        <ele>1092.68</ele>
        <time>2012-05-26T17:49:26Z</time>
      </trkpt>
      <trkpt lat="44.4174" lon="5.87829">
        <ele>1090.75</ele>
        <time>2012-05-26T17:49:30Z</time>
      </trkpt>
      <trkpt lat="44.41738" lon="5.87835">
        <ele>1086.91</ele>
        <time>2012-05-26T17:49:31Z</time>
      </trkpt>
      <trkpt lat="44.41727" lon="5.87858">
        <ele>1083.54</ele>
        <time>2012-05-26T17:49:34Z</time>
      </trkpt>
      <trkpt lat="44.4172" lon="5.87875">
        <ele>1080.18</ele>
        <time>2012-05-26T17:49:37Z</time>
      </trkpt>
      <trkpt lat="44.41711" lon="5.87908">
        <ele>1077.29</ele>
        <time>2012-05-26T17:49:41Z</time>
      </trkpt>
      <trkpt lat="44.41709" lon="5.87911">
        <ele>1076.33</ele>
        <time>2012-05-26T17:49:42Z</time>
      </trkpt>
      <trkpt lat="44.41711" lon="5.87924">
        <ele>1074.41</ele>
        <time>2012-05-26T17:49:51Z</time>
      </trkpt>
      <trkpt lat="44.41711" lon="5.87929">
        <ele>1073.93</ele>
        <time>2012-05-26T17:49:53Z</time>
      </trkpt>
      <trkpt lat="44.41699" lon="5.87949">
        <ele>1070.57</ele>
        <time>2012-05-26T17:49:58Z</time>
      </trkpt>
      <trkpt lat="44.41691" lon="5.87968">
        <ele>1067.2</ele>
        <time>2012-05-26T17:50:16Z</time>
      </trkpt>
      <trkpt lat="44.41689" lon="5.87948">
        <ele>1066.72</ele>
        <time>2012-05-26T17:51:27Z</time>
      </trkpt>
      <trkpt lat="44.4169" lon="5.87899">
        <ele>1061.91</ele>
        <time>2012-05-26T17:51:35Z</time>
      </trkpt>
      <trkpt lat="44.41691" lon="5.87873">
        <ele>1058.07</ele>
        <time>2012-05-26T17:51:40Z</time>
      </trkpt>
      <trkpt lat="44.41693" lon="5.87815">
        <ele>1052.78</ele>
        <time>2012-05-26T17:51:51Z</time>
      </trkpt>
      <trkpt lat="44.41695" lon="5.87798">
        <ele>1051.82</ele>
        <time>2012-05-26T17:51:53Z</time>
      </trkpt>
      <trkpt lat="44.41696" lon="5.87779">
        <ele>1049.9</ele>
        <time>2012-05-26T17:51:55Z</time>
      </trkpt>
      <trkpt lat="44.41697" lon="5.87766">
        <ele>1046.53</ele>
        <time>2012-05-26T17:51:57Z</time>
      </trkpt>
      <trkpt lat="44.41697" lon="5.87741">
        <ele>1043.65</ele>
        <time>2012-05-26T17:52:10Z</time>
      </trkpt>
      <trkpt lat="44.41697" lon="5.87714">
        <ele>1040.28</ele>
        <time>2012-05-26T17:52:16Z</time>
      </trkpt>
      <trkpt lat="44.41695" lon="5.87687">
        <ele>1037.88</ele>
        <time>2012-05-26T17:52:22Z</time>
      </trkpt>
      <trkpt lat="44.41695" lon="5.87666">
        <ele>1034.04</ele>
        <time>2012-05-26T17:52:46Z</time>
      </trkpt>
      <trkpt lat="44.41691" lon="5.87674">
        <ele>1032.59</ele>
        <time>2012-05-26T17:53:49Z</time>
      </trkpt>
      <trkpt lat="44.41684" lon="5.87678">
        <ele>1031.63</ele>
        <time>2012-05-26T17:56:43Z</time>
      </trkpt>
      <trkpt lat="44.41674" lon="5.87699">
        <ele>1027.31</ele>
        <time>2012-05-26T17:56:47Z</time>
      </trkpt>
      <trkpt lat="44.4167" lon="5.87734">
        <ele>1023.94</ele>
        <time>2012-05-26T17:56:54Z</time>
      </trkpt>
      <trkpt lat="44.41657" lon="5.87767">
        <ele>1019.62</ele>
        <time>2012-05-26T17:57:00Z</time>
      </trkpt>
      <trkpt lat="44.41647" lon="5.87789">
        <ele>1015.29</ele>
        <time>2012-05-26T17:57:03Z</time>
      </trkpt>
      <trkpt lat="44.41644" lon="5.87796">
        <ele>1014.81</ele>
        <time>2012-05-26T17:57:04Z</time>
      </trkpt>
      <trkpt lat="44.41632" lon="5.87826">
        <ele>1010.96</ele>
        <time>2012-05-26T17:57:08Z</time>
      </trkpt>
      <trkpt lat="44.41623" lon="5.87842">
        <ele>1008.08</ele>
        <time>2012-05-26T17:57:12Z</time>
      </trkpt>
      <trkpt lat="44.41626" lon="5.878">
        <ele>1004.23</ele>
        <time>2012-05-26T17:57:19Z</time>
      </trkpt>
      <trkpt lat="44.41629" lon="5.87784">
        <ele>1001.83</ele>
        <time>2012-05-26T17:57:21Z</time>
      </trkpt>
      <trkpt lat="44.4163" lon="5.87776">
        <ele>1002.31</ele>
        <time>2012-05-26T17:57:22Z</time>
      </trkpt>
      <trkpt lat="44.41634" lon="5.87747">
        <ele>999.91</ele>
        <time>2012-05-26T17:57:25Z</time>
      </trkpt>
      <trkpt lat="44.41629" lon="5.87722">
        <ele>996.06</ele>
        <time>2012-05-26T17:57:28Z</time>
      </trkpt>
      <trkpt lat="44.41628" lon="5.87677">
        <ele>992.22</ele>
        <time>2012-05-26T17:57:34Z</time>
      </trkpt>
      <trkpt lat="44.41631" lon="5.87651">
        <ele>988.37</ele>
        <time>2012-05-26T17:57:38Z</time>
      </trkpt>
      <trkpt lat="44.4163" lon="5.87652">
        <ele>986.93</ele>
        <time>2012-05-26T17:57:46Z</time>
      </trkpt>
      <trkpt lat="44.41615" lon="5.87674">
        <ele>981.64</ele>
        <time>2012-05-26T17:57:55Z</time>
      </trkpt>
      <trkpt lat="44.41613" lon="5.87679">
        <ele>977.8</ele>
        <time>2012-05-26T17:58:13Z</time>
      </trkpt>
      <trkpt lat="44.41613" lon="5.87658">
        <ele>973.95</ele>
        <time>2012-05-26T17:58:19Z</time>
      </trkpt>
      <trkpt lat="44.41612" lon="5.87629">
        <ele>969.63</ele>
        <time>2012-05-26T17:58:39Z</time>
      </trkpt>
      <trkpt lat="44.41609" lon="5.87625">
        <ele>969.15</ele>
        <time>2012-05-26T17:58:48Z</time>
      </trkpt>
      <trkpt lat="44.41594" lon="5.87643">
        <ele>964.34</ele>
        <time>2012-05-26T17:58:55Z</time>
      </trkpt>
      <trkpt lat="44.41583" lon="5.87629">
        <ele>959.05</ele>
        <time>2012-05-26T17:59:03Z</time>
      </trkpt>
      <trkpt lat="44.4158" lon="5.8762">
        <ele>956.65</ele>
        <time>2012-05-26T17:59:12Z</time>
      </trkpt>
      <trkpt lat="44.41572" lon="5.87639">
        <ele>951.36</ele>
        <time>2012-05-26T17:59:21Z</time>
      </trkpt>
      <trkpt lat="44.41566" lon="5.87653">
        <ele>948</ele>
        <time>2012-05-26T17:59:26Z</time>
      </trkpt>
      <trkpt lat="44.41559" lon="5.87669">
        <ele>945.11</ele>
        <time>2012-05-26T17:59:39Z</time>
      </trkpt>
      <trkpt lat="44.41542" lon="5.87706">
        <ele>938.86</ele>
        <time>2012-05-26T17:59:49Z</time>
      </trkpt>
      <trkpt lat="44.41537" lon="5.87722">
        <ele>938.86</ele>
        <time>2012-05-26T18:00:16Z</time>
      </trkpt>
      <trkpt lat="44.41528" lon="5.87723">
        <ele>936.46</ele>
        <time>2012-05-26T18:00:50Z</time>
      </trkpt>
      <trkpt lat="44.41491" lon="5.87742">
        <ele>930.21</ele>
        <time>2012-05-26T18:01:03Z</time>
      </trkpt>
      <trkpt lat="44.41468" lon="5.87736">
        <ele>927.81</ele>
        <time>2012-05-26T18:01:09Z</time>
      </trkpt>
      <trkpt lat="44.41442" lon="5.87738">
        <ele>923.96</ele>
        <time>2012-05-26T18:01:15Z</time>
      </trkpt>
      <trkpt lat="44.41431" lon="5.87745">
        <ele>922.04</ele>
        <time>2012-05-26T18:01:20Z</time>
      </trkpt>
      <trkpt lat="44.41423" lon="5.87744">
        <ele>920.6</ele>
        <time>2012-05-26T18:01:23Z</time>
      </trkpt>
      <trkpt lat="44.4141" lon="5.87753">
        <ele>917.24</ele>
        <time>2012-05-26T18:01:36Z</time>
      </trkpt>
      <trkpt lat="44.41406" lon="5.87753">
        <ele>917.24</ele>
        <time>2012-05-26T18:01:42Z</time>
      </trkpt>
      <trkpt lat="44.41401" lon="5.8775">
        <ele>916.75</ele>
        <time>2012-05-26T18:01:50Z</time>
      </trkpt>
      <trkpt lat="44.41361" lon="5.87756">
        <ele>910.99</ele>
        <time>2012-05-26T18:01:59Z</time>
      </trkpt>
      <trkpt lat="44.41364" lon="5.87745">
        <ele>908.58</ele>
        <time>2012-05-26T18:02:05Z</time>
      </trkpt>
      <trkpt lat="44.41382" lon="5.87712">
        <ele>903.3</ele>
        <time>2012-05-26T18:02:10Z</time>
      </trkpt>
      <trkpt lat="44.41385" lon="5.87708">
        <ele>903.3</ele>
        <time>2012-05-26T18:02:11Z</time>
      </trkpt>
      <trkpt lat="44.4139" lon="5.87695">
        <ele>899.93</ele>
        <time>2012-05-26T18:02:18Z</time>
      </trkpt>
      <trkpt lat="44.41385" lon="5.87688">
        <ele>899.45</ele>
        <time>2012-05-26T18:02:19Z</time>
      </trkpt>
      <trkpt lat="44.41378" lon="5.87678">
        <ele>897.05</ele>
        <time>2012-05-26T18:02:21Z</time>
      </trkpt>
      <trkpt lat="44.41383" lon="5.8764">
        <ele>893.2</ele>
        <time>2012-05-26T18:02:26Z</time>
      </trkpt>
      <trkpt lat="44.41395" lon="5.87607">
        <ele>888.4</ele>
        <time>2012-05-26T18:02:29Z</time>
      </trkpt>
      <trkpt lat="44.41405" lon="5.87583">
        <ele>884.55</ele>
        <time>2012-05-26T18:02:32Z</time>
      </trkpt>
      <trkpt lat="44.41408" lon="5.8758">
        <ele>883.59</ele>
        <time>2012-05-26T18:02:34Z</time>
      </trkpt>
      <trkpt lat="44.41423" lon="5.87574">
        <ele>882.15</ele>
        <time>2012-05-26T18:02:39Z</time>
      </trkpt>
      <trkpt lat="44.41436" lon="5.87567">
        <ele>881.67</ele>
        <time>2012-05-26T18:02:45Z</time>
      </trkpt>
      <trkpt lat="44.41413" lon="5.87536">
        <ele>876.86</ele>
        <time>2012-05-26T18:02:52Z</time>
      </trkpt>
      <trkpt lat="44.41408" lon="5.87534">
        <ele>875.42</ele>
        <time>2012-05-26T18:02:53Z</time>
      </trkpt>
      <trkpt lat="44.41404" lon="5.87533">
        <ele>874.94</ele>
        <time>2012-05-26T18:02:54Z</time>
      </trkpt>
      <trkpt lat="44.4139" lon="5.87505">
        <ele>871.57</ele>
        <time>2012-05-26T18:02:59Z</time>
      </trkpt>
      <trkpt lat="44.41384" lon="5.87466">
        <ele>867.25</ele>
        <time>2012-05-26T18:03:03Z</time>
      </trkpt>
      <trkpt lat="44.41378" lon="5.87428">
        <ele>862.92</ele>
        <time>2012-05-26T18:03:06Z</time>
      </trkpt>
      <trkpt lat="44.41367" lon="5.87406">
        <ele>860.04</ele>
        <time>2012-05-26T18:03:09Z</time>
      </trkpt>
      <trkpt lat="44.41338" lon="5.874">
        <ele>856.19</ele>
        <time>2012-05-26T18:03:15Z</time>
      </trkpt>
      <trkpt lat="44.41318" lon="5.87399">
        <ele>852.83</ele>
        <time>2012-05-26T18:03:18Z</time>
      </trkpt>
      <trkpt lat="44.41295" lon="5.87374">
        <ele>847.54</ele>
        <time>2012-05-26T18:03:22Z</time>
      </trkpt>
      <trkpt lat="44.41281" lon="5.87355">
        <ele>843.69</ele>
        <time>2012-05-26T18:03:25Z</time>
      </trkpt>
      <trkpt lat="44.41272" lon="5.87353">
        <ele>842.73</ele>
        <time>2012-05-26T18:03:27Z</time>
      </trkpt>
      <trkpt lat="44.4125" lon="5.87354">
        <ele>838.41</ele>
        <time>2012-05-26T18:03:30Z</time>
      </trkpt>
      <trkpt lat="44.41219" lon="5.87342">
        <ele>832.64</ele>
        <time>2012-05-26T18:03:34Z</time>
      </trkpt>
      <trkpt lat="44.41204" lon="5.87332">
        <ele>829.27</ele>
        <time>2012-05-26T18:03:38Z</time>
      </trkpt>
      <trkpt lat="44.41203" lon="5.87328">
        <ele>829.27</ele>
        <time>2012-05-26T18:03:39Z</time>
      </trkpt>
      <trkpt lat="44.41208" lon="5.87307">
        <ele>827.35</ele>
        <time>2012-05-26T18:03:51Z</time>
      </trkpt>
      <trkpt lat="44.41208" lon="5.87303">
        <ele>827.35</ele>
        <time>2012-05-26T18:03:57Z</time>
      </trkpt>
      <trkpt lat="44.41197" lon="5.87283">
        <ele>825.43</ele>
        <time>2012-05-26T18:04:03Z</time>
      </trkpt>
      <trkpt lat="44.41191" lon="5.87268">
        <ele>824.95</ele>
        <time>2012-05-26T18:04:08Z</time>
      </trkpt>
      <trkpt lat="44.41173" lon="5.87241">
        <ele>822.55</ele>
        <time>2012-05-26T18:04:17Z</time>
      </trkpt>
      <trkpt lat="44.41181" lon="5.87216">
        <ele>822.55</ele>
        <time>2012-05-26T18:04:24Z</time>
      </trkpt>
      <trkpt lat="44.4118" lon="5.87231">
        <ele>822.55</ele>
        <time>2012-05-26T18:04:36Z</time>
      </trkpt>
      <trkpt lat="44.41197" lon="5.87177">
        <ele>822.55</ele>
        <time>2012-05-26T18:04:48Z</time>
      </trkpt>
      <trkpt lat="44.41183" lon="5.87158">
        <ele>822.55</ele>
        <time>2012-05-26T18:04:52Z</time>
      </trkpt>
      <trkpt lat="44.4116" lon="5.8714">
        <ele>822.55</ele>
        <time>2012-05-26T18:04:58Z</time>
      </trkpt>
      <trkpt lat="44.41151" lon="5.87105">
        <ele>821.58</ele>
        <time>2012-05-26T18:05:04Z</time>
      </trkpt>
      <trkpt lat="44.41164" lon="5.87025">
        <ele>823.03</ele>
        <time>2012-05-26T18:05:17Z</time>
      </trkpt>
      <trkpt lat="44.41166" lon="5.86963">
        <ele>823.51</ele>
        <time>2012-05-26T18:05:26Z</time>
      </trkpt>
      <trkpt lat="44.41169" lon="5.86945">
        <ele>823.51</ele>
        <time>2012-05-26T18:05:29Z</time>
      </trkpt>
      <trkpt lat="44.41177" lon="5.86923">
        <ele>823.99</ele>
        <time>2012-05-26T18:05:33Z</time>
      </trkpt>
      <trkpt lat="44.41224" lon="5.8688">
        <ele>824.47</ele>
        <time>2012-05-26T18:05:47Z</time>
      </trkpt>
      <trkpt lat="44.41303" lon="5.86849">
        <ele>826.39</ele>
        <time>2012-05-26T18:06:12Z</time>
      </trkpt>
      <trkpt lat="44.4131" lon="5.86842">
        <ele>825.91</ele>
        <time>2012-05-26T18:06:17Z</time>
      </trkpt>
      <trkpt lat="44.41289" lon="5.86797">
        <ele>827.83</ele>
        <time>2012-05-26T18:06:33Z</time>
      </trkpt>
      <trkpt lat="44.41295" lon="5.86775">
        <ele>829.76</ele>
        <time>2012-05-26T18:06:43Z</time>
      </trkpt>
      <trkpt lat="44.41307" lon="5.86774">
        <ele>830.24</ele>
        <time>2012-05-26T18:07:59Z</time>
      </trkpt>
      <trkpt lat="44.41315" lon="5.86775">
        <ele>830.72</ele>
        <time>2012-05-26T18:08:01Z</time>
      </trkpt>
      <trkpt lat="44.41341" lon="5.86772">
        <ele>832.64</ele>
        <time>2012-05-26T18:08:15Z</time>
      </trkpt>
      <trkpt lat="44.41384" lon="5.86772">
        <ele>836.96</ele>
        <time>2012-05-26T18:08:39Z</time>
      </trkpt>
      <trkpt lat="44.41387" lon="5.86771">
        <ele>837.45</ele>
        <time>2012-05-26T18:08:41Z</time>
      </trkpt>
      <trkpt lat="44.41404" lon="5.86772">
        <ele>839.85</ele>
        <time>2012-05-26T18:08:53Z</time>
      </trkpt>
      <trkpt lat="44.41424" lon="5.86774">
        <ele>841.29</ele>
        <time>2012-05-26T18:09:07Z</time>
      </trkpt>
      <trkpt lat="44.4146" lon="5.86775">
        <ele>845.14</ele>
        <time>2012-05-26T18:09:33Z</time>
      </trkpt>
      <trkpt lat="44.41501" lon="5.86773">
        <ele>849.94</ele>
        <time>2012-05-26T18:10:04Z</time>
      </trkpt>
      <trkpt lat="44.41529" lon="5.86771">
        <ele>853.31</ele>
        <time>2012-05-26T18:10:29Z</time>
      </trkpt>
      <trkpt lat="44.41571" lon="5.86766">
        <ele>857.63</ele>
        <time>2012-05-26T18:11:09Z</time>
      </trkpt>
      <trkpt lat="44.41599" lon="5.86766">
        <ele>861.48</ele>
        <time>2012-05-26T18:11:35Z</time>
      </trkpt>
      <trkpt lat="44.41615" lon="5.8676">
        <ele>863.4</ele>
        <time>2012-05-26T18:11:50Z</time>
      </trkpt>
      <trkpt lat="44.41623" lon="5.86748">
        <ele>864.84</ele>
        <time>2012-05-26T18:12:00Z</time>
      </trkpt>
      <trkpt lat="44.41619" lon="5.86738">
        <ele>866.77</ele>
        <time>2012-05-26T18:12:08Z</time>
      </trkpt>
      <trkpt lat="44.41604" lon="5.86713">
        <ele>866.29</ele>
        <time>2012-05-26T18:12:19Z</time>
      </trkpt>
      <trkpt lat="44.41583" lon="5.8663">
        <ele>864.84</ele>
        <time>2012-05-26T18:12:37Z</time>
      </trkpt>
      <trkpt lat="44.41581" lon="5.86625">
        <ele>864.84</ele>
        <time>2012-05-26T18:12:38Z</time>
      </trkpt>
      <trkpt lat="44.41569" lon="5.86592">
        <ele>862.44</ele>
        <time>2012-05-26T18:12:43Z</time>
      </trkpt>
      <trkpt lat="44.41565" lon="5.86586">
        <ele>862.44</ele>
        <time>2012-05-26T18:12:44Z</time>
      </trkpt>
      <trkpt lat="44.41542" lon="5.86579">
        <ele>861</ele>
        <time>2012-05-26T18:12:48Z</time>
      </trkpt>
      <trkpt lat="44.41496" lon="5.8659">
        <ele>860.52</ele>
        <time>2012-05-26T18:12:56Z</time>
      </trkpt>
      <trkpt lat="44.4148" lon="5.86592">
        <ele>860.04</ele>
        <time>2012-05-26T18:13:04Z</time>
      </trkpt>
      <trkpt lat="44.41476" lon="5.86592">
        <ele>860.52</ele>
        <time>2012-05-26T18:13:05Z</time>
      </trkpt>
      <trkpt lat="44.41438" lon="5.86581">
        <ele>861.96</ele>
        <time>2012-05-26T18:13:16Z</time>
      </trkpt>
      <trkpt lat="44.41434" lon="5.86583">
        <ele>861.96</ele>
        <time>2012-05-26T18:13:18Z</time>
      </trkpt>
      <trkpt lat="44.41403" lon="5.86557">
        <ele>861.96</ele>
        <time>2012-05-26T18:13:34Z</time>
      </trkpt>
      <trkpt lat="44.4141" lon="5.86505">
        <ele>857.63</ele>
        <time>2012-05-26T18:13:40Z</time>
      </trkpt>
      <trkpt lat="44.41416" lon="5.86498">
        <ele>857.63</ele>
        <time>2012-05-26T18:13:41Z</time>
      </trkpt>
      <trkpt lat="44.41423" lon="5.86491">
        <ele>856.67</ele>
        <time>2012-05-26T18:13:42Z</time>
      </trkpt>
      <trkpt lat="44.41441" lon="5.8645">
        <ele>853.79</ele>
        <time>2012-05-26T18:13:46Z</time>
      </trkpt>
      <trkpt lat="44.41452" lon="5.86411">
        <ele>849.94</ele>
        <time>2012-05-26T18:13:49Z</time>
      </trkpt>
      <trkpt lat="44.41455" lon="5.86395">
        <ele>849.94</ele>
        <time>2012-05-26T18:13:50Z</time>
      </trkpt>
      <trkpt lat="44.41457" lon="5.8638">
        <ele>848.5</ele>
        <time>2012-05-26T18:13:51Z</time>
      </trkpt>
      <trkpt lat="44.41459" lon="5.86323">
        <ele>844.18</ele>
        <time>2012-05-26T18:13:56Z</time>
      </trkpt>
      <trkpt lat="44.41455" lon="5.86319">
        <ele>843.21</ele>
        <time>2012-05-26T18:13:58Z</time>
      </trkpt>
      <trkpt lat="44.41451" lon="5.86319">
        <ele>842.73</ele>
        <time>2012-05-26T18:14:18Z</time>
      </trkpt>
      <trkpt lat="44.41433" lon="5.86325">
        <ele>840.81</ele>
        <time>2012-05-26T18:14:34Z</time>
      </trkpt>
      <trkpt lat="44.41412" lon="5.86332">
        <ele>837.45</ele>
        <time>2012-05-26T18:14:39Z</time>
      </trkpt>
      <trkpt lat="44.41393" lon="5.86355">
        <ele>832.64</ele>
        <time>2012-05-26T18:14:45Z</time>
      </trkpt>
      <trkpt lat="44.41372" lon="5.86362">
        <ele>828.79</ele>
        <time>2012-05-26T18:14:49Z</time>
      </trkpt>
      <trkpt lat="44.41366" lon="5.86361">
        <ele>827.83</ele>
        <time>2012-05-26T18:14:51Z</time>
      </trkpt>
      <trkpt lat="44.41359" lon="5.86363">
        <ele>827.83</ele>
        <time>2012-05-26T18:14:54Z</time>
      </trkpt>
      <trkpt lat="44.41315" lon="5.86364">
        <ele>831.2</ele>
        <time>2012-05-26T18:15:16Z</time>
      </trkpt>
      <trkpt lat="44.41294" lon="5.86321">
        <ele>831.2</ele>
        <time>2012-05-26T18:15:44Z</time>
      </trkpt>
      <trkpt lat="44.41274" lon="5.86314">
        <ele>832.16</ele>
        <time>2012-05-26T18:15:52Z</time>
      </trkpt>
      <trkpt lat="44.41238" lon="5.86264">
        <ele>833.6</ele>
        <time>2012-05-26T18:16:18Z</time>
      </trkpt>
      <trkpt lat="44.41207" lon="5.86219">
        <ele>835.52</ele>
        <time>2012-05-26T18:16:42Z</time>
      </trkpt>
      <trkpt lat="44.41184" lon="5.86198">
        <ele>838.41</ele>
        <time>2012-05-26T18:16:59Z</time>
      </trkpt>
      <trkpt lat="44.41181" lon="5.86185">
        <ele>839.37</ele>
        <time>2012-05-26T18:17:19Z</time>
      </trkpt>
      <trkpt lat="44.41153" lon="5.86141">
        <ele>840.81</ele>
        <time>2012-05-26T18:18:00Z</time>
      </trkpt>
      <trkpt lat="44.41132" lon="5.86113">
        <ele>841.29</ele>
        <time>2012-05-26T18:18:11Z</time>
      </trkpt>
      <trkpt lat="44.41112" lon="5.86067">
        <ele>840.81</ele>
        <time>2012-05-26T18:18:21Z</time>
      </trkpt>
      <trkpt lat="44.41079" lon="5.86041">
        <ele>838.41</ele>
        <time>2012-05-26T18:18:31Z</time>
      </trkpt>
      <trkpt lat="44.41067" lon="5.86006">
        <ele>836.48</ele>
        <time>2012-05-26T18:18:37Z</time>
      </trkpt>
      <trkpt lat="44.41067" lon="5.85986">
        <ele>832.64</ele>
        <time>2012-05-26T18:18:41Z</time>
      </trkpt>
      <trkpt lat="44.41068" lon="5.8598">
        <ele>832.64</ele>
        <time>2012-05-26T18:18:42Z</time>
      </trkpt>
      <trkpt lat="44.41067" lon="5.85959">
        <ele>830.72</ele>
        <time>2012-05-26T18:18:45Z</time>
      </trkpt>
      <trkpt lat="44.41068" lon="5.85953">
        <ele>830.24</ele>
        <time>2012-05-26T18:18:46Z</time>
      </trkpt>
      <trkpt lat="44.41079" lon="5.85906">
        <ele>826.87</ele>
        <time>2012-05-26T18:18:55Z</time>
      </trkpt>
      <trkpt lat="44.41078" lon="5.85898">
        <ele>826.39</ele>
        <time>2012-05-26T18:19:02Z</time>
      </trkpt>
      <trkpt lat="44.41101" lon="5.85881">
        <ele>825.91</ele>
        <time>2012-05-26T18:19:27Z</time>
      </trkpt>
      <trkpt lat="44.41096" lon="5.85868">
        <ele>824.95</ele>
        <time>2012-05-26T18:20:05Z</time>
      </trkpt>
      <trkpt lat="44.41085" lon="5.85854">
        <ele>827.35</ele>
        <time>2012-05-26T18:20:21Z</time>
      </trkpt>
      <trkpt lat="44.41083" lon="5.85847">
        <ele>827.83</ele>
        <time>2012-05-26T18:20:28Z</time>
      </trkpt>
      <trkpt lat="44.41082" lon="5.85839">
        <ele>828.31</ele>
        <time>2012-05-26T18:20:32Z</time>
      </trkpt>
      <trkpt lat="44.41082" lon="5.85835">
        <ele>828.79</ele>
        <time>2012-05-26T18:20:34Z</time>
      </trkpt>
      <trkpt lat="44.41091" lon="5.85803">
        <ele>832.16</ele>
        <time>2012-05-26T18:21:01Z</time>
      </trkpt>
      <trkpt lat="44.41095" lon="5.85801">
        <ele>832.16</ele>
        <time>2012-05-26T18:21:15Z</time>
      </trkpt>
      <trkpt lat="44.41108" lon="5.85782">
        <ele>835.04</ele>
        <time>2012-05-26T18:22:01Z</time>
      </trkpt>
      <trkpt lat="44.41113" lon="5.85774">
        <ele>836.48</ele>
        <time>2012-05-26T18:22:14Z</time>
      </trkpt>
      <trkpt lat="44.41141" lon="5.85734">
        <ele>840.33</ele>
        <time>2012-05-26T18:22:41Z</time>
      </trkpt>
      <trkpt lat="44.41144" lon="5.85709">
        <ele>841.29</ele>
        <time>2012-05-26T18:22:58Z</time>
      </trkpt>
      <trkpt lat="44.4114" lon="5.85681">
        <ele>843.21</ele>
        <time>2012-05-26T18:23:36Z</time>
      </trkpt>
      <trkpt lat="44.41128" lon="5.85655">
        <ele>846.58</ele>
        <time>2012-05-26T18:24:01Z</time>
      </trkpt>
      <trkpt lat="44.41131" lon="5.85639">
        <ele>848.02</ele>
        <time>2012-05-26T18:24:13Z</time>
      </trkpt>
      <trkpt lat="44.41136" lon="5.85618">
        <ele>849.46</ele>
        <time>2012-05-26T18:24:30Z</time>
      </trkpt>
      <trkpt lat="44.41138" lon="5.85607">
        <ele>849.94</ele>
        <time>2012-05-26T18:24:37Z</time>
      </trkpt>
      <trkpt lat="44.4116" lon="5.85586">
        <ele>851.38</ele>
        <time>2012-05-26T18:24:50Z</time>
      </trkpt>
      <trkpt lat="44.41175" lon="5.85569">
        <ele>852.35</ele>
        <time>2012-05-26T18:25:01Z</time>
      </trkpt>
      <trkpt lat="44.41192" lon="5.85521">
        <ele>851.38</ele>
        <time>2012-05-26T18:25:17Z</time>
      </trkpt>
      <trkpt lat="44.41207" lon="5.85496">
        <ele>854.27</ele>
        <time>2012-05-26T18:25:28Z</time>
      </trkpt>
      <trkpt lat="44.41215" lon="5.85472">
        <ele>856.19</ele>
        <time>2012-05-26T18:25:39Z</time>
      </trkpt>
      <trkpt lat="44.4123" lon="5.85441">
        <ele>858.11</ele>
        <time>2012-05-26T18:25:59Z</time>
      </trkpt>
      <trkpt lat="44.41245" lon="5.85434">
        <ele>856.19</ele>
        <time>2012-05-26T18:26:12Z</time>
      </trkpt>
      <trkpt lat="44.41248" lon="5.85425">
        <ele>856.67</ele>
        <time>2012-05-26T18:26:24Z</time>
      </trkpt>
      <trkpt lat="44.41246" lon="5.85418">
        <ele>857.15</ele>
        <time>2012-05-26T18:26:30Z</time>
      </trkpt>
      <trkpt lat="44.41239" lon="5.85401">
        <ele>857.63</ele>
        <time>2012-05-26T18:26:43Z</time>
      </trkpt>
      <trkpt lat="44.41235" lon="5.85395">
        <ele>857.63</ele>
        <time>2012-05-26T18:26:46Z</time>
      </trkpt>
      <trkpt lat="44.41225" lon="5.85315">
        <ele>860.52</ele>
        <time>2012-05-26T18:27:19Z</time>
      </trkpt>
      <trkpt lat="44.4123" lon="5.85288">
        <ele>857.15</ele>
        <time>2012-05-26T18:27:25Z</time>
      </trkpt>
      <trkpt lat="44.41231" lon="5.85284">
        <ele>857.15</ele>
        <time>2012-05-26T18:27:26Z</time>
      </trkpt>
      <trkpt lat="44.41241" lon="5.85272">
        <ele>858.11</ele>
        <time>2012-05-26T18:27:35Z</time>
      </trkpt>
      <trkpt lat="44.41224" lon="5.85251">
        <ele>859.56</ele>
        <time>2012-05-26T18:27:49Z</time>
      </trkpt>
      <trkpt lat="44.4121" lon="5.85239">
        <ele>857.63</ele>
        <time>2012-05-26T18:28:13Z</time>
      </trkpt>
      <trkpt lat="44.41204" lon="5.85233">
        <ele>858.11</ele>
        <time>2012-05-26T18:28:23Z</time>
      </trkpt>
      <trkpt lat="44.41203" lon="5.852">
        <ele>861.48</ele>
        <time>2012-05-26T18:28:48Z</time>
      </trkpt>
      <trkpt lat="44.412" lon="5.85189">
        <ele>862.44</ele>
        <time>2012-05-26T18:28:58Z</time>
      </trkpt>
      <trkpt lat="44.41175" lon="5.85158">
        <ele>862.44</ele>
        <time>2012-05-26T18:29:21Z</time>
      </trkpt>
      <trkpt lat="44.41145" lon="5.85144">
        <ele>861</ele>
        <time>2012-05-26T18:29:29Z</time>
      </trkpt>
      <trkpt lat="44.41139" lon="5.85134">
        <ele>860.04</ele>
        <time>2012-05-26T18:29:31Z</time>
      </trkpt>
      <trkpt lat="44.41136" lon="5.85129">
        <ele>859.56</ele>
        <time>2012-05-26T18:29:32Z</time>
      </trkpt>
      <trkpt lat="44.41136" lon="5.85089">
        <ele>856.19</ele>
        <time>2012-05-26T18:29:37Z</time>
      </trkpt>
      <trkpt lat="44.4114" lon="5.85058">
        <ele>851.87</ele>
        <time>2012-05-26T18:29:41Z</time>
      </trkpt>
      <trkpt lat="44.41146" lon="5.85057">
        <ele>852.35</ele>
        <time>2012-05-26T18:29:42Z</time>
      </trkpt>
      <trkpt lat="44.41157" lon="5.8506">
        <ele>851.38</ele>
        <time>2012-05-26T18:29:45Z</time>
      </trkpt>
      <trkpt lat="44.41166" lon="5.85064">
        <ele>849.46</ele>
        <time>2012-05-26T18:29:49Z</time>
      </trkpt>
      <trkpt lat="44.41172" lon="5.85059">
        <ele>849.46</ele>
        <time>2012-05-26T18:29:53Z</time>
      </trkpt>
      <trkpt lat="44.41154" lon="5.85013">
        <ele>850.9</ele>
        <time>2012-05-26T18:30:15Z</time>
      </trkpt>
      <trkpt lat="44.41134" lon="5.84994">
        <ele>850.9</ele>
        <time>2012-05-26T18:30:22Z</time>
      </trkpt>
      <trkpt lat="44.41103" lon="5.84956">
        <ele>854.27</ele>
        <time>2012-05-26T18:30:37Z</time>
      </trkpt>
      <trkpt lat="44.41075" lon="5.84937">
        <ele>855.23</ele>
        <time>2012-05-26T18:30:54Z</time>
      </trkpt>
      <trkpt lat="44.41065" lon="5.84914">
        <ele>855.71</ele>
        <time>2012-05-26T18:31:03Z</time>
      </trkpt>
      <trkpt lat="44.41056" lon="5.84908">
        <ele>856.19</ele>
        <time>2012-05-26T18:31:08Z</time>
      </trkpt>
      <trkpt lat="44.41042" lon="5.84909">
        <ele>856.67</ele>
        <time>2012-05-26T18:31:16Z</time>
      </trkpt>
      <trkpt lat="44.41024" lon="5.84913">
        <ele>858.59</ele>
        <time>2012-05-26T18:31:30Z</time>
      </trkpt>
      <trkpt lat="44.41009" lon="5.84912">
        <ele>860.04</ele>
        <time>2012-05-26T18:31:43Z</time>
      </trkpt>
      <trkpt lat="44.40986" lon="5.84907">
        <ele>863.4</ele>
        <time>2012-05-26T18:32:20Z</time>
      </trkpt>
      <trkpt lat="44.40984" lon="5.84906">
        <ele>863.4</ele>
        <time>2012-05-26T18:32:22Z</time>
      </trkpt>
      <trkpt lat="44.40976" lon="5.84907">
        <ele>865.32</ele>
        <time>2012-05-26T18:32:49Z</time>
      </trkpt>
      <trkpt lat="44.40969" lon="5.84908">
        <ele>865.8</ele>
        <time>2012-05-26T18:33:13Z</time>
      </trkpt>
      <trkpt lat="44.40958" lon="5.84903">
        <ele>866.77</ele>
        <time>2012-05-26T18:33:23Z</time>
      </trkpt>
      <trkpt lat="44.40948" lon="5.84899">
        <ele>868.21</ele>
        <time>2012-05-26T18:33:34Z</time>
      </trkpt>
      <trkpt lat="44.40944" lon="5.84898">
        <ele>869.17</ele>
        <time>2012-05-26T18:33:37Z</time>
      </trkpt>
      <trkpt lat="44.40923" lon="5.8489">
        <ele>871.57</ele>
        <time>2012-05-26T18:33:52Z</time>
      </trkpt>
      <trkpt lat="44.40904" lon="5.84873">
        <ele>874.94</ele>
        <time>2012-05-26T18:34:13Z</time>
      </trkpt>
      <trkpt lat="44.40903" lon="5.84873">
        <ele>874.94</ele>
        <time>2012-05-26T18:34:14Z</time>
      </trkpt>
      <trkpt lat="44.40895" lon="5.84868">
        <ele>875.42</ele>
        <time>2012-05-26T18:34:21Z</time>
      </trkpt>
      <trkpt lat="44.4088" lon="5.84849">
        <ele>877.34</ele>
        <time>2012-05-26T18:34:38Z</time>
      </trkpt>
      <trkpt lat="44.40875" lon="5.84814">
        <ele>880.71</ele>
        <time>2012-05-26T18:35:02Z</time>
      </trkpt>
      <trkpt lat="44.40875" lon="5.84808">
        <ele>882.15</ele>
        <time>2012-05-26T18:35:06Z</time>
      </trkpt>
      <trkpt lat="44.40875" lon="5.84806">
        <ele>882.15</ele>
        <time>2012-05-26T18:35:07Z</time>
      </trkpt>
      <trkpt lat="44.40877" lon="5.84797">
        <ele>883.59</ele>
        <time>2012-05-26T18:35:13Z</time>
      </trkpt>
      <trkpt lat="44.40879" lon="5.84795">
        <ele>883.59</ele>
        <time>2012-05-26T18:35:15Z</time>
      </trkpt>
      <trkpt lat="44.40881" lon="5.84789">
        <ele>884.55</ele>
        <time>2012-05-26T18:35:20Z</time>
      </trkpt>
      <trkpt lat="44.40891" lon="5.84736">
        <ele>888.4</ele>
        <time>2012-05-26T18:35:54Z</time>
      </trkpt>
      <trkpt lat="44.40873" lon="5.84648">
        <ele>894.16</ele>
        <time>2012-05-26T18:36:43Z</time>
      </trkpt>
      <trkpt lat="44.40866" lon="5.8463">
        <ele>895.12</ele>
        <time>2012-05-26T18:36:53Z</time>
      </trkpt>
      <trkpt lat="44.4086" lon="5.84606">
        <ele>897.05</ele>
        <time>2012-05-26T18:37:06Z</time>
      </trkpt>
      <trkpt lat="44.40864" lon="5.84601">
        <ele>896.57</ele>
        <time>2012-05-26T18:37:09Z</time>
      </trkpt>
      <trkpt lat="44.40866" lon="5.846">
        <ele>897.53</ele>
        <time>2012-05-26T18:37:10Z</time>
      </trkpt>
      <trkpt lat="44.40895" lon="5.84605">
        <ele>899.45</ele>
        <time>2012-05-26T18:37:30Z</time>
      </trkpt>
      <trkpt lat="44.40944" lon="5.84601">
        <ele>904.26</ele>
        <time>2012-05-26T18:38:01Z</time>
      </trkpt>
      <trkpt lat="44.40947" lon="5.846">
        <ele>904.26</ele>
        <time>2012-05-26T18:38:03Z</time>
      </trkpt>
      <trkpt lat="44.40973" lon="5.8459">
        <ele>906.18</ele>
        <time>2012-05-26T18:38:21Z</time>
      </trkpt>
      <trkpt lat="44.40993" lon="5.84591">
        <ele>907.14</ele>
        <time>2012-05-26T18:38:47Z</time>
      </trkpt>
      <trkpt lat="44.40995" lon="5.84591">
        <ele>907.14</ele>
        <time>2012-05-26T18:38:48Z</time>
      </trkpt>
      <trkpt lat="44.41016" lon="5.84589">
        <ele>909.06</ele>
        <time>2012-05-26T18:39:03Z</time>
      </trkpt>
      <trkpt lat="44.41022" lon="5.84526">
        <ele>912.91</ele>
        <time>2012-05-26T18:39:36Z</time>
      </trkpt>
      <trkpt lat="44.41036" lon="5.84475">
        <ele>913.87</ele>
        <time>2012-05-26T18:39:56Z</time>
      </trkpt>
      <trkpt lat="44.41039" lon="5.84469">
        <ele>914.35</ele>
        <time>2012-05-26T18:39:59Z</time>
      </trkpt>
      <trkpt lat="44.41069" lon="5.84416">
        <ele>914.83</ele>
        <time>2012-05-26T18:40:19Z</time>
      </trkpt>
      <trkpt lat="44.41079" lon="5.84409">
        <ele>914.83</ele>
        <time>2012-05-26T18:40:26Z</time>
      </trkpt>
      <trkpt lat="44.41103" lon="5.84361">
        <ele>914.35</ele>
        <time>2012-05-26T18:40:39Z</time>
      </trkpt>
      <trkpt lat="44.41129" lon="5.84326">
        <ele>915.79</ele>
        <time>2012-05-26T18:40:55Z</time>
      </trkpt>
      <trkpt lat="44.41199" lon="5.84279">
        <ele>915.79</ele>
        <time>2012-05-26T18:41:21Z</time>
      </trkpt>
      <trkpt lat="44.41244" lon="5.84281">
        <ele>917.24</ele>
        <time>2012-05-26T18:41:37Z</time>
      </trkpt>
      <trkpt lat="44.41243" lon="5.84258">
        <ele>916.75</ele>
        <time>2012-05-26T18:41:45Z</time>
      </trkpt>
      <trkpt lat="44.41202" lon="5.84244">
        <ele>919.16</ele>
        <time>2012-05-26T18:42:01Z</time>
      </trkpt>
      <trkpt lat="44.41111" lon="5.84228">
        <ele>922.52</ele>
        <time>2012-05-26T18:42:38Z</time>
      </trkpt>
      <trkpt lat="44.4109" lon="5.84215">
        <ele>922.04</ele>
        <time>2012-05-26T18:42:49Z</time>
      </trkpt>
      <trkpt lat="44.41044" lon="5.84185">
        <ele>920.6</ele>
        <time>2012-05-26T18:43:03Z</time>
      </trkpt>
      <trkpt lat="44.40942" lon="5.84146">
        <ele>918.68</ele>
        <time>2012-05-26T18:43:28Z</time>
      </trkpt>
      <trkpt lat="44.40913" lon="5.84121">
        <ele>920.12</ele>
        <time>2012-05-26T18:43:41Z</time>
      </trkpt>
      <trkpt lat="44.40902" lon="5.84109">
        <ele>922.04</ele>
        <time>2012-05-26T18:43:48Z</time>
      </trkpt>
      <trkpt lat="44.40884" lon="5.8408">
        <ele>923.96</ele>
        <time>2012-05-26T18:44:04Z</time>
      </trkpt>
      <trkpt lat="44.40909" lon="5.84041">
        <ele>928.29</ele>
        <time>2012-05-26T18:44:29Z</time>
      </trkpt>
      <trkpt lat="44.40945" lon="5.84018">
        <ele>929.25</ele>
        <time>2012-05-26T18:44:57Z</time>
      </trkpt>
      <trkpt lat="44.40959" lon="5.84004">
        <ele>928.77</ele>
        <time>2012-05-26T18:45:55Z</time>
      </trkpt>
      <trkpt lat="44.40971" lon="5.83994">
        <ele>927.33</ele>
        <time>2012-05-26T18:45:58Z</time>
      </trkpt>
      <trkpt lat="44.40984" lon="5.8399">
        <ele>925.89</ele>
        <time>2012-05-26T18:46:00Z</time>
      </trkpt>
      <trkpt lat="44.41019" lon="5.83978">
        <ele>922.52</ele>
        <time>2012-05-26T18:46:05Z</time>
      </trkpt>
      <trkpt lat="44.41041" lon="5.83963">
        <ele>918.68</ele>
        <time>2012-05-26T18:46:11Z</time>
      </trkpt>
      <trkpt lat="44.41074" lon="5.83949">
        <ele>916.27</ele>
        <time>2012-05-26T18:46:20Z</time>
      </trkpt>
      <trkpt lat="44.41116" lon="5.83923">
        <ele>911.95</ele>
        <time>2012-05-26T18:46:27Z</time>
      </trkpt>
      <trkpt lat="44.41145" lon="5.8392">
        <ele>909.06</ele>
        <time>2012-05-26T18:46:31Z</time>
      </trkpt>
      <trkpt lat="44.41188" lon="5.83928">
        <ele>905.22</ele>
        <time>2012-05-26T18:46:36Z</time>
      </trkpt>
      <trkpt lat="44.41225" lon="5.83918">
        <ele>900.41</ele>
        <time>2012-05-26T18:46:40Z</time>
      </trkpt>
      <trkpt lat="44.41254" lon="5.83908">
        <ele>898.49</ele>
        <time>2012-05-26T18:46:43Z</time>
      </trkpt>
      <trkpt lat="44.4128" lon="5.8387">
        <ele>895.61</ele>
        <time>2012-05-26T18:46:47Z</time>
      </trkpt>
      <trkpt lat="44.41304" lon="5.83821">
        <ele>891.76</ele>
        <time>2012-05-26T18:46:51Z</time>
      </trkpt>
      <trkpt lat="44.41324" lon="5.83783">
        <ele>887.91</ele>
        <time>2012-05-26T18:46:54Z</time>
      </trkpt>
      <trkpt lat="44.41336" lon="5.8376">
        <ele>884.55</ele>
        <time>2012-05-26T18:46:56Z</time>
      </trkpt>
      <trkpt lat="44.41342" lon="5.83739">
        <ele>883.59</ele>
        <time>2012-05-26T18:46:58Z</time>
      </trkpt>
      <trkpt lat="44.41331" lon="5.83683">
        <ele>880.22</ele>
        <time>2012-05-26T18:47:03Z</time>
      </trkpt>
      <trkpt lat="44.41361" lon="5.83634">
        <ele>874.46</ele>
        <time>2012-05-26T18:47:09Z</time>
      </trkpt>
      <trkpt lat="44.41369" lon="5.836">
        <ele>873.01</ele>
        <time>2012-05-26T18:47:12Z</time>
      </trkpt>
      <trkpt lat="44.41379" lon="5.83544">
        <ele>869.65</ele>
        <time>2012-05-26T18:47:17Z</time>
      </trkpt>
      <trkpt lat="44.41381" lon="5.83532">
        <ele>868.69</ele>
        <time>2012-05-26T18:47:18Z</time>
      </trkpt>
      <trkpt lat="44.41403" lon="5.83511">
        <ele>864.36</ele>
        <time>2012-05-26T18:47:22Z</time>
      </trkpt>
      <trkpt lat="44.41411" lon="5.83512">
        <ele>863.88</ele>
        <time>2012-05-26T18:47:23Z</time>
      </trkpt>
      <trkpt lat="44.41445" lon="5.8352">
        <ele>861.96</ele>
        <time>2012-05-26T18:47:27Z</time>
      </trkpt>
      <trkpt lat="44.41481" lon="5.83509">
        <ele>858.11</ele>
        <time>2012-05-26T18:47:31Z</time>
      </trkpt>
      <trkpt lat="44.41512" lon="5.83512">
        <ele>853.79</ele>
        <time>2012-05-26T18:47:34Z</time>
      </trkpt>
      <trkpt lat="44.41521" lon="5.83517">
        <ele>853.31</ele>
        <time>2012-05-26T18:47:35Z</time>
      </trkpt>
      <trkpt lat="44.4153" lon="5.83522">
        <ele>852.83</ele>
        <time>2012-05-26T18:47:36Z</time>
      </trkpt>
      <trkpt lat="44.4155" lon="5.8352">
        <ele>851.38</ele>
        <time>2012-05-26T18:47:39Z</time>
      </trkpt>
      <trkpt lat="44.41546" lon="5.83491">
        <ele>851.87</ele>
        <time>2012-05-26T18:47:43Z</time>
      </trkpt>
      <trkpt lat="44.41528" lon="5.83429">
        <ele>849.94</ele>
        <time>2012-05-26T18:47:51Z</time>
      </trkpt>
      <trkpt lat="44.4151" lon="5.83366">
        <ele>847.54</ele>
        <time>2012-05-26T18:47:58Z</time>
      </trkpt>
      <trkpt lat="44.41483" lon="5.83325">
        <ele>845.14</ele>
        <time>2012-05-26T18:48:03Z</time>
      </trkpt>
      <trkpt lat="44.4148" lon="5.83313">
        <ele>845.14</ele>
        <time>2012-05-26T18:48:04Z</time>
      </trkpt>
      <trkpt lat="44.41477" lon="5.8326">
        <ele>843.69</ele>
        <time>2012-05-26T18:48:08Z</time>
      </trkpt>
      <trkpt lat="44.41482" lon="5.83218">
        <ele>841.29</ele>
        <time>2012-05-26T18:48:11Z</time>
      </trkpt>
      <trkpt lat="44.41497" lon="5.83179">
        <ele>838.41</ele>
        <time>2012-05-26T18:48:14Z</time>
      </trkpt>
      <trkpt lat="44.41512" lon="5.83154">
        <ele>836.96</ele>
        <time>2012-05-26T18:48:16Z</time>
      </trkpt>
      <trkpt lat="44.41548" lon="5.83113">
        <ele>832.64</ele>
        <time>2012-05-26T18:48:20Z</time>
      </trkpt>
      <trkpt lat="44.41557" lon="5.83103">
        <ele>831.68</ele>
        <time>2012-05-26T18:48:21Z</time>
      </trkpt>
      <trkpt lat="44.41572" lon="5.8303">
        <ele>829.27</ele>
        <time>2012-05-26T18:48:26Z</time>
      </trkpt>
      <trkpt lat="44.4157" lon="5.83015">
        <ele>829.27</ele>
        <time>2012-05-26T18:48:27Z</time>
      </trkpt>
      <trkpt lat="44.41567" lon="5.83002">
        <ele>828.79</ele>
        <time>2012-05-26T18:48:28Z</time>
      </trkpt>
      <trkpt lat="44.41539" lon="5.82851">
        <ele>823.99</ele>
        <time>2012-05-26T18:48:40Z</time>
      </trkpt>
      <trkpt lat="44.41518" lon="5.82743">
        <ele>820.62</ele>
        <time>2012-05-26T18:48:49Z</time>
      </trkpt>
      <trkpt lat="44.41497" lon="5.82627">
        <ele>817.26</ele>
        <time>2012-05-26T18:48:58Z</time>
      </trkpt>
      <trkpt lat="44.4148" lon="5.8253">
        <ele>813.89</ele>
        <time>2012-05-26T18:49:05Z</time>
      </trkpt>
      <trkpt lat="44.41471" lon="5.82485">
        <ele>810.05</ele>
        <time>2012-05-26T18:49:08Z</time>
      </trkpt>
      <trkpt lat="44.41446" lon="5.82343">
        <ele>805.72</ele>
        <time>2012-05-26T18:49:18Z</time>
      </trkpt>
      <trkpt lat="44.41443" lon="5.82331">
        <ele>805.72</ele>
        <time>2012-05-26T18:49:19Z</time>
      </trkpt>
      <trkpt lat="44.41373" lon="5.82178">
        <ele>802.36</ele>
        <time>2012-05-26T18:49:38Z</time>
      </trkpt>
      <trkpt lat="44.41296" lon="5.82035">
        <ele>796.11</ele>
        <time>2012-05-26T18:49:54Z</time>
      </trkpt>
      <trkpt lat="44.41272" lon="5.81985">
        <ele>793.71</ele>
        <time>2012-05-26T18:49:59Z</time>
      </trkpt>
      <trkpt lat="44.41266" lon="5.8195">
        <ele>792.26</ele>
        <time>2012-05-26T18:50:02Z</time>
      </trkpt>
      <trkpt lat="44.4127" lon="5.81913">
        <ele>790.82</ele>
        <time>2012-05-26T18:50:05Z</time>
      </trkpt>
      <trkpt lat="44.41281" lon="5.81828">
        <ele>787.46</ele>
        <time>2012-05-26T18:50:12Z</time>
      </trkpt>
      <trkpt lat="44.41284" lon="5.81805">
        <ele>786.5</ele>
        <time>2012-05-26T18:50:14Z</time>
      </trkpt>
      <trkpt lat="44.41306" lon="5.81724">
        <ele>783.13</ele>
        <time>2012-05-26T18:50:21Z</time>
      </trkpt>
      <trkpt lat="44.41317" lon="5.81687">
        <ele>780.73</ele>
        <time>2012-05-26T18:50:24Z</time>
      </trkpt>
      <trkpt lat="44.41354" lon="5.81562">
        <ele>775.44</ele>
        <time>2012-05-26T18:50:34Z</time>
      </trkpt>
      <trkpt lat="44.41372" lon="5.81509">
        <ele>771.11</ele>
        <time>2012-05-26T18:50:44Z</time>
      </trkpt>
      <trkpt lat="44.41375" lon="5.81503">
        <ele>771.11</ele>
        <time>2012-05-26T18:51:08Z</time>
      </trkpt>
      <trkpt lat="44.41391" lon="5.81458">
        <ele>769.19</ele>
        <time>2012-05-26T18:51:21Z</time>
      </trkpt>
      <trkpt lat="44.41372" lon="5.81511">
        <ele>771.11</ele>
        <time>2012-05-26T18:51:34Z</time>
      </trkpt>
      <trkpt lat="44.41368" lon="5.81512">
        <ele>771.11</ele>
        <time>2012-05-26T18:51:35Z</time>
      </trkpt>
      <trkpt lat="44.41298" lon="5.81472">
        <ele>772.08</ele>
        <time>2012-05-26T18:52:01Z</time>
      </trkpt>
      <trkpt lat="44.41279" lon="5.81435">
        <ele>771.6</ele>
        <time>2012-05-26T18:52:11Z</time>
      </trkpt>
      <trkpt lat="44.41266" lon="5.81422">
        <ele>771.11</ele>
        <time>2012-05-26T18:52:14Z</time>
      </trkpt>
      <trkpt lat="44.41251" lon="5.81411">
        <ele>769.67</ele>
        <time>2012-05-26T18:52:17Z</time>
      </trkpt>
      <trkpt lat="44.41246" lon="5.81409">
        <ele>769.67</ele>
        <time>2012-05-26T18:52:18Z</time>
      </trkpt>
      <trkpt lat="44.41209" lon="5.81391">
        <ele>766.79</ele>
        <time>2012-05-26T18:53:00Z</time>
      </trkpt>
      <trkpt lat="44.41194" lon="5.81397">
        <ele>765.35</ele>
        <time>2012-05-26T18:53:27Z</time>
      </trkpt>
      <trkpt lat="44.41193" lon="5.81399">
        <ele>764.87</ele>
        <time>2012-05-26T18:53:40Z</time>
      </trkpt>
      <trkpt lat="44.41153" lon="5.81445">
        <ele>761.98</ele>
        <time>2012-05-26T18:54:04Z</time>
      </trkpt>
      <trkpt lat="44.41149" lon="5.81458">
        <ele>761.98</ele>
        <time>2012-05-26T18:54:09Z</time>
      </trkpt>
      <trkpt lat="44.41141" lon="5.8148">
        <ele>762.94</ele>
        <time>2012-05-26T18:54:20Z</time>
      </trkpt>
      <trkpt lat="44.41124" lon="5.8153">
        <ele>766.31</ele>
        <time>2012-05-26T18:54:43Z</time>
      </trkpt>
      <trkpt lat="44.41109" lon="5.81528">
        <ele>766.79</ele>
        <time>2012-05-26T18:55:17Z</time>
      </trkpt>
      <trkpt lat="44.41115" lon="5.81528">
        <ele>766.79</ele>
        <time>2012-05-26T18:56:49Z</time>
      </trkpt>
      <trkpt lat="44.41139" lon="5.81505">
        <ele>764.39</ele>
        <time>2012-05-26T18:57:01Z</time>
      </trkpt>
      <trkpt lat="44.4114" lon="5.81498">
        <ele>762.94</ele>
        <time>2012-05-26T18:57:02Z</time>
      </trkpt>
      <trkpt lat="44.41142" lon="5.81476">
        <ele>761.98</ele>
        <time>2012-05-26T18:57:05Z</time>
      </trkpt>
      <trkpt lat="44.41144" lon="5.8147">
        <ele>761.98</ele>
        <time>2012-05-26T18:57:06Z</time>
      </trkpt>
      <trkpt lat="44.41167" lon="5.8142">
        <ele>762.46</ele>
        <time>2012-05-26T18:57:27Z</time>
      </trkpt>
      <trkpt lat="44.41178" lon="5.81418">
        <ele>762.94</ele>
        <time>2012-05-26T18:57:36Z</time>
      </trkpt>
      <trkpt lat="44.41192" lon="5.81405">
        <ele>764.87</ele>
        <time>2012-05-26T18:57:49Z</time>
      </trkpt>
      <trkpt lat="44.41193" lon="5.81401">
        <ele>764.87</ele>
        <time>2012-05-26T18:57:51Z</time>
      </trkpt>
      <trkpt lat="44.41267" lon="5.81418">
        <ele>768.71</ele>
        <time>2012-05-26T18:58:24Z</time>
      </trkpt>
      <trkpt lat="44.41304" lon="5.81462">
        <ele>769.67</ele>
        <time>2012-05-26T18:58:43Z</time>
      </trkpt>
      <trkpt lat="44.41324" lon="5.81499">
        <ele>770.63</ele>
        <time>2012-05-26T18:58:56Z</time>
      </trkpt>
      <trkpt lat="44.41376" lon="5.8151">
        <ele>770.63</ele>
        <time>2012-05-26T18:59:10Z</time>
      </trkpt>
      <trkpt lat="44.41381" lon="5.81501">
        <ele>769.67</ele>
        <time>2012-05-26T18:59:12Z</time>
      </trkpt>
      <trkpt lat="44.41422" lon="5.81383">
        <ele>765.83</ele>
        <time>2012-05-26T18:59:30Z</time>
      </trkpt>
      <trkpt lat="44.41468" lon="5.81245">
        <ele>764.87</ele>
        <time>2012-05-26T18:59:46Z</time>
      </trkpt>
      <trkpt lat="44.41488" lon="5.81048">
        <ele>759.1</ele>
        <time>2012-05-26T19:00:09Z</time>
      </trkpt>
      <trkpt lat="44.41498" lon="5.80933">
        <ele>756.21</ele>
        <time>2012-05-26T19:00:22Z</time>
      </trkpt>
      <trkpt lat="44.41499" lon="5.80821">
        <ele>753.33</ele>
        <time>2012-05-26T19:00:36Z</time>
      </trkpt>
      <trkpt lat="44.415" lon="5.80772">
        <ele>752.37</ele>
        <time>2012-05-26T19:03:27Z</time>
      </trkpt>
      <trkpt lat="44.41495" lon="5.80686">
        <ele>749.97</ele>
        <time>2012-05-26T19:03:38Z</time>
      </trkpt>
      <trkpt lat="44.41473" lon="5.8061">
        <ele>746.6</ele>
        <time>2012-05-26T19:03:47Z</time>
      </trkpt>
      <trkpt lat="44.41472" lon="5.80601">
        <ele>746.6</ele>
        <time>2012-05-26T19:03:48Z</time>
      </trkpt>
      <trkpt lat="44.41473" lon="5.80582">
        <ele>745.64</ele>
        <time>2012-05-26T19:03:50Z</time>
      </trkpt>
      <trkpt lat="44.41475" lon="5.80561">
        <ele>745.16</ele>
        <time>2012-05-26T19:03:52Z</time>
      </trkpt>
      <trkpt lat="44.4149" lon="5.80523">
        <ele>743.24</ele>
        <time>2012-05-26T19:03:56Z</time>
      </trkpt>
      <trkpt lat="44.415" lon="5.80508">
        <ele>742.76</ele>
        <time>2012-05-26T19:03:58Z</time>
      </trkpt>
      <trkpt lat="44.41616" lon="5.80352">
        <ele>743.72</ele>
        <time>2012-05-26T19:04:26Z</time>
      </trkpt>
      <trkpt lat="44.41693" lon="5.8026">
        <ele>744.2</ele>
        <time>2012-05-26T19:04:46Z</time>
      </trkpt>
      <trkpt lat="44.41699" lon="5.80249">
        <ele>743.72</ele>
        <time>2012-05-26T19:04:48Z</time>
      </trkpt>
      <trkpt lat="44.41707" lon="5.80221">
        <ele>743.72</ele>
        <time>2012-05-26T19:04:52Z</time>
      </trkpt>
      <trkpt lat="44.4171" lon="5.802">
        <ele>743.24</ele>
        <time>2012-05-26T19:04:55Z</time>
      </trkpt>
      <trkpt lat="44.41786" lon="5.80113">
        <ele>744.2</ele>
        <time>2012-05-26T19:05:14Z</time>
      </trkpt>
      <trkpt lat="44.4184" lon="5.80032">
        <ele>743.24</ele>
        <time>2012-05-26T19:05:29Z</time>
      </trkpt>
      <trkpt lat="44.4186" lon="5.80003">
        <ele>742.28</ele>
        <time>2012-05-26T19:05:34Z</time>
      </trkpt>
      <trkpt lat="44.41933" lon="5.79901">
        <ele>742.76</ele>
        <time>2012-05-26T19:05:52Z</time>
      </trkpt>
      <trkpt lat="44.41974" lon="5.79867">
        <ele>743.24</ele>
        <time>2012-05-26T19:06:01Z</time>
      </trkpt>
      <trkpt lat="44.42015" lon="5.79861">
        <ele>743.72</ele>
        <time>2012-05-26T19:06:10Z</time>
      </trkpt>
      <trkpt lat="44.42032" lon="5.79826">
        <ele>745.64</ele>
        <time>2012-05-26T19:06:17Z</time>
      </trkpt>
      <trkpt lat="44.42038" lon="5.79779">
        <ele>744.68</ele>
        <time>2012-05-26T19:06:24Z</time>
      </trkpt>
      <trkpt lat="44.4205" lon="5.79748">
        <ele>744.68</ele>
        <time>2012-05-26T19:06:29Z</time>
      </trkpt>
      <trkpt lat="44.42061" lon="5.79728">
        <ele>744.68</ele>
        <time>2012-05-26T19:06:33Z</time>
      </trkpt>
      <trkpt lat="44.42067" lon="5.7972">
        <ele>744.68</ele>
        <time>2012-05-26T19:06:35Z</time>
      </trkpt>
      <trkpt lat="44.42082" lon="5.79699">
        <ele>744.68</ele>
        <time>2012-05-26T19:06:40Z</time>
      </trkpt>
      <trkpt lat="44.42114" lon="5.79623">
        <ele>742.76</ele>
        <time>2012-05-26T19:06:53Z</time>
      </trkpt>
      <trkpt lat="44.42143" lon="5.79561">
        <ele>740.35</ele>
        <time>2012-05-26T19:07:01Z</time>
      </trkpt>
      <trkpt lat="44.42159" lon="5.7953">
        <ele>738.43</ele>
        <time>2012-05-26T19:07:11Z</time>
      </trkpt>
      <trkpt lat="44.42196" lon="5.79464">
        <ele>738.43</ele>
        <time>2012-05-26T19:07:31Z</time>
      </trkpt>
      <trkpt lat="44.42192" lon="5.79457">
        <ele>738.43</ele>
        <time>2012-05-26T19:07:34Z</time>
      </trkpt>
      <trkpt lat="44.42129" lon="5.79399">
        <ele>739.39</ele>
        <time>2012-05-26T19:08:04Z</time>
      </trkpt>
      <trkpt lat="44.42075" lon="5.79296">
        <ele>737.95</ele>
        <time>2012-05-26T19:08:22Z</time>
      </trkpt>
      <trkpt lat="44.4203" lon="5.79136">
        <ele>736.99</ele>
        <time>2012-05-26T19:08:43Z</time>
      </trkpt>
      <trkpt lat="44.42011" lon="5.78933">
        <ele>739.87</ele>
        <time>2012-05-26T19:09:10Z</time>
      </trkpt>
      <trkpt lat="44.42034" lon="5.78797">
        <ele>742.28</ele>
        <time>2012-05-26T19:09:33Z</time>
      </trkpt>
      <trkpt lat="44.42038" lon="5.78767">
        <ele>741.79</ele>
        <time>2012-05-26T19:09:38Z</time>
      </trkpt>
      <trkpt lat="44.42042" lon="5.7861">
        <ele>743.72</ele>
        <time>2012-05-26T19:10:10Z</time>
      </trkpt>
      <trkpt lat="44.42039" lon="5.7853">
        <ele>740.35</ele>
        <time>2012-05-26T19:10:20Z</time>
      </trkpt>
      <trkpt lat="44.42033" lon="5.78469">
        <ele>736.99</ele>
        <time>2012-05-26T19:10:25Z</time>
      </trkpt>
      <trkpt lat="44.42028" lon="5.78412">
        <ele>733.14</ele>
        <time>2012-05-26T19:10:29Z</time>
      </trkpt>
      <trkpt lat="44.42021" lon="5.78349">
        <ele>729.78</ele>
        <time>2012-05-26T19:10:33Z</time>
      </trkpt>
      <trkpt lat="44.42013" lon="5.78282">
        <ele>726.41</ele>
        <time>2012-05-26T19:10:37Z</time>
      </trkpt>
      <trkpt lat="44.42011" lon="5.78266">
        <ele>726.41</ele>
        <time>2012-05-26T19:10:38Z</time>
      </trkpt>
      <trkpt lat="44.42008" lon="5.78147">
        <ele>723.05</ele>
        <time>2012-05-26T19:10:46Z</time>
      </trkpt>
      <trkpt lat="44.42009" lon="5.77879">
        <ele>718.24</ele>
        <time>2012-05-26T19:11:07Z</time>
      </trkpt>
      <trkpt lat="44.41991" lon="5.77759">
        <ele>714.88</ele>
        <time>2012-05-26T19:11:16Z</time>
      </trkpt>
      <trkpt lat="44.41979" lon="5.77697">
        <ele>711.51</ele>
        <time>2012-05-26T19:11:21Z</time>
      </trkpt>
      <trkpt lat="44.41942" lon="5.77576">
        <ele>711.99</ele>
        <time>2012-05-26T19:11:33Z</time>
      </trkpt>
      <trkpt lat="44.41918" lon="5.7749">
        <ele>713.92</ele>
        <time>2012-05-26T19:11:47Z</time>
      </trkpt>
      <trkpt lat="44.41888" lon="5.77414">
        <ele>713.44</ele>
        <time>2012-05-26T19:12:00Z</time>
      </trkpt>
      <trkpt lat="44.41883" lon="5.77259">
        <ele>714.4</ele>
        <time>2012-05-26T19:12:22Z</time>
      </trkpt>
      <trkpt lat="44.41832" lon="5.77032">
        <ele>716.32</ele>
        <time>2012-05-26T19:13:00Z</time>
      </trkpt>
      <trkpt lat="44.41811" lon="5.76989">
        <ele>716.8</ele>
        <time>2012-05-26T19:13:08Z</time>
      </trkpt>
      <trkpt lat="44.41786" lon="5.76957">
        <ele>716.8</ele>
        <time>2012-05-26T19:13:15Z</time>
      </trkpt>
      <trkpt lat="44.41723" lon="5.76809">
        <ele>712.47</ele>
        <time>2012-05-26T19:13:36Z</time>
      </trkpt>
      <trkpt lat="44.41717" lon="5.76801">
        <ele>712.95</ele>
        <time>2012-05-26T19:13:37Z</time>
      </trkpt>
      <trkpt lat="44.41634" lon="5.76689">
        <ele>714.4</ele>
        <time>2012-05-26T19:13:58Z</time>
      </trkpt>
      <trkpt lat="44.41598" lon="5.76611">
        <ele>715.84</ele>
        <time>2012-05-26T19:14:16Z</time>
      </trkpt>
      <trkpt lat="44.41589" lon="5.76592">
        <ele>715.36</ele>
        <time>2012-05-26T19:14:20Z</time>
      </trkpt>
      <trkpt lat="44.41553" lon="5.76513">
        <ele>715.36</ele>
        <time>2012-05-26T19:14:37Z</time>
      </trkpt>
      <trkpt lat="44.41534" lon="5.76352">
        <ele>710.07</ele>
        <time>2012-05-26T19:14:58Z</time>
      </trkpt>
      <trkpt lat="44.41532" lon="5.76299">
        <ele>707.19</ele>
        <time>2012-05-26T19:15:03Z</time>
      </trkpt>
      <trkpt lat="44.4153" lon="5.76263">
        <ele>706.23</ele>
        <time>2012-05-26T19:15:06Z</time>
      </trkpt>
      <trkpt lat="44.415" lon="5.76209">
        <ele>703.34</ele>
        <time>2012-05-26T19:15:12Z</time>
      </trkpt>
      <trkpt lat="44.41432" lon="5.76146">
        <ele>697.09</ele>
        <time>2012-05-26T19:15:22Z</time>
      </trkpt>
      <trkpt lat="44.41428" lon="5.76142">
        <ele>697.09</ele>
        <time>2012-05-26T19:15:23Z</time>
      </trkpt>
      <trkpt lat="44.41412" lon="5.76127">
        <ele>694.69</ele>
        <time>2012-05-26T19:15:31Z</time>
      </trkpt>
      <trkpt lat="44.41411" lon="5.76127">
        <ele>695.17</ele>
        <time>2012-05-26T19:15:32Z</time>
      </trkpt>
      <trkpt lat="44.41371" lon="5.76189">
        <ele>690.84</ele>
        <time>2012-05-26T19:15:45Z</time>
      </trkpt>
      <trkpt lat="44.41336" lon="5.76229">
        <ele>689.88</ele>
        <time>2012-05-26T19:15:51Z</time>
      </trkpt>
      <trkpt lat="44.41332" lon="5.76237">
        <ele>689.88</ele>
        <time>2012-05-26T19:15:52Z</time>
      </trkpt>
      <trkpt lat="44.41297" lon="5.76323">
        <ele>689.88</ele>
        <time>2012-05-26T19:16:07Z</time>
      </trkpt>
      <trkpt lat="44.41288" lon="5.76352">
        <ele>690.36</ele>
        <time>2012-05-26T19:16:20Z</time>
      </trkpt>
      <trkpt lat="44.41285" lon="5.76407">
        <ele>689.4</ele>
        <time>2012-05-26T19:16:33Z</time>
      </trkpt>
      <trkpt lat="44.41277" lon="5.76424">
        <ele>689.88</ele>
        <time>2012-05-26T19:16:37Z</time>
      </trkpt>
      <trkpt lat="44.41302" lon="5.76481">
        <ele>691.33</ele>
        <time>2012-05-26T19:16:50Z</time>
      </trkpt>
      <trkpt lat="44.41317" lon="5.76581">
        <ele>694.21</ele>
        <time>2012-05-26T19:17:11Z</time>
      </trkpt>
      <trkpt lat="44.41344" lon="5.76627">
        <ele>696.13</ele>
        <time>2012-05-26T19:17:25Z</time>
      </trkpt>
      <trkpt lat="44.41343" lon="5.76655">
        <ele>696.13</ele>
        <time>2012-05-26T19:17:41Z</time>
      </trkpt>
      <trkpt lat="44.41345" lon="5.76662">
        <ele>695.65</ele>
        <time>2012-05-26T19:18:23Z</time>
      </trkpt>
      <trkpt lat="44.41352" lon="5.76674">
        <ele>696.13</ele>
        <time>2012-05-26T19:19:09Z</time>
      </trkpt>
      <trkpt lat="44.41336" lon="5.76664">
        <ele>689.4</ele>
        <time>2012-05-27T08:15:39Z</time>
      </trkpt>
      <trkpt lat="44.41336" lon="5.76661">
        <ele>690.36</ele>
        <time>2012-05-27T08:17:01Z</time>
      </trkpt>
      <trkpt lat="44.41345" lon="5.76667">
        <ele>691.33</ele>
        <time>2012-05-27T08:25:21Z</time>
      </trkpt>
      <trkpt lat="44.41343" lon="5.76662">
        <ele>691.33</ele>
        <time>2012-05-27T08:25:24Z</time>
      </trkpt>
      <trkpt lat="44.41341" lon="5.76629">
        <ele>691.33</ele>
        <time>2012-05-27T08:25:39Z</time>
      </trkpt>
      <trkpt lat="44.41324" lon="5.76601">
        <ele>690.84</ele>
        <time>2012-05-27T08:25:57Z</time>
      </trkpt>
      <trkpt lat="44.41303" lon="5.76522">
        <ele>688.92</ele>
        <time>2012-05-27T08:26:24Z</time>
      </trkpt>
      <trkpt lat="44.41293" lon="5.76463">
        <ele>687.48</ele>
        <time>2012-05-27T08:26:33Z</time>
      </trkpt>
      <trkpt lat="44.41279" lon="5.76442">
        <ele>687.48</ele>
        <time>2012-05-27T08:26:37Z</time>
      </trkpt>
      <trkpt lat="44.41288" lon="5.76384">
        <ele>686.04</ele>
        <time>2012-05-27T08:26:45Z</time>
      </trkpt>
      <trkpt lat="44.41329" lon="5.76241">
        <ele>686.04</ele>
        <time>2012-05-27T08:27:09Z</time>
      </trkpt>
      <trkpt lat="44.41347" lon="5.76212">
        <ele>685.08</ele>
        <time>2012-05-27T08:27:15Z</time>
      </trkpt>
      <trkpt lat="44.41383" lon="5.7617">
        <ele>687.48</ele>
        <time>2012-05-27T08:27:26Z</time>
      </trkpt>
      <trkpt lat="44.41383" lon="5.76158">
        <ele>687.96</ele>
        <time>2012-05-27T08:27:29Z</time>
      </trkpt>
      <trkpt lat="44.41415" lon="5.76133">
        <ele>690.84</ele>
        <time>2012-05-27T08:27:41Z</time>
      </trkpt>
      <trkpt lat="44.41418" lon="5.76134">
        <ele>690.84</ele>
        <time>2012-05-27T08:27:42Z</time>
      </trkpt>
      <trkpt lat="44.4147" lon="5.76188">
        <ele>694.69</ele>
        <time>2012-05-27T08:28:05Z</time>
      </trkpt>
      <trkpt lat="44.41475" lon="5.76193">
        <ele>694.69</ele>
        <time>2012-05-27T08:28:16Z</time>
      </trkpt>
      <trkpt lat="44.41535" lon="5.76267">
        <ele>699.02</ele>
        <time>2012-05-27T08:29:07Z</time>
      </trkpt>
      <trkpt lat="44.41537" lon="5.76325">
        <ele>702.38</ele>
        <time>2012-05-27T08:29:23Z</time>
      </trkpt>
      <trkpt lat="44.41541" lon="5.76449">
        <ele>707.19</ele>
        <time>2012-05-27T08:29:56Z</time>
      </trkpt>
      <trkpt lat="44.41583" lon="5.76573">
        <ele>711.03</ele>
        <time>2012-05-27T08:30:30Z</time>
      </trkpt>
      <trkpt lat="44.41587" lon="5.76582">
        <ele>711.03</ele>
        <time>2012-05-27T08:30:33Z</time>
      </trkpt>
      <trkpt lat="44.41657" lon="5.76735">
        <ele>709.11</ele>
        <time>2012-05-27T08:31:12Z</time>
      </trkpt>
      <trkpt lat="44.41728" lon="5.76821">
        <ele>707.19</ele>
        <time>2012-05-27T08:31:25Z</time>
      </trkpt>
      <trkpt lat="44.41739" lon="5.76843">
        <ele>707.67</ele>
        <time>2012-05-27T08:31:28Z</time>
      </trkpt>
      <trkpt lat="44.41781" lon="5.76949">
        <ele>711.03</ele>
        <time>2012-05-27T08:31:46Z</time>
      </trkpt>
      <trkpt lat="44.41859" lon="5.77128">
        <ele>711.03</ele>
        <time>2012-05-27T08:32:18Z</time>
      </trkpt>
      <trkpt lat="44.41877" lon="5.77198">
        <ele>710.07</ele>
        <time>2012-05-27T08:32:28Z</time>
      </trkpt>
      <trkpt lat="44.41888" lon="5.77414">
        <ele>708.63</ele>
        <time>2012-05-27T08:32:52Z</time>
      </trkpt>
      <trkpt lat="44.41893" lon="5.7743">
        <ele>709.59</ele>
        <time>2012-05-27T08:32:54Z</time>
      </trkpt>
      <trkpt lat="44.41896" lon="5.77438">
        <ele>709.59</ele>
        <time>2012-05-27T08:32:55Z</time>
      </trkpt>
      <trkpt lat="44.41899" lon="5.77446">
        <ele>710.07</ele>
        <time>2012-05-27T08:32:56Z</time>
      </trkpt>
      <trkpt lat="44.41984" lon="5.77708">
        <ele>706.71</ele>
        <time>2012-05-27T08:33:27Z</time>
      </trkpt>
      <trkpt lat="44.42003" lon="5.7782">
        <ele>709.59</ele>
        <time>2012-05-27T08:33:42Z</time>
      </trkpt>
      <trkpt lat="44.42022" lon="5.78014">
        <ele>714.88</ele>
        <time>2012-05-27T08:34:19Z</time>
      </trkpt>
      <trkpt lat="44.42014" lon="5.78257">
        <ele>718.72</ele>
        <time>2012-05-27T08:35:04Z</time>
      </trkpt>
      <trkpt lat="44.42029" lon="5.7839">
        <ele>724.97</ele>
        <time>2012-05-27T08:35:34Z</time>
      </trkpt>
      <trkpt lat="44.4204" lon="5.78484">
        <ele>731.22</ele>
        <time>2012-05-27T08:36:02Z</time>
      </trkpt>
      <trkpt lat="44.42046" lon="5.7859">
        <ele>737.47</ele>
        <time>2012-05-27T08:36:35Z</time>
      </trkpt>
      <trkpt lat="44.42044" lon="5.78641">
        <ele>740.83</ele>
        <time>2012-05-27T08:36:51Z</time>
      </trkpt>
      <trkpt lat="44.42042" lon="5.78649">
        <ele>740.35</ele>
        <time>2012-05-27T08:36:54Z</time>
      </trkpt>
      <trkpt lat="44.42037" lon="5.78655">
        <ele>740.35</ele>
        <time>2012-05-27T08:37:01Z</time>
      </trkpt>
      <trkpt lat="44.42039" lon="5.78648">
        <ele>740.35</ele>
        <time>2012-05-27T08:37:13Z</time>
      </trkpt>
      <trkpt lat="44.42041" lon="5.7876">
        <ele>737.95</ele>
        <time>2012-05-27T08:37:34Z</time>
      </trkpt>
      <trkpt lat="44.42012" lon="5.78966">
        <ele>735.07</ele>
        <time>2012-05-27T08:37:59Z</time>
      </trkpt>
      <trkpt lat="44.42026" lon="5.79119">
        <ele>731.7</ele>
        <time>2012-05-27T08:38:15Z</time>
      </trkpt>
      <trkpt lat="44.42026" lon="5.79125">
        <ele>731.7</ele>
        <time>2012-05-27T08:38:16Z</time>
      </trkpt>
      <trkpt lat="44.41982" lon="5.79175">
        <ele>728.34</ele>
        <time>2012-05-27T08:38:26Z</time>
      </trkpt>
      <trkpt lat="44.41924" lon="5.7922">
        <ele>724.97</ele>
        <time>2012-05-27T08:38:33Z</time>
      </trkpt>
      <trkpt lat="44.41873" lon="5.7924">
        <ele>724.01</ele>
        <time>2012-05-27T08:38:39Z</time>
      </trkpt>
      <trkpt lat="44.41865" lon="5.79239">
        <ele>724.01</ele>
        <time>2012-05-27T08:38:40Z</time>
      </trkpt>
      <trkpt lat="44.41849" lon="5.79234">
        <ele>723.53</ele>
        <time>2012-05-27T08:38:42Z</time>
      </trkpt>
      <trkpt lat="44.41623" lon="5.79243">
        <ele>719.2</ele>
        <time>2012-05-27T08:39:13Z</time>
      </trkpt>
      <trkpt lat="44.41569" lon="5.79277">
        <ele>720.16</ele>
        <time>2012-05-27T08:39:22Z</time>
      </trkpt>
      <trkpt lat="44.41444" lon="5.79306">
        <ele>722.57</ele>
        <time>2012-05-27T08:39:47Z</time>
      </trkpt>
      <trkpt lat="44.41382" lon="5.79319">
        <ele>723.05</ele>
        <time>2012-05-27T08:40:00Z</time>
      </trkpt>
      <trkpt lat="44.4127" lon="5.79305">
        <ele>727.86</ele>
        <time>2012-05-27T08:40:27Z</time>
      </trkpt>
      <trkpt lat="44.41228" lon="5.79298">
        <ele>731.22</ele>
        <time>2012-05-27T08:40:42Z</time>
      </trkpt>
      <trkpt lat="44.41152" lon="5.79335">
        <ele>736.99</ele>
        <time>2012-05-27T08:41:14Z</time>
      </trkpt>
      <trkpt lat="44.41085" lon="5.79378">
        <ele>742.76</ele>
        <time>2012-05-27T08:41:44Z</time>
      </trkpt>
      <trkpt lat="44.4105" lon="5.79381">
        <ele>745.64</ele>
        <time>2012-05-27T08:42:00Z</time>
      </trkpt>
      <trkpt lat="44.41031" lon="5.79367">
        <ele>748.04</ele>
        <time>2012-05-27T08:42:11Z</time>
      </trkpt>
      <trkpt lat="44.40986" lon="5.79347">
        <ele>754.29</ele>
        <time>2012-05-27T08:42:39Z</time>
      </trkpt>
      <trkpt lat="44.40943" lon="5.79357">
        <ele>758.62</ele>
        <time>2012-05-27T08:43:04Z</time>
      </trkpt>
      <trkpt lat="44.40861" lon="5.79374">
        <ele>765.35</ele>
        <time>2012-05-27T08:43:42Z</time>
      </trkpt>
      <trkpt lat="44.40857" lon="5.79372">
        <ele>764.87</ele>
        <time>2012-05-27T08:43:44Z</time>
      </trkpt>
      <trkpt lat="44.40808" lon="5.79373">
        <ele>768.23</ele>
        <time>2012-05-27T08:44:04Z</time>
      </trkpt>
      <trkpt lat="44.40778" lon="5.7937">
        <ele>771.6</ele>
        <time>2012-05-27T08:44:18Z</time>
      </trkpt>
      <trkpt lat="44.40727" lon="5.79362">
        <ele>777.36</ele>
        <time>2012-05-27T08:44:48Z</time>
      </trkpt>
      <trkpt lat="44.407" lon="5.79352">
        <ele>780.73</ele>
        <time>2012-05-27T08:45:05Z</time>
      </trkpt>
      <trkpt lat="44.40662" lon="5.79318">
        <ele>786.5</ele>
        <time>2012-05-27T08:45:34Z</time>
      </trkpt>
      <trkpt lat="44.40638" lon="5.79311">
        <ele>789.38</ele>
        <time>2012-05-27T08:46:05Z</time>
      </trkpt>
      <trkpt lat="44.4059" lon="5.79295">
        <ele>795.63</ele>
        <time>2012-05-27T08:46:35Z</time>
      </trkpt>
      <trkpt lat="44.4056" lon="5.79284">
        <ele>799.95</ele>
        <time>2012-05-27T08:46:55Z</time>
      </trkpt>
      <trkpt lat="44.40555" lon="5.79282">
        <ele>799.95</ele>
        <time>2012-05-27T08:46:58Z</time>
      </trkpt>
      <trkpt lat="44.40501" lon="5.79268">
        <ele>804.76</ele>
        <time>2012-05-27T08:47:32Z</time>
      </trkpt>
      <trkpt lat="44.40479" lon="5.79259">
        <ele>808.61</ele>
        <time>2012-05-27T08:47:46Z</time>
      </trkpt>
      <trkpt lat="44.40477" lon="5.79259">
        <ele>808.61</ele>
        <time>2012-05-27T08:47:47Z</time>
      </trkpt>
      <trkpt lat="44.40449" lon="5.79258">
        <ele>812.45</ele>
        <time>2012-05-27T08:48:05Z</time>
      </trkpt>
      <trkpt lat="44.40412" lon="5.79265">
        <ele>816.3</ele>
        <time>2012-05-27T08:48:28Z</time>
      </trkpt>
      <trkpt lat="44.40356" lon="5.79275">
        <ele>820.62</ele>
        <time>2012-05-27T08:49:00Z</time>
      </trkpt>
      <trkpt lat="44.40318" lon="5.79236">
        <ele>826.87</ele>
        <time>2012-05-27T08:49:26Z</time>
      </trkpt>
      <trkpt lat="44.40317" lon="5.79233">
        <ele>826.39</ele>
        <time>2012-05-27T08:49:27Z</time>
      </trkpt>
      <trkpt lat="44.40291" lon="5.79188">
        <ele>828.31</ele>
        <time>2012-05-27T08:49:48Z</time>
      </trkpt>
      <trkpt lat="44.40235" lon="5.79196">
        <ele>833.6</ele>
        <time>2012-05-27T08:50:20Z</time>
      </trkpt>
      <trkpt lat="44.40202" lon="5.79202">
        <ele>837.93</ele>
        <time>2012-05-27T08:50:39Z</time>
      </trkpt>
      <trkpt lat="44.40175" lon="5.79209">
        <ele>840.81</ele>
        <time>2012-05-27T08:50:53Z</time>
      </trkpt>
      <trkpt lat="44.40136" lon="5.79242">
        <ele>844.66</ele>
        <time>2012-05-27T08:51:20Z</time>
      </trkpt>
      <trkpt lat="44.40115" lon="5.79249">
        <ele>848.02</ele>
        <time>2012-05-27T08:51:33Z</time>
      </trkpt>
      <trkpt lat="44.40074" lon="5.79269">
        <ele>853.31</ele>
        <time>2012-05-27T08:51:59Z</time>
      </trkpt>
      <trkpt lat="44.40075" lon="5.79271">
        <ele>853.31</ele>
        <time>2012-05-27T08:52:00Z</time>
      </trkpt>
      <trkpt lat="44.4006" lon="5.79295">
        <ele>855.71</ele>
        <time>2012-05-27T08:52:15Z</time>
      </trkpt>
      <trkpt lat="44.4006" lon="5.79297">
        <ele>856.67</ele>
        <time>2012-05-27T08:52:16Z</time>
      </trkpt>
      <trkpt lat="44.4006" lon="5.793">
        <ele>856.67</ele>
        <time>2012-05-27T08:52:17Z</time>
      </trkpt>
      <trkpt lat="44.40057" lon="5.79318">
        <ele>858.11</ele>
        <time>2012-05-27T08:52:25Z</time>
      </trkpt>
      <trkpt lat="44.40057" lon="5.79321">
        <ele>858.59</ele>
        <time>2012-05-27T08:52:26Z</time>
      </trkpt>
      <trkpt lat="44.40054" lon="5.79358">
        <ele>860.04</ele>
        <time>2012-05-27T08:52:36Z</time>
      </trkpt>
      <trkpt lat="44.40063" lon="5.79371">
        <ele>861.48</ele>
        <time>2012-05-27T08:52:45Z</time>
      </trkpt>
      <trkpt lat="44.40058" lon="5.79413">
        <ele>864.84</ele>
        <time>2012-05-27T08:53:06Z</time>
      </trkpt>
      <trkpt lat="44.40066" lon="5.79484">
        <ele>869.17</ele>
        <time>2012-05-27T08:53:36Z</time>
      </trkpt>
      <trkpt lat="44.40075" lon="5.79503">
        <ele>870.13</ele>
        <time>2012-05-27T08:53:46Z</time>
      </trkpt>
      <trkpt lat="44.4008" lon="5.79511">
        <ele>871.09</ele>
        <time>2012-05-27T08:53:51Z</time>
      </trkpt>
      <trkpt lat="44.40104" lon="5.79533">
        <ele>873.01</ele>
        <time>2012-05-27T08:54:07Z</time>
      </trkpt>
      <trkpt lat="44.40105" lon="5.79558">
        <ele>876.38</ele>
        <time>2012-05-27T08:54:27Z</time>
      </trkpt>
      <trkpt lat="44.40053" lon="5.79519">
        <ele>879.74</ele>
        <time>2012-05-27T08:54:53Z</time>
      </trkpt>
      <trkpt lat="44.40035" lon="5.79501">
        <ele>881.67</ele>
        <time>2012-05-27T08:55:04Z</time>
      </trkpt>
      <trkpt lat="44.40034" lon="5.795">
        <ele>881.67</ele>
        <time>2012-05-27T08:55:05Z</time>
      </trkpt>
      <trkpt lat="44.39996" lon="5.79457">
        <ele>885.51</ele>
        <time>2012-05-27T08:55:28Z</time>
      </trkpt>
      <trkpt lat="44.39962" lon="5.79436">
        <ele>887.43</ele>
        <time>2012-05-27T08:55:53Z</time>
      </trkpt>
      <trkpt lat="44.39959" lon="5.79442">
        <ele>887.43</ele>
        <time>2012-05-27T08:56:58Z</time>
      </trkpt>
      <trkpt lat="44.3996" lon="5.79447">
        <ele>887.43</ele>
        <time>2012-05-27T08:57:15Z</time>
      </trkpt>
      <trkpt lat="44.39953" lon="5.79484">
        <ele>888.4</ele>
        <time>2012-05-27T08:57:29Z</time>
      </trkpt>
      <trkpt lat="44.39946" lon="5.7952">
        <ele>889.84</ele>
        <time>2012-05-27T08:57:42Z</time>
      </trkpt>
      <trkpt lat="44.39931" lon="5.79605">
        <ele>894.16</ele>
        <time>2012-05-27T08:58:12Z</time>
      </trkpt>
      <trkpt lat="44.3991" lon="5.79658">
        <ele>898.01</ele>
        <time>2012-05-27T08:58:32Z</time>
      </trkpt>
      <trkpt lat="44.3988" lon="5.79676">
        <ele>901.37</ele>
        <time>2012-05-27T08:58:46Z</time>
      </trkpt>
      <trkpt lat="44.39809" lon="5.7969">
        <ele>906.66</ele>
        <time>2012-05-27T08:59:19Z</time>
      </trkpt>
      <trkpt lat="44.39742" lon="5.79694">
        <ele>912.91</ele>
        <time>2012-05-27T08:59:53Z</time>
      </trkpt>
      <trkpt lat="44.39662" lon="5.79702">
        <ele>919.16</ele>
        <time>2012-05-27T09:00:33Z</time>
      </trkpt>
      <trkpt lat="44.39652" lon="5.79704">
        <ele>919.16</ele>
        <time>2012-05-27T09:00:38Z</time>
      </trkpt>
      <trkpt lat="44.39587" lon="5.79716">
        <ele>925.41</ele>
        <time>2012-05-27T09:01:09Z</time>
      </trkpt>
      <trkpt lat="44.39525" lon="5.79747">
        <ele>931.17</ele>
        <time>2012-05-27T09:01:42Z</time>
      </trkpt>
      <trkpt lat="44.3947" lon="5.79769">
        <ele>937.9</ele>
        <time>2012-05-27T09:02:09Z</time>
      </trkpt>
      <trkpt lat="44.39449" lon="5.79781">
        <ele>938.86</ele>
        <time>2012-05-27T09:02:22Z</time>
      </trkpt>
      <trkpt lat="44.39405" lon="5.79791">
        <ele>942.71</ele>
        <time>2012-05-27T09:02:47Z</time>
      </trkpt>
      <trkpt lat="44.39387" lon="5.79786">
        <ele>945.11</ele>
        <time>2012-05-27T09:04:12Z</time>
      </trkpt>
      <trkpt lat="44.39336" lon="5.79779">
        <ele>949.92</ele>
        <time>2012-05-27T09:04:38Z</time>
      </trkpt>
      <trkpt lat="44.39285" lon="5.7983">
        <ele>952.8</ele>
        <time>2012-05-27T09:05:07Z</time>
      </trkpt>
      <trkpt lat="44.39273" lon="5.79911">
        <ele>951.36</ele>
        <time>2012-05-27T09:05:19Z</time>
      </trkpt>
      <trkpt lat="44.3927" lon="5.79939">
        <ele>950.4</ele>
        <time>2012-05-27T09:05:23Z</time>
      </trkpt>
      <trkpt lat="44.39242" lon="5.8005">
        <ele>947.52</ele>
        <time>2012-05-27T09:05:39Z</time>
      </trkpt>
      <trkpt lat="44.39219" lon="5.80071">
        <ele>946.07</ele>
        <time>2012-05-27T09:05:43Z</time>
      </trkpt>
      <trkpt lat="44.39202" lon="5.80104">
        <ele>945.11</ele>
        <time>2012-05-27T09:05:47Z</time>
      </trkpt>
      <trkpt lat="44.39178" lon="5.8023">
        <ele>941.75</ele>
        <time>2012-05-27T09:06:04Z</time>
      </trkpt>
      <trkpt lat="44.39175" lon="5.80237">
        <ele>941.75</ele>
        <time>2012-05-27T09:06:05Z</time>
      </trkpt>
      <trkpt lat="44.39156" lon="5.80319">
        <ele>938.86</ele>
        <time>2012-05-27T09:06:14Z</time>
      </trkpt>
      <trkpt lat="44.39146" lon="5.80359">
        <ele>935.98</ele>
        <time>2012-05-27T09:06:20Z</time>
      </trkpt>
      <trkpt lat="44.39142" lon="5.80367">
        <ele>935.5</ele>
        <time>2012-05-27T09:06:21Z</time>
      </trkpt>
      <trkpt lat="44.39117" lon="5.80376">
        <ele>933.1</ele>
        <time>2012-05-27T09:06:26Z</time>
      </trkpt>
      <trkpt lat="44.39072" lon="5.80344">
        <ele>929.73</ele>
        <time>2012-05-27T09:06:34Z</time>
      </trkpt>
      <trkpt lat="44.39056" lon="5.80341">
        <ele>928.29</ele>
        <time>2012-05-27T09:06:36Z</time>
      </trkpt>
      <trkpt lat="44.39036" lon="5.80341">
        <ele>924.93</ele>
        <time>2012-05-27T09:06:39Z</time>
      </trkpt>
      <trkpt lat="44.39033" lon="5.80346">
        <ele>924.93</ele>
        <time>2012-05-27T09:06:40Z</time>
      </trkpt>
      <trkpt lat="44.3903" lon="5.80381">
        <ele>922.52</ele>
        <time>2012-05-27T09:06:45Z</time>
      </trkpt>
      <trkpt lat="44.39032" lon="5.80389">
        <ele>922.04</ele>
        <time>2012-05-27T09:06:46Z</time>
      </trkpt>
      <trkpt lat="44.39035" lon="5.80436">
        <ele>920.12</ele>
        <time>2012-05-27T09:06:51Z</time>
      </trkpt>
      <trkpt lat="44.39036" lon="5.80483">
        <ele>917.72</ele>
        <time>2012-05-27T09:06:55Z</time>
      </trkpt>
      <trkpt lat="44.39014" lon="5.80579">
        <ele>911.47</ele>
        <time>2012-05-27T09:07:02Z</time>
      </trkpt>
      <trkpt lat="44.39006" lon="5.80606">
        <ele>910.51</ele>
        <time>2012-05-27T09:07:04Z</time>
      </trkpt>
      <trkpt lat="44.38993" lon="5.80637">
        <ele>907.14</ele>
        <time>2012-05-27T09:07:07Z</time>
      </trkpt>
      <trkpt lat="44.38988" lon="5.8066">
        <ele>906.18</ele>
        <time>2012-05-27T09:07:09Z</time>
      </trkpt>
      <trkpt lat="44.38984" lon="5.80694">
        <ele>903.3</ele>
        <time>2012-05-27T09:07:12Z</time>
      </trkpt>
      <trkpt lat="44.38984" lon="5.80739">
        <ele>899.45</ele>
        <time>2012-05-27T09:07:16Z</time>
      </trkpt>
      <trkpt lat="44.38985" lon="5.80793">
        <ele>896.57</ele>
        <time>2012-05-27T09:07:22Z</time>
      </trkpt>
      <trkpt lat="44.39008" lon="5.80837">
        <ele>892.72</ele>
        <time>2012-05-27T09:07:28Z</time>
      </trkpt>
      <trkpt lat="44.39004" lon="5.80876">
        <ele>889.84</ele>
        <time>2012-05-27T09:07:34Z</time>
      </trkpt>
      <trkpt lat="44.3899" lon="5.80869">
        <ele>889.36</ele>
        <time>2012-05-27T09:07:37Z</time>
      </trkpt>
      <trkpt lat="44.3896" lon="5.80848">
        <ele>886.95</ele>
        <time>2012-05-27T09:07:42Z</time>
      </trkpt>
      <trkpt lat="44.38888" lon="5.8078">
        <ele>886.95</ele>
        <time>2012-05-27T09:07:55Z</time>
      </trkpt>
      <trkpt lat="44.38867" lon="5.80731">
        <ele>889.36</ele>
        <time>2012-05-27T09:08:08Z</time>
      </trkpt>
      <trkpt lat="44.38817" lon="5.80731">
        <ele>891.76</ele>
        <time>2012-05-27T09:08:29Z</time>
      </trkpt>
      <trkpt lat="44.38733" lon="5.80817">
        <ele>888.4</ele>
        <time>2012-05-27T09:08:50Z</time>
      </trkpt>
      <trkpt lat="44.38723" lon="5.80845">
        <ele>886.47</ele>
        <time>2012-05-27T09:08:54Z</time>
      </trkpt>
      <trkpt lat="44.38721" lon="5.80872">
        <ele>885.51</ele>
        <time>2012-05-27T09:08:57Z</time>
      </trkpt>
      <trkpt lat="44.38717" lon="5.80915">
        <ele>883.11</ele>
        <time>2012-05-27T09:09:02Z</time>
      </trkpt>
      <trkpt lat="44.38723" lon="5.80973">
        <ele>880.71</ele>
        <time>2012-05-27T09:09:10Z</time>
      </trkpt>
      <trkpt lat="44.38709" lon="5.80973">
        <ele>880.22</ele>
        <time>2012-05-27T09:09:13Z</time>
      </trkpt>
      <trkpt lat="44.38704" lon="5.80972">
        <ele>880.71</ele>
        <time>2012-05-27T09:09:14Z</time>
      </trkpt>
      <trkpt lat="44.38659" lon="5.81018">
        <ele>880.22</ele>
        <time>2012-05-27T09:09:26Z</time>
      </trkpt>
      <trkpt lat="44.38657" lon="5.81024">
        <ele>880.22</ele>
        <time>2012-05-27T09:09:27Z</time>
      </trkpt>
      <trkpt lat="44.38656" lon="5.8103">
        <ele>879.74</ele>
        <time>2012-05-27T09:09:28Z</time>
      </trkpt>
      <trkpt lat="44.38653" lon="5.81053">
        <ele>878.78</ele>
        <time>2012-05-27T09:09:31Z</time>
      </trkpt>
      <trkpt lat="44.38651" lon="5.81093">
        <ele>876.86</ele>
        <time>2012-05-27T09:09:35Z</time>
      </trkpt>
      <trkpt lat="44.38643" lon="5.81136">
        <ele>874.94</ele>
        <time>2012-05-27T09:09:39Z</time>
      </trkpt>
      <trkpt lat="44.38629" lon="5.81179">
        <ele>872.53</ele>
        <time>2012-05-27T09:09:43Z</time>
      </trkpt>
      <trkpt lat="44.38599" lon="5.81191">
        <ele>869.65</ele>
        <time>2012-05-27T09:09:49Z</time>
      </trkpt>
      <trkpt lat="44.38595" lon="5.8117">
        <ele>868.21</ele>
        <time>2012-05-27T09:09:52Z</time>
      </trkpt>
      <trkpt lat="44.386" lon="5.81126">
        <ele>865.8</ele>
        <time>2012-05-27T09:09:57Z</time>
      </trkpt>
      <trkpt lat="44.38599" lon="5.81116">
        <ele>865.8</ele>
        <time>2012-05-27T09:09:58Z</time>
      </trkpt>
      <trkpt lat="44.38593" lon="5.81082">
        <ele>864.36</ele>
        <time>2012-05-27T09:10:01Z</time>
      </trkpt>
      <trkpt lat="44.38548" lon="5.80957">
        <ele>858.59</ele>
        <time>2012-05-27T09:10:14Z</time>
      </trkpt>
      <trkpt lat="44.38515" lon="5.80857">
        <ele>854.75</ele>
        <time>2012-05-27T09:10:23Z</time>
      </trkpt>
      <trkpt lat="44.38511" lon="5.80845">
        <ele>854.27</ele>
        <time>2012-05-27T09:10:24Z</time>
      </trkpt>
      <trkpt lat="44.38504" lon="5.80823">
        <ele>853.31</ele>
        <time>2012-05-27T09:10:26Z</time>
      </trkpt>
      <trkpt lat="44.38502" lon="5.80812">
        <ele>853.31</ele>
        <time>2012-05-27T09:10:27Z</time>
      </trkpt>
      <trkpt lat="44.38526" lon="5.80735">
        <ele>857.63</ele>
        <time>2012-05-27T09:10:41Z</time>
      </trkpt>
      <trkpt lat="44.38546" lon="5.80705">
        <ele>861</ele>
        <time>2012-05-27T09:10:53Z</time>
      </trkpt>
      <trkpt lat="44.38572" lon="5.80667">
        <ele>864.36</ele>
        <time>2012-05-27T09:11:12Z</time>
      </trkpt>
      <trkpt lat="44.38591" lon="5.80646">
        <ele>867.73</ele>
        <time>2012-05-27T09:11:25Z</time>
      </trkpt>
      <trkpt lat="44.38593" lon="5.80645">
        <ele>867.73</ele>
        <time>2012-05-27T09:11:26Z</time>
      </trkpt>
      <trkpt lat="44.38621" lon="5.8062">
        <ele>871.09</ele>
        <time>2012-05-27T09:11:45Z</time>
      </trkpt>
      <trkpt lat="44.38641" lon="5.80608">
        <ele>873.98</ele>
        <time>2012-05-27T09:11:57Z</time>
      </trkpt>
      <trkpt lat="44.38648" lon="5.80605">
        <ele>875.42</ele>
        <time>2012-05-27T09:12:01Z</time>
      </trkpt>
      <trkpt lat="44.38649" lon="5.80605">
        <ele>875.42</ele>
        <time>2012-05-27T09:12:02Z</time>
      </trkpt>
      <trkpt lat="44.38664" lon="5.80605">
        <ele>877.34</ele>
        <time>2012-05-27T09:12:13Z</time>
      </trkpt>
      <trkpt lat="44.38688" lon="5.80554">
        <ele>878.3</ele>
        <time>2012-05-27T09:12:33Z</time>
      </trkpt>
      <trkpt lat="44.38732" lon="5.80469">
        <ele>877.34</ele>
        <time>2012-05-27T09:12:56Z</time>
      </trkpt>
      <trkpt lat="44.38728" lon="5.80463">
        <ele>877.34</ele>
        <time>2012-05-27T09:12:58Z</time>
      </trkpt>
      <trkpt lat="44.38716" lon="5.80458">
        <ele>877.34</ele>
        <time>2012-05-27T09:13:01Z</time>
      </trkpt>
      <trkpt lat="44.38685" lon="5.80479">
        <ele>876.86</ele>
        <time>2012-05-27T09:13:09Z</time>
      </trkpt>
      <trkpt lat="44.38675" lon="5.80482">
        <ele>877.34</ele>
        <time>2012-05-27T09:13:11Z</time>
      </trkpt>
      <trkpt lat="44.38667" lon="5.80484">
        <ele>877.34</ele>
        <time>2012-05-27T09:13:13Z</time>
      </trkpt>
      <trkpt lat="44.38646" lon="5.80474">
        <ele>876.38</ele>
        <time>2012-05-27T09:13:44Z</time>
      </trkpt>
      <trkpt lat="44.38626" lon="5.8046">
        <ele>876.38</ele>
        <time>2012-05-27T09:13:52Z</time>
      </trkpt>
      <trkpt lat="44.38562" lon="5.8045">
        <ele>875.9</ele>
        <time>2012-05-27T09:14:07Z</time>
      </trkpt>
      <trkpt lat="44.38549" lon="5.80451">
        <ele>875.9</ele>
        <time>2012-05-27T09:14:10Z</time>
      </trkpt>
      <trkpt lat="44.38515" lon="5.804">
        <ele>876.86</ele>
        <time>2012-05-27T09:14:22Z</time>
      </trkpt>
      <trkpt lat="44.3853" lon="5.80355">
        <ele>877.34</ele>
        <time>2012-05-27T09:14:30Z</time>
      </trkpt>
      <trkpt lat="44.38543" lon="5.80299">
        <ele>875.9</ele>
        <time>2012-05-27T09:14:41Z</time>
      </trkpt>
      <trkpt lat="44.38546" lon="5.80295">
        <ele>875.9</ele>
        <time>2012-05-27T09:14:42Z</time>
      </trkpt>
      <trkpt lat="44.38559" lon="5.80296">
        <ele>876.38</ele>
        <time>2012-05-27T09:14:45Z</time>
      </trkpt>
      <trkpt lat="44.38609" lon="5.80309">
        <ele>875.42</ele>
        <time>2012-05-27T09:14:56Z</time>
      </trkpt>
      <trkpt lat="44.38631" lon="5.80283">
        <ele>875.42</ele>
        <time>2012-05-27T09:15:03Z</time>
      </trkpt>
      <trkpt lat="44.38647" lon="5.8024">
        <ele>875.9</ele>
        <time>2012-05-27T09:15:10Z</time>
      </trkpt>
      <trkpt lat="44.38665" lon="5.80225">
        <ele>874.94</ele>
        <time>2012-05-27T09:15:14Z</time>
      </trkpt>
      <trkpt lat="44.38669" lon="5.80221">
        <ele>875.9</ele>
        <time>2012-05-27T09:15:15Z</time>
      </trkpt>
      <trkpt lat="44.38688" lon="5.80177">
        <ele>874.94</ele>
        <time>2012-05-27T09:15:23Z</time>
      </trkpt>
      <trkpt lat="44.38715" lon="5.80176">
        <ele>873.98</ele>
        <time>2012-05-27T09:15:29Z</time>
      </trkpt>
      <trkpt lat="44.38721" lon="5.80175">
        <ele>873.5</ele>
        <time>2012-05-27T09:15:30Z</time>
      </trkpt>
      <trkpt lat="44.38742" lon="5.80156">
        <ele>873.5</ele>
        <time>2012-05-27T09:15:35Z</time>
      </trkpt>
      <trkpt lat="44.38778" lon="5.80116">
        <ele>872.53</ele>
        <time>2012-05-27T09:15:43Z</time>
      </trkpt>
      <trkpt lat="44.38789" lon="5.80058">
        <ele>873.01</ele>
        <time>2012-05-27T09:15:52Z</time>
      </trkpt>
      <trkpt lat="44.3879" lon="5.80052">
        <ele>872.05</ele>
        <time>2012-05-27T09:15:53Z</time>
      </trkpt>
      <trkpt lat="44.38813" lon="5.80021">
        <ele>872.05</ele>
        <time>2012-05-27T09:15:59Z</time>
      </trkpt>
      <trkpt lat="44.38836" lon="5.80004">
        <ele>871.57</ele>
        <time>2012-05-27T09:16:04Z</time>
      </trkpt>
      <trkpt lat="44.38847" lon="5.79937">
        <ele>871.09</ele>
        <time>2012-05-27T09:16:14Z</time>
      </trkpt>
      <trkpt lat="44.38866" lon="5.79918">
        <ele>870.13</ele>
        <time>2012-05-27T09:16:19Z</time>
      </trkpt>
      <trkpt lat="44.38876" lon="5.79912">
        <ele>870.61</ele>
        <time>2012-05-27T09:16:21Z</time>
      </trkpt>
      <trkpt lat="44.38886" lon="5.79904">
        <ele>870.13</ele>
        <time>2012-05-27T09:16:23Z</time>
      </trkpt>
      <trkpt lat="44.38907" lon="5.79843">
        <ele>870.61</ele>
        <time>2012-05-27T09:16:32Z</time>
      </trkpt>
      <trkpt lat="44.38972" lon="5.79778">
        <ele>869.17</ele>
        <time>2012-05-27T09:16:47Z</time>
      </trkpt>
      <trkpt lat="44.38973" lon="5.79745">
        <ele>868.21</ele>
        <time>2012-05-27T09:16:53Z</time>
      </trkpt>
      <trkpt lat="44.3897" lon="5.7974">
        <ele>867.73</ele>
        <time>2012-05-27T09:16:54Z</time>
      </trkpt>
      <trkpt lat="44.38967" lon="5.79734">
        <ele>867.25</ele>
        <time>2012-05-27T09:16:55Z</time>
      </trkpt>
      <trkpt lat="44.38963" lon="5.79728">
        <ele>866.77</ele>
        <time>2012-05-27T09:16:56Z</time>
      </trkpt>
      <trkpt lat="44.38935" lon="5.79684">
        <ele>861.96</ele>
        <time>2012-05-27T09:17:04Z</time>
      </trkpt>
      <trkpt lat="44.38915" lon="5.79648">
        <ele>857.63</ele>
        <time>2012-05-27T09:17:23Z</time>
      </trkpt>
      <trkpt lat="44.38908" lon="5.79628">
        <ele>855.71</ele>
        <time>2012-05-27T09:17:32Z</time>
      </trkpt>
      <trkpt lat="44.38899" lon="5.79579">
        <ele>852.35</ele>
        <time>2012-05-27T09:17:40Z</time>
      </trkpt>
      <trkpt lat="44.38899" lon="5.79572">
        <ele>852.83</ele>
        <time>2012-05-27T09:17:41Z</time>
      </trkpt>
      <trkpt lat="44.38904" lon="5.79527">
        <ele>849.46</ele>
        <time>2012-05-27T09:17:49Z</time>
      </trkpt>
      <trkpt lat="44.38881" lon="5.79496">
        <ele>847.06</ele>
        <time>2012-05-27T09:17:55Z</time>
      </trkpt>
      <trkpt lat="44.38877" lon="5.7949">
        <ele>846.58</ele>
        <time>2012-05-27T09:17:56Z</time>
      </trkpt>
      <trkpt lat="44.38863" lon="5.79463">
        <ele>844.66</ele>
        <time>2012-05-27T09:18:00Z</time>
      </trkpt>
      <trkpt lat="44.38851" lon="5.79421">
        <ele>841.29</ele>
        <time>2012-05-27T09:18:05Z</time>
      </trkpt>
      <trkpt lat="44.3885" lon="5.79413">
        <ele>841.29</ele>
        <time>2012-05-27T09:18:06Z</time>
      </trkpt>
      <trkpt lat="44.38846" lon="5.794">
        <ele>840.33</ele>
        <time>2012-05-27T09:18:52Z</time>
      </trkpt>
      <trkpt lat="44.3885" lon="5.79373">
        <ele>837.45</ele>
        <time>2012-05-27T09:19:00Z</time>
      </trkpt>
      <trkpt lat="44.38857" lon="5.79351">
        <ele>835.04</ele>
        <time>2012-05-27T09:19:03Z</time>
      </trkpt>
      <trkpt lat="44.3886" lon="5.79344">
        <ele>835.04</ele>
        <time>2012-05-27T09:19:04Z</time>
      </trkpt>
      <trkpt lat="44.38873" lon="5.79325">
        <ele>833.6</ele>
        <time>2012-05-27T09:19:07Z</time>
      </trkpt>
      <trkpt lat="44.38909" lon="5.79286">
        <ele>828.79</ele>
        <time>2012-05-27T09:19:17Z</time>
      </trkpt>
      <trkpt lat="44.38916" lon="5.79274">
        <ele>827.35</ele>
        <time>2012-05-27T09:19:21Z</time>
      </trkpt>
      <trkpt lat="44.38914" lon="5.7927">
        <ele>827.35</ele>
        <time>2012-05-27T09:19:23Z</time>
      </trkpt>
      <trkpt lat="44.38912" lon="5.79269">
        <ele>826.39</ele>
        <time>2012-05-27T09:19:34Z</time>
      </trkpt>
      <trkpt lat="44.38912" lon="5.79287">
        <ele>828.79</ele>
        <time>2012-05-27T09:19:51Z</time>
      </trkpt>
      <trkpt lat="44.38899" lon="5.793">
        <ele>829.76</ele>
        <time>2012-05-27T09:20:07Z</time>
      </trkpt>
      <trkpt lat="44.38916" lon="5.79271">
        <ele>827.35</ele>
        <time>2012-05-27T09:20:16Z</time>
      </trkpt>
      <trkpt lat="44.3889" lon="5.79257">
        <ele>823.51</ele>
        <time>2012-05-27T09:20:22Z</time>
      </trkpt>
      <trkpt lat="44.38868" lon="5.7924">
        <ele>820.62</ele>
        <time>2012-05-27T09:20:27Z</time>
      </trkpt>
      <trkpt lat="44.38855" lon="5.7923">
        <ele>817.26</ele>
        <time>2012-05-27T09:20:31Z</time>
      </trkpt>
      <trkpt lat="44.38846" lon="5.79218">
        <ele>814.85</ele>
        <time>2012-05-27T09:20:40Z</time>
      </trkpt>
      <trkpt lat="44.38828" lon="5.79182">
        <ele>811.01</ele>
        <time>2012-05-27T09:20:48Z</time>
      </trkpt>
      <trkpt lat="44.38824" lon="5.79184">
        <ele>809.09</ele>
        <time>2012-05-27T09:21:06Z</time>
      </trkpt>
      <trkpt lat="44.38822" lon="5.79184">
        <ele>810.05</ele>
        <time>2012-05-27T09:21:43Z</time>
      </trkpt>
      <trkpt lat="44.38802" lon="5.79215">
        <ele>805.24</ele>
        <time>2012-05-27T09:21:50Z</time>
      </trkpt>
      <trkpt lat="44.388" lon="5.79223">
        <ele>804.28</ele>
        <time>2012-05-27T09:22:09Z</time>
      </trkpt>
      <trkpt lat="44.38797" lon="5.79239">
        <ele>802.36</ele>
        <time>2012-05-27T09:22:39Z</time>
      </trkpt>
      <trkpt lat="44.38786" lon="5.79228">
        <ele>798.99</ele>
        <time>2012-05-27T09:22:45Z</time>
      </trkpt>
      <trkpt lat="44.38788" lon="5.79216">
        <ele>796.59</ele>
        <time>2012-05-27T09:23:37Z</time>
      </trkpt>
      <trkpt lat="44.38787" lon="5.79198">
        <ele>794.19</ele>
        <time>2012-05-27T09:23:58Z</time>
      </trkpt>
      <trkpt lat="44.3879" lon="5.79162">
        <ele>791.3</ele>
        <time>2012-05-27T09:24:37Z</time>
      </trkpt>
      <trkpt lat="44.38776" lon="5.79146">
        <ele>788.42</ele>
        <time>2012-05-27T09:24:42Z</time>
      </trkpt>
      <trkpt lat="44.38746" lon="5.79131">
        <ele>784.57</ele>
        <time>2012-05-27T09:24:53Z</time>
      </trkpt>
      <trkpt lat="44.38764" lon="5.79116">
        <ele>780.73</ele>
        <time>2012-05-27T09:25:07Z</time>
      </trkpt>
      <trkpt lat="44.3879" lon="5.79086">
        <ele>775.44</ele>
        <time>2012-05-27T09:25:18Z</time>
      </trkpt>
      <trkpt lat="44.38802" lon="5.79063">
        <ele>773.04</ele>
        <time>2012-05-27T09:25:23Z</time>
      </trkpt>
      <trkpt lat="44.38807" lon="5.79052">
        <ele>771.11</ele>
        <time>2012-05-27T09:25:26Z</time>
      </trkpt>
      <trkpt lat="44.38806" lon="5.79028">
        <ele>767.75</ele>
        <time>2012-05-27T09:25:34Z</time>
      </trkpt>
      <trkpt lat="44.38815" lon="5.78987">
        <ele>761.5</ele>
        <time>2012-05-27T09:25:42Z</time>
      </trkpt>
      <trkpt lat="44.38813" lon="5.78981">
        <ele>761.5</ele>
        <time>2012-05-27T09:25:43Z</time>
      </trkpt>
      <trkpt lat="44.38811" lon="5.78959">
        <ele>759.1</ele>
        <time>2012-05-27T09:26:48Z</time>
      </trkpt>
      <trkpt lat="44.38821" lon="5.78946">
        <ele>756.69</ele>
        <time>2012-05-27T09:27:04Z</time>
      </trkpt>
      <trkpt lat="44.38829" lon="5.78922">
        <ele>754.29</ele>
        <time>2012-05-27T09:27:25Z</time>
      </trkpt>
      <trkpt lat="44.38832" lon="5.78921">
        <ele>754.29</ele>
        <time>2012-05-27T09:28:04Z</time>
      </trkpt>
      <trkpt lat="44.38835" lon="5.78895">
        <ele>752.85</ele>
        <time>2012-05-27T09:28:10Z</time>
      </trkpt>
      <trkpt lat="44.38808" lon="5.78847">
        <ele>751.41</ele>
        <time>2012-05-27T09:28:20Z</time>
      </trkpt>
      <trkpt lat="44.38773" lon="5.78829">
        <ele>749</ele>
        <time>2012-05-27T09:28:29Z</time>
      </trkpt>
      <trkpt lat="44.38767" lon="5.78826">
        <ele>749.49</ele>
        <time>2012-05-27T09:28:30Z</time>
      </trkpt>
      <trkpt lat="44.38754" lon="5.78807">
        <ele>748.04</ele>
        <time>2012-05-27T09:28:45Z</time>
      </trkpt>
      <trkpt lat="44.38753" lon="5.78773">
        <ele>747.08</ele>
        <time>2012-05-27T09:28:58Z</time>
      </trkpt>
      <trkpt lat="44.38737" lon="5.78708">
        <ele>744.68</ele>
        <time>2012-05-27T09:29:08Z</time>
      </trkpt>
      <trkpt lat="44.38734" lon="5.78695">
        <ele>743.72</ele>
        <time>2012-05-27T09:29:15Z</time>
      </trkpt>
      <trkpt lat="44.38702" lon="5.78674">
        <ele>741.79</ele>
        <time>2012-05-27T09:29:38Z</time>
      </trkpt>
      <trkpt lat="44.38699" lon="5.78653">
        <ele>740.83</ele>
        <time>2012-05-27T09:29:45Z</time>
      </trkpt>
      <trkpt lat="44.38672" lon="5.78581">
        <ele>738.43</ele>
        <time>2012-05-27T09:29:58Z</time>
      </trkpt>
      <trkpt lat="44.38666" lon="5.78566">
        <ele>737.47</ele>
        <time>2012-05-27T09:30:01Z</time>
      </trkpt>
      <trkpt lat="44.38665" lon="5.78559">
        <ele>737.47</ele>
        <time>2012-05-27T09:30:02Z</time>
      </trkpt>
      <trkpt lat="44.38648" lon="5.785">
        <ele>735.55</ele>
        <time>2012-05-27T09:30:15Z</time>
      </trkpt>
      <trkpt lat="44.38642" lon="5.78478">
        <ele>735.07</ele>
        <time>2012-05-27T09:30:19Z</time>
      </trkpt>
      <trkpt lat="44.38627" lon="5.78443">
        <ele>733.62</ele>
        <time>2012-05-27T09:30:26Z</time>
      </trkpt>
      <trkpt lat="44.3861" lon="5.78407">
        <ele>732.18</ele>
        <time>2012-05-27T09:30:58Z</time>
      </trkpt>
      <trkpt lat="44.38596" lon="5.78373">
        <ele>729.78</ele>
        <time>2012-05-27T09:31:30Z</time>
      </trkpt>
      <trkpt lat="44.38583" lon="5.78358">
        <ele>729.3</ele>
        <time>2012-05-27T09:31:43Z</time>
      </trkpt>
      <trkpt lat="44.38565" lon="5.78328">
        <ele>730.74</ele>
        <time>2012-05-27T09:32:20Z</time>
      </trkpt>
      <trkpt lat="44.38506" lon="5.78237">
        <ele>730.26</ele>
        <time>2012-05-27T09:32:47Z</time>
      </trkpt>
      <trkpt lat="44.38488" lon="5.78195">
        <ele>731.22</ele>
        <time>2012-05-27T09:33:17Z</time>
      </trkpt>
      <trkpt lat="44.38486" lon="5.78189">
        <ele>730.26</ele>
        <time>2012-05-27T09:33:18Z</time>
      </trkpt>
      <trkpt lat="44.38462" lon="5.78097">
        <ele>733.62</ele>
        <time>2012-05-27T09:33:37Z</time>
      </trkpt>
      <trkpt lat="44.38422" lon="5.78009">
        <ele>735.07</ele>
        <time>2012-05-27T09:34:01Z</time>
      </trkpt>
      <trkpt lat="44.38413" lon="5.77979">
        <ele>734.1</ele>
        <time>2012-05-27T09:34:06Z</time>
      </trkpt>
      <trkpt lat="44.38405" lon="5.77898">
        <ele>732.18</ele>
        <time>2012-05-27T09:34:23Z</time>
      </trkpt>
      <trkpt lat="44.38397" lon="5.77831">
        <ele>732.66</ele>
        <time>2012-05-27T09:34:42Z</time>
      </trkpt>
      <trkpt lat="44.38392" lon="5.77807">
        <ele>732.66</ele>
        <time>2012-05-27T09:34:56Z</time>
      </trkpt>
      <trkpt lat="44.38402" lon="5.77716">
        <ele>736.03</ele>
        <time>2012-05-27T09:35:26Z</time>
      </trkpt>
      <trkpt lat="44.38403" lon="5.77693">
        <ele>734.58</ele>
        <time>2012-05-27T09:35:49Z</time>
      </trkpt>
      <trkpt lat="44.384" lon="5.77668">
        <ele>734.58</ele>
        <time>2012-05-27T09:36:05Z</time>
      </trkpt>
      <trkpt lat="44.38382" lon="5.77585">
        <ele>736.99</ele>
        <time>2012-05-27T09:36:39Z</time>
      </trkpt>
      <trkpt lat="44.38377" lon="5.77577">
        <ele>736.03</ele>
        <time>2012-05-27T09:36:46Z</time>
      </trkpt>
      <trkpt lat="44.38361" lon="5.77528">
        <ele>736.51</ele>
        <time>2012-05-27T09:37:02Z</time>
      </trkpt>
      <trkpt lat="44.38354" lon="5.77481">
        <ele>736.99</ele>
        <time>2012-05-27T09:37:18Z</time>
      </trkpt>
      <trkpt lat="44.38341" lon="5.77461">
        <ele>736.99</ele>
        <time>2012-05-27T09:37:51Z</time>
      </trkpt>
      <trkpt lat="44.38319" lon="5.77436">
        <ele>736.99</ele>
        <time>2012-05-27T09:38:02Z</time>
      </trkpt>
      <trkpt lat="44.38317" lon="5.77418">
        <ele>736.99</ele>
        <time>2012-05-27T09:38:07Z</time>
      </trkpt>
      <trkpt lat="44.383" lon="5.77348">
        <ele>736.51</ele>
        <time>2012-05-27T09:38:27Z</time>
      </trkpt>
      <trkpt lat="44.38279" lon="5.77264">
        <ele>736.03</ele>
        <time>2012-05-27T09:38:59Z</time>
      </trkpt>
      <trkpt lat="44.38272" lon="5.77262">
        <ele>735.55</ele>
        <time>2012-05-27T09:39:44Z</time>
      </trkpt>
      <trkpt lat="44.3827" lon="5.77261">
        <ele>735.55</ele>
        <time>2012-05-27T09:40:53Z</time>
      </trkpt>
      <trkpt lat="44.38258" lon="5.77234">
        <ele>736.51</ele>
        <time>2012-05-27T09:41:14Z</time>
      </trkpt>
      <trkpt lat="44.3825" lon="5.77198">
        <ele>737.47</ele>
        <time>2012-05-27T09:41:36Z</time>
      </trkpt>
      <trkpt lat="44.38249" lon="5.77169">
        <ele>737.47</ele>
        <time>2012-05-27T09:41:54Z</time>
      </trkpt>
      <trkpt lat="44.38267" lon="5.77128">
        <ele>738.43</ele>
        <time>2012-05-27T09:43:08Z</time>
      </trkpt>
      <trkpt lat="44.38267" lon="5.77097">
        <ele>739.87</ele>
        <time>2012-05-27T09:43:40Z</time>
      </trkpt>
      <trkpt lat="44.38267" lon="5.77094">
        <ele>739.87</ele>
        <time>2012-05-27T09:43:42Z</time>
      </trkpt>
      <trkpt lat="44.38263" lon="5.77078">
        <ele>739.87</ele>
        <time>2012-05-27T09:43:58Z</time>
      </trkpt>
      <trkpt lat="44.38246" lon="5.77054">
        <ele>740.83</ele>
        <time>2012-05-27T09:44:36Z</time>
      </trkpt>
      <trkpt lat="44.38239" lon="5.77068">
        <ele>741.31</ele>
        <time>2012-05-27T09:44:49Z</time>
      </trkpt>
      <trkpt lat="44.38233" lon="5.7708">
        <ele>741.79</ele>
        <time>2012-05-27T09:45:12Z</time>
      </trkpt>
      <trkpt lat="44.38225" lon="5.77086">
        <ele>742.76</ele>
        <time>2012-05-27T09:45:41Z</time>
      </trkpt>
      <trkpt lat="44.38214" lon="5.771">
        <ele>743.24</ele>
        <time>2012-05-27T09:45:58Z</time>
      </trkpt>
      <trkpt lat="44.38181" lon="5.7709">
        <ele>743.72</ele>
        <time>2012-05-27T09:46:22Z</time>
      </trkpt>
      <trkpt lat="44.38157" lon="5.77088">
        <ele>741.79</ele>
        <time>2012-05-27T09:46:43Z</time>
      </trkpt>
      <trkpt lat="44.38154" lon="5.77089">
        <ele>741.31</ele>
        <time>2012-05-27T09:48:16Z</time>
      </trkpt>
      <trkpt lat="44.38132" lon="5.77074">
        <ele>737.47</ele>
        <time>2012-05-27T09:48:44Z</time>
      </trkpt>
      <trkpt lat="44.38128" lon="5.77072">
        <ele>737.47</ele>
        <time>2012-05-27T09:48:45Z</time>
      </trkpt>
      <trkpt lat="44.38109" lon="5.77051">
        <ele>736.03</ele>
        <time>2012-05-27T09:48:52Z</time>
      </trkpt>
      <trkpt lat="44.38104" lon="5.77045">
        <ele>735.07</ele>
        <time>2012-05-27T09:48:54Z</time>
      </trkpt>
      <trkpt lat="44.38098" lon="5.77001">
        <ele>732.18</ele>
        <time>2012-05-27T09:49:01Z</time>
      </trkpt>
      <trkpt lat="44.38099" lon="5.76993">
        <ele>731.7</ele>
        <time>2012-05-27T09:49:02Z</time>
      </trkpt>
      <trkpt lat="44.38118" lon="5.76952">
        <ele>729.78</ele>
        <time>2012-05-27T09:49:10Z</time>
      </trkpt>
      <trkpt lat="44.38124" lon="5.76917">
        <ele>728.82</ele>
        <time>2012-05-27T09:49:16Z</time>
      </trkpt>
      <trkpt lat="44.38096" lon="5.7687">
        <ele>726.89</ele>
        <time>2012-05-27T09:49:24Z</time>
      </trkpt>
      <trkpt lat="44.38079" lon="5.76882">
        <ele>726.89</ele>
        <time>2012-05-27T09:49:27Z</time>
      </trkpt>
      <trkpt lat="44.38073" lon="5.76887">
        <ele>726.41</ele>
        <time>2012-05-27T09:49:28Z</time>
      </trkpt>
      <trkpt lat="44.38062" lon="5.769">
        <ele>725.45</ele>
        <time>2012-05-27T09:49:30Z</time>
      </trkpt>
      <trkpt lat="44.37985" lon="5.76911">
        <ele>719.68</ele>
        <time>2012-05-27T09:49:39Z</time>
      </trkpt>
      <trkpt lat="44.3797" lon="5.76907">
        <ele>718.72</ele>
        <time>2012-05-27T09:49:41Z</time>
      </trkpt>
      <trkpt lat="44.37955" lon="5.76898">
        <ele>717.28</ele>
        <time>2012-05-27T09:49:43Z</time>
      </trkpt>
      <trkpt lat="44.37948" lon="5.76894">
        <ele>717.28</ele>
        <time>2012-05-27T09:49:44Z</time>
      </trkpt>
      <trkpt lat="44.37909" lon="5.76868">
        <ele>716.32</ele>
        <time>2012-05-27T09:49:52Z</time>
      </trkpt>
      <trkpt lat="44.37906" lon="5.76853">
        <ele>715.36</ele>
        <time>2012-05-27T09:49:54Z</time>
      </trkpt>
      <trkpt lat="44.37897" lon="5.76808">
        <ele>711.03</ele>
        <time>2012-05-27T09:50:01Z</time>
      </trkpt>
      <trkpt lat="44.37886" lon="5.76773">
        <ele>708.63</ele>
        <time>2012-05-27T09:50:13Z</time>
      </trkpt>
      <trkpt lat="44.37852" lon="5.76736">
        <ele>706.71</ele>
        <time>2012-05-27T09:50:27Z</time>
      </trkpt>
      <trkpt lat="44.37828" lon="5.76721">
        <ele>703.34</ele>
        <time>2012-05-27T09:50:31Z</time>
      </trkpt>
      <trkpt lat="44.37825" lon="5.76719">
        <ele>703.34</ele>
        <time>2012-05-27T09:50:32Z</time>
      </trkpt>
      <trkpt lat="44.37812" lon="5.76716">
        <ele>700.94</ele>
        <time>2012-05-27T09:50:52Z</time>
      </trkpt>
      <trkpt lat="44.37811" lon="5.76716">
        <ele>701.42</ele>
        <time>2012-05-27T09:51:10Z</time>
      </trkpt>
      <trkpt lat="44.37788" lon="5.76686">
        <ele>699.5</ele>
        <time>2012-05-27T09:51:18Z</time>
      </trkpt>
      <trkpt lat="44.37777" lon="5.76654">
        <ele>697.57</ele>
        <time>2012-05-27T09:51:22Z</time>
      </trkpt>
      <trkpt lat="44.37776" lon="5.76645">
        <ele>697.09</ele>
        <time>2012-05-27T09:51:23Z</time>
      </trkpt>
      <trkpt lat="44.37757" lon="5.76601">
        <ele>693.73</ele>
        <time>2012-05-27T09:51:29Z</time>
      </trkpt>
      <trkpt lat="44.37733" lon="5.76604">
        <ele>692.77</ele>
        <time>2012-05-27T09:51:33Z</time>
      </trkpt>
      <trkpt lat="44.37707" lon="5.76619">
        <ele>691.33</ele>
        <time>2012-05-27T09:51:37Z</time>
      </trkpt>
      <trkpt lat="44.37681" lon="5.76627">
        <ele>689.88</ele>
        <time>2012-05-27T09:51:41Z</time>
      </trkpt>
      <trkpt lat="44.37648" lon="5.76603">
        <ele>687.48</ele>
        <time>2012-05-27T09:51:47Z</time>
      </trkpt>
      <trkpt lat="44.3759" lon="5.76486">
        <ele>684.12</ele>
        <time>2012-05-27T09:52:02Z</time>
      </trkpt>
      <trkpt lat="44.37587" lon="5.76464">
        <ele>682.67</ele>
        <time>2012-05-27T09:52:05Z</time>
      </trkpt>
      <trkpt lat="44.37569" lon="5.76457">
        <ele>680.75</ele>
        <time>2012-05-27T09:52:12Z</time>
      </trkpt>
      <trkpt lat="44.37565" lon="5.7646">
        <ele>680.75</ele>
        <time>2012-05-27T09:52:13Z</time>
      </trkpt>
      <trkpt lat="44.37542" lon="5.76497">
        <ele>678.35</ele>
        <time>2012-05-27T09:52:19Z</time>
      </trkpt>
      <trkpt lat="44.37518" lon="5.76523">
        <ele>677.39</ele>
        <time>2012-05-27T09:52:24Z</time>
      </trkpt>
      <trkpt lat="44.37492" lon="5.76563">
        <ele>674.5</ele>
        <time>2012-05-27T09:52:30Z</time>
      </trkpt>
      <trkpt lat="44.37469" lon="5.766">
        <ele>673.54</ele>
        <time>2012-05-27T09:52:36Z</time>
      </trkpt>
      <trkpt lat="44.37456" lon="5.76625">
        <ele>672.58</ele>
        <time>2012-05-27T09:52:40Z</time>
      </trkpt>
      <trkpt lat="44.37442" lon="5.76657">
        <ele>670.66</ele>
        <time>2012-05-27T09:52:45Z</time>
      </trkpt>
      <trkpt lat="44.37439" lon="5.76666">
        <ele>669.7</ele>
        <time>2012-05-27T09:52:46Z</time>
      </trkpt>
      <trkpt lat="44.37419" lon="5.76732">
        <ele>665.85</ele>
        <time>2012-05-27T09:52:52Z</time>
      </trkpt>
      <trkpt lat="44.37406" lon="5.76781">
        <ele>662.49</ele>
        <time>2012-05-27T09:52:57Z</time>
      </trkpt>
      <trkpt lat="44.37391" lon="5.76787">
        <ele>661.52</ele>
        <time>2012-05-27T09:52:59Z</time>
      </trkpt>
      <trkpt lat="44.37375" lon="5.76791">
        <ele>660.08</ele>
        <time>2012-05-27T09:53:01Z</time>
      </trkpt>
      <trkpt lat="44.37312" lon="5.76809">
        <ele>658.16</ele>
        <time>2012-05-27T09:53:09Z</time>
      </trkpt>
      <trkpt lat="44.37265" lon="5.76848">
        <ele>654.31</ele>
        <time>2012-05-27T09:53:15Z</time>
      </trkpt>
      <trkpt lat="44.37257" lon="5.76858">
        <ele>654.31</ele>
        <time>2012-05-27T09:53:16Z</time>
      </trkpt>
      <trkpt lat="44.37239" lon="5.76882">
        <ele>652.39</ele>
        <time>2012-05-27T09:53:19Z</time>
      </trkpt>
      <trkpt lat="44.37231" lon="5.76885">
        <ele>652.39</ele>
        <time>2012-05-27T09:53:20Z</time>
      </trkpt>
      <trkpt lat="44.37208" lon="5.76889">
        <ele>650.47</ele>
        <time>2012-05-27T09:53:23Z</time>
      </trkpt>
      <trkpt lat="44.37201" lon="5.76892">
        <ele>650.47</ele>
        <time>2012-05-27T09:53:24Z</time>
      </trkpt>
      <trkpt lat="44.37157" lon="5.76899">
        <ele>649.51</ele>
        <time>2012-05-27T09:53:30Z</time>
      </trkpt>
      <trkpt lat="44.3706" lon="5.76899">
        <ele>646.14</ele>
        <time>2012-05-27T09:53:43Z</time>
      </trkpt>
      <trkpt lat="44.36997" lon="5.76909">
        <ele>645.66</ele>
        <time>2012-05-27T09:53:52Z</time>
      </trkpt>
      <trkpt lat="44.36959" lon="5.76938">
        <ele>645.66</ele>
        <time>2012-05-27T09:54:01Z</time>
      </trkpt>
      <trkpt lat="44.36955" lon="5.76946">
        <ele>645.66</ele>
        <time>2012-05-27T09:54:15Z</time>
      </trkpt>
      <trkpt lat="44.36949" lon="5.76917">
        <ele>644.7</ele>
        <time>2012-05-27T09:54:21Z</time>
      </trkpt>
      <trkpt lat="44.36904" lon="5.76888">
        <ele>641.82</ele>
        <time>2012-05-27T09:54:34Z</time>
      </trkpt>
      <trkpt lat="44.36884" lon="5.76899">
        <ele>640.86</ele>
        <time>2012-05-27T09:54:48Z</time>
      </trkpt>
      <trkpt lat="44.36869" lon="5.76901">
        <ele>640.38</ele>
        <time>2012-05-27T09:55:00Z</time>
      </trkpt>
      <trkpt lat="44.36845" lon="5.76898">
        <ele>640.38</ele>
        <time>2012-05-27T09:55:30Z</time>
      </trkpt>
      <trkpt lat="44.36836" lon="5.76897">
        <ele>641.82</ele>
        <time>2012-05-27T09:55:35Z</time>
      </trkpt>
      <trkpt lat="44.36795" lon="5.7686">
        <ele>641.34</ele>
        <time>2012-05-27T09:56:06Z</time>
      </trkpt>
      <trkpt lat="44.3679" lon="5.76857">
        <ele>641.34</ele>
        <time>2012-05-27T09:56:15Z</time>
      </trkpt>
      <trkpt lat="44.36779" lon="5.76866">
        <ele>641.82</ele>
        <time>2012-05-27T09:56:19Z</time>
      </trkpt>
      <trkpt lat="44.36735" lon="5.7692">
        <ele>641.34</ele>
        <time>2012-05-27T09:56:50Z</time>
      </trkpt>
      <trkpt lat="44.3669" lon="5.76957">
        <ele>640.86</ele>
        <time>2012-05-27T09:57:59Z</time>
      </trkpt>
      <trkpt lat="44.36691" lon="5.7696">
        <ele>642.78</ele>
        <time>2012-05-27T10:09:49Z</time>
      </trkpt>
      <trkpt lat="44.3669" lon="5.76961">
        <ele>642.78</ele>
        <time>2012-05-27T10:09:50Z</time>
      </trkpt>
      <trkpt lat="44.36693" lon="5.76967">
        <ele>642.78</ele>
        <time>2012-05-27T10:09:53Z</time>
      </trkpt>
      <trkpt lat="44.36697" lon="5.76973">
        <ele>642.78</ele>
        <time>2012-05-27T10:09:56Z</time>
      </trkpt>
      <trkpt lat="44.36682" lon="5.77045">
        <ele>643.74</ele>
        <time>2012-05-27T10:10:15Z</time>
      </trkpt>
      <trkpt lat="44.36686" lon="5.77055">
        <ele>644.22</ele>
        <time>2012-05-27T10:10:23Z</time>
      </trkpt>
      <trkpt lat="44.36724" lon="5.77091">
        <ele>645.66</ele>
        <time>2012-05-27T10:10:44Z</time>
      </trkpt>
      <trkpt lat="44.36754" lon="5.7717">
        <ele>649.03</ele>
        <time>2012-05-27T10:11:08Z</time>
      </trkpt>
      <trkpt lat="44.36737" lon="5.77275">
        <ele>653.83</ele>
        <time>2012-05-27T10:11:38Z</time>
      </trkpt>
      <trkpt lat="44.36718" lon="5.77309">
        <ele>658.64</ele>
        <time>2012-05-27T10:11:51Z</time>
      </trkpt>
      <trkpt lat="44.36661" lon="5.77349">
        <ele>662.97</ele>
        <time>2012-05-27T10:12:22Z</time>
      </trkpt>
      <trkpt lat="44.36633" lon="5.77364">
        <ele>667.29</ele>
        <time>2012-05-27T10:12:45Z</time>
      </trkpt>
      <trkpt lat="44.36611" lon="5.77366">
        <ele>671.14</ele>
        <time>2012-05-27T10:13:01Z</time>
      </trkpt>
      <trkpt lat="44.36579" lon="5.77374">
        <ele>674.5</ele>
        <time>2012-05-27T10:13:22Z</time>
      </trkpt>
      <trkpt lat="44.36543" lon="5.77402">
        <ele>674.5</ele>
        <time>2012-05-27T10:13:36Z</time>
      </trkpt>
      <trkpt lat="44.36498" lon="5.77453">
        <ele>674.02</ele>
        <time>2012-05-27T10:13:49Z</time>
      </trkpt>
      <trkpt lat="44.36487" lon="5.77469">
        <ele>673.06</ele>
        <time>2012-05-27T10:13:52Z</time>
      </trkpt>
      <trkpt lat="44.36483" lon="5.77485">
        <ele>672.1</ele>
        <time>2012-05-27T10:13:54Z</time>
      </trkpt>
      <trkpt lat="44.36475" lon="5.77535">
        <ele>672.1</ele>
        <time>2012-05-27T10:14:00Z</time>
      </trkpt>
      <trkpt lat="44.36395" lon="5.77692">
        <ele>670.18</ele>
        <time>2012-05-27T10:14:23Z</time>
      </trkpt>
      <trkpt lat="44.3639" lon="5.77696">
        <ele>670.66</ele>
        <time>2012-05-27T10:14:24Z</time>
      </trkpt>
      <trkpt lat="44.36379" lon="5.77698">
        <ele>670.66</ele>
        <time>2012-05-27T10:14:26Z</time>
      </trkpt>
      <trkpt lat="44.36361" lon="5.777">
        <ele>670.18</ele>
        <time>2012-05-27T10:14:29Z</time>
      </trkpt>
      <trkpt lat="44.36341" lon="5.77712">
        <ele>670.18</ele>
        <time>2012-05-27T10:14:33Z</time>
      </trkpt>
      <trkpt lat="44.36306" lon="5.77752">
        <ele>671.14</ele>
        <time>2012-05-27T10:14:47Z</time>
      </trkpt>
      <trkpt lat="44.36234" lon="5.77827">
        <ele>670.18</ele>
        <time>2012-05-27T10:15:13Z</time>
      </trkpt>
      <trkpt lat="44.36223" lon="5.77836">
        <ele>668.25</ele>
        <time>2012-05-27T10:15:16Z</time>
      </trkpt>
      <trkpt lat="44.36181" lon="5.77865">
        <ele>664.89</ele>
        <time>2012-05-27T10:15:32Z</time>
      </trkpt>
      <trkpt lat="44.36163" lon="5.77884">
        <ele>661.52</ele>
        <time>2012-05-27T10:15:37Z</time>
      </trkpt>
      <trkpt lat="44.36156" lon="5.77913">
        <ele>658.16</ele>
        <time>2012-05-27T10:15:42Z</time>
      </trkpt>
      <trkpt lat="44.36142" lon="5.77928">
        <ele>658.16</ele>
        <time>2012-05-27T10:15:55Z</time>
      </trkpt>
      <trkpt lat="44.36129" lon="5.77936">
        <ele>661.04</ele>
        <time>2012-05-27T10:16:13Z</time>
      </trkpt>
      <trkpt lat="44.36122" lon="5.7796">
        <ele>664.41</ele>
        <time>2012-05-27T10:16:39Z</time>
      </trkpt>
      <trkpt lat="44.36128" lon="5.77988">
        <ele>669.22</ele>
        <time>2012-05-27T10:17:07Z</time>
      </trkpt>
      <trkpt lat="44.36128" lon="5.78005">
        <ele>672.1</ele>
        <time>2012-05-27T10:17:26Z</time>
      </trkpt>
      <trkpt lat="44.36118" lon="5.7805">
        <ele>675.46</ele>
        <time>2012-05-27T10:17:51Z</time>
      </trkpt>
      <trkpt lat="44.36118" lon="5.78054">
        <ele>674.98</ele>
        <time>2012-05-27T10:17:53Z</time>
      </trkpt>
      <trkpt lat="44.36124" lon="5.78071">
        <ele>675.94</ele>
        <time>2012-05-27T10:18:02Z</time>
      </trkpt>
      <trkpt lat="44.36132" lon="5.78087">
        <ele>676.91</ele>
        <time>2012-05-27T10:18:11Z</time>
      </trkpt>
      <trkpt lat="44.36142" lon="5.78126">
        <ele>680.75</ele>
        <time>2012-05-27T10:18:28Z</time>
      </trkpt>
      <trkpt lat="44.36143" lon="5.78131">
        <ele>680.75</ele>
        <time>2012-05-27T10:18:31Z</time>
      </trkpt>
      <trkpt lat="44.36117" lon="5.78166">
        <ele>680.27</ele>
        <time>2012-05-27T10:18:46Z</time>
      </trkpt>
      <trkpt lat="44.36093" lon="5.78187">
        <ele>677.39</ele>
        <time>2012-05-27T10:19:08Z</time>
      </trkpt>
      <trkpt lat="44.36087" lon="5.78191">
        <ele>680.75</ele>
        <time>2012-05-27T10:19:22Z</time>
      </trkpt>
      <trkpt lat="44.36084" lon="5.78199">
        <ele>684.12</ele>
        <time>2012-05-27T10:19:36Z</time>
      </trkpt>
      <trkpt lat="44.36075" lon="5.78205">
        <ele>684.6</ele>
        <time>2012-05-27T10:19:45Z</time>
      </trkpt>
      <trkpt lat="44.3605" lon="5.7822">
        <ele>684.6</ele>
        <time>2012-05-27T10:19:56Z</time>
      </trkpt>
      <trkpt lat="44.36036" lon="5.78264">
        <ele>686.52</ele>
        <time>2012-05-27T10:20:11Z</time>
      </trkpt>
      <trkpt lat="44.35984" lon="5.78277">
        <ele>689.4</ele>
        <time>2012-05-27T10:20:39Z</time>
      </trkpt>
      <trkpt lat="44.35975" lon="5.78278">
        <ele>693.25</ele>
        <time>2012-05-27T10:20:55Z</time>
      </trkpt>
      <trkpt lat="44.35957" lon="5.78284">
        <ele>699.5</ele>
        <time>2012-05-27T10:21:32Z</time>
      </trkpt>
      <trkpt lat="44.35942" lon="5.78291">
        <ele>701.42</ele>
        <time>2012-05-27T10:22:03Z</time>
      </trkpt>
      <trkpt lat="44.35934" lon="5.78298">
        <ele>698.05</ele>
        <time>2012-05-27T10:22:14Z</time>
      </trkpt>
      <trkpt lat="44.35923" lon="5.78314">
        <ele>691.81</ele>
        <time>2012-05-27T10:22:20Z</time>
      </trkpt>
      <trkpt lat="44.35921" lon="5.78329">
        <ele>687.96</ele>
        <time>2012-05-27T10:22:24Z</time>
      </trkpt>
      <trkpt lat="44.3592" lon="5.78337">
        <ele>686.52</ele>
        <time>2012-05-27T10:22:26Z</time>
      </trkpt>
      <trkpt lat="44.35912" lon="5.7835">
        <ele>683.15</ele>
        <time>2012-05-27T10:22:30Z</time>
      </trkpt>
      <trkpt lat="44.35909" lon="5.78356">
        <ele>682.67</ele>
        <time>2012-05-27T10:22:31Z</time>
      </trkpt>
      <trkpt lat="44.35895" lon="5.78369">
        <ele>680.75</ele>
        <time>2012-05-27T10:22:35Z</time>
      </trkpt>
      <trkpt lat="44.35878" lon="5.78384">
        <ele>679.31</ele>
        <time>2012-05-27T10:22:39Z</time>
      </trkpt>
      <trkpt lat="44.35876" lon="5.78389">
        <ele>679.31</ele>
        <time>2012-05-27T10:22:40Z</time>
      </trkpt>
      <trkpt lat="44.35874" lon="5.78413">
        <ele>679.79</ele>
        <time>2012-05-27T10:22:47Z</time>
      </trkpt>
      <trkpt lat="44.35866" lon="5.78428">
        <ele>679.79</ele>
        <time>2012-05-27T10:23:15Z</time>
      </trkpt>
      <trkpt lat="44.35863" lon="5.78427">
        <ele>679.31</ele>
        <time>2012-05-27T10:23:20Z</time>
      </trkpt>
      <trkpt lat="44.35828" lon="5.78446">
        <ele>677.87</ele>
        <time>2012-05-27T10:23:27Z</time>
      </trkpt>
      <trkpt lat="44.35822" lon="5.78447">
        <ele>677.87</ele>
        <time>2012-05-27T10:23:28Z</time>
      </trkpt>
      <trkpt lat="44.35719" lon="5.7846">
        <ele>674.02</ele>
        <time>2012-05-27T10:23:44Z</time>
      </trkpt>
      <trkpt lat="44.35708" lon="5.78467">
        <ele>674.5</ele>
        <time>2012-05-27T10:23:46Z</time>
      </trkpt>
      <trkpt lat="44.35664" lon="5.78495">
        <ele>673.06</ele>
        <time>2012-05-27T10:23:52Z</time>
      </trkpt>
      <trkpt lat="44.35644" lon="5.78519">
        <ele>672.58</ele>
        <time>2012-05-27T10:23:56Z</time>
      </trkpt>
      <trkpt lat="44.35594" lon="5.78565">
        <ele>671.62</ele>
        <time>2012-05-27T10:24:06Z</time>
      </trkpt>
      <trkpt lat="44.35544" lon="5.78626">
        <ele>666.81</ele>
        <time>2012-05-27T10:24:17Z</time>
      </trkpt>
      <trkpt lat="44.3554" lon="5.78633">
        <ele>666.81</ele>
        <time>2012-05-27T10:24:18Z</time>
      </trkpt>
      <trkpt lat="44.3552" lon="5.78662">
        <ele>662.49</ele>
        <time>2012-05-27T10:24:23Z</time>
      </trkpt>
      <trkpt lat="44.35496" lon="5.78672">
        <ele>660.08</ele>
        <time>2012-05-27T10:24:28Z</time>
      </trkpt>
      <trkpt lat="44.35486" lon="5.78672">
        <ele>658.64</ele>
        <time>2012-05-27T10:24:30Z</time>
      </trkpt>
      <trkpt lat="44.35481" lon="5.78674">
        <ele>658.64</ele>
        <time>2012-05-27T10:24:31Z</time>
      </trkpt>
      <trkpt lat="44.35453" lon="5.78693">
        <ele>655.28</ele>
        <time>2012-05-27T10:24:37Z</time>
      </trkpt>
      <trkpt lat="44.35428" lon="5.78694">
        <ele>652.87</ele>
        <time>2012-05-27T10:24:42Z</time>
      </trkpt>
      <trkpt lat="44.35407" lon="5.78684">
        <ele>650.95</ele>
        <time>2012-05-27T10:24:49Z</time>
      </trkpt>
      <trkpt lat="44.35397" lon="5.78672">
        <ele>648.55</ele>
        <time>2012-05-27T10:25:06Z</time>
      </trkpt>
      <trkpt lat="44.35397" lon="5.78676">
        <ele>648.07</ele>
        <time>2012-05-27T10:25:41Z</time>
      </trkpt>
      <trkpt lat="44.35389" lon="5.78673">
        <ele>650.95</ele>
        <time>2012-05-27T10:26:13Z</time>
      </trkpt>
      <trkpt lat="44.3538" lon="5.78681">
        <ele>655.28</ele>
        <time>2012-05-27T10:26:39Z</time>
      </trkpt>
      <trkpt lat="44.35374" lon="5.78691">
        <ele>658.64</ele>
        <time>2012-05-27T10:27:07Z</time>
      </trkpt>
      <trkpt lat="44.35377" lon="5.7871">
        <ele>661.04</ele>
        <time>2012-05-27T10:29:31Z</time>
      </trkpt>
      <trkpt lat="44.35376" lon="5.78716">
        <ele>661.52</ele>
        <time>2012-05-27T10:29:36Z</time>
      </trkpt>
      <trkpt lat="44.35355" lon="5.78731">
        <ele>664.89</ele>
        <time>2012-05-27T10:29:53Z</time>
      </trkpt>
      <trkpt lat="44.35321" lon="5.78746">
        <ele>669.22</ele>
        <time>2012-05-27T10:30:15Z</time>
      </trkpt>
      <trkpt lat="44.35294" lon="5.78737">
        <ele>672.58</ele>
        <time>2012-05-27T10:30:33Z</time>
      </trkpt>
      <trkpt lat="44.35276" lon="5.78728">
        <ele>674.5</ele>
        <time>2012-05-27T10:30:46Z</time>
      </trkpt>
      <trkpt lat="44.35274" lon="5.78727">
        <ele>674.5</ele>
        <time>2012-05-27T10:30:47Z</time>
      </trkpt>
      <trkpt lat="44.35271" lon="5.78721">
        <ele>674.98</ele>
        <time>2012-05-27T10:31:08Z</time>
      </trkpt>
      <trkpt lat="44.35268" lon="5.78721">
        <ele>675.46</ele>
        <time>2012-05-27T10:31:17Z</time>
      </trkpt>
      <trkpt lat="44.35261" lon="5.78724">
        <ele>675.94</ele>
        <time>2012-05-27T10:31:35Z</time>
      </trkpt>
      <trkpt lat="44.35262" lon="5.78726">
        <ele>676.91</ele>
        <time>2012-05-27T10:33:06Z</time>
      </trkpt>
      <trkpt lat="44.35261" lon="5.78728">
        <ele>676.91</ele>
        <time>2012-05-27T10:33:07Z</time>
      </trkpt>
      <trkpt lat="44.35259" lon="5.78748">
        <ele>676.91</ele>
        <time>2012-05-27T10:33:14Z</time>
      </trkpt>
      <trkpt lat="44.35231" lon="5.78933">
        <ele>678.83</ele>
        <time>2012-05-27T10:34:05Z</time>
      </trkpt>
      <trkpt lat="44.35231" lon="5.78945">
        <ele>679.79</ele>
        <time>2012-05-27T10:34:09Z</time>
      </trkpt>
      <trkpt lat="44.35207" lon="5.78956">
        <ele>681.71</ele>
        <time>2012-05-27T10:34:23Z</time>
      </trkpt>
      <trkpt lat="44.35208" lon="5.78956">
        <ele>680.75</ele>
        <time>2012-05-27T10:34:36Z</time>
      </trkpt>
      <trkpt lat="44.35213" lon="5.78957">
        <ele>679.79</ele>
        <time>2012-05-27T10:34:38Z</time>
      </trkpt>
      <trkpt lat="44.35229" lon="5.78975">
        <ele>678.83</ele>
        <time>2012-05-27T10:34:49Z</time>
      </trkpt>
      <trkpt lat="44.35238" lon="5.79038">
        <ele>680.27</ele>
        <time>2012-05-27T10:35:08Z</time>
      </trkpt>
      <trkpt lat="44.35234" lon="5.79145">
        <ele>686.04</ele>
        <time>2012-05-27T10:35:50Z</time>
      </trkpt>
      <trkpt lat="44.35232" lon="5.79155">
        <ele>686.04</ele>
        <time>2012-05-27T10:36:13Z</time>
      </trkpt>
      <trkpt lat="44.35232" lon="5.79153">
        <ele>687</ele>
        <time>2012-05-27T10:37:57Z</time>
      </trkpt>
      <trkpt lat="44.35236" lon="5.7911">
        <ele>682.67</ele>
        <time>2012-05-27T10:38:08Z</time>
      </trkpt>
      <trkpt lat="44.35236" lon="5.79102">
        <ele>682.67</ele>
        <time>2012-05-27T10:38:13Z</time>
      </trkpt>
      <trkpt lat="44.35235" lon="5.79024">
        <ele>679.79</ele>
        <time>2012-05-27T10:38:30Z</time>
      </trkpt>
      <trkpt lat="44.35235" lon="5.78985">
        <ele>678.83</ele>
        <time>2012-05-27T10:38:36Z</time>
      </trkpt>
      <trkpt lat="44.35232" lon="5.78972">
        <ele>678.35</ele>
        <time>2012-05-27T10:38:38Z</time>
      </trkpt>
      <trkpt lat="44.35223" lon="5.78949">
        <ele>678.83</ele>
        <time>2012-05-27T10:38:46Z</time>
      </trkpt>
      <trkpt lat="44.35199" lon="5.78954">
        <ele>681.71</ele>
        <time>2012-05-27T10:39:04Z</time>
      </trkpt>
      <trkpt lat="44.35161" lon="5.78954">
        <ele>687</ele>
        <time>2012-05-27T10:39:33Z</time>
      </trkpt>
      <trkpt lat="44.35148" lon="5.78952">
        <ele>686.04</ele>
        <time>2012-05-27T10:39:43Z</time>
      </trkpt>
      <trkpt lat="44.35135" lon="5.78951">
        <ele>689.4</ele>
        <time>2012-05-27T10:39:53Z</time>
      </trkpt>
      <trkpt lat="44.35112" lon="5.78939">
        <ele>691.33</ele>
        <time>2012-05-27T10:40:15Z</time>
      </trkpt>
      <trkpt lat="44.35112" lon="5.78926">
        <ele>692.29</ele>
        <time>2012-05-27T10:40:23Z</time>
      </trkpt>
      <trkpt lat="44.35162" lon="5.78875">
        <ele>696.61</ele>
        <time>2012-05-27T10:41:09Z</time>
      </trkpt>
      <trkpt lat="44.35154" lon="5.7885">
        <ele>699.98</ele>
        <time>2012-05-27T10:41:30Z</time>
      </trkpt>
      <trkpt lat="44.35138" lon="5.78857">
        <ele>703.82</ele>
        <time>2012-05-27T10:41:43Z</time>
      </trkpt>
      <trkpt lat="44.35106" lon="5.78868">
        <ele>710.07</ele>
        <time>2012-05-27T10:42:11Z</time>
      </trkpt>
      <trkpt lat="44.35064" lon="5.78864">
        <ele>716.32</ele>
        <time>2012-05-27T10:42:50Z</time>
      </trkpt>
      <trkpt lat="44.35054" lon="5.78867">
        <ele>718.24</ele>
        <time>2012-05-27T10:43:01Z</time>
      </trkpt>
      <trkpt lat="44.3503" lon="5.7885">
        <ele>721.61</ele>
        <time>2012-05-27T10:43:28Z</time>
      </trkpt>
      <trkpt lat="44.35022" lon="5.78846">
        <ele>724.49</ele>
        <time>2012-05-27T10:44:11Z</time>
      </trkpt>
      <trkpt lat="44.35021" lon="5.78846">
        <ele>724.49</ele>
        <time>2012-05-27T10:44:37Z</time>
      </trkpt>
      <trkpt lat="44.34997" lon="5.7885">
        <ele>729.78</ele>
        <time>2012-05-27T10:45:01Z</time>
      </trkpt>
      <trkpt lat="44.34965" lon="5.78865">
        <ele>735.55</ele>
        <time>2012-05-27T10:45:40Z</time>
      </trkpt>
      <trkpt lat="44.34955" lon="5.78873">
        <ele>737.47</ele>
        <time>2012-05-27T10:45:59Z</time>
      </trkpt>
      <trkpt lat="44.34933" lon="5.78893">
        <ele>740.83</ele>
        <time>2012-05-27T10:46:25Z</time>
      </trkpt>
      <trkpt lat="44.3492" lon="5.78898">
        <ele>744.2</ele>
        <time>2012-05-27T10:46:44Z</time>
      </trkpt>
      <trkpt lat="44.34896" lon="5.78907">
        <ele>749.49</ele>
        <time>2012-05-27T10:47:19Z</time>
      </trkpt>
      <trkpt lat="44.3487" lon="5.78918">
        <ele>754.29</ele>
        <time>2012-05-27T10:48:07Z</time>
      </trkpt>
      <trkpt lat="44.34858" lon="5.78914">
        <ele>757.66</ele>
        <time>2012-05-27T10:48:56Z</time>
      </trkpt>
      <trkpt lat="44.3487" lon="5.78874">
        <ele>759.1</ele>
        <time>2012-05-27T10:49:17Z</time>
      </trkpt>
      <trkpt lat="44.34883" lon="5.78834">
        <ele>761.5</ele>
        <time>2012-05-27T10:49:36Z</time>
      </trkpt>
      <trkpt lat="44.34879" lon="5.78826">
        <ele>764.87</ele>
        <time>2012-05-27T10:49:57Z</time>
      </trkpt>
      <trkpt lat="44.3488" lon="5.78821">
        <ele>764.87</ele>
        <time>2012-05-27T10:53:34Z</time>
      </trkpt>
      <trkpt lat="44.34872" lon="5.78827">
        <ele>765.83</ele>
        <time>2012-05-27T10:54:10Z</time>
      </trkpt>
      <trkpt lat="44.34869" lon="5.78828">
        <ele>766.79</ele>
        <time>2012-05-27T10:54:13Z</time>
      </trkpt>
      <trkpt lat="44.34817" lon="5.78879">
        <ele>769.67</ele>
        <time>2012-05-27T10:54:47Z</time>
      </trkpt>
      <trkpt lat="44.34815" lon="5.78881">
        <ele>769.67</ele>
        <time>2012-05-27T10:54:48Z</time>
      </trkpt>
      <trkpt lat="44.34785" lon="5.78942">
        <ele>771.6</ele>
        <time>2012-05-27T10:55:11Z</time>
      </trkpt>
      <trkpt lat="44.34774" lon="5.78976">
        <ele>775.44</ele>
        <time>2012-05-27T10:55:28Z</time>
      </trkpt>
      <trkpt lat="44.34762" lon="5.79002">
        <ele>778.81</ele>
        <time>2012-05-27T10:55:44Z</time>
      </trkpt>
      <trkpt lat="44.3476" lon="5.79009">
        <ele>779.77</ele>
        <time>2012-05-27T10:55:48Z</time>
      </trkpt>
      <trkpt lat="44.3475" lon="5.79025">
        <ele>783.13</ele>
        <time>2012-05-27T10:56:01Z</time>
      </trkpt>
      <trkpt lat="44.34727" lon="5.79061">
        <ele>789.86</ele>
        <time>2012-05-27T10:56:33Z</time>
      </trkpt>
      <trkpt lat="44.34713" lon="5.79095">
        <ele>794.67</ele>
        <time>2012-05-27T10:56:59Z</time>
      </trkpt>
      <trkpt lat="44.34706" lon="5.79114">
        <ele>797.55</ele>
        <time>2012-05-27T10:57:23Z</time>
      </trkpt>
      <trkpt lat="44.34698" lon="5.79144">
        <ele>802.84</ele>
        <time>2012-05-27T10:57:45Z</time>
      </trkpt>
      <trkpt lat="44.34697" lon="5.7916">
        <ele>805.72</ele>
        <time>2012-05-27T10:57:57Z</time>
      </trkpt>
      <trkpt lat="44.34697" lon="5.79161">
        <ele>805.72</ele>
        <time>2012-05-27T10:57:58Z</time>
      </trkpt>
      <trkpt lat="44.34691" lon="5.79173">
        <ele>807.16</ele>
        <time>2012-05-27T10:58:08Z</time>
      </trkpt>
      <trkpt lat="44.34684" lon="5.792">
        <ele>810.53</ele>
        <time>2012-05-27T10:58:29Z</time>
      </trkpt>
      <trkpt lat="44.34683" lon="5.79205">
        <ele>811.49</ele>
        <time>2012-05-27T10:58:33Z</time>
      </trkpt>
      <trkpt lat="44.34683" lon="5.79214">
        <ele>812.93</ele>
        <time>2012-05-27T10:58:38Z</time>
      </trkpt>
      <trkpt lat="44.34661" lon="5.79267">
        <ele>816.3</ele>
        <time>2012-05-27T10:59:09Z</time>
      </trkpt>
      <trkpt lat="44.3466" lon="5.79272">
        <ele>816.3</ele>
        <time>2012-05-27T10:59:11Z</time>
      </trkpt>
      <trkpt lat="44.34644" lon="5.79318">
        <ele>819.66</ele>
        <time>2012-05-27T10:59:33Z</time>
      </trkpt>
      <trkpt lat="44.34636" lon="5.79347">
        <ele>822.06</ele>
        <time>2012-05-27T10:59:51Z</time>
      </trkpt>
      <trkpt lat="44.34624" lon="5.79424">
        <ele>825.91</ele>
        <time>2012-05-27T11:00:22Z</time>
      </trkpt>
      <trkpt lat="44.34629" lon="5.79457">
        <ele>825.91</ele>
        <time>2012-05-27T11:00:35Z</time>
      </trkpt>
      <trkpt lat="44.34638" lon="5.79482">
        <ele>826.39</ele>
        <time>2012-05-27T11:01:10Z</time>
      </trkpt>
      <trkpt lat="44.34638" lon="5.79533">
        <ele>825.91</ele>
        <time>2012-05-27T11:01:18Z</time>
      </trkpt>
      <trkpt lat="44.34642" lon="5.79639">
        <ele>829.27</ele>
        <time>2012-05-27T11:01:39Z</time>
      </trkpt>
      <trkpt lat="44.34642" lon="5.79643">
        <ele>829.27</ele>
        <time>2012-05-27T11:01:40Z</time>
      </trkpt>
      <trkpt lat="44.34615" lon="5.79739">
        <ele>831.2</ele>
        <time>2012-05-27T11:02:03Z</time>
      </trkpt>
      <trkpt lat="44.34615" lon="5.79745">
        <ele>829.76</ele>
        <time>2012-05-27T11:02:04Z</time>
      </trkpt>
      <trkpt lat="44.34614" lon="5.79777">
        <ele>828.79</ele>
        <time>2012-05-27T11:02:08Z</time>
      </trkpt>
      <trkpt lat="44.34624" lon="5.798">
        <ele>826.87</ele>
        <time>2012-05-27T11:02:22Z</time>
      </trkpt>
      <trkpt lat="44.34625" lon="5.79803">
        <ele>827.35</ele>
        <time>2012-05-27T11:03:20Z</time>
      </trkpt>
      <trkpt lat="44.34629" lon="5.7984">
        <ele>823.99</ele>
        <time>2012-05-27T11:03:27Z</time>
      </trkpt>
      <trkpt lat="44.3463" lon="5.79858">
        <ele>820.62</ele>
        <time>2012-05-27T11:03:30Z</time>
      </trkpt>
      <trkpt lat="44.34644" lon="5.79875">
        <ele>817.26</ele>
        <time>2012-05-27T11:03:34Z</time>
      </trkpt>
      <trkpt lat="44.34654" lon="5.79878">
        <ele>815.82</ele>
        <time>2012-05-27T11:03:36Z</time>
      </trkpt>
      <trkpt lat="44.34658" lon="5.79879">
        <ele>815.82</ele>
        <time>2012-05-27T11:03:37Z</time>
      </trkpt>
      <trkpt lat="44.34662" lon="5.7988">
        <ele>815.34</ele>
        <time>2012-05-27T11:03:38Z</time>
      </trkpt>
      <trkpt lat="44.34671" lon="5.7988">
        <ele>815.34</ele>
        <time>2012-05-27T11:03:40Z</time>
      </trkpt>
      <trkpt lat="44.34712" lon="5.79872">
        <ele>814.37</ele>
        <time>2012-05-27T11:03:52Z</time>
      </trkpt>
      <trkpt lat="44.34727" lon="5.79876">
        <ele>812.45</ele>
        <time>2012-05-27T11:03:55Z</time>
      </trkpt>
      <trkpt lat="44.34745" lon="5.79907">
        <ele>806.68</ele>
        <time>2012-05-27T11:04:02Z</time>
      </trkpt>
      <trkpt lat="44.34742" lon="5.7994">
        <ele>801.4</ele>
        <time>2012-05-27T11:04:09Z</time>
      </trkpt>
      <trkpt lat="44.34738" lon="5.7997">
        <ele>797.07</ele>
        <time>2012-05-27T11:04:17Z</time>
      </trkpt>
      <trkpt lat="44.34738" lon="5.79987">
        <ele>795.15</ele>
        <time>2012-05-27T11:04:26Z</time>
      </trkpt>
      <trkpt lat="44.34738" lon="5.79991">
        <ele>795.15</ele>
        <time>2012-05-27T11:04:27Z</time>
      </trkpt>
      <trkpt lat="44.3473" lon="5.8001">
        <ele>792.26</ele>
        <time>2012-05-27T11:04:39Z</time>
      </trkpt>
      <trkpt lat="44.34724" lon="5.80033">
        <ele>790.34</ele>
        <time>2012-05-27T11:05:15Z</time>
      </trkpt>
      <trkpt lat="44.34723" lon="5.80059">
        <ele>786.5</ele>
        <time>2012-05-27T11:05:21Z</time>
      </trkpt>
      <trkpt lat="44.34722" lon="5.80075">
        <ele>782.17</ele>
        <time>2012-05-27T11:05:24Z</time>
      </trkpt>
      <trkpt lat="44.34721" lon="5.80081">
        <ele>783.13</ele>
        <time>2012-05-27T11:05:25Z</time>
      </trkpt>
      <trkpt lat="44.34727" lon="5.80108">
        <ele>777.36</ele>
        <time>2012-05-27T11:05:35Z</time>
      </trkpt>
      <trkpt lat="44.34732" lon="5.8011">
        <ele>776.4</ele>
        <time>2012-05-27T11:05:37Z</time>
      </trkpt>
      <trkpt lat="44.34741" lon="5.80112">
        <ele>774.96</ele>
        <time>2012-05-27T11:05:39Z</time>
      </trkpt>
      <trkpt lat="44.34747" lon="5.80112">
        <ele>774.48</ele>
        <time>2012-05-27T11:05:40Z</time>
      </trkpt>
      <trkpt lat="44.34777" lon="5.80111">
        <ele>774</ele>
        <time>2012-05-27T11:05:45Z</time>
      </trkpt>
      <trkpt lat="44.34801" lon="5.80187">
        <ele>775.44</ele>
        <time>2012-05-27T11:06:04Z</time>
      </trkpt>
      <trkpt lat="44.34829" lon="5.80278">
        <ele>776.88</ele>
        <time>2012-05-27T11:06:33Z</time>
      </trkpt>
      <trkpt lat="44.34839" lon="5.80322">
        <ele>779.77</ele>
        <time>2012-05-27T11:06:47Z</time>
      </trkpt>
      <trkpt lat="44.34839" lon="5.80434">
        <ele>783.61</ele>
        <time>2012-05-27T11:07:25Z</time>
      </trkpt>
      <trkpt lat="44.34867" lon="5.80526">
        <ele>786.5</ele>
        <time>2012-05-27T11:07:57Z</time>
      </trkpt>
      <trkpt lat="44.34866" lon="5.80529">
        <ele>786.5</ele>
        <time>2012-05-27T11:07:58Z</time>
      </trkpt>
      <trkpt lat="44.34862" lon="5.80553">
        <ele>786.98</ele>
        <time>2012-05-27T11:08:05Z</time>
      </trkpt>
      <trkpt lat="44.34827" lon="5.80594">
        <ele>787.94</ele>
        <time>2012-05-27T11:08:20Z</time>
      </trkpt>
      <trkpt lat="44.34771" lon="5.80696">
        <ele>786.02</ele>
        <time>2012-05-27T11:08:46Z</time>
      </trkpt>
      <trkpt lat="44.34771" lon="5.80704">
        <ele>786.02</ele>
        <time>2012-05-27T11:08:47Z</time>
      </trkpt>
      <trkpt lat="44.34767" lon="5.80728">
        <ele>783.13</ele>
        <time>2012-05-27T11:09:07Z</time>
      </trkpt>
      <trkpt lat="44.34767" lon="5.80729">
        <ele>783.13</ele>
        <time>2012-05-27T11:09:39Z</time>
      </trkpt>
      <trkpt lat="44.34772" lon="5.80743">
        <ele>782.17</ele>
        <time>2012-05-27T11:09:43Z</time>
      </trkpt>
      <trkpt lat="44.34771" lon="5.80789">
        <ele>781.69</ele>
        <time>2012-05-27T11:09:50Z</time>
      </trkpt>
      <trkpt lat="44.34793" lon="5.80818">
        <ele>781.69</ele>
        <time>2012-05-27T11:09:59Z</time>
      </trkpt>
      <trkpt lat="44.34793" lon="5.80823">
        <ele>781.69</ele>
        <time>2012-05-27T11:10:00Z</time>
      </trkpt>
      <trkpt lat="44.34796" lon="5.80861">
        <ele>779.29</ele>
        <time>2012-05-27T11:10:05Z</time>
      </trkpt>
      <trkpt lat="44.34789" lon="5.8087">
        <ele>778.32</ele>
        <time>2012-05-27T11:10:09Z</time>
      </trkpt>
      <trkpt lat="44.34734" lon="5.809">
        <ele>776.88</ele>
        <time>2012-05-27T11:10:25Z</time>
      </trkpt>
      <trkpt lat="44.34732" lon="5.80903">
        <ele>776.4</ele>
        <time>2012-05-27T11:10:38Z</time>
      </trkpt>
      <trkpt lat="44.34735" lon="5.80899">
        <ele>776.88</ele>
        <time>2012-05-27T11:11:04Z</time>
      </trkpt>
      <trkpt lat="44.34786" lon="5.80867">
        <ele>777.84</ele>
        <time>2012-05-27T11:11:30Z</time>
      </trkpt>
      <trkpt lat="44.34793" lon="5.80869">
        <ele>778.81</ele>
        <time>2012-05-27T11:11:35Z</time>
      </trkpt>
      <trkpt lat="44.34791" lon="5.80878">
        <ele>780.25</ele>
        <time>2012-05-27T11:11:40Z</time>
      </trkpt>
      <trkpt lat="44.34777" lon="5.80887">
        <ele>782.17</ele>
        <time>2012-05-27T11:11:51Z</time>
      </trkpt>
      <trkpt lat="44.34773" lon="5.80893">
        <ele>783.13</ele>
        <time>2012-05-27T11:12:16Z</time>
      </trkpt>
      <trkpt lat="44.34779" lon="5.80884">
        <ele>781.69</ele>
        <time>2012-05-27T11:12:31Z</time>
      </trkpt>
      <trkpt lat="44.34791" lon="5.80869">
        <ele>778.81</ele>
        <time>2012-05-27T11:12:39Z</time>
      </trkpt>
      <trkpt lat="44.34788" lon="5.80869">
        <ele>778.81</ele>
        <time>2012-05-27T11:12:40Z</time>
      </trkpt>
      <trkpt lat="44.34775" lon="5.80872">
        <ele>777.84</ele>
        <time>2012-05-27T11:12:43Z</time>
      </trkpt>
      <trkpt lat="44.34721" lon="5.80934">
        <ele>774</ele>
        <time>2012-05-27T11:13:03Z</time>
      </trkpt>
      <trkpt lat="44.34718" lon="5.8095">
        <ele>772.08</ele>
        <time>2012-05-27T11:13:08Z</time>
      </trkpt>
      <trkpt lat="44.34711" lon="5.80981">
        <ele>768.23</ele>
        <time>2012-05-27T11:13:18Z</time>
      </trkpt>
      <trkpt lat="44.34711" lon="5.80995">
        <ele>766.31</ele>
        <time>2012-05-27T11:13:38Z</time>
      </trkpt>
      <trkpt lat="44.34715" lon="5.80993">
        <ele>768.71</ele>
        <time>2012-05-27T11:39:20Z</time>
      </trkpt>
      <trkpt lat="44.34716" lon="5.80992">
        <ele>767.27</ele>
        <time>2012-05-27T11:48:30Z</time>
      </trkpt>
      <trkpt lat="44.34715" lon="5.80992">
        <ele>767.27</ele>
        <time>2012-05-27T11:48:35Z</time>
      </trkpt>
      <trkpt lat="44.34695" lon="5.81016">
        <ele>761.02</ele>
        <time>2012-05-27T11:48:45Z</time>
      </trkpt>
      <trkpt lat="44.3469" lon="5.81023">
        <ele>759.58</ele>
        <time>2012-05-27T11:48:47Z</time>
      </trkpt>
      <trkpt lat="44.34673" lon="5.81043">
        <ele>755.73</ele>
        <time>2012-05-27T11:48:52Z</time>
      </trkpt>
      <trkpt lat="44.3466" lon="5.81057">
        <ele>753.81</ele>
        <time>2012-05-27T11:48:55Z</time>
      </trkpt>
      <trkpt lat="44.34627" lon="5.81067">
        <ele>750.45</ele>
        <time>2012-05-27T11:49:05Z</time>
      </trkpt>
      <trkpt lat="44.34613" lon="5.81061">
        <ele>747.56</ele>
        <time>2012-05-27T11:49:11Z</time>
      </trkpt>
      <trkpt lat="44.34603" lon="5.81067">
        <ele>744.2</ele>
        <time>2012-05-27T11:49:14Z</time>
      </trkpt>
      <trkpt lat="44.34575" lon="5.81083">
        <ele>740.35</ele>
        <time>2012-05-27T11:49:33Z</time>
      </trkpt>
      <trkpt lat="44.34557" lon="5.81089">
        <ele>738.91</ele>
        <time>2012-05-27T11:49:36Z</time>
      </trkpt>
      <trkpt lat="44.34522" lon="5.81096">
        <ele>735.55</ele>
        <time>2012-05-27T11:49:41Z</time>
      </trkpt>
      <trkpt lat="44.34494" lon="5.81106">
        <ele>732.18</ele>
        <time>2012-05-27T11:49:45Z</time>
      </trkpt>
      <trkpt lat="44.34446" lon="5.81108">
        <ele>726.41</ele>
        <time>2012-05-27T11:49:52Z</time>
      </trkpt>
      <trkpt lat="44.3444" lon="5.8111">
        <ele>726.41</ele>
        <time>2012-05-27T11:49:53Z</time>
      </trkpt>
      <trkpt lat="44.34423" lon="5.81117">
        <ele>723.05</ele>
        <time>2012-05-27T11:49:56Z</time>
      </trkpt>
      <trkpt lat="44.34404" lon="5.81123">
        <ele>720.65</ele>
        <time>2012-05-27T11:49:59Z</time>
      </trkpt>
      <trkpt lat="44.34397" lon="5.81123">
        <ele>720.65</ele>
        <time>2012-05-27T11:50:00Z</time>
      </trkpt>
      <trkpt lat="44.34359" lon="5.81144">
        <ele>714.4</ele>
        <time>2012-05-27T11:50:05Z</time>
      </trkpt>
      <trkpt lat="44.34328" lon="5.81148">
        <ele>711.03</ele>
        <time>2012-05-27T11:50:09Z</time>
      </trkpt>
      <trkpt lat="44.34294" lon="5.81134">
        <ele>705.26</ele>
        <time>2012-05-27T11:50:14Z</time>
      </trkpt>
      <trkpt lat="44.34278" lon="5.81157">
        <ele>701.42</ele>
        <time>2012-05-27T11:50:19Z</time>
      </trkpt>
      <trkpt lat="44.34277" lon="5.81164">
        <ele>700.46</ele>
        <time>2012-05-27T11:50:20Z</time>
      </trkpt>
      <trkpt lat="44.34277" lon="5.81173">
        <ele>700.46</ele>
        <time>2012-05-27T11:50:21Z</time>
      </trkpt>
      <trkpt lat="44.34267" lon="5.81206">
        <ele>696.61</ele>
        <time>2012-05-27T11:50:25Z</time>
      </trkpt>
      <trkpt lat="44.34262" lon="5.81212">
        <ele>696.61</ele>
        <time>2012-05-27T11:50:26Z</time>
      </trkpt>
      <trkpt lat="44.34246" lon="5.81231">
        <ele>694.69</ele>
        <time>2012-05-27T11:50:32Z</time>
      </trkpt>
      <trkpt lat="44.34247" lon="5.81235">
        <ele>694.69</ele>
        <time>2012-05-27T11:50:33Z</time>
      </trkpt>
      <trkpt lat="44.34261" lon="5.81287">
        <ele>692.29</ele>
        <time>2012-05-27T11:50:42Z</time>
      </trkpt>
      <trkpt lat="44.34268" lon="5.81362">
        <ele>689.4</ele>
        <time>2012-05-27T11:51:00Z</time>
      </trkpt>
      <trkpt lat="44.34267" lon="5.81363">
        <ele>689.4</ele>
        <time>2012-05-27T11:51:01Z</time>
      </trkpt>
      <trkpt lat="44.3426" lon="5.81367">
        <ele>688.92</ele>
        <time>2012-05-27T11:51:05Z</time>
      </trkpt>
      <trkpt lat="44.34244" lon="5.814">
        <ele>686.04</ele>
        <time>2012-05-27T11:51:16Z</time>
      </trkpt>
      <trkpt lat="44.34231" lon="5.81427">
        <ele>682.19</ele>
        <time>2012-05-27T11:51:22Z</time>
      </trkpt>
      <trkpt lat="44.34217" lon="5.81444">
        <ele>678.83</ele>
        <time>2012-05-27T11:51:26Z</time>
      </trkpt>
      <trkpt lat="44.34201" lon="5.81462">
        <ele>674.98</ele>
        <time>2012-05-27T11:51:30Z</time>
      </trkpt>
      <trkpt lat="44.34185" lon="5.81482">
        <ele>672.58</ele>
        <time>2012-05-27T11:51:34Z</time>
      </trkpt>
      <trkpt lat="44.34183" lon="5.81496">
        <ele>671.14</ele>
        <time>2012-05-27T11:51:36Z</time>
      </trkpt>
      <trkpt lat="44.34175" lon="5.81523">
        <ele>667.29</ele>
        <time>2012-05-27T11:51:40Z</time>
      </trkpt>
      <trkpt lat="44.34151" lon="5.81544">
        <ele>663.45</ele>
        <time>2012-05-27T11:51:46Z</time>
      </trkpt>
      <trkpt lat="44.34144" lon="5.81544">
        <ele>663.45</ele>
        <time>2012-05-27T11:51:47Z</time>
      </trkpt>
      <trkpt lat="44.34137" lon="5.81541">
        <ele>662.49</ele>
        <time>2012-05-27T11:51:48Z</time>
      </trkpt>
      <trkpt lat="44.3413" lon="5.81538">
        <ele>661.52</ele>
        <time>2012-05-27T11:51:49Z</time>
      </trkpt>
      <trkpt lat="44.34099" lon="5.81544">
        <ele>657.68</ele>
        <time>2012-05-27T11:51:54Z</time>
      </trkpt>
      <trkpt lat="44.34095" lon="5.81552">
        <ele>657.68</ele>
        <time>2012-05-27T11:51:55Z</time>
      </trkpt>
      <trkpt lat="44.34088" lon="5.81567">
        <ele>657.2</ele>
        <time>2012-05-27T11:51:57Z</time>
      </trkpt>
      <trkpt lat="44.34059" lon="5.81589">
        <ele>653.35</ele>
        <time>2012-05-27T11:52:01Z</time>
      </trkpt>
      <trkpt lat="44.34051" lon="5.81594">
        <ele>653.35</ele>
        <time>2012-05-27T11:52:02Z</time>
      </trkpt>
      <trkpt lat="44.34026" lon="5.81649">
        <ele>649.99</ele>
        <time>2012-05-27T11:52:08Z</time>
      </trkpt>
      <trkpt lat="44.34028" lon="5.81671">
        <ele>647.1</ele>
        <time>2012-05-27T11:52:10Z</time>
      </trkpt>
      <trkpt lat="44.34029" lon="5.81682">
        <ele>645.66</ele>
        <time>2012-05-27T11:52:11Z</time>
      </trkpt>
      <trkpt lat="44.34029" lon="5.81699">
        <ele>642.3</ele>
        <time>2012-05-27T11:52:13Z</time>
      </trkpt>
      <trkpt lat="44.34027" lon="5.81703">
        <ele>642.3</ele>
        <time>2012-05-27T11:52:14Z</time>
      </trkpt>
      <trkpt lat="44.33977" lon="5.81749">
        <ele>641.34</ele>
        <time>2012-05-27T11:52:31Z</time>
      </trkpt>
      <trkpt lat="44.33959" lon="5.81793">
        <ele>640.38</ele>
        <time>2012-05-27T11:52:41Z</time>
      </trkpt>
      <trkpt lat="44.33926" lon="5.81893">
        <ele>638.45</ele>
        <time>2012-05-27T11:52:56Z</time>
      </trkpt>
      <trkpt lat="44.33922" lon="5.819">
        <ele>638.45</ele>
        <time>2012-05-27T11:52:57Z</time>
      </trkpt>
      <trkpt lat="44.33907" lon="5.81912">
        <ele>637.97</ele>
        <time>2012-05-27T11:53:00Z</time>
      </trkpt>
      <trkpt lat="44.33886" lon="5.81924">
        <ele>637.01</ele>
        <time>2012-05-27T11:53:04Z</time>
      </trkpt>
      <trkpt lat="44.3388" lon="5.81926">
        <ele>636.53</ele>
        <time>2012-05-27T11:53:05Z</time>
      </trkpt>
      <trkpt lat="44.3385" lon="5.81934">
        <ele>636.05</ele>
        <time>2012-05-27T11:53:10Z</time>
      </trkpt>
      <trkpt lat="44.33808" lon="5.81951">
        <ele>633.65</ele>
        <time>2012-05-27T11:53:16Z</time>
      </trkpt>
      <trkpt lat="44.33798" lon="5.81965">
        <ele>632.2</ele>
        <time>2012-05-27T11:53:18Z</time>
      </trkpt>
      <trkpt lat="44.33794" lon="5.81973">
        <ele>632.2</ele>
        <time>2012-05-27T11:53:19Z</time>
      </trkpt>
      <trkpt lat="44.33783" lon="5.81989">
        <ele>631.72</ele>
        <time>2012-05-27T11:53:21Z</time>
      </trkpt>
      <trkpt lat="44.33761" lon="5.82018">
        <ele>629.8</ele>
        <time>2012-05-27T11:53:25Z</time>
      </trkpt>
      <trkpt lat="44.33756" lon="5.82028">
        <ele>629.8</ele>
        <time>2012-05-27T11:53:26Z</time>
      </trkpt>
      <trkpt lat="44.33723" lon="5.82179">
        <ele>626.92</ele>
        <time>2012-05-27T11:53:41Z</time>
      </trkpt>
      <trkpt lat="44.33714" lon="5.82232">
        <ele>625.96</ele>
        <time>2012-05-27T11:53:47Z</time>
      </trkpt>
      <trkpt lat="44.33726" lon="5.82274">
        <ele>626.92</ele>
        <time>2012-05-27T11:53:53Z</time>
      </trkpt>
      <trkpt lat="44.33739" lon="5.82408">
        <ele>628.84</ele>
        <time>2012-05-27T11:54:16Z</time>
      </trkpt>
      <trkpt lat="44.33741" lon="5.82414">
        <ele>629.32</ele>
        <time>2012-05-27T11:54:17Z</time>
      </trkpt>
      <trkpt lat="44.33751" lon="5.82446">
        <ele>625.96</ele>
        <time>2012-05-27T11:54:22Z</time>
      </trkpt>
      <trkpt lat="44.33752" lon="5.82451">
        <ele>624.99</ele>
        <time>2012-05-27T11:54:24Z</time>
      </trkpt>
      <trkpt lat="44.3375" lon="5.82453">
        <ele>624.99</ele>
        <time>2012-05-27T11:54:25Z</time>
      </trkpt>
      <trkpt lat="44.33714" lon="5.82486">
        <ele>622.11</ele>
        <time>2012-05-27T11:54:39Z</time>
      </trkpt>
      <trkpt lat="44.33661" lon="5.82493">
        <ele>621.63</ele>
        <time>2012-05-27T11:54:54Z</time>
      </trkpt>
      <trkpt lat="44.33638" lon="5.82506">
        <ele>622.11</ele>
        <time>2012-05-27T11:55:02Z</time>
      </trkpt>
      <trkpt lat="44.33624" lon="5.82509">
        <ele>622.11</ele>
        <time>2012-05-27T11:55:08Z</time>
      </trkpt>
      <trkpt lat="44.33566" lon="5.82588">
        <ele>616.34</ele>
        <time>2012-05-27T11:55:23Z</time>
      </trkpt>
      <trkpt lat="44.33512" lon="5.82659">
        <ele>612.02</ele>
        <time>2012-05-27T11:55:45Z</time>
      </trkpt>
      <trkpt lat="44.33491" lon="5.82688">
        <ele>609.61</ele>
        <time>2012-05-27T11:55:55Z</time>
      </trkpt>
      <trkpt lat="44.33489" lon="5.82688">
        <ele>609.61</ele>
        <time>2012-05-27T11:55:56Z</time>
      </trkpt>
      <trkpt lat="44.33465" lon="5.82685">
        <ele>609.61</ele>
        <time>2012-05-27T11:56:09Z</time>
      </trkpt>
      <trkpt lat="44.33446" lon="5.82637">
        <ele>608.65</ele>
        <time>2012-05-27T11:56:28Z</time>
      </trkpt>
      <trkpt lat="44.33425" lon="5.82617">
        <ele>610.09</ele>
        <time>2012-05-27T11:56:41Z</time>
      </trkpt>
      <trkpt lat="44.33426" lon="5.82611">
        <ele>610.09</ele>
        <time>2012-05-27T11:56:45Z</time>
      </trkpt>
      <trkpt lat="44.33413" lon="5.82574">
        <ele>616.82</ele>
        <time>2012-05-27T11:57:16Z</time>
      </trkpt>
      <trkpt lat="44.33388" lon="5.82595">
        <ele>620.19</ele>
        <time>2012-05-27T11:57:42Z</time>
      </trkpt>
      <trkpt lat="44.33367" lon="5.82611">
        <ele>623.55</ele>
        <time>2012-05-27T11:58:06Z</time>
      </trkpt>
      <trkpt lat="44.33348" lon="5.82593">
        <ele>626.92</ele>
        <time>2012-05-27T11:58:24Z</time>
      </trkpt>
      <trkpt lat="44.33316" lon="5.82569">
        <ele>630.28</ele>
        <time>2012-05-27T11:58:53Z</time>
      </trkpt>
      <trkpt lat="44.33296" lon="5.82565">
        <ele>633.65</ele>
        <time>2012-05-27T11:59:10Z</time>
      </trkpt>
      <trkpt lat="44.33257" lon="5.8258">
        <ele>637.97</ele>
        <time>2012-05-27T11:59:42Z</time>
      </trkpt>
      <trkpt lat="44.3321" lon="5.82589">
        <ele>643.26</ele>
        <time>2012-05-27T12:00:17Z</time>
      </trkpt>
      <trkpt lat="44.33136" lon="5.82633">
        <ele>640.38</ele>
        <time>2012-05-27T12:00:48Z</time>
      </trkpt>
      <trkpt lat="44.33131" lon="5.82643">
        <ele>638.93</ele>
        <time>2012-05-27T12:00:50Z</time>
      </trkpt>
      <trkpt lat="44.33114" lon="5.82703">
        <ele>634.61</ele>
        <time>2012-05-27T12:00:57Z</time>
      </trkpt>
      <trkpt lat="44.33111" lon="5.82715">
        <ele>634.61</ele>
        <time>2012-05-27T12:00:58Z</time>
      </trkpt>
      <trkpt lat="44.33088" lon="5.828">
        <ele>626.92</ele>
        <time>2012-05-27T12:01:05Z</time>
      </trkpt>
      <trkpt lat="44.33086" lon="5.82813">
        <ele>626.92</ele>
        <time>2012-05-27T12:01:06Z</time>
      </trkpt>
      <trkpt lat="44.33083" lon="5.82854">
        <ele>623.55</ele>
        <time>2012-05-27T12:01:09Z</time>
      </trkpt>
      <trkpt lat="44.33079" lon="5.82869">
        <ele>621.63</ele>
        <time>2012-05-27T12:01:10Z</time>
      </trkpt>
      <trkpt lat="44.33075" lon="5.82884">
        <ele>621.63</ele>
        <time>2012-05-27T12:01:11Z</time>
      </trkpt>
      <trkpt lat="44.33051" lon="5.82957">
        <ele>618.26</ele>
        <time>2012-05-27T12:01:16Z</time>
      </trkpt>
      <trkpt lat="44.33039" lon="5.82992">
        <ele>614.9</ele>
        <time>2012-05-27T12:01:19Z</time>
      </trkpt>
      <trkpt lat="44.33026" lon="5.8305">
        <ele>611.06</ele>
        <time>2012-05-27T12:01:24Z</time>
      </trkpt>
      <trkpt lat="44.33001" lon="5.8309">
        <ele>607.69</ele>
        <time>2012-05-27T12:01:28Z</time>
      </trkpt>
      <trkpt lat="44.32994" lon="5.83096">
        <ele>607.69</ele>
        <time>2012-05-27T12:01:29Z</time>
      </trkpt>
      <trkpt lat="44.32949" lon="5.83112">
        <ele>603.85</ele>
        <time>2012-05-27T12:01:34Z</time>
      </trkpt>
      <trkpt lat="44.3294" lon="5.83114">
        <ele>603.85</ele>
        <time>2012-05-27T12:01:35Z</time>
      </trkpt>
      <trkpt lat="44.32914" lon="5.83121">
        <ele>600.48</ele>
        <time>2012-05-27T12:01:38Z</time>
      </trkpt>
      <trkpt lat="44.32898" lon="5.8313">
        <ele>599.04</ele>
        <time>2012-05-27T12:01:41Z</time>
      </trkpt>
      <trkpt lat="44.32891" lon="5.83139">
        <ele>599.04</ele>
        <time>2012-05-27T12:01:43Z</time>
      </trkpt>
      <trkpt lat="44.32887" lon="5.83145">
        <ele>598.56</ele>
        <time>2012-05-27T12:01:44Z</time>
      </trkpt>
      <trkpt lat="44.32881" lon="5.8316">
        <ele>598.56</ele>
        <time>2012-05-27T12:01:46Z</time>
      </trkpt>
      <trkpt lat="44.32848" lon="5.8329">
        <ele>595.19</ele>
        <time>2012-05-27T12:02:02Z</time>
      </trkpt>
      <trkpt lat="44.32844" lon="5.83305">
        <ele>594.23</ele>
        <time>2012-05-27T12:02:04Z</time>
      </trkpt>
      <trkpt lat="44.32835" lon="5.83349">
        <ele>593.75</ele>
        <time>2012-05-27T12:02:10Z</time>
      </trkpt>
      <trkpt lat="44.32827" lon="5.83383">
        <ele>592.31</ele>
        <time>2012-05-27T12:02:16Z</time>
      </trkpt>
      <trkpt lat="44.32825" lon="5.83384">
        <ele>592.79</ele>
        <time>2012-05-27T12:02:17Z</time>
      </trkpt>
      <trkpt lat="44.32811" lon="5.83381">
        <ele>592.31</ele>
        <time>2012-05-27T12:02:20Z</time>
      </trkpt>
      <trkpt lat="44.32806" lon="5.83379">
        <ele>592.31</ele>
        <time>2012-05-27T12:02:21Z</time>
      </trkpt>
      <trkpt lat="44.32724" lon="5.83319">
        <ele>590.39</ele>
        <time>2012-05-27T12:02:37Z</time>
      </trkpt>
      <trkpt lat="44.32666" lon="5.83278">
        <ele>590.87</ele>
        <time>2012-05-27T12:02:49Z</time>
      </trkpt>
      <trkpt lat="44.32652" lon="5.83303">
        <ele>590.87</ele>
        <time>2012-05-27T12:02:54Z</time>
      </trkpt>
      <trkpt lat="44.32632" lon="5.83488">
        <ele>591.83</ele>
        <time>2012-05-27T12:03:17Z</time>
      </trkpt>
      <trkpt lat="44.32637" lon="5.83499">
        <ele>590.87</ele>
        <time>2012-05-27T12:03:26Z</time>
      </trkpt>
      <trkpt lat="44.32607" lon="5.83457">
        <ele>587.98</ele>
        <time>2012-05-27T12:03:41Z</time>
      </trkpt>
      <trkpt lat="44.326" lon="5.8346">
        <ele>587.98</ele>
        <time>2012-05-27T12:03:42Z</time>
      </trkpt>
      <trkpt lat="44.32553" lon="5.83449">
        <ele>586.06</ele>
        <time>2012-05-27T12:03:53Z</time>
      </trkpt>
      <trkpt lat="44.32518" lon="5.83445">
        <ele>586.06</ele>
        <time>2012-05-27T12:03:59Z</time>
      </trkpt>
      <trkpt lat="44.32502" lon="5.83443">
        <ele>585.1</ele>
        <time>2012-05-27T12:04:05Z</time>
      </trkpt>
      <trkpt lat="44.32473" lon="5.83395">
        <ele>585.58</ele>
        <time>2012-05-27T12:04:17Z</time>
      </trkpt>
      <trkpt lat="44.32462" lon="5.8338">
        <ele>585.1</ele>
        <time>2012-05-27T12:04:20Z</time>
      </trkpt>
      <trkpt lat="44.32458" lon="5.83376">
        <ele>585.1</ele>
        <time>2012-05-27T12:04:21Z</time>
      </trkpt>
      <trkpt lat="44.3239" lon="5.83324">
        <ele>584.62</ele>
        <time>2012-05-27T12:04:35Z</time>
      </trkpt>
      <trkpt lat="44.32369" lon="5.83308">
        <ele>584.14</ele>
        <time>2012-05-27T12:04:39Z</time>
      </trkpt>
      <trkpt lat="44.32305" lon="5.83255">
        <ele>582.7</ele>
        <time>2012-05-27T12:04:54Z</time>
      </trkpt>
      <trkpt lat="44.32292" lon="5.83251">
        <ele>582.7</ele>
        <time>2012-05-27T12:04:57Z</time>
      </trkpt>
      <trkpt lat="44.32217" lon="5.83205">
        <ele>585.58</ele>
        <time>2012-05-27T12:05:22Z</time>
      </trkpt>
      <trkpt lat="44.32115" lon="5.83204">
        <ele>585.58</ele>
        <time>2012-05-27T12:05:46Z</time>
      </trkpt>
      <trkpt lat="44.32004" lon="5.83291">
        <ele>585.58</ele>
        <time>2012-05-27T12:06:13Z</time>
      </trkpt>
      <trkpt lat="44.31943" lon="5.8334">
        <ele>585.58</ele>
        <time>2012-05-27T12:06:26Z</time>
      </trkpt>
      <trkpt lat="44.31786" lon="5.8344">
        <ele>583.66</ele>
        <time>2012-05-27T12:06:53Z</time>
      </trkpt>
      <trkpt lat="44.31574" lon="5.83487">
        <ele>582.22</ele>
        <time>2012-05-27T12:07:29Z</time>
      </trkpt>
      <trkpt lat="44.31566" lon="5.83486">
        <ele>582.7</ele>
        <time>2012-05-27T12:07:31Z</time>
      </trkpt>
      <trkpt lat="44.31563" lon="5.83504">
        <ele>582.22</ele>
        <time>2012-05-27T12:07:35Z</time>
      </trkpt>
      <trkpt lat="44.3158" lon="5.83593">
        <ele>583.66</ele>
        <time>2012-05-27T12:07:49Z</time>
      </trkpt>
      <trkpt lat="44.31596" lon="5.83646">
        <ele>584.14</ele>
        <time>2012-05-27T12:07:58Z</time>
      </trkpt>
      <trkpt lat="44.31624" lon="5.83711">
        <ele>585.58</ele>
        <time>2012-05-27T12:08:10Z</time>
      </trkpt>
      <trkpt lat="44.31642" lon="5.83781">
        <ele>587.98</ele>
        <time>2012-05-27T12:08:23Z</time>
      </trkpt>
      <trkpt lat="44.31731" lon="5.83996">
        <ele>593.27</ele>
        <time>2012-05-27T12:09:11Z</time>
      </trkpt>
      <trkpt lat="44.31732" lon="5.84">
        <ele>593.27</ele>
        <time>2012-05-27T12:09:12Z</time>
      </trkpt>
      <trkpt lat="44.31713" lon="5.84015">
        <ele>593.75</ele>
        <time>2012-05-27T12:09:20Z</time>
      </trkpt>
      <trkpt lat="44.31685" lon="5.84008">
        <ele>593.27</ele>
        <time>2012-05-27T12:09:27Z</time>
      </trkpt>
      <trkpt lat="44.31658" lon="5.84025">
        <ele>592.79</ele>
        <time>2012-05-27T12:09:36Z</time>
      </trkpt>
      <trkpt lat="44.3168" lon="5.84073">
        <ele>594.23</ele>
        <time>2012-05-27T12:09:54Z</time>
      </trkpt>
      <trkpt lat="44.31702" lon="5.84159">
        <ele>596.64</ele>
        <time>2012-05-27T12:10:30Z</time>
      </trkpt>
      <trkpt lat="44.31734" lon="5.84245">
        <ele>601.92</ele>
        <time>2012-05-27T12:11:10Z</time>
      </trkpt>
      <trkpt lat="44.31753" lon="5.84246">
        <ele>602.4</ele>
        <time>2012-05-27T12:12:16Z</time>
      </trkpt>
      <trkpt lat="44.31725" lon="5.84218">
        <ele>599.52</ele>
        <time>2012-05-27T12:14:11Z</time>
      </trkpt>
      <trkpt lat="44.31702" lon="5.8416">
        <ele>596.64</ele>
        <time>2012-05-27T12:14:21Z</time>
      </trkpt>
      <trkpt lat="44.31681" lon="5.84169">
        <ele>599.04</ele>
        <time>2012-05-27T12:14:36Z</time>
      </trkpt>
      <trkpt lat="44.31678" lon="5.84172">
        <ele>599.04</ele>
        <time>2012-05-27T12:14:39Z</time>
      </trkpt>
      <trkpt lat="44.31651" lon="5.84201">
        <ele>604.81</ele>
        <time>2012-05-27T12:15:04Z</time>
      </trkpt>
      <trkpt lat="44.31647" lon="5.84214">
        <ele>606.25</ele>
        <time>2012-05-27T12:15:37Z</time>
      </trkpt>
      <trkpt lat="44.31661" lon="5.84227">
        <ele>612.02</ele>
        <time>2012-05-27T12:16:10Z</time>
      </trkpt>
      <trkpt lat="44.31663" lon="5.84232">
        <ele>615.38</ele>
        <time>2012-05-27T12:16:24Z</time>
      </trkpt>
      <trkpt lat="44.3167" lon="5.8425">
        <ele>618.75</ele>
        <time>2012-05-27T12:16:44Z</time>
      </trkpt>
      <trkpt lat="44.31678" lon="5.84266">
        <ele>620.67</ele>
        <time>2012-05-27T12:17:09Z</time>
      </trkpt>
      <trkpt lat="44.31698" lon="5.84307">
        <ele>624.99</ele>
        <time>2012-05-27T12:17:34Z</time>
      </trkpt>
      <trkpt lat="44.31735" lon="5.84331">
        <ele>624.03</ele>
        <time>2012-05-27T12:17:44Z</time>
      </trkpt>
      <trkpt lat="44.31738" lon="5.84335">
        <ele>625.47</ele>
        <time>2012-05-27T12:17:46Z</time>
      </trkpt>
      <trkpt lat="44.31741" lon="5.84337">
        <ele>624.99</ele>
        <time>2012-05-27T12:18:08Z</time>
      </trkpt>
      <trkpt lat="44.31742" lon="5.84338">
        <ele>621.15</ele>
        <time>2012-05-27T12:23:19Z</time>
      </trkpt>
      <trkpt lat="44.31743" lon="5.84341">
        <ele>622.11</ele>
        <time>2012-05-27T12:26:05Z</time>
      </trkpt>
      <trkpt lat="44.31743" lon="5.84342">
        <ele>623.55</ele>
        <time>2012-05-27T12:37:50Z</time>
      </trkpt>
      <trkpt lat="44.31742" lon="5.84343">
        <ele>620.19</ele>
        <time>2012-05-27T12:44:30Z</time>
      </trkpt>
      <trkpt lat="44.31742" lon="5.84343">
        <ele>623.55</ele>
        <time>2012-05-27T12:46:16Z</time>
      </trkpt>
      <trkpt lat="44.31741" lon="5.84341">
        <ele>623.07</ele>
        <time>2012-05-27T12:47:50Z</time>
      </trkpt>
      <trkpt lat="44.31714" lon="5.84323">
        <ele>622.59</ele>
        <time>2012-05-27T12:48:18Z</time>
      </trkpt>
      <trkpt lat="44.3169" lon="5.84299">
        <ele>623.55</ele>
        <time>2012-05-27T12:48:37Z</time>
      </trkpt>
      <trkpt lat="44.31678" lon="5.84273">
        <ele>619.71</ele>
        <time>2012-05-27T12:48:43Z</time>
      </trkpt>
      <trkpt lat="44.31672" lon="5.84257">
        <ele>618.26</ele>
        <time>2012-05-27T12:48:49Z</time>
      </trkpt>
      <trkpt lat="44.31666" lon="5.84233">
        <ele>612.98</ele>
        <time>2012-05-27T12:48:58Z</time>
      </trkpt>
      <trkpt lat="44.31658" lon="5.84226">
        <ele>607.21</ele>
        <time>2012-05-27T12:49:07Z</time>
      </trkpt>
      <trkpt lat="44.31651" lon="5.84212">
        <ele>606.25</ele>
        <time>2012-05-27T12:49:29Z</time>
      </trkpt>
      <trkpt lat="44.3165" lon="5.84192">
        <ele>602.88</ele>
        <time>2012-05-27T12:49:35Z</time>
      </trkpt>
      <trkpt lat="44.31665" lon="5.84172">
        <ele>599.52</ele>
        <time>2012-05-27T12:49:39Z</time>
      </trkpt>
      <trkpt lat="44.31674" lon="5.84154">
        <ele>597.6</ele>
        <time>2012-05-27T12:49:42Z</time>
      </trkpt>
      <trkpt lat="44.31676" lon="5.84148">
        <ele>596.64</ele>
        <time>2012-05-27T12:49:43Z</time>
      </trkpt>
      <trkpt lat="44.31682" lon="5.84129">
        <ele>595.19</ele>
        <time>2012-05-27T12:49:46Z</time>
      </trkpt>
      <trkpt lat="44.31662" lon="5.8406">
        <ele>591.35</ele>
        <time>2012-05-27T12:49:56Z</time>
      </trkpt>
      <trkpt lat="44.31657" lon="5.84048">
        <ele>591.35</ele>
        <time>2012-05-27T12:49:58Z</time>
      </trkpt>
      <trkpt lat="44.31703" lon="5.84012">
        <ele>590.87</ele>
        <time>2012-05-27T12:50:16Z</time>
      </trkpt>
      <trkpt lat="44.31729" lon="5.84005">
        <ele>590.87</ele>
        <time>2012-05-27T12:50:28Z</time>
      </trkpt>
      <trkpt lat="44.31735" lon="5.84001">
        <ele>590.39</ele>
        <time>2012-05-27T12:50:40Z</time>
      </trkpt>
      <trkpt lat="44.31733" lon="5.83988">
        <ele>590.39</ele>
        <time>2012-05-27T12:50:55Z</time>
      </trkpt>
      <trkpt lat="44.31751" lon="5.83995">
        <ele>590.87</ele>
        <time>2012-05-27T12:51:14Z</time>
      </trkpt>
      <trkpt lat="44.31738" lon="5.83998">
        <ele>590.39</ele>
        <time>2012-05-27T12:51:36Z</time>
      </trkpt>
      <trkpt lat="44.31737" lon="5.83998">
        <ele>587.5</ele>
        <time>2012-05-27T12:58:13Z</time>
      </trkpt>
      <trkpt lat="44.31737" lon="5.83999">
        <ele>583.66</ele>
        <time>2012-05-27T13:16:12Z</time>
      </trkpt>
      <trkpt lat="44.31737" lon="5.83999">
        <ele>579.81</ele>
        <time>2012-05-27T13:21:52Z</time>
      </trkpt>
      <trkpt lat="44.31745" lon="5.83996">
        <ele>579.81</ele>
        <time>2012-05-27T13:21:56Z</time>
      </trkpt>
      <trkpt lat="44.31755" lon="5.83981">
        <ele>580.29</ele>
        <time>2012-05-27T13:22:18Z</time>
      </trkpt>
      <trkpt lat="44.31751" lon="5.83982">
        <ele>583.18</ele>
        <time>2012-05-27T13:24:44Z</time>
      </trkpt>
      <trkpt lat="44.31752" lon="5.83979">
        <ele>586.54</ele>
        <time>2012-05-27T13:26:39Z</time>
      </trkpt>
      <trkpt lat="44.3176" lon="5.83984">
        <ele>583.18</ele>
        <time>2012-05-27T13:38:20Z</time>
      </trkpt>
      <trkpt lat="44.31758" lon="5.83987">
        <ele>579.81</ele>
        <time>2012-05-27T13:49:39Z</time>
      </trkpt>
      <trkpt lat="44.31758" lon="5.83995">
        <ele>583.66</ele>
        <time>2012-05-27T13:52:06Z</time>
      </trkpt>
      <trkpt lat="44.31754" lon="5.8399">
        <ele>586.54</ele>
        <time>2012-05-27T13:54:27Z</time>
      </trkpt>
      <trkpt lat="44.31747" lon="5.83999">
        <ele>587.98</ele>
        <time>2012-05-27T13:55:27Z</time>
      </trkpt>
      <trkpt lat="44.31745" lon="5.83999">
        <ele>588.95</ele>
        <time>2012-05-27T13:55:55Z</time>
      </trkpt>
      <trkpt lat="44.31732" lon="5.83998">
        <ele>589.43</ele>
        <time>2012-05-27T13:56:09Z</time>
      </trkpt>
      <trkpt lat="44.31743" lon="5.83999">
        <ele>589.43</ele>
        <time>2012-05-27T13:56:27Z</time>
      </trkpt>
      <trkpt lat="44.3174" lon="5.84005">
        <ele>588.95</ele>
        <time>2012-05-27T13:56:45Z</time>
      </trkpt>
      <trkpt lat="44.31733" lon="5.84009">
        <ele>589.43</ele>
        <time>2012-05-27T13:56:50Z</time>
      </trkpt>
      <trkpt lat="44.31722" lon="5.84016">
        <ele>589.91</ele>
        <time>2012-05-27T13:56:56Z</time>
      </trkpt>
      <trkpt lat="44.31656" lon="5.84029">
        <ele>588.46</ele>
        <time>2012-05-27T13:57:23Z</time>
      </trkpt>
      <trkpt lat="44.31658" lon="5.84037">
        <ele>587.98</ele>
        <time>2012-05-27T13:57:30Z</time>
      </trkpt>
      <trkpt lat="44.31673" lon="5.84078">
        <ele>589.43</ele>
        <time>2012-05-27T13:58:40Z</time>
      </trkpt>
      <trkpt lat="44.3168" lon="5.84115">
        <ele>591.35</ele>
        <time>2012-05-27T13:58:58Z</time>
      </trkpt>
      <trkpt lat="44.31677" lon="5.8415">
        <ele>593.75</ele>
        <time>2012-05-27T13:59:15Z</time>
      </trkpt>
      <trkpt lat="44.31655" lon="5.84186">
        <ele>598.08</ele>
        <time>2012-05-27T13:59:36Z</time>
      </trkpt>
      <trkpt lat="44.31647" lon="5.84213">
        <ele>602.4</ele>
        <time>2012-05-27T14:00:00Z</time>
      </trkpt>
      <trkpt lat="44.31663" lon="5.84226">
        <ele>607.69</ele>
        <time>2012-05-27T14:00:27Z</time>
      </trkpt>
      <trkpt lat="44.31668" lon="5.84233">
        <ele>611.54</ele>
        <time>2012-05-27T14:00:52Z</time>
      </trkpt>
      <trkpt lat="44.31674" lon="5.84248">
        <ele>612.98</ele>
        <time>2012-05-27T14:01:08Z</time>
      </trkpt>
      <trkpt lat="44.31683" lon="5.8427">
        <ele>616.82</ele>
        <time>2012-05-27T14:01:26Z</time>
      </trkpt>
      <trkpt lat="44.3171" lon="5.84321">
        <ele>619.23</ele>
        <time>2012-05-27T14:01:59Z</time>
      </trkpt>
      <trkpt lat="44.31717" lon="5.84324">
        <ele>619.23</ele>
        <time>2012-05-27T14:02:02Z</time>
      </trkpt>
      <trkpt lat="44.31737" lon="5.84333">
        <ele>620.67</ele>
        <time>2012-05-27T14:02:11Z</time>
      </trkpt>
      <trkpt lat="44.31755" lon="5.84356">
        <ele>626.44</ele>
        <time>2012-05-27T14:02:34Z</time>
      </trkpt>
      <trkpt lat="44.31771" lon="5.84383">
        <ele>629.8</ele>
        <time>2012-05-27T14:03:02Z</time>
      </trkpt>
      <trkpt lat="44.31775" lon="5.84388">
        <ele>629.8</ele>
        <time>2012-05-27T14:03:06Z</time>
      </trkpt>
      <trkpt lat="44.31796" lon="5.844">
        <ele>631.24</ele>
        <time>2012-05-27T14:03:21Z</time>
      </trkpt>
      <trkpt lat="44.31804" lon="5.84408">
        <ele>627.4</ele>
        <time>2012-05-27T14:03:25Z</time>
      </trkpt>
      <trkpt lat="44.31804" lon="5.84411">
        <ele>625.96</ele>
        <time>2012-05-27T14:03:26Z</time>
      </trkpt>
      <trkpt lat="44.31808" lon="5.84423">
        <ele>624.03</ele>
        <time>2012-05-27T14:03:30Z</time>
      </trkpt>
      <trkpt lat="44.31848" lon="5.84461">
        <ele>626.44</ele>
        <time>2012-05-27T14:04:02Z</time>
      </trkpt>
      <trkpt lat="44.31866" lon="5.84478">
        <ele>631.24</ele>
        <time>2012-05-27T14:04:37Z</time>
      </trkpt>
      <trkpt lat="44.31872" lon="5.84498">
        <ele>636.53</ele>
        <time>2012-05-27T14:05:04Z</time>
      </trkpt>
      <trkpt lat="44.31873" lon="5.84505">
        <ele>636.53</ele>
        <time>2012-05-27T14:05:33Z</time>
      </trkpt>
      <trkpt lat="44.31877" lon="5.84544">
        <ele>640.86</ele>
        <time>2012-05-27T14:05:58Z</time>
      </trkpt>
      <trkpt lat="44.31886" lon="5.84558">
        <ele>642.78</ele>
        <time>2012-05-27T14:06:10Z</time>
      </trkpt>
      <trkpt lat="44.31896" lon="5.84572">
        <ele>643.74</ele>
        <time>2012-05-27T14:06:20Z</time>
      </trkpt>
      <trkpt lat="44.31906" lon="5.84577">
        <ele>643.26</ele>
        <time>2012-05-27T14:06:28Z</time>
      </trkpt>
      <trkpt lat="44.31929" lon="5.84584">
        <ele>641.34</ele>
        <time>2012-05-27T14:06:44Z</time>
      </trkpt>
      <trkpt lat="44.31928" lon="5.84583">
        <ele>641.34</ele>
        <time>2012-05-27T14:06:58Z</time>
      </trkpt>
      <trkpt lat="44.31961" lon="5.84603">
        <ele>637.97</ele>
        <time>2012-05-27T14:07:08Z</time>
      </trkpt>
      <trkpt lat="44.31963" lon="5.84607">
        <ele>638.45</ele>
        <time>2012-05-27T14:07:09Z</time>
      </trkpt>
      <trkpt lat="44.31979" lon="5.84637">
        <ele>637.49</ele>
        <time>2012-05-27T14:07:27Z</time>
      </trkpt>
      <trkpt lat="44.31973" lon="5.84678">
        <ele>635.57</ele>
        <time>2012-05-27T14:07:40Z</time>
      </trkpt>
      <trkpt lat="44.31972" lon="5.84682">
        <ele>636.05</ele>
        <time>2012-05-27T14:07:41Z</time>
      </trkpt>
      <trkpt lat="44.31968" lon="5.84695">
        <ele>632.2</ele>
        <time>2012-05-27T14:07:47Z</time>
      </trkpt>
      <trkpt lat="44.31969" lon="5.84696">
        <ele>633.17</ele>
        <time>2012-05-27T14:07:48Z</time>
      </trkpt>
      <trkpt lat="44.31978" lon="5.84702">
        <ele>629.8</ele>
        <time>2012-05-27T14:07:58Z</time>
      </trkpt>
      <trkpt lat="44.3199" lon="5.8471">
        <ele>632.2</ele>
        <time>2012-05-27T14:08:15Z</time>
      </trkpt>
      <trkpt lat="44.32012" lon="5.84714">
        <ele>635.57</ele>
        <time>2012-05-27T14:08:48Z</time>
      </trkpt>
      <trkpt lat="44.3202" lon="5.84721">
        <ele>638.93</ele>
        <time>2012-05-27T14:09:02Z</time>
      </trkpt>
      <trkpt lat="44.32027" lon="5.84742">
        <ele>642.3</ele>
        <time>2012-05-27T14:09:17Z</time>
      </trkpt>
      <trkpt lat="44.32027" lon="5.84754">
        <ele>645.66</ele>
        <time>2012-05-27T14:09:31Z</time>
      </trkpt>
      <trkpt lat="44.32027" lon="5.84755">
        <ele>645.66</ele>
        <time>2012-05-27T14:09:32Z</time>
      </trkpt>
      <trkpt lat="44.32026" lon="5.84767">
        <ele>649.51</ele>
        <time>2012-05-27T14:09:46Z</time>
      </trkpt>
      <trkpt lat="44.32027" lon="5.84768">
        <ele>649.03</ele>
        <time>2012-05-27T14:09:47Z</time>
      </trkpt>
      <trkpt lat="44.32029" lon="5.84798">
        <ele>654.31</ele>
        <time>2012-05-27T14:10:22Z</time>
      </trkpt>
      <trkpt lat="44.32028" lon="5.84799">
        <ele>654.31</ele>
        <time>2012-05-27T14:10:23Z</time>
      </trkpt>
      <trkpt lat="44.32028" lon="5.8481">
        <ele>655.76</ele>
        <time>2012-05-27T14:10:32Z</time>
      </trkpt>
      <trkpt lat="44.32028" lon="5.84825">
        <ele>657.68</ele>
        <time>2012-05-27T14:10:41Z</time>
      </trkpt>
      <trkpt lat="44.32026" lon="5.84895">
        <ele>663.93</ele>
        <time>2012-05-27T14:11:15Z</time>
      </trkpt>
      <trkpt lat="44.32026" lon="5.849">
        <ele>663.93</ele>
        <time>2012-05-27T14:11:18Z</time>
      </trkpt>
      <trkpt lat="44.32033" lon="5.84885">
        <ele>666.81</ele>
        <time>2012-05-27T14:11:36Z</time>
      </trkpt>
      <trkpt lat="44.32046" lon="5.84842">
        <ele>672.58</ele>
        <time>2012-05-27T14:12:03Z</time>
      </trkpt>
      <trkpt lat="44.32061" lon="5.84806">
        <ele>677.39</ele>
        <time>2012-05-27T14:12:28Z</time>
      </trkpt>
      <trkpt lat="44.32061" lon="5.8481">
        <ele>677.39</ele>
        <time>2012-05-27T14:12:32Z</time>
      </trkpt>
      <trkpt lat="44.32062" lon="5.84814">
        <ele>677.87</ele>
        <time>2012-05-27T14:12:35Z</time>
      </trkpt>
      <trkpt lat="44.32057" lon="5.84855">
        <ele>676.42</ele>
        <time>2012-05-27T14:12:51Z</time>
      </trkpt>
      <trkpt lat="44.32057" lon="5.84914">
        <ele>677.39</ele>
        <time>2012-05-27T14:13:15Z</time>
      </trkpt>
      <trkpt lat="44.32057" lon="5.8497">
        <ele>675.94</ele>
        <time>2012-05-27T14:13:37Z</time>
      </trkpt>
      <trkpt lat="44.32057" lon="5.84971">
        <ele>674.98</ele>
        <time>2012-05-27T14:14:14Z</time>
      </trkpt>
      <trkpt lat="44.32052" lon="5.8503">
        <ele>673.54</ele>
        <time>2012-05-27T14:14:27Z</time>
      </trkpt>
      <trkpt lat="44.32059" lon="5.85065">
        <ele>672.1</ele>
        <time>2012-05-27T14:14:35Z</time>
      </trkpt>
      <trkpt lat="44.32064" lon="5.85094">
        <ele>672.1</ele>
        <time>2012-05-27T14:14:54Z</time>
      </trkpt>
      <trkpt lat="44.32065" lon="5.85108">
        <ele>671.14</ele>
        <time>2012-05-27T14:15:08Z</time>
      </trkpt>
      <trkpt lat="44.32058" lon="5.85124">
        <ele>672.1</ele>
        <time>2012-05-27T14:15:12Z</time>
      </trkpt>
      <trkpt lat="44.32049" lon="5.85172">
        <ele>676.42</ele>
        <time>2012-05-27T14:15:28Z</time>
      </trkpt>
      <trkpt lat="44.32035" lon="5.85263">
        <ele>677.39</ele>
        <time>2012-05-27T14:15:56Z</time>
      </trkpt>
      <trkpt lat="44.32033" lon="5.85313">
        <ele>678.35</ele>
        <time>2012-05-27T14:16:06Z</time>
      </trkpt>
      <trkpt lat="44.32043" lon="5.85338">
        <ele>682.19</ele>
        <time>2012-05-27T14:16:23Z</time>
      </trkpt>
      <trkpt lat="44.32048" lon="5.85356">
        <ele>686.04</ele>
        <time>2012-05-27T14:16:37Z</time>
      </trkpt>
      <trkpt lat="44.32054" lon="5.85378">
        <ele>689.4</ele>
        <time>2012-05-27T14:16:56Z</time>
      </trkpt>
      <trkpt lat="44.32053" lon="5.85411">
        <ele>695.65</ele>
        <time>2012-05-27T14:17:23Z</time>
      </trkpt>
      <trkpt lat="44.32053" lon="5.85412">
        <ele>695.65</ele>
        <time>2012-05-27T14:17:24Z</time>
      </trkpt>
      <trkpt lat="44.32073" lon="5.85445">
        <ele>690.36</ele>
        <time>2012-05-27T14:17:37Z</time>
      </trkpt>
      <trkpt lat="44.32076" lon="5.85449">
        <ele>690.36</ele>
        <time>2012-05-27T14:17:38Z</time>
      </trkpt>
      <trkpt lat="44.32092" lon="5.85469">
        <ele>685.56</ele>
        <time>2012-05-27T14:17:46Z</time>
      </trkpt>
      <trkpt lat="44.32097" lon="5.85483">
        <ele>683.63</ele>
        <time>2012-05-27T14:17:50Z</time>
      </trkpt>
      <trkpt lat="44.32104" lon="5.85492">
        <ele>679.79</ele>
        <time>2012-05-27T14:17:56Z</time>
      </trkpt>
      <trkpt lat="44.32104" lon="5.85499">
        <ele>678.35</ele>
        <time>2012-05-27T14:17:59Z</time>
      </trkpt>
      <trkpt lat="44.32103" lon="5.85511">
        <ele>674.98</ele>
        <time>2012-05-27T14:18:06Z</time>
      </trkpt>
      <trkpt lat="44.32111" lon="5.85519">
        <ele>671.62</ele>
        <time>2012-05-27T14:18:10Z</time>
      </trkpt>
      <trkpt lat="44.32115" lon="5.8553">
        <ele>670.66</ele>
        <time>2012-05-27T14:18:12Z</time>
      </trkpt>
      <trkpt lat="44.32125" lon="5.85562">
        <ele>674.98</ele>
        <time>2012-05-27T14:18:32Z</time>
      </trkpt>
      <trkpt lat="44.32128" lon="5.85574">
        <ele>679.79</ele>
        <time>2012-05-27T14:18:53Z</time>
      </trkpt>
      <trkpt lat="44.3213" lon="5.85583">
        <ele>683.15</ele>
        <time>2012-05-27T14:19:08Z</time>
      </trkpt>
      <trkpt lat="44.32131" lon="5.85593">
        <ele>686.52</ele>
        <time>2012-05-27T14:19:24Z</time>
      </trkpt>
      <trkpt lat="44.32137" lon="5.85611">
        <ele>690.36</ele>
        <time>2012-05-27T14:19:40Z</time>
      </trkpt>
      <trkpt lat="44.32144" lon="5.85625">
        <ele>691.33</ele>
        <time>2012-05-27T14:20:04Z</time>
      </trkpt>
      <trkpt lat="44.32142" lon="5.85647">
        <ele>691.33</ele>
        <time>2012-05-27T14:20:13Z</time>
      </trkpt>
      <trkpt lat="44.32139" lon="5.85676">
        <ele>694.69</ele>
        <time>2012-05-27T14:20:24Z</time>
      </trkpt>
      <trkpt lat="44.32139" lon="5.85682">
        <ele>694.69</ele>
        <time>2012-05-27T14:20:27Z</time>
      </trkpt>
      <trkpt lat="44.32134" lon="5.85729">
        <ele>698.53</ele>
        <time>2012-05-27T14:20:47Z</time>
      </trkpt>
      <trkpt lat="44.32127" lon="5.85778">
        <ele>701.42</ele>
        <time>2012-05-27T14:21:42Z</time>
      </trkpt>
      <trkpt lat="44.32113" lon="5.85821">
        <ele>702.38</ele>
        <time>2012-05-27T14:21:55Z</time>
      </trkpt>
      <trkpt lat="44.32052" lon="5.85945">
        <ele>704.3</ele>
        <time>2012-05-27T14:22:30Z</time>
      </trkpt>
      <trkpt lat="44.32043" lon="5.86012">
        <ele>699.5</ele>
        <time>2012-05-27T14:22:40Z</time>
      </trkpt>
      <trkpt lat="44.32049" lon="5.86045">
        <ele>696.13</ele>
        <time>2012-05-27T14:22:43Z</time>
      </trkpt>
      <trkpt lat="44.32056" lon="5.86109">
        <ele>693.25</ele>
        <time>2012-05-27T14:22:51Z</time>
      </trkpt>
      <trkpt lat="44.3207" lon="5.86133">
        <ele>695.65</ele>
        <time>2012-05-27T14:23:00Z</time>
      </trkpt>
      <trkpt lat="44.32085" lon="5.86146">
        <ele>698.53</ele>
        <time>2012-05-27T14:23:10Z</time>
      </trkpt>
      <trkpt lat="44.32089" lon="5.86157">
        <ele>699.5</ele>
        <time>2012-05-27T14:23:15Z</time>
      </trkpt>
      <trkpt lat="44.3209" lon="5.86202">
        <ele>705.75</ele>
        <time>2012-05-27T14:23:40Z</time>
      </trkpt>
      <trkpt lat="44.3209" lon="5.86205">
        <ele>705.75</ele>
        <time>2012-05-27T14:23:42Z</time>
      </trkpt>
      <trkpt lat="44.32092" lon="5.86228">
        <ele>708.63</ele>
        <time>2012-05-27T14:23:56Z</time>
      </trkpt>
      <trkpt lat="44.32092" lon="5.8627">
        <ele>714.4</ele>
        <time>2012-05-27T14:24:25Z</time>
      </trkpt>
      <trkpt lat="44.32081" lon="5.86335">
        <ele>718.72</ele>
        <time>2012-05-27T14:25:02Z</time>
      </trkpt>
      <trkpt lat="44.32078" lon="5.86373">
        <ele>721.61</ele>
        <time>2012-05-27T14:25:23Z</time>
      </trkpt>
      <trkpt lat="44.32084" lon="5.86417">
        <ele>726.41</ele>
        <time>2012-05-27T14:25:50Z</time>
      </trkpt>
      <trkpt lat="44.32084" lon="5.86425">
        <ele>727.86</ele>
        <time>2012-05-27T14:25:56Z</time>
      </trkpt>
      <trkpt lat="44.32086" lon="5.86446">
        <ele>727.86</ele>
        <time>2012-05-27T14:26:21Z</time>
      </trkpt>
      <trkpt lat="44.32085" lon="5.8653">
        <ele>726.89</ele>
        <time>2012-05-27T14:27:02Z</time>
      </trkpt>
      <trkpt lat="44.32082" lon="5.86588">
        <ele>726.41</ele>
        <time>2012-05-27T14:27:14Z</time>
      </trkpt>
      <trkpt lat="44.32085" lon="5.86641">
        <ele>725.45</ele>
        <time>2012-05-27T14:27:22Z</time>
      </trkpt>
      <trkpt lat="44.3209" lon="5.86711">
        <ele>725.45</ele>
        <time>2012-05-27T14:27:34Z</time>
      </trkpt>
      <trkpt lat="44.32091" lon="5.86717">
        <ele>724.97</ele>
        <time>2012-05-27T14:27:35Z</time>
      </trkpt>
      <trkpt lat="44.32106" lon="5.86829">
        <ele>730.26</ele>
        <time>2012-05-27T14:28:06Z</time>
      </trkpt>
      <trkpt lat="44.321" lon="5.86913">
        <ele>732.18</ele>
        <time>2012-05-27T14:28:36Z</time>
      </trkpt>
      <trkpt lat="44.32105" lon="5.86936">
        <ele>731.7</ele>
        <time>2012-05-27T14:28:40Z</time>
      </trkpt>
      <trkpt lat="44.32132" lon="5.87046">
        <ele>730.74</ele>
        <time>2012-05-27T14:29:03Z</time>
      </trkpt>
      <trkpt lat="44.32138" lon="5.87108">
        <ele>727.37</ele>
        <time>2012-05-27T14:29:09Z</time>
      </trkpt>
      <trkpt lat="44.32136" lon="5.87118">
        <ele>727.37</ele>
        <time>2012-05-27T14:29:10Z</time>
      </trkpt>
      <trkpt lat="44.32127" lon="5.8716">
        <ele>725.45</ele>
        <time>2012-05-27T14:29:14Z</time>
      </trkpt>
      <trkpt lat="44.32091" lon="5.87223">
        <ele>723.05</ele>
        <time>2012-05-27T14:29:22Z</time>
      </trkpt>
      <trkpt lat="44.32071" lon="5.87262">
        <ele>725.45</ele>
        <time>2012-05-27T14:29:33Z</time>
      </trkpt>
      <trkpt lat="44.32047" lon="5.87303">
        <ele>728.82</ele>
        <time>2012-05-27T14:29:51Z</time>
      </trkpt>
      <trkpt lat="44.32019" lon="5.87395">
        <ele>733.62</ele>
        <time>2012-05-27T14:30:26Z</time>
      </trkpt>
      <trkpt lat="44.31994" lon="5.87446">
        <ele>733.62</ele>
        <time>2012-05-27T14:30:41Z</time>
      </trkpt>
      <trkpt lat="44.3195" lon="5.87512">
        <ele>732.18</ele>
        <time>2012-05-27T14:31:06Z</time>
      </trkpt>
      <trkpt lat="44.31951" lon="5.87512">
        <ele>736.03</ele>
        <time>2012-05-27T14:33:43Z</time>
      </trkpt>
      <trkpt lat="44.31951" lon="5.87512">
        <ele>732.66</ele>
        <time>2012-05-27T14:37:34Z</time>
      </trkpt>
      <trkpt lat="44.31947" lon="5.87506">
        <ele>733.14</ele>
        <time>2012-05-27T14:38:41Z</time>
      </trkpt>
      <trkpt lat="44.31895" lon="5.87531">
        <ele>733.14</ele>
        <time>2012-05-27T14:38:57Z</time>
      </trkpt>
      <trkpt lat="44.3189" lon="5.87533">
        <ele>733.14</ele>
        <time>2012-05-27T14:38:58Z</time>
      </trkpt>
      <trkpt lat="44.3186" lon="5.8755">
        <ele>729.78</ele>
        <time>2012-05-27T14:39:04Z</time>
      </trkpt>
      <trkpt lat="44.3183" lon="5.87526">
        <ele>726.89</ele>
        <time>2012-05-27T14:39:10Z</time>
      </trkpt>
      <trkpt lat="44.31826" lon="5.87519">
        <ele>726.89</ele>
        <time>2012-05-27T14:39:11Z</time>
      </trkpt>
      <trkpt lat="44.31784" lon="5.87473">
        <ele>729.78</ele>
        <time>2012-05-27T14:39:25Z</time>
      </trkpt>
      <trkpt lat="44.31725" lon="5.87499">
        <ele>725.45</ele>
        <time>2012-05-27T14:39:41Z</time>
      </trkpt>
      <trkpt lat="44.31706" lon="5.87501">
        <ele>722.57</ele>
        <time>2012-05-27T14:39:44Z</time>
      </trkpt>
      <trkpt lat="44.3168" lon="5.87495">
        <ele>718.24</ele>
        <time>2012-05-27T14:39:51Z</time>
      </trkpt>
      <trkpt lat="44.31678" lon="5.87496">
        <ele>718.24</ele>
        <time>2012-05-27T14:39:52Z</time>
      </trkpt>
      <trkpt lat="44.31683" lon="5.87522">
        <ele>714.88</ele>
        <time>2012-05-27T14:39:59Z</time>
      </trkpt>
      <trkpt lat="44.31679" lon="5.87525">
        <ele>713.44</ele>
        <time>2012-05-27T14:40:03Z</time>
      </trkpt>
      <trkpt lat="44.31656" lon="5.87532">
        <ele>708.15</ele>
        <time>2012-05-27T14:40:14Z</time>
      </trkpt>
      <trkpt lat="44.31645" lon="5.87531">
        <ele>704.3</ele>
        <time>2012-05-27T14:40:18Z</time>
      </trkpt>
      <trkpt lat="44.31635" lon="5.87527">
        <ele>700.46</ele>
        <time>2012-05-27T14:40:21Z</time>
      </trkpt>
      <trkpt lat="44.31623" lon="5.87523">
        <ele>697.09</ele>
        <time>2012-05-27T14:40:25Z</time>
      </trkpt>
      <trkpt lat="44.31621" lon="5.87521">
        <ele>695.65</ele>
        <time>2012-05-27T14:40:36Z</time>
      </trkpt>
      <trkpt lat="44.31619" lon="5.87517">
        <ele>695.17</ele>
        <time>2012-05-27T14:40:46Z</time>
      </trkpt>
      <trkpt lat="44.31595" lon="5.87528">
        <ele>688.92</ele>
        <time>2012-05-27T14:40:56Z</time>
      </trkpt>
      <trkpt lat="44.3158" lon="5.87533">
        <ele>686.04</ele>
        <time>2012-05-27T14:41:00Z</time>
      </trkpt>
      <trkpt lat="44.31566" lon="5.87535">
        <ele>683.15</ele>
        <time>2012-05-27T14:41:03Z</time>
      </trkpt>
      <trkpt lat="44.31563" lon="5.87538">
        <ele>683.15</ele>
        <time>2012-05-27T14:41:04Z</time>
      </trkpt>
      <trkpt lat="44.31541" lon="5.87562">
        <ele>676.42</ele>
        <time>2012-05-27T14:41:15Z</time>
      </trkpt>
      <trkpt lat="44.31538" lon="5.87563">
        <ele>677.87</ele>
        <time>2012-05-27T14:41:16Z</time>
      </trkpt>
      <trkpt lat="44.31503" lon="5.87566">
        <ele>673.06</ele>
        <time>2012-05-27T14:41:25Z</time>
      </trkpt>
      <trkpt lat="44.31472" lon="5.87566">
        <ele>667.77</ele>
        <time>2012-05-27T14:41:55Z</time>
      </trkpt>
      <trkpt lat="44.31444" lon="5.87561">
        <ele>664.41</ele>
        <time>2012-05-27T14:42:01Z</time>
      </trkpt>
      <trkpt lat="44.31417" lon="5.87563">
        <ele>659.6</ele>
        <time>2012-05-27T14:42:07Z</time>
      </trkpt>
      <trkpt lat="44.31396" lon="5.87567">
        <ele>654.8</ele>
        <time>2012-05-27T14:42:13Z</time>
      </trkpt>
      <trkpt lat="44.3138" lon="5.87569">
        <ele>651.43</ele>
        <time>2012-05-27T14:42:17Z</time>
      </trkpt>
      <trkpt lat="44.31361" lon="5.87568">
        <ele>648.07</ele>
        <time>2012-05-27T14:42:22Z</time>
      </trkpt>
      <trkpt lat="44.31349" lon="5.87573">
        <ele>644.22</ele>
        <time>2012-05-27T14:42:27Z</time>
      </trkpt>
      <trkpt lat="44.31343" lon="5.87571">
        <ele>644.22</ele>
        <time>2012-05-27T14:42:42Z</time>
      </trkpt>
      <trkpt lat="44.31341" lon="5.87562">
        <ele>645.18</ele>
        <time>2012-05-27T14:42:46Z</time>
      </trkpt>
      <trkpt lat="44.3136" lon="5.87481">
        <ele>650.95</ele>
        <time>2012-05-27T14:43:14Z</time>
      </trkpt>
      <trkpt lat="44.31366" lon="5.87455">
        <ele>650.95</ele>
        <time>2012-05-27T14:43:22Z</time>
      </trkpt>
      <trkpt lat="44.31372" lon="5.87448">
        <ele>650.95</ele>
        <time>2012-05-27T14:43:24Z</time>
      </trkpt>
      <trkpt lat="44.31382" lon="5.87437">
        <ele>649.99</ele>
        <time>2012-05-27T14:43:27Z</time>
      </trkpt>
      <trkpt lat="44.3138" lon="5.8742">
        <ele>648.55</ele>
        <time>2012-05-27T14:43:30Z</time>
      </trkpt>
      <trkpt lat="44.31377" lon="5.87417">
        <ele>648.55</ele>
        <time>2012-05-27T14:43:31Z</time>
      </trkpt>
      <trkpt lat="44.31375" lon="5.87416">
        <ele>648.07</ele>
        <time>2012-05-27T14:43:32Z</time>
      </trkpt>
      <trkpt lat="44.3137" lon="5.87275">
        <ele>648.07</ele>
        <time>2012-05-27T14:44:00Z</time>
      </trkpt>
      <trkpt lat="44.31369" lon="5.87139">
        <ele>651.91</ele>
        <time>2012-05-27T14:44:35Z</time>
      </trkpt>
      <trkpt lat="44.31358" lon="5.87119">
        <ele>651.43</ele>
        <time>2012-05-27T14:44:40Z</time>
      </trkpt>
      <trkpt lat="44.31354" lon="5.87116">
        <ele>650.95</ele>
        <time>2012-05-27T14:44:41Z</time>
      </trkpt>
      <trkpt lat="44.31322" lon="5.87075">
        <ele>649.03</ele>
        <time>2012-05-27T14:44:52Z</time>
      </trkpt>
      <trkpt lat="44.31327" lon="5.8707">
        <ele>649.51</ele>
        <time>2012-05-27T14:45:17Z</time>
      </trkpt>
      <trkpt lat="44.31342" lon="5.8705">
        <ele>651.43</ele>
        <time>2012-05-27T14:45:31Z</time>
      </trkpt>
      <trkpt lat="44.31352" lon="5.87004">
        <ele>654.8</ele>
        <time>2012-05-27T14:45:48Z</time>
      </trkpt>
      <trkpt lat="44.31388" lon="5.86927">
        <ele>660.56</ele>
        <time>2012-05-27T14:46:20Z</time>
      </trkpt>
      <trkpt lat="44.31389" lon="5.86924">
        <ele>660.56</ele>
        <time>2012-05-27T14:46:21Z</time>
      </trkpt>
      <trkpt lat="44.31398" lon="5.8692">
        <ele>661.52</ele>
        <time>2012-05-27T14:46:43Z</time>
      </trkpt>
      <trkpt lat="44.31388" lon="5.8693">
        <ele>660.56</ele>
        <time>2012-05-27T14:46:47Z</time>
      </trkpt>
      <trkpt lat="44.31384" lon="5.86935">
        <ele>660.56</ele>
        <time>2012-05-27T14:46:48Z</time>
      </trkpt>
      <trkpt lat="44.31361" lon="5.8698">
        <ele>658.16</ele>
        <time>2012-05-27T14:46:54Z</time>
      </trkpt>
      <trkpt lat="44.31354" lon="5.87001">
        <ele>657.2</ele>
        <time>2012-05-27T14:46:56Z</time>
      </trkpt>
      <trkpt lat="44.31344" lon="5.87047">
        <ele>653.83</ele>
        <time>2012-05-27T14:47:00Z</time>
      </trkpt>
      <trkpt lat="44.31325" lon="5.87076">
        <ele>651.91</ele>
        <time>2012-05-27T14:47:04Z</time>
      </trkpt>
      <trkpt lat="44.3129" lon="5.87107">
        <ele>648.07</ele>
        <time>2012-05-27T14:47:09Z</time>
      </trkpt>
      <trkpt lat="44.31268" lon="5.87125">
        <ele>644.22</ele>
        <time>2012-05-27T14:47:12Z</time>
      </trkpt>
      <trkpt lat="44.31235" lon="5.87141">
        <ele>640.86</ele>
        <time>2012-05-27T14:47:16Z</time>
      </trkpt>
      <trkpt lat="44.31192" lon="5.87149">
        <ele>637.49</ele>
        <time>2012-05-27T14:47:21Z</time>
      </trkpt>
      <trkpt lat="44.31159" lon="5.87155">
        <ele>636.05</ele>
        <time>2012-05-27T14:47:25Z</time>
      </trkpt>
      <trkpt lat="44.31152" lon="5.87154">
        <ele>636.05</ele>
        <time>2012-05-27T14:47:26Z</time>
      </trkpt>
      <trkpt lat="44.31129" lon="5.87128">
        <ele>635.09</ele>
        <time>2012-05-27T14:47:30Z</time>
      </trkpt>
      <trkpt lat="44.31098" lon="5.87054">
        <ele>633.17</ele>
        <time>2012-05-27T14:47:38Z</time>
      </trkpt>
      <trkpt lat="44.31072" lon="5.8703">
        <ele>631.72</ele>
        <time>2012-05-27T14:47:42Z</time>
      </trkpt>
      <trkpt lat="44.30966" lon="5.86974">
        <ele>630.28</ele>
        <time>2012-05-27T14:47:57Z</time>
      </trkpt>
      <trkpt lat="44.30926" lon="5.86992">
        <ele>630.28</ele>
        <time>2012-05-27T14:48:05Z</time>
      </trkpt>
      <trkpt lat="44.30899" lon="5.87043">
        <ele>632.2</ele>
        <time>2012-05-27T14:48:15Z</time>
      </trkpt>
      <trkpt lat="44.30849" lon="5.87088">
        <ele>634.13</ele>
        <time>2012-05-27T14:48:30Z</time>
      </trkpt>
      <trkpt lat="44.30818" lon="5.87078">
        <ele>635.09</ele>
        <time>2012-05-27T14:48:38Z</time>
      </trkpt>
      <trkpt lat="44.30795" lon="5.8708">
        <ele>638.45</ele>
        <time>2012-05-27T14:48:49Z</time>
      </trkpt>
      <trkpt lat="44.30747" lon="5.87105">
        <ele>641.82</ele>
        <time>2012-05-27T14:49:12Z</time>
      </trkpt>
      <trkpt lat="44.30737" lon="5.87116">
        <ele>641.34</ele>
        <time>2012-05-27T14:49:16Z</time>
      </trkpt>
      <trkpt lat="44.30685" lon="5.87198">
        <ele>645.18</ele>
        <time>2012-05-27T14:49:40Z</time>
      </trkpt>
      <trkpt lat="44.30594" lon="5.87345">
        <ele>650.47</ele>
        <time>2012-05-27T14:50:20Z</time>
      </trkpt>
      <trkpt lat="44.30535" lon="5.87484">
        <ele>655.76</ele>
        <time>2012-05-27T14:50:57Z</time>
      </trkpt>
      <trkpt lat="44.30524" lon="5.87546">
        <ele>658.64</ele>
        <time>2012-05-27T14:51:15Z</time>
      </trkpt>
      <trkpt lat="44.30466" lon="5.87516">
        <ele>662.01</ele>
        <time>2012-05-27T14:51:40Z</time>
      </trkpt>
      <trkpt lat="44.30398" lon="5.87529">
        <ele>662.97</ele>
        <time>2012-05-27T14:52:00Z</time>
      </trkpt>
      <trkpt lat="44.30207" lon="5.87579">
        <ele>659.6</ele>
        <time>2012-05-27T14:52:34Z</time>
      </trkpt>
      <trkpt lat="44.30189" lon="5.87601">
        <ele>658.16</ele>
        <time>2012-05-27T14:52:37Z</time>
      </trkpt>
      <trkpt lat="44.30166" lon="5.87631">
        <ele>656.72</ele>
        <time>2012-05-27T14:52:41Z</time>
      </trkpt>
      <trkpt lat="44.30159" lon="5.87636">
        <ele>657.2</ele>
        <time>2012-05-27T14:52:42Z</time>
      </trkpt>
      <trkpt lat="44.30132" lon="5.87642">
        <ele>657.68</ele>
        <time>2012-05-27T14:52:46Z</time>
      </trkpt>
      <trkpt lat="44.30121" lon="5.87639">
        <ele>658.64</ele>
        <time>2012-05-27T14:52:48Z</time>
      </trkpt>
      <trkpt lat="44.30027" lon="5.87601">
        <ele>657.2</ele>
        <time>2012-05-27T14:53:05Z</time>
      </trkpt>
      <trkpt lat="44.29975" lon="5.87552">
        <ele>653.83</ele>
        <time>2012-05-27T14:53:13Z</time>
      </trkpt>
      <trkpt lat="44.29867" lon="5.87511">
        <ele>649.99</ele>
        <time>2012-05-27T14:53:26Z</time>
      </trkpt>
      <trkpt lat="44.29805" lon="5.87497">
        <ele>647.59</ele>
        <time>2012-05-27T14:53:34Z</time>
      </trkpt>
      <trkpt lat="44.29816" lon="5.87474">
        <ele>646.62</ele>
        <time>2012-05-27T14:53:38Z</time>
      </trkpt>
      <trkpt lat="44.29823" lon="5.87473">
        <ele>646.62</ele>
        <time>2012-05-27T14:53:39Z</time>
      </trkpt>
      <trkpt lat="44.29844" lon="5.87465">
        <ele>646.62</ele>
        <time>2012-05-27T14:53:42Z</time>
      </trkpt>
      <trkpt lat="44.29863" lon="5.87443">
        <ele>646.14</ele>
        <time>2012-05-27T14:53:46Z</time>
      </trkpt>
      <trkpt lat="44.29909" lon="5.87365">
        <ele>650.95</ele>
        <time>2012-05-27T14:54:06Z</time>
      </trkpt>
      <trkpt lat="44.29933" lon="5.87348">
        <ele>654.31</ele>
        <time>2012-05-27T14:54:17Z</time>
      </trkpt>
      <trkpt lat="44.29936" lon="5.87348">
        <ele>653.83</ele>
        <time>2012-05-27T14:54:18Z</time>
      </trkpt>
      <trkpt lat="44.29969" lon="5.8734">
        <ele>657.2</ele>
        <time>2012-05-27T14:54:34Z</time>
      </trkpt>
      <trkpt lat="44.29993" lon="5.87323">
        <ele>661.04</ele>
        <time>2012-05-27T14:54:50Z</time>
      </trkpt>
      <trkpt lat="44.29969" lon="5.87251">
        <ele>665.85</ele>
        <time>2012-05-27T14:55:19Z</time>
      </trkpt>
      <trkpt lat="44.29931" lon="5.8721">
        <ele>669.22</ele>
        <time>2012-05-27T14:55:39Z</time>
      </trkpt>
      <trkpt lat="44.299" lon="5.87156">
        <ele>675.46</ele>
        <time>2012-05-27T14:56:07Z</time>
      </trkpt>
      <trkpt lat="44.29889" lon="5.87036">
        <ele>677.87</ele>
        <time>2012-05-27T14:56:43Z</time>
      </trkpt>
      <trkpt lat="44.29887" lon="5.87014">
        <ele>678.35</ele>
        <time>2012-05-27T14:58:03Z</time>
      </trkpt>
      <trkpt lat="44.29887" lon="5.87014">
        <ele>677.87</ele>
        <time>2012-05-27T14:58:17Z</time>
      </trkpt>
      <trkpt lat="44.29871" lon="5.86995">
        <ele>674.02</ele>
        <time>2012-05-27T14:58:25Z</time>
      </trkpt>
      <trkpt lat="44.29839" lon="5.86956">
        <ele>669.7</ele>
        <time>2012-05-27T14:58:36Z</time>
      </trkpt>
      <trkpt lat="44.29837" lon="5.86948">
        <ele>669.7</ele>
        <time>2012-05-27T14:58:40Z</time>
      </trkpt>
      <trkpt lat="44.29822" lon="5.86938">
        <ele>670.18</ele>
        <time>2012-05-27T14:59:02Z</time>
      </trkpt>
      <trkpt lat="44.29822" lon="5.86939">
        <ele>670.66</ele>
        <time>2012-05-27T14:59:14Z</time>
      </trkpt>
      <trkpt lat="44.29771" lon="5.86939">
        <ele>670.18</ele>
        <time>2012-05-27T14:59:36Z</time>
      </trkpt>
      <trkpt lat="44.29749" lon="5.86963">
        <ele>665.37</ele>
        <time>2012-05-27T14:59:46Z</time>
      </trkpt>
      <trkpt lat="44.29706" lon="5.86989">
        <ele>659.6</ele>
        <time>2012-05-27T14:59:59Z</time>
      </trkpt>
      <trkpt lat="44.29676" lon="5.86997">
        <ele>656.72</ele>
        <time>2012-05-27T15:00:10Z</time>
      </trkpt>
      <trkpt lat="44.29641" lon="5.86996">
        <ele>650.95</ele>
        <time>2012-05-27T15:00:27Z</time>
      </trkpt>
      <trkpt lat="44.29636" lon="5.86992">
        <ele>649.99</ele>
        <time>2012-05-27T15:00:32Z</time>
      </trkpt>
      <trkpt lat="44.29622" lon="5.86997">
        <ele>650.47</ele>
        <time>2012-05-27T15:01:03Z</time>
      </trkpt>
      <trkpt lat="44.29604" lon="5.86994">
        <ele>651.43</ele>
        <time>2012-05-27T15:01:18Z</time>
      </trkpt>
      <trkpt lat="44.29563" lon="5.86986">
        <ele>649.03</ele>
        <time>2012-05-27T15:01:33Z</time>
      </trkpt>
      <trkpt lat="44.29553" lon="5.86976">
        <ele>649.03</ele>
        <time>2012-05-27T15:01:40Z</time>
      </trkpt>
      <trkpt lat="44.29489" lon="5.86972">
        <ele>647.59</ele>
        <time>2012-05-27T15:02:08Z</time>
      </trkpt>
      <trkpt lat="44.29447" lon="5.86983">
        <ele>645.66</ele>
        <time>2012-05-27T15:02:42Z</time>
      </trkpt>
      <trkpt lat="44.2943" lon="5.86995">
        <ele>641.82</ele>
        <time>2012-05-27T15:02:52Z</time>
      </trkpt>
      <trkpt lat="44.29418" lon="5.86992">
        <ele>642.3</ele>
        <time>2012-05-27T15:02:58Z</time>
      </trkpt>
      <trkpt lat="44.29359" lon="5.87003">
        <ele>637.01</ele>
        <time>2012-05-27T15:03:14Z</time>
      </trkpt>
      <trkpt lat="44.29354" lon="5.87002">
        <ele>637.01</ele>
        <time>2012-05-27T15:03:15Z</time>
      </trkpt>
      <trkpt lat="44.29324" lon="5.86977">
        <ele>636.05</ele>
        <time>2012-05-27T15:03:26Z</time>
      </trkpt>
      <trkpt lat="44.29276" lon="5.86947">
        <ele>636.05</ele>
        <time>2012-05-27T15:03:45Z</time>
      </trkpt>
      <trkpt lat="44.291" lon="5.86884">
        <ele>635.09</ele>
        <time>2012-05-27T15:04:44Z</time>
      </trkpt>
      <trkpt lat="44.29039" lon="5.86868">
        <ele>635.57</ele>
        <time>2012-05-27T15:05:02Z</time>
      </trkpt>
      <trkpt lat="44.28984" lon="5.86931">
        <ele>635.09</ele>
        <time>2012-05-27T15:05:27Z</time>
      </trkpt>
      <trkpt lat="44.28896" lon="5.8708">
        <ele>635.57</ele>
        <time>2012-05-27T15:06:18Z</time>
      </trkpt>
      <trkpt lat="44.28867" lon="5.8708">
        <ele>636.53</ele>
        <time>2012-05-27T15:06:32Z</time>
      </trkpt>
      <trkpt lat="44.28846" lon="5.87086">
        <ele>640.86</ele>
        <time>2012-05-27T15:07:10Z</time>
      </trkpt>
      <trkpt lat="44.28813" lon="5.87065">
        <ele>642.78</ele>
        <time>2012-05-27T15:07:31Z</time>
      </trkpt>
      <trkpt lat="44.28811" lon="5.87064">
        <ele>642.78</ele>
        <time>2012-05-27T15:07:32Z</time>
      </trkpt>
      <trkpt lat="44.28767" lon="5.8703">
        <ele>646.14</ele>
        <time>2012-05-27T15:07:59Z</time>
      </trkpt>
      <trkpt lat="44.2874" lon="5.87015">
        <ele>648.07</ele>
        <time>2012-05-27T15:08:27Z</time>
      </trkpt>
      <trkpt lat="44.28728" lon="5.8701">
        <ele>651.43</ele>
        <time>2012-05-27T15:08:41Z</time>
      </trkpt>
      <trkpt lat="44.2869" lon="5.87006">
        <ele>656.24</ele>
        <time>2012-05-27T15:09:16Z</time>
      </trkpt>
      <trkpt lat="44.28678" lon="5.87009">
        <ele>660.08</ele>
        <time>2012-05-27T15:09:33Z</time>
      </trkpt>
      <trkpt lat="44.28663" lon="5.87011">
        <ele>664.41</ele>
        <time>2012-05-27T15:09:53Z</time>
      </trkpt>
      <trkpt lat="44.28628" lon="5.87014">
        <ele>668.73</ele>
        <time>2012-05-27T15:10:37Z</time>
      </trkpt>
      <trkpt lat="44.28637" lon="5.87042">
        <ele>673.54</ele>
        <time>2012-05-27T15:11:13Z</time>
      </trkpt>
      <trkpt lat="44.28649" lon="5.87086">
        <ele>676.91</ele>
        <time>2012-05-27T15:11:50Z</time>
      </trkpt>
      <trkpt lat="44.2866" lon="5.87092">
        <ele>677.39</ele>
        <time>2012-05-27T15:12:04Z</time>
      </trkpt>
      <trkpt lat="44.28677" lon="5.87107">
        <ele>677.87</ele>
        <time>2012-05-27T15:12:16Z</time>
      </trkpt>
      <trkpt lat="44.28755" lon="5.87189">
        <ele>679.31</ele>
        <time>2012-05-27T15:12:58Z</time>
      </trkpt>
      <trkpt lat="44.28783" lon="5.87226">
        <ele>680.75</ele>
        <time>2012-05-27T15:13:16Z</time>
      </trkpt>
      <trkpt lat="44.28778" lon="5.87244">
        <ele>680.75</ele>
        <time>2012-05-27T15:13:23Z</time>
      </trkpt>
      <trkpt lat="44.28787" lon="5.87297">
        <ele>681.71</ele>
        <time>2012-05-27T15:13:40Z</time>
      </trkpt>
      <trkpt lat="44.28824" lon="5.87351">
        <ele>681.23</ele>
        <time>2012-05-27T15:14:01Z</time>
      </trkpt>
      <trkpt lat="44.28823" lon="5.87361">
        <ele>680.27</ele>
        <time>2012-05-27T15:14:03Z</time>
      </trkpt>
      <trkpt lat="44.28813" lon="5.87407">
        <ele>676.42</ele>
        <time>2012-05-27T15:14:17Z</time>
      </trkpt>
      <trkpt lat="44.28812" lon="5.87409">
        <ele>676.42</ele>
        <time>2012-05-27T15:14:18Z</time>
      </trkpt>
      <trkpt lat="44.28795" lon="5.87435">
        <ele>674.98</ele>
        <time>2012-05-27T15:14:29Z</time>
      </trkpt>
      <trkpt lat="44.28796" lon="5.87453">
        <ele>674.02</ele>
        <time>2012-05-27T15:14:44Z</time>
      </trkpt>
      <trkpt lat="44.28816" lon="5.87479">
        <ele>673.06</ele>
        <time>2012-05-27T15:14:59Z</time>
      </trkpt>
      <trkpt lat="44.2886" lon="5.87493">
        <ele>672.1</ele>
        <time>2012-05-27T15:15:19Z</time>
      </trkpt>
      <trkpt lat="44.28907" lon="5.87484">
        <ele>674.02</ele>
        <time>2012-05-27T15:15:44Z</time>
      </trkpt>
      <trkpt lat="44.28939" lon="5.87464">
        <ele>675.46</ele>
        <time>2012-05-27T15:15:59Z</time>
      </trkpt>
      <trkpt lat="44.28971" lon="5.87442">
        <ele>673.54</ele>
        <time>2012-05-27T15:16:11Z</time>
      </trkpt>
      <trkpt lat="44.28973" lon="5.8744">
        <ele>672.58</ele>
        <time>2012-05-27T15:16:12Z</time>
      </trkpt>
      <trkpt lat="44.28985" lon="5.87438">
        <ele>672.58</ele>
        <time>2012-05-27T15:16:16Z</time>
      </trkpt>
      <trkpt lat="44.28991" lon="5.87438">
        <ele>672.58</ele>
        <time>2012-05-27T15:16:20Z</time>
      </trkpt>
      <trkpt lat="44.28999" lon="5.87466">
        <ele>674.5</ele>
        <time>2012-05-27T15:16:48Z</time>
      </trkpt>
      <trkpt lat="44.28995" lon="5.87517">
        <ele>675.46</ele>
        <time>2012-05-27T15:17:05Z</time>
      </trkpt>
      <trkpt lat="44.29001" lon="5.87569">
        <ele>676.42</ele>
        <time>2012-05-27T15:17:19Z</time>
      </trkpt>
      <trkpt lat="44.29006" lon="5.87608">
        <ele>677.87</ele>
        <time>2012-05-27T15:17:33Z</time>
      </trkpt>
      <trkpt lat="44.29009" lon="5.87673">
        <ele>677.87</ele>
        <time>2012-05-27T15:17:55Z</time>
      </trkpt>
      <trkpt lat="44.28984" lon="5.87665">
        <ele>677.87</ele>
        <time>2012-05-27T15:18:05Z</time>
      </trkpt>
      <trkpt lat="44.28976" lon="5.87662">
        <ele>677.39</ele>
        <time>2012-05-27T15:18:07Z</time>
      </trkpt>
      <trkpt lat="44.28883" lon="5.87629">
        <ele>674.02</ele>
        <time>2012-05-27T15:18:27Z</time>
      </trkpt>
      <trkpt lat="44.2884" lon="5.87613">
        <ele>673.06</ele>
        <time>2012-05-27T15:18:36Z</time>
      </trkpt>
      <trkpt lat="44.28756" lon="5.87606">
        <ele>672.1</ele>
        <time>2012-05-27T15:19:01Z</time>
      </trkpt>
      <trkpt lat="44.28741" lon="5.87628">
        <ele>670.18</ele>
        <time>2012-05-27T15:19:07Z</time>
      </trkpt>
      <trkpt lat="44.28733" lon="5.87708">
        <ele>668.73</ele>
        <time>2012-05-27T15:19:26Z</time>
      </trkpt>
      <trkpt lat="44.28734" lon="5.87728">
        <ele>668.25</ele>
        <time>2012-05-27T15:19:30Z</time>
      </trkpt>
      <trkpt lat="44.28715" lon="5.87803">
        <ele>667.77</ele>
        <time>2012-05-27T15:19:45Z</time>
      </trkpt>
      <trkpt lat="44.28743" lon="5.87991">
        <ele>667.29</ele>
        <time>2012-05-27T15:20:28Z</time>
      </trkpt>
      <trkpt lat="44.28821" lon="5.88171">
        <ele>668.25</ele>
        <time>2012-05-27T15:21:04Z</time>
      </trkpt>
      <trkpt lat="44.28862" lon="5.88295">
        <ele>666.33</ele>
        <time>2012-05-27T15:21:27Z</time>
      </trkpt>
      <trkpt lat="44.28871" lon="5.88321">
        <ele>665.85</ele>
        <time>2012-05-27T15:21:31Z</time>
      </trkpt>
      <trkpt lat="44.28873" lon="5.88327">
        <ele>665.85</ele>
        <time>2012-05-27T15:21:32Z</time>
      </trkpt>
      <trkpt lat="44.28895" lon="5.88374">
        <ele>665.37</ele>
        <time>2012-05-27T15:21:41Z</time>
      </trkpt>
      <trkpt lat="44.2892" lon="5.8852">
        <ele>664.41</ele>
        <time>2012-05-27T15:22:06Z</time>
      </trkpt>
      <trkpt lat="44.28913" lon="5.88564">
        <ele>659.6</ele>
        <time>2012-05-27T15:22:12Z</time>
      </trkpt>
      <trkpt lat="44.28903" lon="5.88618">
        <ele>653.83</ele>
        <time>2012-05-27T15:22:18Z</time>
      </trkpt>
      <trkpt lat="44.28897" lon="5.88663">
        <ele>649.99</ele>
        <time>2012-05-27T15:22:22Z</time>
      </trkpt>
      <trkpt lat="44.28886" lon="5.88698">
        <ele>649.03</ele>
        <time>2012-05-27T15:22:26Z</time>
      </trkpt>
      <trkpt lat="44.28882" lon="5.88706">
        <ele>648.55</ele>
        <time>2012-05-27T15:22:27Z</time>
      </trkpt>
      <trkpt lat="44.28871" lon="5.88724">
        <ele>645.18</ele>
        <time>2012-05-27T15:22:30Z</time>
      </trkpt>
      <trkpt lat="44.28868" lon="5.88738">
        <ele>644.22</ele>
        <time>2012-05-27T15:22:32Z</time>
      </trkpt>
      <trkpt lat="44.28868" lon="5.88752">
        <ele>641.82</ele>
        <time>2012-05-27T15:22:35Z</time>
      </trkpt>
      <trkpt lat="44.28884" lon="5.88799">
        <ele>638.45</ele>
        <time>2012-05-27T15:22:43Z</time>
      </trkpt>
      <trkpt lat="44.28903" lon="5.88825">
        <ele>635.09</ele>
        <time>2012-05-27T15:22:47Z</time>
      </trkpt>
      <trkpt lat="44.28917" lon="5.88847">
        <ele>632.2</ele>
        <time>2012-05-27T15:22:50Z</time>
      </trkpt>
      <trkpt lat="44.28925" lon="5.8887">
        <ele>628.36</ele>
        <time>2012-05-27T15:22:53Z</time>
      </trkpt>
      <trkpt lat="44.28933" lon="5.88892">
        <ele>624.51</ele>
        <time>2012-05-27T15:22:55Z</time>
      </trkpt>
      <trkpt lat="44.28949" lon="5.88927">
        <ele>620.67</ele>
        <time>2012-05-27T15:22:58Z</time>
      </trkpt>
      <trkpt lat="44.2896" lon="5.88963">
        <ele>615.38</ele>
        <time>2012-05-27T15:23:01Z</time>
      </trkpt>
      <trkpt lat="44.28963" lon="5.88975">
        <ele>615.38</ele>
        <time>2012-05-27T15:23:02Z</time>
      </trkpt>
      <trkpt lat="44.28968" lon="5.89001">
        <ele>612.02</ele>
        <time>2012-05-27T15:23:04Z</time>
      </trkpt>
      <trkpt lat="44.28971" lon="5.8904">
        <ele>608.65</ele>
        <time>2012-05-27T15:23:07Z</time>
      </trkpt>
      <trkpt lat="44.28974" lon="5.89105">
        <ele>605.77</ele>
        <time>2012-05-27T15:23:14Z</time>
      </trkpt>
      <trkpt lat="44.28983" lon="5.89123">
        <ele>605.77</ele>
        <time>2012-05-27T15:23:16Z</time>
      </trkpt>
      <trkpt lat="44.28994" lon="5.89141">
        <ele>604.33</ele>
        <time>2012-05-27T15:23:18Z</time>
      </trkpt>
      <trkpt lat="44.29033" lon="5.89192">
        <ele>600.48</ele>
        <time>2012-05-27T15:23:24Z</time>
      </trkpt>
      <trkpt lat="44.29065" lon="5.8924">
        <ele>597.12</ele>
        <time>2012-05-27T15:23:29Z</time>
      </trkpt>
      <trkpt lat="44.29094" lon="5.89267">
        <ele>594.71</ele>
        <time>2012-05-27T15:23:33Z</time>
      </trkpt>
      <trkpt lat="44.29145" lon="5.89306">
        <ele>590.87</ele>
        <time>2012-05-27T15:23:40Z</time>
      </trkpt>
      <trkpt lat="44.29164" lon="5.89324">
        <ele>589.91</ele>
        <time>2012-05-27T15:23:43Z</time>
      </trkpt>
      <trkpt lat="44.29182" lon="5.89359">
        <ele>588.46</ele>
        <time>2012-05-27T15:23:47Z</time>
      </trkpt>
      <trkpt lat="44.29186" lon="5.89369">
        <ele>587.98</ele>
        <time>2012-05-27T15:23:48Z</time>
      </trkpt>
      <trkpt lat="44.29256" lon="5.89558">
        <ele>584.62</ele>
        <time>2012-05-27T15:24:09Z</time>
      </trkpt>
      <trkpt lat="44.29257" lon="5.89566">
        <ele>584.62</ele>
        <time>2012-05-27T15:24:10Z</time>
      </trkpt>
      <trkpt lat="44.29231" lon="5.89646">
        <ele>587.5</ele>
        <time>2012-05-27T15:24:30Z</time>
      </trkpt>
      <trkpt lat="44.29226" lon="5.89681">
        <ele>590.39</ele>
        <time>2012-05-27T15:24:47Z</time>
      </trkpt>
      <trkpt lat="44.29226" lon="5.89686">
        <ele>590.39</ele>
        <time>2012-05-27T15:24:49Z</time>
      </trkpt>
      <trkpt lat="44.29176" lon="5.89753">
        <ele>587.5</ele>
        <time>2012-05-27T15:25:15Z</time>
      </trkpt>
      <trkpt lat="44.29151" lon="5.89759">
        <ele>585.1</ele>
        <time>2012-05-27T15:25:24Z</time>
      </trkpt>
      <trkpt lat="44.29144" lon="5.89756">
        <ele>584.14</ele>
        <time>2012-05-27T15:25:27Z</time>
      </trkpt>
      <trkpt lat="44.29118" lon="5.89764">
        <ele>583.66</ele>
        <time>2012-05-27T15:26:11Z</time>
      </trkpt>
      <trkpt lat="44.29076" lon="5.89757">
        <ele>581.25</ele>
        <time>2012-05-27T15:26:23Z</time>
      </trkpt>
      <trkpt lat="44.29056" lon="5.89755">
        <ele>580.29</ele>
        <time>2012-05-27T15:27:00Z</time>
      </trkpt>
      <trkpt lat="44.28977" lon="5.89751">
        <ele>578.85</ele>
        <time>2012-05-27T15:27:12Z</time>
      </trkpt>
      <trkpt lat="44.28957" lon="5.89749">
        <ele>579.33</ele>
        <time>2012-05-27T15:27:15Z</time>
      </trkpt>
      <trkpt lat="44.28883" lon="5.89727">
        <ele>575.49</ele>
        <time>2012-05-27T15:27:25Z</time>
      </trkpt>
      <trkpt lat="44.28832" lon="5.89625">
        <ele>573.08</ele>
        <time>2012-05-27T15:27:37Z</time>
      </trkpt>
      <trkpt lat="44.2883" lon="5.89616">
        <ele>573.08</ele>
        <time>2012-05-27T15:27:38Z</time>
      </trkpt>
      <trkpt lat="44.2883" lon="5.89587">
        <ele>573.08</ele>
        <time>2012-05-27T15:27:41Z</time>
      </trkpt>
      <trkpt lat="44.28834" lon="5.89561">
        <ele>573.56</ele>
        <time>2012-05-27T15:27:44Z</time>
      </trkpt>
      <trkpt lat="44.2882" lon="5.89539">
        <ele>574.53</ele>
        <time>2012-05-27T15:27:49Z</time>
      </trkpt>
      <trkpt lat="44.28801" lon="5.89527">
        <ele>574.53</ele>
        <time>2012-05-27T15:27:53Z</time>
      </trkpt>
      <trkpt lat="44.28791" lon="5.89499">
        <ele>575.97</ele>
        <time>2012-05-27T15:27:59Z</time>
      </trkpt>
      <trkpt lat="44.28783" lon="5.89437">
        <ele>580.29</ele>
        <time>2012-05-27T15:28:20Z</time>
      </trkpt>
      <trkpt lat="44.28782" lon="5.89435">
        <ele>580.77</ele>
        <time>2012-05-27T15:28:44Z</time>
      </trkpt>
      <trkpt lat="44.28787" lon="5.89293">
        <ele>581.25</ele>
        <time>2012-05-27T15:29:12Z</time>
      </trkpt>
      <trkpt lat="44.28753" lon="5.89038">
        <ele>583.66</ele>
        <time>2012-05-27T15:29:54Z</time>
      </trkpt>
      <trkpt lat="44.28687" lon="5.88919">
        <ele>586.06</ele>
        <time>2012-05-27T15:30:23Z</time>
      </trkpt>
      <trkpt lat="44.28683" lon="5.88916">
        <ele>585.58</ele>
        <time>2012-05-27T15:30:24Z</time>
      </trkpt>
      <trkpt lat="44.28572" lon="5.88834">
        <ele>583.66</ele>
        <time>2012-05-27T15:30:48Z</time>
      </trkpt>
      <trkpt lat="44.28553" lon="5.88852">
        <ele>583.66</ele>
        <time>2012-05-27T15:30:53Z</time>
      </trkpt>
      <trkpt lat="44.28537" lon="5.88903">
        <ele>583.18</ele>
        <time>2012-05-27T15:31:01Z</time>
      </trkpt>
      <trkpt lat="44.28511" lon="5.88906">
        <ele>582.22</ele>
        <time>2012-05-27T15:31:07Z</time>
      </trkpt>
      <trkpt lat="44.28319" lon="5.88776">
        <ele>576.93</ele>
        <time>2012-05-27T15:31:49Z</time>
      </trkpt>
      <trkpt lat="44.28155" lon="5.88674">
        <ele>573.56</ele>
        <time>2012-05-27T15:32:27Z</time>
      </trkpt>
      <trkpt lat="44.28097" lon="5.8864">
        <ele>570.2</ele>
        <time>2012-05-27T15:32:40Z</time>
      </trkpt>
      <trkpt lat="44.2809" lon="5.88637">
        <ele>570.2</ele>
        <time>2012-05-27T15:32:42Z</time>
      </trkpt>
      <trkpt lat="44.28088" lon="5.88644">
        <ele>568.76</ele>
        <time>2012-05-27T15:32:45Z</time>
      </trkpt>
      <trkpt lat="44.28096" lon="5.88678">
        <ele>565.39</ele>
        <time>2012-05-27T15:32:53Z</time>
      </trkpt>
      <trkpt lat="44.28113" lon="5.88724">
        <ele>564.43</ele>
        <time>2012-05-27T15:33:01Z</time>
      </trkpt>
      <trkpt lat="44.28151" lon="5.88772">
        <ele>564.43</ele>
        <time>2012-05-27T15:33:10Z</time>
      </trkpt>
      <trkpt lat="44.28158" lon="5.88823">
        <ele>563.47</ele>
        <time>2012-05-27T15:33:17Z</time>
      </trkpt>
      <trkpt lat="44.2821" lon="5.88971">
        <ele>563.95</ele>
        <time>2012-05-27T15:33:43Z</time>
      </trkpt>
      <trkpt lat="44.28236" lon="5.89059">
        <ele>566.35</ele>
        <time>2012-05-27T15:34:04Z</time>
      </trkpt>
      <trkpt lat="44.28229" lon="5.89068">
        <ele>566.83</ele>
        <time>2012-05-27T15:34:07Z</time>
      </trkpt>
      <trkpt lat="44.28225" lon="5.89071">
        <ele>566.83</ele>
        <time>2012-05-27T15:34:08Z</time>
      </trkpt>
      <trkpt lat="44.28166" lon="5.89074">
        <ele>564.43</ele>
        <time>2012-05-27T15:34:22Z</time>
      </trkpt>
      <trkpt lat="44.28149" lon="5.89004">
        <ele>562.99</ele>
        <time>2012-05-27T15:34:32Z</time>
      </trkpt>
      <trkpt lat="44.28122" lon="5.88999">
        <ele>561.55</ele>
        <time>2012-05-27T15:34:37Z</time>
      </trkpt>
      <trkpt lat="44.28068" lon="5.8903">
        <ele>560.59</ele>
        <time>2012-05-27T15:34:46Z</time>
      </trkpt>
      <trkpt lat="44.27992" lon="5.89024">
        <ele>559.14</ele>
        <time>2012-05-27T15:34:58Z</time>
      </trkpt>
      <trkpt lat="44.27914" lon="5.89028">
        <ele>557.22</ele>
        <time>2012-05-27T15:35:10Z</time>
      </trkpt>
      <trkpt lat="44.27898" lon="5.88995">
        <ele>557.22</ele>
        <time>2012-05-27T15:35:15Z</time>
      </trkpt>
      <trkpt lat="44.27865" lon="5.88948">
        <ele>556.74</ele>
        <time>2012-05-27T15:35:23Z</time>
      </trkpt>
      <trkpt lat="44.27808" lon="5.88852">
        <ele>554.34</ele>
        <time>2012-05-27T15:35:36Z</time>
      </trkpt>
      <trkpt lat="44.27777" lon="5.88832">
        <ele>553.86</ele>
        <time>2012-05-27T15:35:41Z</time>
      </trkpt>
      <trkpt lat="44.27749" lon="5.88824">
        <ele>553.86</ele>
        <time>2012-05-27T15:35:45Z</time>
      </trkpt>
      <trkpt lat="44.2767" lon="5.88767">
        <ele>552.41</ele>
        <time>2012-05-27T15:35:58Z</time>
      </trkpt>
      <trkpt lat="44.27627" lon="5.88748">
        <ele>552.9</ele>
        <time>2012-05-27T15:36:05Z</time>
      </trkpt>
      <trkpt lat="44.27574" lon="5.88632">
        <ele>552.9</ele>
        <time>2012-05-27T15:36:21Z</time>
      </trkpt>
      <trkpt lat="44.27538" lon="5.88598">
        <ele>553.38</ele>
        <time>2012-05-27T15:36:30Z</time>
      </trkpt>
      <trkpt lat="44.2744" lon="5.88593">
        <ele>551.93</ele>
        <time>2012-05-27T15:36:46Z</time>
      </trkpt>
      <trkpt lat="44.27213" lon="5.88514">
        <ele>550.01</ele>
        <time>2012-05-27T15:37:22Z</time>
      </trkpt>
      <trkpt lat="44.27108" lon="5.88492">
        <ele>549.53</ele>
        <time>2012-05-27T15:37:40Z</time>
      </trkpt>
      <trkpt lat="44.27032" lon="5.88457">
        <ele>550.49</ele>
        <time>2012-05-27T15:37:57Z</time>
      </trkpt>
      <trkpt lat="44.2694" lon="5.88445">
        <ele>549.53</ele>
        <time>2012-05-27T15:38:13Z</time>
      </trkpt>
      <trkpt lat="44.26845" lon="5.88372">
        <ele>552.9</ele>
        <time>2012-05-27T15:38:37Z</time>
      </trkpt>
      <trkpt lat="44.268" lon="5.88342">
        <ele>553.86</ele>
        <time>2012-05-27T15:38:48Z</time>
      </trkpt>
      <trkpt lat="44.26711" lon="5.88288">
        <ele>553.86</ele>
        <time>2012-05-27T15:39:09Z</time>
      </trkpt>
      <trkpt lat="44.26587" lon="5.88151">
        <ele>554.34</ele>
        <time>2012-05-27T15:39:41Z</time>
      </trkpt>
      <trkpt lat="44.26497" lon="5.88056">
        <ele>560.11</ele>
        <time>2012-05-27T15:40:15Z</time>
      </trkpt>
      <trkpt lat="44.26451" lon="5.88038">
        <ele>563.47</ele>
        <time>2012-05-27T15:40:34Z</time>
      </trkpt>
      <trkpt lat="44.26388" lon="5.88016">
        <ele>568.76</ele>
        <time>2012-05-27T15:41:03Z</time>
      </trkpt>
      <trkpt lat="44.26346" lon="5.87928">
        <ele>574.53</ele>
        <time>2012-05-27T15:41:35Z</time>
      </trkpt>
      <trkpt lat="44.26319" lon="5.87799">
        <ele>578.37</ele>
        <time>2012-05-27T15:42:10Z</time>
      </trkpt>
      <trkpt lat="44.26188" lon="5.87704">
        <ele>581.25</ele>
        <time>2012-05-27T15:42:49Z</time>
      </trkpt>
      <trkpt lat="44.26184" lon="5.87702">
        <ele>581.25</ele>
        <time>2012-05-27T15:42:50Z</time>
      </trkpt>
      <trkpt lat="44.2613" lon="5.87677">
        <ele>582.22</ele>
        <time>2012-05-27T15:43:04Z</time>
      </trkpt>
      <trkpt lat="44.26113" lon="5.87678">
        <ele>582.22</ele>
        <time>2012-05-27T15:43:08Z</time>
      </trkpt>
      <trkpt lat="44.26108" lon="5.87679">
        <ele>582.22</ele>
        <time>2012-05-27T15:43:09Z</time>
      </trkpt>
      <trkpt lat="44.26095" lon="5.87685">
        <ele>582.22</ele>
        <time>2012-05-27T15:43:12Z</time>
      </trkpt>
      <trkpt lat="44.26082" lon="5.87691">
        <ele>581.73</ele>
        <time>2012-05-27T15:43:15Z</time>
      </trkpt>
      <trkpt lat="44.26033" lon="5.8769">
        <ele>580.29</ele>
        <time>2012-05-27T15:43:24Z</time>
      </trkpt>
      <trkpt lat="44.25874" lon="5.87748">
        <ele>574.53</ele>
        <time>2012-05-27T15:43:46Z</time>
      </trkpt>
      <trkpt lat="44.25844" lon="5.87766">
        <ele>573.56</ele>
        <time>2012-05-27T15:43:50Z</time>
      </trkpt>
      <trkpt lat="44.25837" lon="5.87772">
        <ele>573.56</ele>
        <time>2012-05-27T15:43:51Z</time>
      </trkpt>
      <trkpt lat="44.25831" lon="5.8778">
        <ele>573.08</ele>
        <time>2012-05-27T15:43:52Z</time>
      </trkpt>
      <trkpt lat="44.25683" lon="5.8798">
        <ele>569.72</ele>
        <time>2012-05-27T15:44:19Z</time>
      </trkpt>
      <trkpt lat="44.25591" lon="5.88089">
        <ele>569.72</ele>
        <time>2012-05-27T15:44:39Z</time>
      </trkpt>
      <trkpt lat="44.25542" lon="5.88157">
        <ele>570.2</ele>
        <time>2012-05-27T15:44:56Z</time>
      </trkpt>
      <trkpt lat="44.25533" lon="5.88145">
        <ele>569.72</ele>
        <time>2012-05-27T15:44:58Z</time>
      </trkpt>
      <trkpt lat="44.25529" lon="5.88138">
        <ele>569.72</ele>
        <time>2012-05-27T15:44:59Z</time>
      </trkpt>
      <trkpt lat="44.25509" lon="5.88082">
        <ele>566.83</ele>
        <time>2012-05-27T15:45:05Z</time>
      </trkpt>
      <trkpt lat="44.25455" lon="5.87861">
        <ele>571.64</ele>
        <time>2012-05-27T15:45:35Z</time>
      </trkpt>
      <trkpt lat="44.25419" lon="5.87732">
        <ele>575.01</ele>
        <time>2012-05-27T15:46:06Z</time>
      </trkpt>
      <trkpt lat="44.25358" lon="5.87604">
        <ele>575.49</ele>
        <time>2012-05-27T15:46:41Z</time>
      </trkpt>
      <trkpt lat="44.25344" lon="5.87587">
        <ele>575.49</ele>
        <time>2012-05-27T15:47:03Z</time>
      </trkpt>
      <trkpt lat="44.25342" lon="5.8758">
        <ele>574.53</ele>
        <time>2012-05-27T15:47:15Z</time>
      </trkpt>
      <trkpt lat="44.25337" lon="5.87577">
        <ele>575.01</ele>
        <time>2012-05-27T15:50:48Z</time>
      </trkpt>
      <trkpt lat="44.25307" lon="5.87543">
        <ele>575.49</ele>
        <time>2012-05-27T15:51:02Z</time>
      </trkpt>
      <trkpt lat="44.25296" lon="5.8753">
        <ele>575.49</ele>
        <time>2012-05-27T15:51:05Z</time>
      </trkpt>
      <trkpt lat="44.25258" lon="5.87486">
        <ele>575.01</ele>
        <time>2012-05-27T15:51:18Z</time>
      </trkpt>
      <trkpt lat="44.25137" lon="5.87347">
        <ele>581.25</ele>
        <time>2012-05-27T15:52:02Z</time>
      </trkpt>
      <trkpt lat="44.2511" lon="5.87311">
        <ele>581.73</ele>
        <time>2012-05-27T15:52:12Z</time>
      </trkpt>
      <trkpt lat="44.25057" lon="5.87215">
        <ele>581.25</ele>
        <time>2012-05-27T15:52:32Z</time>
      </trkpt>
      <trkpt lat="44.25017" lon="5.87142">
        <ele>577.89</ele>
        <time>2012-05-27T15:52:44Z</time>
      </trkpt>
      <trkpt lat="44.24993" lon="5.87102">
        <ele>576.45</ele>
        <time>2012-05-27T15:52:49Z</time>
      </trkpt>
      <trkpt lat="44.24964" lon="5.87084">
        <ele>575.97</ele>
        <time>2012-05-27T15:52:53Z</time>
      </trkpt>
      <trkpt lat="44.24948" lon="5.87081">
        <ele>575.49</ele>
        <time>2012-05-27T15:52:55Z</time>
      </trkpt>
      <trkpt lat="44.24759" lon="5.87001">
        <ele>575.49</ele>
        <time>2012-05-27T15:53:26Z</time>
      </trkpt>
      <trkpt lat="44.24744" lon="5.87002">
        <ele>575.97</ele>
        <time>2012-05-27T15:53:29Z</time>
      </trkpt>
      <trkpt lat="44.24723" lon="5.8701">
        <ele>575.49</ele>
        <time>2012-05-27T15:53:34Z</time>
      </trkpt>
      <trkpt lat="44.24713" lon="5.87041">
        <ele>575.01</ele>
        <time>2012-05-27T15:53:41Z</time>
      </trkpt>
      <trkpt lat="44.24714" lon="5.87043">
        <ele>575.01</ele>
        <time>2012-05-27T15:54:08Z</time>
      </trkpt>
      <trkpt lat="44.24714" lon="5.8704">
        <ele>575.01</ele>
        <time>2012-05-27T15:54:13Z</time>
      </trkpt>
      <trkpt lat="44.24693" lon="5.87017">
        <ele>574.53</ele>
        <time>2012-05-27T15:54:21Z</time>
      </trkpt>
      <trkpt lat="44.24672" lon="5.87009">
        <ele>573.56</ele>
        <time>2012-05-27T15:54:25Z</time>
      </trkpt>
      <trkpt lat="44.24608" lon="5.86938">
        <ele>573.08</ele>
        <time>2012-05-27T15:54:37Z</time>
      </trkpt>
      <trkpt lat="44.24571" lon="5.86933">
        <ele>571.16</ele>
        <time>2012-05-27T15:54:42Z</time>
      </trkpt>
      <trkpt lat="44.24547" lon="5.86942">
        <ele>569.72</ele>
        <time>2012-05-27T15:54:45Z</time>
      </trkpt>
      <trkpt lat="44.24493" lon="5.86965">
        <ele>567.32</ele>
        <time>2012-05-27T15:54:51Z</time>
      </trkpt>
      <trkpt lat="44.24443" lon="5.86957">
        <ele>562.99</ele>
        <time>2012-05-27T15:54:56Z</time>
      </trkpt>
      <trkpt lat="44.24342" lon="5.86936">
        <ele>556.74</ele>
        <time>2012-05-27T15:55:08Z</time>
      </trkpt>
      <trkpt lat="44.24266" lon="5.869">
        <ele>551.93</ele>
        <time>2012-05-27T15:55:18Z</time>
      </trkpt>
      <trkpt lat="44.24226" lon="5.86866">
        <ele>547.61</ele>
        <time>2012-05-27T15:55:30Z</time>
      </trkpt>
      <trkpt lat="44.24215" lon="5.86856">
        <ele>547.13</ele>
        <time>2012-05-27T15:56:18Z</time>
      </trkpt>
      <trkpt lat="44.24182" lon="5.86826">
        <ele>544.72</ele>
        <time>2012-05-27T15:56:26Z</time>
      </trkpt>
      <trkpt lat="44.24178" lon="5.86822">
        <ele>544.72</ele>
        <time>2012-05-27T15:56:27Z</time>
      </trkpt>
      <trkpt lat="44.24164" lon="5.86784">
        <ele>542.32</ele>
        <time>2012-05-27T15:56:34Z</time>
      </trkpt>
      <trkpt lat="44.24164" lon="5.86768">
        <ele>542.32</ele>
        <time>2012-05-27T15:56:36Z</time>
      </trkpt>
      <trkpt lat="44.24178" lon="5.867">
        <ele>539.92</ele>
        <time>2012-05-27T15:56:44Z</time>
      </trkpt>
      <trkpt lat="44.24164" lon="5.86638">
        <ele>536.07</ele>
        <time>2012-05-27T15:56:53Z</time>
      </trkpt>
      <trkpt lat="44.2413" lon="5.86643">
        <ele>534.15</ele>
        <time>2012-05-27T15:56:59Z</time>
      </trkpt>
      <trkpt lat="44.24061" lon="5.86688">
        <ele>530.79</ele>
        <time>2012-05-27T15:57:11Z</time>
      </trkpt>
      <trkpt lat="44.24041" lon="5.867">
        <ele>529.34</ele>
        <time>2012-05-27T15:57:14Z</time>
      </trkpt>
      <trkpt lat="44.23996" lon="5.86691">
        <ele>525.98</ele>
        <time>2012-05-27T15:57:20Z</time>
      </trkpt>
      <trkpt lat="44.23962" lon="5.86651">
        <ele>523.58</ele>
        <time>2012-05-27T15:57:25Z</time>
      </trkpt>
      <trkpt lat="44.23891" lon="5.86569">
        <ele>519.25</ele>
        <time>2012-05-27T15:57:35Z</time>
      </trkpt>
      <trkpt lat="44.23847" lon="5.86518">
        <ele>514.92</ele>
        <time>2012-05-27T15:57:41Z</time>
      </trkpt>
      <trkpt lat="44.23835" lon="5.86516">
        <ele>513.48</ele>
        <time>2012-05-27T15:57:44Z</time>
      </trkpt>
      <trkpt lat="44.23791" lon="5.86453">
        <ele>510.12</ele>
        <time>2012-05-27T15:57:59Z</time>
      </trkpt>
      <trkpt lat="44.23674" lon="5.86329">
        <ele>506.27</ele>
        <time>2012-05-27T15:58:15Z</time>
      </trkpt>
      <trkpt lat="44.23666" lon="5.86326">
        <ele>506.27</ele>
        <time>2012-05-27T15:58:16Z</time>
      </trkpt>
      <trkpt lat="44.23641" lon="5.86323">
        <ele>505.79</ele>
        <time>2012-05-27T15:58:19Z</time>
      </trkpt>
      <trkpt lat="44.23542" lon="5.86342">
        <ele>503.87</ele>
        <time>2012-05-27T15:58:34Z</time>
      </trkpt>
      <trkpt lat="44.23537" lon="5.86341">
        <ele>503.87</ele>
        <time>2012-05-27T15:58:36Z</time>
      </trkpt>
      <trkpt lat="44.23531" lon="5.86345">
        <ele>503.87</ele>
        <time>2012-05-27T15:58:42Z</time>
      </trkpt>
      <trkpt lat="44.23531" lon="5.86329">
        <ele>503.39</ele>
        <time>2012-05-27T15:58:52Z</time>
      </trkpt>
      <trkpt lat="44.2349" lon="5.86302">
        <ele>503.39</ele>
        <time>2012-05-27T15:59:10Z</time>
      </trkpt>
      <trkpt lat="44.23492" lon="5.863">
        <ele>502.91</ele>
        <time>2012-05-27T16:00:03Z</time>
      </trkpt>
      <trkpt lat="44.23492" lon="5.86298">
        <ele>503.39</ele>
        <time>2012-05-27T16:02:36Z</time>
      </trkpt>
      <trkpt lat="44.23489" lon="5.86297">
        <ele>502.91</ele>
        <time>2012-05-27T16:04:34Z</time>
      </trkpt>
      <trkpt lat="44.23476" lon="5.86275">
        <ele>500.98</ele>
        <time>2012-05-27T16:05:06Z</time>
      </trkpt>
      <trkpt lat="44.23476" lon="5.86275">
        <ele>500.98</ele>
        <time>2012-05-27T16:06:02Z</time>
      </trkpt>
      <trkpt lat="44.23476" lon="5.86275">
        <ele>499.06</ele>
        <time>2012-05-27T16:12:49Z</time>
      </trkpt>
      <trkpt lat="44.23493" lon="5.86299">
        <ele>500.5</ele>
        <time>2012-05-27T16:13:11Z</time>
      </trkpt>
      <trkpt lat="44.23502" lon="5.86309">
        <ele>500.5</ele>
        <time>2012-05-27T16:13:24Z</time>
      </trkpt>
      <trkpt lat="44.23499" lon="5.86307">
        <ele>500.98</ele>
        <time>2012-05-27T16:13:32Z</time>
      </trkpt>
      <trkpt lat="44.23529" lon="5.8632">
        <ele>500.02</ele>
        <time>2012-05-27T16:13:47Z</time>
      </trkpt>
      <trkpt lat="44.23644" lon="5.86319">
        <ele>501.46</ele>
        <time>2012-05-27T16:14:24Z</time>
      </trkpt>
      <trkpt lat="44.23781" lon="5.86441">
        <ele>502.91</ele>
        <time>2012-05-27T16:15:04Z</time>
      </trkpt>
      <trkpt lat="44.23819" lon="5.86484">
        <ele>506.27</ele>
        <time>2012-05-27T16:15:19Z</time>
      </trkpt>
      <trkpt lat="44.23837" lon="5.86516">
        <ele>508.19</ele>
        <time>2012-05-27T16:15:29Z</time>
      </trkpt>
      <trkpt lat="44.23836" lon="5.86518">
        <ele>508.19</ele>
        <time>2012-05-27T16:15:30Z</time>
      </trkpt>
      <trkpt lat="44.23797" lon="5.86579">
        <ele>507.71</ele>
        <time>2012-05-27T16:15:47Z</time>
      </trkpt>
      <trkpt lat="44.23733" lon="5.86679">
        <ele>508.67</ele>
        <time>2012-05-27T16:16:08Z</time>
      </trkpt>
      <trkpt lat="44.2372" lon="5.86733">
        <ele>512.04</ele>
        <time>2012-05-27T16:16:20Z</time>
      </trkpt>
      <trkpt lat="44.23709" lon="5.86781">
        <ele>515.4</ele>
        <time>2012-05-27T16:16:31Z</time>
      </trkpt>
      <trkpt lat="44.23618" lon="5.86912">
        <ele>514.44</ele>
        <time>2012-05-27T16:17:05Z</time>
      </trkpt>
      <trkpt lat="44.23614" lon="5.86917">
        <ele>515.4</ele>
        <time>2012-05-27T16:17:06Z</time>
      </trkpt>
      <trkpt lat="44.23485" lon="5.87075">
        <ele>515.4</ele>
        <time>2012-05-27T16:17:42Z</time>
      </trkpt>
      <trkpt lat="44.2331" lon="5.87314">
        <ele>515.4</ele>
        <time>2012-05-27T16:18:30Z</time>
      </trkpt>
      <trkpt lat="44.23135" lon="5.87474">
        <ele>514.92</ele>
        <time>2012-05-27T16:19:07Z</time>
      </trkpt>
      <trkpt lat="44.22956" lon="5.876">
        <ele>516.37</ele>
        <time>2012-05-27T16:19:43Z</time>
      </trkpt>
      <trkpt lat="44.22922" lon="5.87622">
        <ele>517.81</ele>
        <time>2012-05-27T16:19:50Z</time>
      </trkpt>
      <trkpt lat="44.22863" lon="5.87673">
        <ele>520.21</ele>
        <time>2012-05-27T16:20:11Z</time>
      </trkpt>
      <trkpt lat="44.22862" lon="5.87672">
        <ele>520.69</ele>
        <time>2012-05-27T16:20:28Z</time>
      </trkpt>
      <trkpt lat="44.22795" lon="5.87644">
        <ele>517.81</ele>
        <time>2012-05-27T16:20:45Z</time>
      </trkpt>
      <trkpt lat="44.22729" lon="5.87616">
        <ele>514.44</ele>
        <time>2012-05-27T16:20:58Z</time>
      </trkpt>
      <trkpt lat="44.22698" lon="5.87603">
        <ele>513.48</ele>
        <time>2012-05-27T16:21:04Z</time>
      </trkpt>
      <trkpt lat="44.22652" lon="5.87612">
        <ele>514.44</ele>
        <time>2012-05-27T16:21:22Z</time>
      </trkpt>
      <trkpt lat="44.22651" lon="5.87611">
        <ele>514.44</ele>
        <time>2012-05-27T16:21:36Z</time>
      </trkpt>
      <trkpt lat="44.22699" lon="5.87603">
        <ele>513.48</ele>
        <time>2012-05-27T16:21:50Z</time>
      </trkpt>
      <trkpt lat="44.22739" lon="5.8762">
        <ele>514.44</ele>
        <time>2012-05-27T16:22:05Z</time>
      </trkpt>
      <trkpt lat="44.2282" lon="5.87655">
        <ele>517.81</ele>
        <time>2012-05-27T16:22:36Z</time>
      </trkpt>
      <trkpt lat="44.22861" lon="5.87671">
        <ele>520.21</ele>
        <time>2012-05-27T16:22:57Z</time>
      </trkpt>
      <trkpt lat="44.22857" lon="5.87679">
        <ele>521.17</ele>
        <time>2012-05-27T16:23:01Z</time>
      </trkpt>
      <trkpt lat="44.22825" lon="5.87692">
        <ele>523.58</ele>
        <time>2012-05-27T16:23:16Z</time>
      </trkpt>
      <trkpt lat="44.2281" lon="5.87719">
        <ele>527.42</ele>
        <time>2012-05-27T16:23:32Z</time>
      </trkpt>
      <trkpt lat="44.22786" lon="5.87759">
        <ele>531.27</ele>
        <time>2012-05-27T16:23:54Z</time>
      </trkpt>
      <trkpt lat="44.22762" lon="5.87806">
        <ele>535.59</ele>
        <time>2012-05-27T16:24:17Z</time>
      </trkpt>
      <trkpt lat="44.22741" lon="5.87826">
        <ele>539.44</ele>
        <time>2012-05-27T16:24:32Z</time>
      </trkpt>
      <trkpt lat="44.22684" lon="5.87851">
        <ele>545.2</ele>
        <time>2012-05-27T16:25:06Z</time>
      </trkpt>
      <trkpt lat="44.22658" lon="5.87838">
        <ele>548.57</ele>
        <time>2012-05-27T16:25:21Z</time>
      </trkpt>
      <trkpt lat="44.22625" lon="5.8784">
        <ele>553.38</ele>
        <time>2012-05-27T16:25:43Z</time>
      </trkpt>
      <trkpt lat="44.22555" lon="5.87885">
        <ele>558.18</ele>
        <time>2012-05-27T16:26:20Z</time>
      </trkpt>
      <trkpt lat="44.22461" lon="5.8796">
        <ele>561.55</ele>
        <time>2012-05-27T16:26:59Z</time>
      </trkpt>
      <trkpt lat="44.2226" lon="5.88127">
        <ele>566.83</ele>
        <time>2012-05-27T16:28:07Z</time>
      </trkpt>
      <trkpt lat="44.22159" lon="5.8821">
        <ele>569.72</ele>
        <time>2012-05-27T16:28:43Z</time>
      </trkpt>
      <trkpt lat="44.22143" lon="5.88221">
        <ele>570.68</ele>
        <time>2012-05-27T16:29:46Z</time>
      </trkpt>
      <trkpt lat="44.22072" lon="5.88279">
        <ele>573.56</ele>
        <time>2012-05-27T16:30:05Z</time>
      </trkpt>
      <trkpt lat="44.21994" lon="5.88354">
        <ele>576.45</ele>
        <time>2012-05-27T16:30:30Z</time>
      </trkpt>
      <trkpt lat="44.21987" lon="5.8837">
        <ele>576.45</ele>
        <time>2012-05-27T16:30:33Z</time>
      </trkpt>
      <trkpt lat="44.21986" lon="5.88376">
        <ele>575.97</ele>
        <time>2012-05-27T16:30:34Z</time>
      </trkpt>
      <trkpt lat="44.21953" lon="5.88487">
        <ele>575.97</ele>
        <time>2012-05-27T16:30:50Z</time>
      </trkpt>
      <trkpt lat="44.21945" lon="5.88612">
        <ele>575.97</ele>
        <time>2012-05-27T16:31:07Z</time>
      </trkpt>
      <trkpt lat="44.21942" lon="5.88648">
        <ele>575.97</ele>
        <time>2012-05-27T16:31:12Z</time>
      </trkpt>
      <trkpt lat="44.21884" lon="5.88732">
        <ele>576.45</ele>
        <time>2012-05-27T16:31:29Z</time>
      </trkpt>
      <trkpt lat="44.21779" lon="5.88911">
        <ele>576.45</ele>
        <time>2012-05-27T16:32:04Z</time>
      </trkpt>
      <trkpt lat="44.21749" lon="5.88975">
        <ele>576.45</ele>
        <time>2012-05-27T16:32:16Z</time>
      </trkpt>
      <trkpt lat="44.21675" lon="5.89128">
        <ele>579.81</ele>
        <time>2012-05-27T16:32:46Z</time>
      </trkpt>
      <trkpt lat="44.21673" lon="5.89132">
        <ele>579.81</ele>
        <time>2012-05-27T16:32:47Z</time>
      </trkpt>
      <trkpt lat="44.21671" lon="5.89138">
        <ele>579.81</ele>
        <time>2012-05-27T16:32:48Z</time>
      </trkpt>
      <trkpt lat="44.21617" lon="5.89346">
        <ele>583.66</ele>
        <time>2012-05-27T16:33:29Z</time>
      </trkpt>
      <trkpt lat="44.21581" lon="5.89438">
        <ele>581.73</ele>
        <time>2012-05-27T16:33:45Z</time>
      </trkpt>
      <trkpt lat="44.2154" lon="5.8956">
        <ele>578.85</ele>
        <time>2012-05-27T16:33:59Z</time>
      </trkpt>
      <trkpt lat="44.21413" lon="5.8976">
        <ele>578.37</ele>
        <time>2012-05-27T16:34:28Z</time>
      </trkpt>
      <trkpt lat="44.2129" lon="5.89918">
        <ele>580.29</ele>
        <time>2012-05-27T16:35:04Z</time>
      </trkpt>
      <trkpt lat="44.21237" lon="5.9005">
        <ele>580.29</ele>
        <time>2012-05-27T16:35:28Z</time>
      </trkpt>
      <trkpt lat="44.21228" lon="5.90074">
        <ele>579.81</ele>
        <time>2012-05-27T16:35:32Z</time>
      </trkpt>
      <trkpt lat="44.21208" lon="5.90156">
        <ele>578.85</ele>
        <time>2012-05-27T16:35:44Z</time>
      </trkpt>
      <trkpt lat="44.21189" lon="5.90232">
        <ele>579.33</ele>
        <time>2012-05-27T16:35:55Z</time>
      </trkpt>
      <trkpt lat="44.21145" lon="5.9033">
        <ele>578.37</ele>
        <time>2012-05-27T16:36:10Z</time>
      </trkpt>
      <trkpt lat="44.21135" lon="5.90358">
        <ele>578.37</ele>
        <time>2012-05-27T16:36:14Z</time>
      </trkpt>
      <trkpt lat="44.21084" lon="5.90526">
        <ele>575.01</ele>
        <time>2012-05-27T16:36:37Z</time>
      </trkpt>
      <trkpt lat="44.2102" lon="5.90676">
        <ele>572.6</ele>
        <time>2012-05-27T16:36:57Z</time>
      </trkpt>
      <trkpt lat="44.21016" lon="5.90694">
        <ele>572.12</ele>
        <time>2012-05-27T16:36:59Z</time>
      </trkpt>
      <trkpt lat="44.20976" lon="5.90838">
        <ele>568.28</ele>
        <time>2012-05-27T16:37:15Z</time>
      </trkpt>
      <trkpt lat="44.20973" lon="5.90846">
        <ele>568.28</ele>
        <time>2012-05-27T16:37:16Z</time>
      </trkpt>
      <trkpt lat="44.20969" lon="5.90855">
        <ele>568.28</ele>
        <time>2012-05-27T16:37:17Z</time>
      </trkpt>
      <trkpt lat="44.20932" lon="5.90901">
        <ele>566.35</ele>
        <time>2012-05-27T16:37:24Z</time>
      </trkpt>
      <trkpt lat="44.20882" lon="5.91002">
        <ele>566.35</ele>
        <time>2012-05-27T16:37:39Z</time>
      </trkpt>
      <trkpt lat="44.20875" lon="5.91019">
        <ele>566.83</ele>
        <time>2012-05-27T16:37:42Z</time>
      </trkpt>
      <trkpt lat="44.20867" lon="5.91037">
        <ele>566.83</ele>
        <time>2012-05-27T16:38:10Z</time>
      </trkpt>
      <trkpt lat="44.20851" lon="5.91086">
        <ele>567.32</ele>
        <time>2012-05-27T16:39:02Z</time>
      </trkpt>
      <trkpt lat="44.20791" lon="5.91231">
        <ele>569.24</ele>
        <time>2012-05-27T16:39:31Z</time>
      </trkpt>
      <trkpt lat="44.20757" lon="5.91339">
        <ele>570.2</ele>
        <time>2012-05-27T16:39:50Z</time>
      </trkpt>
      <trkpt lat="44.20742" lon="5.91384">
        <ele>571.16</ele>
        <time>2012-05-27T16:40:00Z</time>
      </trkpt>
      <trkpt lat="44.20721" lon="5.9148">
        <ele>571.64</ele>
        <time>2012-05-27T16:40:19Z</time>
      </trkpt>
      <trkpt lat="44.20691" lon="5.91532">
        <ele>569.72</ele>
        <time>2012-05-27T16:40:28Z</time>
      </trkpt>
      <trkpt lat="44.20687" lon="5.91538">
        <ele>569.72</ele>
        <time>2012-05-27T16:40:29Z</time>
      </trkpt>
      <trkpt lat="44.20684" lon="5.91544">
        <ele>568.76</ele>
        <time>2012-05-27T16:40:30Z</time>
      </trkpt>
      <trkpt lat="44.20681" lon="5.91551">
        <ele>569.24</ele>
        <time>2012-05-27T16:40:31Z</time>
      </trkpt>
      <trkpt lat="44.20672" lon="5.91601">
        <ele>564.43</ele>
        <time>2012-05-27T16:40:43Z</time>
      </trkpt>
      <trkpt lat="44.20664" lon="5.91652">
        <ele>562.51</ele>
        <time>2012-05-27T16:41:10Z</time>
      </trkpt>
      <trkpt lat="44.20689" lon="5.91724">
        <ele>558.66</ele>
        <time>2012-05-27T16:41:19Z</time>
      </trkpt>
      <trkpt lat="44.2069" lon="5.91763">
        <ele>555.3</ele>
        <time>2012-05-27T16:41:24Z</time>
      </trkpt>
      <trkpt lat="44.20687" lon="5.91771">
        <ele>554.82</ele>
        <time>2012-05-27T16:41:25Z</time>
      </trkpt>
      <trkpt lat="44.20684" lon="5.91778">
        <ele>554.34</ele>
        <time>2012-05-27T16:41:26Z</time>
      </trkpt>
      <trkpt lat="44.20669" lon="5.91818">
        <ele>550.01</ele>
        <time>2012-05-27T16:41:31Z</time>
      </trkpt>
      <trkpt lat="44.20666" lon="5.91828">
        <ele>550.49</ele>
        <time>2012-05-27T16:41:32Z</time>
      </trkpt>
      <trkpt lat="44.20633" lon="5.91891">
        <ele>545.69</ele>
        <time>2012-05-27T16:41:44Z</time>
      </trkpt>
      <trkpt lat="44.20625" lon="5.91922">
        <ele>545.2</ele>
        <time>2012-05-27T16:42:12Z</time>
      </trkpt>
      <trkpt lat="44.20613" lon="5.91959">
        <ele>541.84</ele>
        <time>2012-05-27T16:42:21Z</time>
      </trkpt>
      <trkpt lat="44.20586" lon="5.92006">
        <ele>538.48</ele>
        <time>2012-05-27T16:42:32Z</time>
      </trkpt>
      <trkpt lat="44.20585" lon="5.92024">
        <ele>537.99</ele>
        <time>2012-05-27T16:42:48Z</time>
      </trkpt>
      <trkpt lat="44.20586" lon="5.92024">
        <ele>537.99</ele>
        <time>2012-05-27T16:44:33Z</time>
      </trkpt>
      <trkpt lat="44.20568" lon="5.92106">
        <ele>535.11</ele>
        <time>2012-05-27T16:44:49Z</time>
      </trkpt>
      <trkpt lat="44.20545" lon="5.92149">
        <ele>531.75</ele>
        <time>2012-05-27T16:45:04Z</time>
      </trkpt>
      <trkpt lat="44.20522" lon="5.92213">
        <ele>527.9</ele>
        <time>2012-05-27T16:45:30Z</time>
      </trkpt>
      <trkpt lat="44.20501" lon="5.92305">
        <ele>522.13</ele>
        <time>2012-05-27T16:45:39Z</time>
      </trkpt>
      <trkpt lat="44.20499" lon="5.9233">
        <ele>520.69</ele>
        <time>2012-05-27T16:45:41Z</time>
      </trkpt>
      <trkpt lat="44.20496" lon="5.92392">
        <ele>516.37</ele>
        <time>2012-05-27T16:45:46Z</time>
      </trkpt>
      <trkpt lat="44.20475" lon="5.92453">
        <ele>513</ele>
        <time>2012-05-27T16:45:52Z</time>
      </trkpt>
      <trkpt lat="44.20467" lon="5.9247">
        <ele>513.48</ele>
        <time>2012-05-27T16:45:54Z</time>
      </trkpt>
      <trkpt lat="44.20441" lon="5.92548">
        <ele>512.52</ele>
        <time>2012-05-27T16:46:03Z</time>
      </trkpt>
      <trkpt lat="44.20407" lon="5.9265">
        <ele>509.16</ele>
        <time>2012-05-27T16:46:14Z</time>
      </trkpt>
      <trkpt lat="44.20399" lon="5.92677">
        <ele>509.64</ele>
        <time>2012-05-27T16:46:17Z</time>
      </trkpt>
      <trkpt lat="44.20391" lon="5.92704">
        <ele>508.67</ele>
        <time>2012-05-27T16:46:20Z</time>
      </trkpt>
      <trkpt lat="44.20344" lon="5.92976">
        <ele>507.23</ele>
        <time>2012-05-27T16:46:50Z</time>
      </trkpt>
      <trkpt lat="44.20338" lon="5.93027">
        <ele>507.23</ele>
        <time>2012-05-27T16:46:57Z</time>
      </trkpt>
      <trkpt lat="44.20303" lon="5.93188">
        <ele>503.39</ele>
        <time>2012-05-27T16:47:16Z</time>
      </trkpt>
      <trkpt lat="44.20281" lon="5.93243">
        <ele>499.54</ele>
        <time>2012-05-27T16:47:22Z</time>
      </trkpt>
      <trkpt lat="44.20277" lon="5.93265">
        <ele>498.58</ele>
        <time>2012-05-27T16:47:24Z</time>
      </trkpt>
      <trkpt lat="44.20276" lon="5.93278">
        <ele>498.58</ele>
        <time>2012-05-27T16:47:25Z</time>
      </trkpt>
      <trkpt lat="44.20268" lon="5.93456">
        <ele>496.18</ele>
        <time>2012-05-27T16:47:41Z</time>
      </trkpt>
      <trkpt lat="44.20269" lon="5.93465">
        <ele>496.66</ele>
        <time>2012-05-27T16:47:42Z</time>
      </trkpt>
      <trkpt lat="44.20281" lon="5.93482">
        <ele>496.66</ele>
        <time>2012-05-27T16:47:45Z</time>
      </trkpt>
      <trkpt lat="44.20286" lon="5.93486">
        <ele>495.7</ele>
        <time>2012-05-27T16:47:46Z</time>
      </trkpt>
      <trkpt lat="44.2035" lon="5.93523">
        <ele>491.85</ele>
        <time>2012-05-27T16:47:56Z</time>
      </trkpt>
      <trkpt lat="44.20374" lon="5.9353">
        <ele>490.89</ele>
        <time>2012-05-27T16:48:00Z</time>
      </trkpt>
      <trkpt lat="44.2038" lon="5.9353">
        <ele>490.89</ele>
        <time>2012-05-27T16:48:01Z</time>
      </trkpt>
      <trkpt lat="44.20391" lon="5.93527">
        <ele>490.89</ele>
        <time>2012-05-27T16:48:03Z</time>
      </trkpt>
      <trkpt lat="44.20414" lon="5.93517">
        <ele>491.37</ele>
        <time>2012-05-27T16:48:07Z</time>
      </trkpt>
      <trkpt lat="44.20432" lon="5.93502">
        <ele>491.37</ele>
        <time>2012-05-27T16:48:11Z</time>
      </trkpt>
      <trkpt lat="44.20492" lon="5.9344">
        <ele>491.37</ele>
        <time>2012-05-27T16:48:28Z</time>
      </trkpt>
      <trkpt lat="44.20636" lon="5.93279">
        <ele>494.26</ele>
        <time>2012-05-27T16:49:09Z</time>
      </trkpt>
      <trkpt lat="44.2069" lon="5.93219">
        <ele>495.22</ele>
        <time>2012-05-27T16:49:27Z</time>
      </trkpt>
      <trkpt lat="44.20696" lon="5.93238">
        <ele>495.22</ele>
        <time>2012-05-27T16:49:33Z</time>
      </trkpt>
      <trkpt lat="44.20691" lon="5.93247">
        <ele>495.22</ele>
        <time>2012-05-27T16:49:35Z</time>
      </trkpt>
      <trkpt lat="44.20688" lon="5.93251">
        <ele>495.22</ele>
        <time>2012-05-27T16:49:36Z</time>
      </trkpt>
      <trkpt lat="44.20618" lon="5.93328">
        <ele>495.22</ele>
        <time>2012-05-27T16:49:53Z</time>
      </trkpt>
      <trkpt lat="44.20407" lon="5.93553">
        <ele>492.33</ele>
        <time>2012-05-27T16:50:31Z</time>
      </trkpt>
      <trkpt lat="44.20354" lon="5.93608">
        <ele>490.41</ele>
        <time>2012-05-27T16:50:52Z</time>
      </trkpt>
      <trkpt lat="44.20354" lon="5.93611">
        <ele>489.93</ele>
        <time>2012-05-27T16:50:55Z</time>
      </trkpt>
      <trkpt lat="44.20355" lon="5.9363">
        <ele>489.93</ele>
        <time>2012-05-27T16:51:15Z</time>
      </trkpt>
      <trkpt lat="44.2035" lon="5.93634">
        <ele>488.97</ele>
        <time>2012-05-27T16:51:52Z</time>
      </trkpt>
      <trkpt lat="44.20347" lon="5.9364">
        <ele>488.97</ele>
        <time>2012-05-27T16:52:31Z</time>
      </trkpt>
      <trkpt lat="44.20308" lon="5.93684">
        <ele>487.05</ele>
        <time>2012-05-27T16:52:41Z</time>
      </trkpt>
      <trkpt lat="44.20261" lon="5.93757">
        <ele>482.72</ele>
        <time>2012-05-27T16:52:50Z</time>
      </trkpt>
      <trkpt lat="44.20247" lon="5.93789">
        <ele>479.84</ele>
        <time>2012-05-27T16:52:54Z</time>
      </trkpt>
      <trkpt lat="44.20225" lon="5.93843">
        <ele>476.95</ele>
        <time>2012-05-27T16:53:01Z</time>
      </trkpt>
      <trkpt lat="44.202" lon="5.93903">
        <ele>474.07</ele>
        <time>2012-05-27T16:53:07Z</time>
      </trkpt>
      <trkpt lat="44.20166" lon="5.93956">
        <ele>473.11</ele>
        <time>2012-05-27T16:53:12Z</time>
      </trkpt>
      <trkpt lat="44.20094" lon="5.93989">
        <ele>474.07</ele>
        <time>2012-05-27T16:53:21Z</time>
      </trkpt>
      <trkpt lat="44.20077" lon="5.94025">
        <ele>474.55</ele>
        <time>2012-05-27T16:53:26Z</time>
      </trkpt>
      <trkpt lat="44.20076" lon="5.9404">
        <ele>474.55</ele>
        <time>2012-05-27T16:53:28Z</time>
      </trkpt>
      <trkpt lat="44.20077" lon="5.94163">
        <ele>479.35</ele>
        <time>2012-05-27T16:53:48Z</time>
      </trkpt>
      <trkpt lat="44.20068" lon="5.94244">
        <ele>482.24</ele>
        <time>2012-05-27T16:54:04Z</time>
      </trkpt>
      <trkpt lat="44.20052" lon="5.94261">
        <ele>483.2</ele>
        <time>2012-05-27T16:54:09Z</time>
      </trkpt>
      <trkpt lat="44.20051" lon="5.94267">
        <ele>483.2</ele>
        <time>2012-05-27T16:54:10Z</time>
      </trkpt>
      <trkpt lat="44.20047" lon="5.94289">
        <ele>482.24</ele>
        <time>2012-05-27T16:54:14Z</time>
      </trkpt>
      <trkpt lat="44.20021" lon="5.94385">
        <ele>487.53</ele>
        <time>2012-05-27T16:54:34Z</time>
      </trkpt>
      <trkpt lat="44.20019" lon="5.94388">
        <ele>487.05</ele>
        <time>2012-05-27T16:54:35Z</time>
      </trkpt>
      <trkpt lat="44.19962" lon="5.9447">
        <ele>489.93</ele>
        <time>2012-05-27T16:55:10Z</time>
      </trkpt>
      <trkpt lat="44.19962" lon="5.9447">
        <ele>489.93</ele>
        <time>2012-05-27T16:55:17Z</time>
      </trkpt>
      <trkpt lat="44.19968" lon="5.94484">
        <ele>489.93</ele>
        <time>2012-05-27T16:55:45Z</time>
      </trkpt>
      <trkpt lat="44.19968" lon="5.94482">
        <ele>490.89</ele>
        <time>2012-05-27T16:56:11Z</time>
      </trkpt>
      <trkpt lat="44.19921" lon="5.9451">
        <ele>491.37</ele>
        <time>2012-05-27T16:56:29Z</time>
      </trkpt>
      <trkpt lat="44.19897" lon="5.94512">
        <ele>490.41</ele>
        <time>2012-05-27T16:56:40Z</time>
      </trkpt>
      <trkpt lat="44.19883" lon="5.94511">
        <ele>491.85</ele>
        <time>2012-05-27T16:59:03Z</time>
      </trkpt>
      <trkpt lat="44.19874" lon="5.94507">
        <ele>492.33</ele>
        <time>2012-05-27T16:59:21Z</time>
      </trkpt>
      <trkpt lat="44.19837" lon="5.94508">
        <ele>488.49</ele>
        <time>2012-05-27T16:59:54Z</time>
      </trkpt>
      <trkpt lat="44.19834" lon="5.94509">
        <ele>482.24</ele>
        <time>2012-05-27T17:00:21Z</time>
      </trkpt>
      <trkpt lat="44.19834" lon="5.9451">
        <ele>481.76</ele>
        <time>2012-05-27T17:00:22Z</time>
      </trkpt>
      <trkpt lat="44.19858" lon="5.94559">
        <ele>480.8</ele>
        <time>2012-05-27T17:00:28Z</time>
      </trkpt>
      <trkpt lat="44.19866" lon="5.94556">
        <ele>481.28</ele>
        <time>2012-05-27T17:00:38Z</time>
      </trkpt>
      <trkpt lat="44.19859" lon="5.94556">
        <ele>482.24</ele>
        <time>2012-05-27T17:02:07Z</time>
      </trkpt>
      <trkpt lat="44.19855" lon="5.94551">
        <ele>482.72</ele>
        <time>2012-05-27T17:02:47Z</time>
      </trkpt>
      <trkpt lat="44.19846" lon="5.94613">
        <ele>482.24</ele>
        <time>2012-05-27T17:02:55Z</time>
      </trkpt>
      <trkpt lat="44.1985" lon="5.94559">
        <ele>482.24</ele>
        <time>2012-05-27T17:03:07Z</time>
      </trkpt>
      <trkpt lat="44.19847" lon="5.94556">
        <ele>486.56</ele>
        <time>2012-05-27T17:03:23Z</time>
      </trkpt>
      <trkpt lat="44.19842" lon="5.94554">
        <ele>493.29</ele>
        <time>2012-05-27T17:03:49Z</time>
      </trkpt>
      <trkpt lat="44.1982" lon="5.94499">
        <ele>494.26</ele>
        <time>2012-05-27T17:04:30Z</time>
      </trkpt>
      <trkpt lat="44.1982" lon="5.94499">
        <ele>511.08</ele>
        <time>2012-05-27T17:05:26Z</time>
      </trkpt>
      <trkpt lat="44.1982" lon="5.94499">
        <ele>494.26</ele>
        <time>2012-05-27T17:05:27Z</time>
      </trkpt>
      <trkpt lat="44.1982" lon="5.94499">
        <ele>494.26</ele>
        <time>2012-05-27T17:05:52Z</time>
      </trkpt>
      <trkpt lat="44.19866" lon="5.94438">
        <ele>494.26</ele>
        <time>2012-05-27T17:05:56Z</time>
      </trkpt>
      <trkpt lat="44.19882" lon="5.94483">
        <ele>493.77</ele>
        <time>2012-05-27T17:06:01Z</time>
      </trkpt>
      <trkpt lat="44.1986" lon="5.94475">
        <ele>493.77</ele>
        <time>2012-05-27T17:06:14Z</time>
      </trkpt>
      <trkpt lat="44.19861" lon="5.94502">
        <ele>494.74</ele>
        <time>2012-05-27T17:06:40Z</time>
      </trkpt>
      <trkpt lat="44.19865" lon="5.9453">
        <ele>495.22</ele>
        <time>2012-05-27T17:07:21Z</time>
      </trkpt>
      <trkpt lat="44.19865" lon="5.9453">
        <ele>497.62</ele>
        <time>2012-05-27T17:05:53Z</time>
      </trkpt>
      <trkpt lat="44.19865" lon="5.9453">
        <ele>461.57</ele>
        <time>2012-05-27T17:05:54Z</time>
      </trkpt>
      <trkpt lat="44.19928" lon="5.94112">
        <ele>460.61</ele>
        <time>2012-05-28T07:22:03Z</time>
      </trkpt>
      <trkpt lat="44.19908" lon="5.94176">
        <ele>461.09</ele>
        <time>2012-05-28T07:23:13Z</time>
      </trkpt>
      <trkpt lat="44.19896" lon="5.94253">
        <ele>462.05</ele>
        <time>2012-05-28T07:24:35Z</time>
      </trkpt>
      <trkpt lat="44.19892" lon="5.94275">
        <ele>461.57</ele>
        <time>2012-05-28T07:26:32Z</time>
      </trkpt>
      <trkpt lat="44.19884" lon="5.94315">
        <ele>461.57</ele>
        <time>2012-05-28T07:27:37Z</time>
      </trkpt>
      <trkpt lat="44.19884" lon="5.94324">
        <ele>461.57</ele>
        <time>2012-05-28T07:28:25Z</time>
      </trkpt>
      <trkpt lat="44.1989" lon="5.94361">
        <ele>461.57</ele>
        <time>2012-05-28T07:29:46Z</time>
      </trkpt>
      <trkpt lat="44.19889" lon="5.94379">
        <ele>461.57</ele>
        <time>2012-05-28T07:30:47Z</time>
      </trkpt>
      <trkpt lat="44.19887" lon="5.94378">
        <ele>461.57</ele>
        <time>2012-05-28T07:31:10Z</time>
      </trkpt>
      <trkpt lat="44.19882" lon="5.94388">
        <ele>461.09</ele>
        <time>2012-05-28T07:31:22Z</time>
      </trkpt>
      <trkpt lat="44.19872" lon="5.94443">
        <ele>461.57</ele>
        <time>2012-05-28T07:31:51Z</time>
      </trkpt>
      <trkpt lat="44.19871" lon="5.94444">
        <ele>462.05</ele>
        <time>2012-05-28T07:31:52Z</time>
      </trkpt>
      <trkpt lat="44.19854" lon="5.9447">
        <ele>464.45</ele>
        <time>2012-05-28T07:32:05Z</time>
      </trkpt>
      <trkpt lat="44.19842" lon="5.9442">
        <ele>466.38</ele>
        <time>2012-05-28T07:32:14Z</time>
      </trkpt>
      <trkpt lat="44.19808" lon="5.94412">
        <ele>469.26</ele>
        <time>2012-05-28T07:32:21Z</time>
      </trkpt>
      <trkpt lat="44.19999" lon="5.94738">
        <ele>472.63</ele>
        <time>2012-05-28T07:32:36Z</time>
      </trkpt>
      <trkpt lat="44.19969" lon="5.9473">
        <ele>473.11</ele>
        <time>2012-05-28T07:32:43Z</time>
      </trkpt>
      <trkpt lat="44.19834" lon="5.94698">
        <ele>473.11</ele>
        <time>2012-05-28T07:32:57Z</time>
      </trkpt>
      <trkpt lat="44.19801" lon="5.94598">
        <ele>473.59</ele>
        <time>2012-05-28T07:33:09Z</time>
      </trkpt>
      <trkpt lat="44.1977" lon="5.94508">
        <ele>474.55</ele>
        <time>2012-05-28T07:33:33Z</time>
      </trkpt>
      <trkpt lat="44.1976" lon="5.94446">
        <ele>474.55</ele>
        <time>2012-05-28T07:33:57Z</time>
      </trkpt>
      <trkpt lat="44.19739" lon="5.94399">
        <ele>477.43</ele>
        <time>2012-05-28T07:34:18Z</time>
      </trkpt>
      <trkpt lat="44.19718" lon="5.9438">
        <ele>478.87</ele>
        <time>2012-05-28T07:34:40Z</time>
      </trkpt>
      <trkpt lat="44.19717" lon="5.94375">
        <ele>478.87</ele>
        <time>2012-05-28T07:34:47Z</time>
      </trkpt>
      <trkpt lat="44.19726" lon="5.94365">
        <ele>478.39</ele>
        <time>2012-05-28T07:35:16Z</time>
      </trkpt>
      <trkpt lat="44.19706" lon="5.94344">
        <ele>475.99</ele>
        <time>2012-05-28T07:38:25Z</time>
      </trkpt>
      <trkpt lat="44.19698" lon="5.94324">
        <ele>476.95</ele>
        <time>2012-05-28T07:38:34Z</time>
      </trkpt>
      <trkpt lat="44.19655" lon="5.94249">
        <ele>480.32</ele>
        <time>2012-05-28T07:39:04Z</time>
      </trkpt>
      <trkpt lat="44.19643" lon="5.94213">
        <ele>480.32</ele>
        <time>2012-05-28T07:39:14Z</time>
      </trkpt>
      <trkpt lat="44.19632" lon="5.94195">
        <ele>481.28</ele>
        <time>2012-05-28T07:39:26Z</time>
      </trkpt>
      <trkpt lat="44.19603" lon="5.94201">
        <ele>480.8</ele>
        <time>2012-05-28T07:39:41Z</time>
      </trkpt>
      <trkpt lat="44.19585" lon="5.94217">
        <ele>480.8</ele>
        <time>2012-05-28T07:40:10Z</time>
      </trkpt>
      <trkpt lat="44.19584" lon="5.94211">
        <ele>480.8</ele>
        <time>2012-05-28T07:43:41Z</time>
      </trkpt>
      <trkpt lat="44.19595" lon="5.942">
        <ele>480.8</ele>
        <time>2012-05-28T07:43:46Z</time>
      </trkpt>
      <trkpt lat="44.19584" lon="5.94216">
        <ele>481.28</ele>
        <time>2012-05-28T07:44:45Z</time>
      </trkpt>
      <trkpt lat="44.19582" lon="5.9422">
        <ele>481.28</ele>
        <time>2012-05-28T07:45:28Z</time>
      </trkpt>
      <trkpt lat="44.19558" lon="5.94205">
        <ele>480.8</ele>
        <time>2012-05-28T07:45:46Z</time>
      </trkpt>
      <trkpt lat="44.19528" lon="5.9422">
        <ele>480.32</ele>
        <time>2012-05-28T07:46:02Z</time>
      </trkpt>
      <trkpt lat="44.19522" lon="5.94215">
        <ele>480.8</ele>
        <time>2012-05-28T07:46:06Z</time>
      </trkpt>
      <trkpt lat="44.19523" lon="5.94209">
        <ele>481.28</ele>
        <time>2012-05-28T07:46:08Z</time>
      </trkpt>
      <trkpt lat="44.19525" lon="5.94175">
        <ele>484.64</ele>
        <time>2012-05-28T07:46:19Z</time>
      </trkpt>
      <trkpt lat="44.19524" lon="5.94173">
        <ele>484.64</ele>
        <time>2012-05-28T07:46:20Z</time>
      </trkpt>
      <trkpt lat="44.19447" lon="5.94166">
        <ele>489.93</ele>
        <time>2012-05-28T07:46:56Z</time>
      </trkpt>
      <trkpt lat="44.19404" lon="5.94191">
        <ele>493.29</ele>
        <time>2012-05-28T07:47:14Z</time>
      </trkpt>
      <trkpt lat="44.19349" lon="5.94212">
        <ele>496.66</ele>
        <time>2012-05-28T07:47:36Z</time>
      </trkpt>
      <trkpt lat="44.19277" lon="5.94246">
        <ele>501.46</ele>
        <time>2012-05-28T07:48:07Z</time>
      </trkpt>
      <trkpt lat="44.19214" lon="5.94286">
        <ele>504.83</ele>
        <time>2012-05-28T07:48:36Z</time>
      </trkpt>
      <trkpt lat="44.19191" lon="5.94298">
        <ele>507.23</ele>
        <time>2012-05-28T07:48:47Z</time>
      </trkpt>
      <trkpt lat="44.19122" lon="5.94356">
        <ele>511.56</ele>
        <time>2012-05-28T07:49:18Z</time>
      </trkpt>
      <trkpt lat="44.19058" lon="5.94351">
        <ele>517.81</ele>
        <time>2012-05-28T07:49:46Z</time>
      </trkpt>
      <trkpt lat="44.1902" lon="5.94352">
        <ele>522.13</ele>
        <time>2012-05-28T07:50:06Z</time>
      </trkpt>
      <trkpt lat="44.19009" lon="5.94335">
        <ele>524.54</ele>
        <time>2012-05-28T07:50:14Z</time>
      </trkpt>
      <trkpt lat="44.18991" lon="5.94286">
        <ele>527.9</ele>
        <time>2012-05-28T07:50:31Z</time>
      </trkpt>
      <trkpt lat="44.18967" lon="5.94255">
        <ele>530.79</ele>
        <time>2012-05-28T07:50:47Z</time>
      </trkpt>
      <trkpt lat="44.18944" lon="5.94228">
        <ele>534.15</ele>
        <time>2012-05-28T07:51:01Z</time>
      </trkpt>
      <trkpt lat="44.1892" lon="5.94186">
        <ele>537.51</ele>
        <time>2012-05-28T07:51:19Z</time>
      </trkpt>
      <trkpt lat="44.18833" lon="5.9417">
        <ele>541.36</ele>
        <time>2012-05-28T07:51:52Z</time>
      </trkpt>
      <trkpt lat="44.1869" lon="5.94043">
        <ele>543.28</ele>
        <time>2012-05-28T07:52:32Z</time>
      </trkpt>
      <trkpt lat="44.18601" lon="5.93951">
        <ele>544.24</ele>
        <time>2012-05-28T07:52:56Z</time>
      </trkpt>
      <trkpt lat="44.18473" lon="5.93759">
        <ele>546.65</ele>
        <time>2012-05-28T07:53:37Z</time>
      </trkpt>
      <trkpt lat="44.18336" lon="5.93534">
        <ele>550.97</ele>
        <time>2012-05-28T07:54:24Z</time>
      </trkpt>
      <trkpt lat="44.18274" lon="5.93371">
        <ele>552.41</ele>
        <time>2012-05-28T07:54:54Z</time>
      </trkpt>
      <trkpt lat="44.18257" lon="5.93318">
        <ele>551.45</ele>
        <time>2012-05-28T07:55:11Z</time>
      </trkpt>
      <trkpt lat="44.18262" lon="5.9332">
        <ele>550.97</ele>
        <time>2012-05-28T07:55:35Z</time>
      </trkpt>
      <trkpt lat="44.18262" lon="5.93322">
        <ele>550.97</ele>
        <time>2012-05-28T07:55:49Z</time>
      </trkpt>
      <trkpt lat="44.18257" lon="5.93311">
        <ele>551.45</ele>
        <time>2012-05-28T07:55:53Z</time>
      </trkpt>
      <trkpt lat="44.18229" lon="5.93242">
        <ele>551.45</ele>
        <time>2012-05-28T07:56:03Z</time>
      </trkpt>
      <trkpt lat="44.18217" lon="5.93227">
        <ele>551.45</ele>
        <time>2012-05-28T07:56:06Z</time>
      </trkpt>
      <trkpt lat="44.18164" lon="5.93211">
        <ele>550.97</ele>
        <time>2012-05-28T07:56:16Z</time>
      </trkpt>
      <trkpt lat="44.18095" lon="5.93196">
        <ele>547.13</ele>
        <time>2012-05-28T07:56:25Z</time>
      </trkpt>
      <trkpt lat="44.18086" lon="5.93194">
        <ele>547.13</ele>
        <time>2012-05-28T07:56:26Z</time>
      </trkpt>
      <trkpt lat="44.18045" lon="5.93186">
        <ele>543.28</ele>
        <time>2012-05-28T07:56:30Z</time>
      </trkpt>
      <trkpt lat="44.17998" lon="5.9318">
        <ele>538.96</ele>
        <time>2012-05-28T07:56:34Z</time>
      </trkpt>
      <trkpt lat="44.17986" lon="5.93177">
        <ele>538.96</ele>
        <time>2012-05-28T07:56:35Z</time>
      </trkpt>
      <trkpt lat="44.17974" lon="5.93173">
        <ele>537.99</ele>
        <time>2012-05-28T07:56:36Z</time>
      </trkpt>
      <trkpt lat="44.17902" lon="5.93118">
        <ele>532.71</ele>
        <time>2012-05-28T07:56:43Z</time>
      </trkpt>
      <trkpt lat="44.17877" lon="5.93083">
        <ele>529.34</ele>
        <time>2012-05-28T07:56:46Z</time>
      </trkpt>
      <trkpt lat="44.17868" lon="5.93062">
        <ele>526.94</ele>
        <time>2012-05-28T07:56:48Z</time>
      </trkpt>
      <trkpt lat="44.17856" lon="5.93036">
        <ele>524.54</ele>
        <time>2012-05-28T07:56:53Z</time>
      </trkpt>
      <trkpt lat="44.17834" lon="5.93018">
        <ele>520.69</ele>
        <time>2012-05-28T07:57:02Z</time>
      </trkpt>
      <trkpt lat="44.17828" lon="5.93017">
        <ele>520.69</ele>
        <time>2012-05-28T07:57:03Z</time>
      </trkpt>
      <trkpt lat="44.17763" lon="5.92994">
        <ele>513.48</ele>
        <time>2012-05-28T07:57:11Z</time>
      </trkpt>
      <trkpt lat="44.17732" lon="5.92979">
        <ele>510.12</ele>
        <time>2012-05-28T07:57:14Z</time>
      </trkpt>
      <trkpt lat="44.17665" lon="5.92948">
        <ele>505.79</ele>
        <time>2012-05-28T07:57:20Z</time>
      </trkpt>
      <trkpt lat="44.17643" lon="5.92936">
        <ele>504.83</ele>
        <time>2012-05-28T07:57:22Z</time>
      </trkpt>
      <trkpt lat="44.1759" lon="5.92922">
        <ele>501.46</ele>
        <time>2012-05-28T07:57:27Z</time>
      </trkpt>
      <trkpt lat="44.1757" lon="5.92927">
        <ele>500.5</ele>
        <time>2012-05-28T07:57:29Z</time>
      </trkpt>
      <trkpt lat="44.17539" lon="5.92935">
        <ele>499.06</ele>
        <time>2012-05-28T07:57:32Z</time>
      </trkpt>
      <trkpt lat="44.1752" lon="5.92933">
        <ele>497.62</ele>
        <time>2012-05-28T07:57:34Z</time>
      </trkpt>
      <trkpt lat="44.17502" lon="5.92926">
        <ele>496.18</ele>
        <time>2012-05-28T07:57:36Z</time>
      </trkpt>
      <trkpt lat="44.17494" lon="5.9292">
        <ele>495.7</ele>
        <time>2012-05-28T07:57:37Z</time>
      </trkpt>
      <trkpt lat="44.17463" lon="5.92892">
        <ele>492.33</ele>
        <time>2012-05-28T07:57:41Z</time>
      </trkpt>
      <trkpt lat="44.17435" lon="5.92881">
        <ele>489.45</ele>
        <time>2012-05-28T07:57:45Z</time>
      </trkpt>
      <trkpt lat="44.17398" lon="5.92875">
        <ele>485.6</ele>
        <time>2012-05-28T07:57:50Z</time>
      </trkpt>
      <trkpt lat="44.17377" lon="5.92855">
        <ele>483.68</ele>
        <time>2012-05-28T07:57:53Z</time>
      </trkpt>
      <trkpt lat="44.17357" lon="5.92833">
        <ele>482.24</ele>
        <time>2012-05-28T07:57:56Z</time>
      </trkpt>
      <trkpt lat="44.17333" lon="5.92809">
        <ele>481.76</ele>
        <time>2012-05-28T07:58:01Z</time>
      </trkpt>
      <trkpt lat="44.17326" lon="5.92797">
        <ele>481.28</ele>
        <time>2012-05-28T07:58:03Z</time>
      </trkpt>
      <trkpt lat="44.17266" lon="5.92763">
        <ele>484.64</ele>
        <time>2012-05-28T07:58:18Z</time>
      </trkpt>
      <trkpt lat="44.1705" lon="5.92699">
        <ele>480.32</ele>
        <time>2012-05-28T07:59:01Z</time>
      </trkpt>
      <trkpt lat="44.17045" lon="5.92699">
        <ele>480.32</ele>
        <time>2012-05-28T07:59:02Z</time>
      </trkpt>
      <trkpt lat="44.17018" lon="5.92694">
        <ele>480.32</ele>
        <time>2012-05-28T07:59:07Z</time>
      </trkpt>
      <trkpt lat="44.16952" lon="5.92658">
        <ele>478.39</ele>
        <time>2012-05-28T07:59:20Z</time>
      </trkpt>
      <trkpt lat="44.1693" lon="5.9265">
        <ele>476.95</ele>
        <time>2012-05-28T07:59:23Z</time>
      </trkpt>
      <trkpt lat="44.16898" lon="5.92639">
        <ele>476.95</ele>
        <time>2012-05-28T07:59:28Z</time>
      </trkpt>
      <trkpt lat="44.16839" lon="5.92637">
        <ele>475.51</ele>
        <time>2012-05-28T07:59:37Z</time>
      </trkpt>
      <trkpt lat="44.16817" lon="5.92642">
        <ele>475.51</ele>
        <time>2012-05-28T07:59:41Z</time>
      </trkpt>
      <trkpt lat="44.16786" lon="5.92634">
        <ele>475.99</ele>
        <time>2012-05-28T07:59:47Z</time>
      </trkpt>
      <trkpt lat="44.16759" lon="5.9258">
        <ele>472.14</ele>
        <time>2012-05-28T07:59:58Z</time>
      </trkpt>
      <trkpt lat="44.16748" lon="5.92551">
        <ele>468.3</ele>
        <time>2012-05-28T08:00:03Z</time>
      </trkpt>
      <trkpt lat="44.16733" lon="5.9253">
        <ele>466.38</ele>
        <time>2012-05-28T08:00:09Z</time>
      </trkpt>
      <trkpt lat="44.16663" lon="5.92609">
        <ele>468.3</ele>
        <time>2012-05-28T08:00:29Z</time>
      </trkpt>
      <trkpt lat="44.16623" lon="5.92748">
        <ele>467.34</ele>
        <time>2012-05-28T08:00:49Z</time>
      </trkpt>
      <trkpt lat="44.16533" lon="5.93013">
        <ele>468.78</ele>
        <time>2012-05-28T08:01:22Z</time>
      </trkpt>
      <trkpt lat="44.16461" lon="5.93115">
        <ele>469.26</ele>
        <time>2012-05-28T08:01:43Z</time>
      </trkpt>
      <trkpt lat="44.1643" lon="5.93143">
        <ele>468.3</ele>
        <time>2012-05-28T08:01:49Z</time>
      </trkpt>
      <trkpt lat="44.16411" lon="5.93164">
        <ele>467.34</ele>
        <time>2012-05-28T08:01:52Z</time>
      </trkpt>
      <trkpt lat="44.16318" lon="5.93261">
        <ele>463.01</ele>
        <time>2012-05-28T08:02:05Z</time>
      </trkpt>
      <trkpt lat="44.16312" lon="5.93271">
        <ele>463.49</ele>
        <time>2012-05-28T08:02:06Z</time>
      </trkpt>
      <trkpt lat="44.16295" lon="5.93319">
        <ele>461.09</ele>
        <time>2012-05-28T08:02:10Z</time>
      </trkpt>
      <trkpt lat="44.16294" lon="5.93361">
        <ele>460.13</ele>
        <time>2012-05-28T08:02:13Z</time>
      </trkpt>
      <trkpt lat="44.16311" lon="5.93549">
        <ele>458.21</ele>
        <time>2012-05-28T08:02:28Z</time>
      </trkpt>
      <trkpt lat="44.16261" lon="5.93721">
        <ele>459.65</ele>
        <time>2012-05-28T08:02:52Z</time>
      </trkpt>
      <trkpt lat="44.16183" lon="5.93982">
        <ele>460.61</ele>
        <time>2012-05-28T08:03:28Z</time>
      </trkpt>
      <trkpt lat="44.16178" lon="5.94202">
        <ele>458.21</ele>
        <time>2012-05-28T08:03:53Z</time>
      </trkpt>
      <trkpt lat="44.16178" lon="5.94212">
        <ele>458.21</ele>
        <time>2012-05-28T08:03:54Z</time>
      </trkpt>
      <trkpt lat="44.16183" lon="5.94331">
        <ele>454.84</ele>
        <time>2012-05-28T08:04:05Z</time>
      </trkpt>
      <trkpt lat="44.16184" lon="5.94413">
        <ele>452.44</ele>
        <time>2012-05-28T08:04:12Z</time>
      </trkpt>
      <trkpt lat="44.16201" lon="5.94499">
        <ele>451</ele>
        <time>2012-05-28T08:04:21Z</time>
      </trkpt>
      <trkpt lat="44.16201" lon="5.94504">
        <ele>450.52</ele>
        <time>2012-05-28T08:04:22Z</time>
      </trkpt>
      <trkpt lat="44.16192" lon="5.94509">
        <ele>450.52</ele>
        <time>2012-05-28T08:04:26Z</time>
      </trkpt>
      <trkpt lat="44.1619" lon="5.9451">
        <ele>450.52</ele>
        <time>2012-05-28T08:04:28Z</time>
      </trkpt>
      <trkpt lat="44.16156" lon="5.94554">
        <ele>452.44</ele>
        <time>2012-05-28T08:04:47Z</time>
      </trkpt>
      <trkpt lat="44.16187" lon="5.94706">
        <ele>456.28</ele>
        <time>2012-05-28T08:05:21Z</time>
      </trkpt>
      <trkpt lat="44.162" lon="5.94787">
        <ele>455.8</ele>
        <time>2012-05-28T08:05:34Z</time>
      </trkpt>
      <trkpt lat="44.16203" lon="5.94849">
        <ele>456.28</ele>
        <time>2012-05-28T08:05:43Z</time>
      </trkpt>
      <trkpt lat="44.16194" lon="5.94902">
        <ele>455.8</ele>
        <time>2012-05-28T08:05:51Z</time>
      </trkpt>
      <trkpt lat="44.1614" lon="5.94975">
        <ele>460.61</ele>
        <time>2012-05-28T08:06:19Z</time>
      </trkpt>
      <trkpt lat="44.16059" lon="5.95024">
        <ele>463.49</ele>
        <time>2012-05-28T08:06:49Z</time>
      </trkpt>
      <trkpt lat="44.16014" lon="5.95037">
        <ele>464.45</ele>
        <time>2012-05-28T08:07:03Z</time>
      </trkpt>
      <trkpt lat="44.15949" lon="5.94982">
        <ele>466.86</ele>
        <time>2012-05-28T08:07:28Z</time>
      </trkpt>
      <trkpt lat="44.15946" lon="5.94981">
        <ele>466.86</ele>
        <time>2012-05-28T08:07:29Z</time>
      </trkpt>
      <trkpt lat="44.15901" lon="5.94902">
        <ele>472.63</ele>
        <time>2012-05-28T08:08:03Z</time>
      </trkpt>
      <trkpt lat="44.15887" lon="5.94843">
        <ele>475.99</ele>
        <time>2012-05-28T08:08:23Z</time>
      </trkpt>
      <trkpt lat="44.15879" lon="5.94775">
        <ele>482.24</ele>
        <time>2012-05-28T08:08:54Z</time>
      </trkpt>
      <trkpt lat="44.15879" lon="5.94773">
        <ele>482.24</ele>
        <time>2012-05-28T08:08:55Z</time>
      </trkpt>
      <trkpt lat="44.15871" lon="5.94743">
        <ele>486.08</ele>
        <time>2012-05-28T08:09:13Z</time>
      </trkpt>
      <trkpt lat="44.15861" lon="5.94725">
        <ele>488.97</ele>
        <time>2012-05-28T08:09:26Z</time>
      </trkpt>
      <trkpt lat="44.15841" lon="5.94695">
        <ele>492.81</ele>
        <time>2012-05-28T08:09:47Z</time>
      </trkpt>
      <trkpt lat="44.15837" lon="5.94686">
        <ele>492.81</ele>
        <time>2012-05-28T08:09:53Z</time>
      </trkpt>
      <trkpt lat="44.15812" lon="5.94629">
        <ele>498.58</ele>
        <time>2012-05-28T08:10:29Z</time>
      </trkpt>
      <trkpt lat="44.15805" lon="5.94593">
        <ele>501.95</ele>
        <time>2012-05-28T08:10:48Z</time>
      </trkpt>
      <trkpt lat="44.15799" lon="5.94541">
        <ele>508.19</ele>
        <time>2012-05-28T08:11:20Z</time>
      </trkpt>
      <trkpt lat="44.15797" lon="5.94529">
        <ele>509.64</ele>
        <time>2012-05-28T08:11:28Z</time>
      </trkpt>
      <trkpt lat="44.15795" lon="5.94499">
        <ele>514.92</ele>
        <time>2012-05-28T08:11:50Z</time>
      </trkpt>
      <trkpt lat="44.15794" lon="5.94479">
        <ele>518.29</ele>
        <time>2012-05-28T08:12:03Z</time>
      </trkpt>
      <trkpt lat="44.15793" lon="5.94443">
        <ele>524.06</ele>
        <time>2012-05-28T08:12:35Z</time>
      </trkpt>
      <trkpt lat="44.1578" lon="5.94406">
        <ele>528.38</ele>
        <time>2012-05-28T08:13:12Z</time>
      </trkpt>
      <trkpt lat="44.15778" lon="5.94399">
        <ele>529.82</ele>
        <time>2012-05-28T08:13:17Z</time>
      </trkpt>
      <trkpt lat="44.15776" lon="5.94378">
        <ele>533.19</ele>
        <time>2012-05-28T08:13:31Z</time>
      </trkpt>
      <trkpt lat="44.15757" lon="5.94334">
        <ele>538.96</ele>
        <time>2012-05-28T08:14:04Z</time>
      </trkpt>
      <trkpt lat="44.15751" lon="5.94312">
        <ele>541.84</ele>
        <time>2012-05-28T08:14:19Z</time>
      </trkpt>
      <trkpt lat="44.15744" lon="5.94284">
        <ele>545.2</ele>
        <time>2012-05-28T08:14:37Z</time>
      </trkpt>
      <trkpt lat="44.15729" lon="5.9423">
        <ele>550.49</ele>
        <time>2012-05-28T08:15:14Z</time>
      </trkpt>
      <trkpt lat="44.1572" lon="5.94188">
        <ele>554.82</ele>
        <time>2012-05-28T08:15:40Z</time>
      </trkpt>
      <trkpt lat="44.15716" lon="5.94173">
        <ele>555.78</ele>
        <time>2012-05-28T08:15:51Z</time>
      </trkpt>
      <trkpt lat="44.15714" lon="5.94171">
        <ele>555.78</ele>
        <time>2012-05-28T08:15:53Z</time>
      </trkpt>
      <trkpt lat="44.15707" lon="5.94162">
        <ele>557.22</ele>
        <time>2012-05-28T08:16:01Z</time>
      </trkpt>
      <trkpt lat="44.1569" lon="5.94139">
        <ele>559.62</ele>
        <time>2012-05-28T08:16:22Z</time>
      </trkpt>
      <trkpt lat="44.15661" lon="5.94141">
        <ele>564.43</ele>
        <time>2012-05-28T08:16:49Z</time>
      </trkpt>
      <trkpt lat="44.15634" lon="5.94156">
        <ele>568.28</ele>
        <time>2012-05-28T08:17:13Z</time>
      </trkpt>
      <trkpt lat="44.15613" lon="5.94167">
        <ele>571.64</ele>
        <time>2012-05-28T08:17:31Z</time>
      </trkpt>
      <trkpt lat="44.15609" lon="5.94168">
        <ele>571.64</ele>
        <time>2012-05-28T08:17:34Z</time>
      </trkpt>
      <trkpt lat="44.15585" lon="5.94175">
        <ele>575.49</ele>
        <time>2012-05-28T08:17:54Z</time>
      </trkpt>
      <trkpt lat="44.15571" lon="5.94181">
        <ele>578.37</ele>
        <time>2012-05-28T08:18:09Z</time>
      </trkpt>
      <trkpt lat="44.15547" lon="5.94221">
        <ele>583.18</ele>
        <time>2012-05-28T08:18:42Z</time>
      </trkpt>
      <trkpt lat="44.15533" lon="5.94249">
        <ele>587.5</ele>
        <time>2012-05-28T08:19:05Z</time>
      </trkpt>
      <trkpt lat="44.15516" lon="5.94272">
        <ele>591.83</ele>
        <time>2012-05-28T08:19:29Z</time>
      </trkpt>
      <trkpt lat="44.15505" lon="5.94289">
        <ele>594.23</ele>
        <time>2012-05-28T08:19:45Z</time>
      </trkpt>
      <trkpt lat="44.155" lon="5.94276">
        <ele>595.67</ele>
        <time>2012-05-28T08:19:55Z</time>
      </trkpt>
      <trkpt lat="44.15514" lon="5.94251">
        <ele>598.56</ele>
        <time>2012-05-28T08:20:15Z</time>
      </trkpt>
      <trkpt lat="44.15519" lon="5.942">
        <ele>602.88</ele>
        <time>2012-05-28T08:20:50Z</time>
      </trkpt>
      <trkpt lat="44.15519" lon="5.94185">
        <ele>603.85</ele>
        <time>2012-05-28T08:21:00Z</time>
      </trkpt>
      <trkpt lat="44.15515" lon="5.94147">
        <ele>607.69</ele>
        <time>2012-05-28T08:21:25Z</time>
      </trkpt>
      <trkpt lat="44.1551" lon="5.94103">
        <ele>611.06</ele>
        <time>2012-05-28T08:21:56Z</time>
      </trkpt>
      <trkpt lat="44.1551" lon="5.94101">
        <ele>611.06</ele>
        <time>2012-05-28T08:21:57Z</time>
      </trkpt>
      <trkpt lat="44.15512" lon="5.94076">
        <ele>614.42</ele>
        <time>2012-05-28T08:22:15Z</time>
      </trkpt>
      <trkpt lat="44.15515" lon="5.94031">
        <ele>618.26</ele>
        <time>2012-05-28T08:22:44Z</time>
      </trkpt>
      <trkpt lat="44.15515" lon="5.9403">
        <ele>618.26</ele>
        <time>2012-05-28T08:22:45Z</time>
      </trkpt>
      <trkpt lat="44.15514" lon="5.9402">
        <ele>619.71</ele>
        <time>2012-05-28T08:22:53Z</time>
      </trkpt>
      <trkpt lat="44.15513" lon="5.9402">
        <ele>619.71</ele>
        <time>2012-05-28T08:22:54Z</time>
      </trkpt>
      <trkpt lat="44.15503" lon="5.9408">
        <ele>620.19</ele>
        <time>2012-05-28T08:23:12Z</time>
      </trkpt>
      <trkpt lat="44.15493" lon="5.9422">
        <ele>621.63</ele>
        <time>2012-05-28T08:23:39Z</time>
      </trkpt>
      <trkpt lat="44.15458" lon="5.94257">
        <ele>621.15</ele>
        <time>2012-05-28T08:23:54Z</time>
      </trkpt>
      <trkpt lat="44.15452" lon="5.94312">
        <ele>619.71</ele>
        <time>2012-05-28T08:24:03Z</time>
      </trkpt>
      <trkpt lat="44.15451" lon="5.94366">
        <ele>618.26</ele>
        <time>2012-05-28T08:24:11Z</time>
      </trkpt>
      <trkpt lat="44.15431" lon="5.94459">
        <ele>615.86</ele>
        <time>2012-05-28T08:24:29Z</time>
      </trkpt>
      <trkpt lat="44.15417" lon="5.94481">
        <ele>615.86</ele>
        <time>2012-05-28T08:24:35Z</time>
      </trkpt>
      <trkpt lat="44.15397" lon="5.94493">
        <ele>617.3</ele>
        <time>2012-05-28T08:24:46Z</time>
      </trkpt>
      <trkpt lat="44.15362" lon="5.94532">
        <ele>622.11</ele>
        <time>2012-05-28T08:25:14Z</time>
      </trkpt>
      <trkpt lat="44.15333" lon="5.94519">
        <ele>622.59</ele>
        <time>2012-05-28T08:25:27Z</time>
      </trkpt>
      <trkpt lat="44.15319" lon="5.94511">
        <ele>622.59</ele>
        <time>2012-05-28T08:25:34Z</time>
      </trkpt>
      <trkpt lat="44.15309" lon="5.94525">
        <ele>622.11</ele>
        <time>2012-05-28T08:25:40Z</time>
      </trkpt>
      <trkpt lat="44.15313" lon="5.94553">
        <ele>625.47</ele>
        <time>2012-05-28T08:25:56Z</time>
      </trkpt>
      <trkpt lat="44.15325" lon="5.94615">
        <ele>627.4</ele>
        <time>2012-05-28T08:26:59Z</time>
      </trkpt>
      <trkpt lat="44.15309" lon="5.9469">
        <ele>627.4</ele>
        <time>2012-05-28T08:27:16Z</time>
      </trkpt>
      <trkpt lat="44.15293" lon="5.94713">
        <ele>626.92</ele>
        <time>2012-05-28T08:27:21Z</time>
      </trkpt>
      <trkpt lat="44.15255" lon="5.94753">
        <ele>624.51</ele>
        <time>2012-05-28T08:27:32Z</time>
      </trkpt>
      <trkpt lat="44.1525" lon="5.94755">
        <ele>624.51</ele>
        <time>2012-05-28T08:27:33Z</time>
      </trkpt>
      <trkpt lat="44.15238" lon="5.94757">
        <ele>623.07</ele>
        <time>2012-05-28T08:27:35Z</time>
      </trkpt>
      <trkpt lat="44.15209" lon="5.94756">
        <ele>619.23</ele>
        <time>2012-05-28T08:27:39Z</time>
      </trkpt>
      <trkpt lat="44.15182" lon="5.94763">
        <ele>614.9</ele>
        <time>2012-05-28T08:27:44Z</time>
      </trkpt>
      <trkpt lat="44.15177" lon="5.94772">
        <ele>613.46</ele>
        <time>2012-05-28T08:27:46Z</time>
      </trkpt>
      <trkpt lat="44.15176" lon="5.94779">
        <ele>614.42</ele>
        <time>2012-05-28T08:27:49Z</time>
      </trkpt>
      <trkpt lat="44.15174" lon="5.94793">
        <ele>615.38</ele>
        <time>2012-05-28T08:27:56Z</time>
      </trkpt>
      <trkpt lat="44.15165" lon="5.94806">
        <ele>616.82</ele>
        <time>2012-05-28T08:28:05Z</time>
      </trkpt>
      <trkpt lat="44.15153" lon="5.94836">
        <ele>620.19</ele>
        <time>2012-05-28T08:28:24Z</time>
      </trkpt>
      <trkpt lat="44.15136" lon="5.94845">
        <ele>623.55</ele>
        <time>2012-05-28T08:28:40Z</time>
      </trkpt>
      <trkpt lat="44.15116" lon="5.94843">
        <ele>626.92</ele>
        <time>2012-05-28T08:28:57Z</time>
      </trkpt>
      <trkpt lat="44.1509" lon="5.94842">
        <ele>630.28</ele>
        <time>2012-05-28T08:29:20Z</time>
      </trkpt>
      <trkpt lat="44.15076" lon="5.94846">
        <ele>633.17</ele>
        <time>2012-05-28T08:29:44Z</time>
      </trkpt>
      <trkpt lat="44.15045" lon="5.94855">
        <ele>635.09</ele>
        <time>2012-05-28T08:30:03Z</time>
      </trkpt>
      <trkpt lat="44.1502" lon="5.94854">
        <ele>634.61</ele>
        <time>2012-05-28T08:30:13Z</time>
      </trkpt>
      <trkpt lat="44.15016" lon="5.94866">
        <ele>635.09</ele>
        <time>2012-05-28T08:30:27Z</time>
      </trkpt>
      <trkpt lat="44.15011" lon="5.94916">
        <ele>632.2</ele>
        <time>2012-05-28T08:30:42Z</time>
      </trkpt>
      <trkpt lat="44.15011" lon="5.94968">
        <ele>628.84</ele>
        <time>2012-05-28T08:30:48Z</time>
      </trkpt>
      <trkpt lat="44.15017" lon="5.95017">
        <ele>624.99</ele>
        <time>2012-05-28T08:30:53Z</time>
      </trkpt>
      <trkpt lat="44.1502" lon="5.9507">
        <ele>620.67</ele>
        <time>2012-05-28T08:30:58Z</time>
      </trkpt>
      <trkpt lat="44.15022" lon="5.951">
        <ele>617.3</ele>
        <time>2012-05-28T08:31:01Z</time>
      </trkpt>
      <trkpt lat="44.15031" lon="5.95138">
        <ele>612.5</ele>
        <time>2012-05-28T08:31:05Z</time>
      </trkpt>
      <trkpt lat="44.15033" lon="5.95147">
        <ele>612.5</ele>
        <time>2012-05-28T08:31:06Z</time>
      </trkpt>
      <trkpt lat="44.15015" lon="5.9518">
        <ele>609.61</ele>
        <time>2012-05-28T08:31:24Z</time>
      </trkpt>
      <trkpt lat="44.15003" lon="5.95192">
        <ele>608.17</ele>
        <time>2012-05-28T08:32:00Z</time>
      </trkpt>
      <trkpt lat="44.15001" lon="5.95197">
        <ele>608.17</ele>
        <time>2012-05-28T08:32:01Z</time>
      </trkpt>
      <trkpt lat="44.1498" lon="5.95236">
        <ele>604.33</ele>
        <time>2012-05-28T08:32:07Z</time>
      </trkpt>
      <trkpt lat="44.14956" lon="5.95234">
        <ele>604.33</ele>
        <time>2012-05-28T08:32:12Z</time>
      </trkpt>
      <trkpt lat="44.14944" lon="5.95228">
        <ele>604.33</ele>
        <time>2012-05-28T08:32:15Z</time>
      </trkpt>
      <trkpt lat="44.1494" lon="5.95227">
        <ele>604.81</ele>
        <time>2012-05-28T08:32:16Z</time>
      </trkpt>
      <trkpt lat="44.14916" lon="5.95231">
        <ele>605.29</ele>
        <time>2012-05-28T08:32:21Z</time>
      </trkpt>
      <trkpt lat="44.14909" lon="5.95226">
        <ele>605.29</ele>
        <time>2012-05-28T08:32:23Z</time>
      </trkpt>
      <trkpt lat="44.1488" lon="5.95203">
        <ele>606.73</ele>
        <time>2012-05-28T08:32:31Z</time>
      </trkpt>
      <trkpt lat="44.14865" lon="5.95209">
        <ele>605.29</ele>
        <time>2012-05-28T08:32:35Z</time>
      </trkpt>
      <trkpt lat="44.14841" lon="5.95222">
        <ele>606.73</ele>
        <time>2012-05-28T08:33:20Z</time>
      </trkpt>
      <trkpt lat="44.14826" lon="5.9519">
        <ele>612.02</ele>
        <time>2012-05-28T08:33:40Z</time>
      </trkpt>
      <trkpt lat="44.1482" lon="5.95177">
        <ele>615.38</ele>
        <time>2012-05-28T08:33:51Z</time>
      </trkpt>
      <trkpt lat="44.14814" lon="5.95168">
        <ele>617.3</ele>
        <time>2012-05-28T08:34:30Z</time>
      </trkpt>
      <trkpt lat="44.14813" lon="5.95167">
        <ele>617.78</ele>
        <time>2012-05-28T08:34:31Z</time>
      </trkpt>
      <trkpt lat="44.14797" lon="5.95152">
        <ele>621.15</ele>
        <time>2012-05-28T08:34:48Z</time>
      </trkpt>
      <trkpt lat="44.14784" lon="5.95139">
        <ele>624.51</ele>
        <time>2012-05-28T08:35:03Z</time>
      </trkpt>
      <trkpt lat="44.14783" lon="5.95139">
        <ele>624.51</ele>
        <time>2012-05-28T08:35:04Z</time>
      </trkpt>
      <trkpt lat="44.14781" lon="5.95138">
        <ele>624.99</ele>
        <time>2012-05-28T08:35:06Z</time>
      </trkpt>
      <trkpt lat="44.14774" lon="5.95115">
        <ele>628.84</ele>
        <time>2012-05-28T08:35:36Z</time>
      </trkpt>
      <trkpt lat="44.14775" lon="5.95112">
        <ele>628.84</ele>
        <time>2012-05-28T08:35:38Z</time>
      </trkpt>
      <trkpt lat="44.14764" lon="5.95069">
        <ele>634.13</ele>
        <time>2012-05-28T08:36:09Z</time>
      </trkpt>
      <trkpt lat="44.14742" lon="5.9504">
        <ele>636.53</ele>
        <time>2012-05-28T08:36:31Z</time>
      </trkpt>
      <trkpt lat="44.14733" lon="5.95027">
        <ele>637.97</ele>
        <time>2012-05-28T08:36:41Z</time>
      </trkpt>
      <trkpt lat="44.14718" lon="5.94986">
        <ele>641.34</ele>
        <time>2012-05-28T08:37:09Z</time>
      </trkpt>
      <trkpt lat="44.14711" lon="5.94974">
        <ele>643.26</ele>
        <time>2012-05-28T08:37:19Z</time>
      </trkpt>
      <trkpt lat="44.14688" lon="5.94966">
        <ele>639.41</ele>
        <time>2012-05-28T08:37:32Z</time>
      </trkpt>
      <trkpt lat="44.14664" lon="5.94974">
        <ele>636.05</ele>
        <time>2012-05-28T08:37:42Z</time>
      </trkpt>
      <trkpt lat="44.14654" lon="5.94986">
        <ele>632.68</ele>
        <time>2012-05-28T08:37:49Z</time>
      </trkpt>
      <trkpt lat="44.14631" lon="5.9499">
        <ele>629.32</ele>
        <time>2012-05-28T08:38:02Z</time>
      </trkpt>
      <trkpt lat="44.14624" lon="5.94974">
        <ele>631.24</ele>
        <time>2012-05-28T08:38:27Z</time>
      </trkpt>
      <trkpt lat="44.14624" lon="5.94974">
        <ele>630.76</ele>
        <time>2012-05-28T08:39:16Z</time>
      </trkpt>
      <trkpt lat="44.1458" lon="5.94993">
        <ele>623.07</ele>
        <time>2012-05-28T08:39:31Z</time>
      </trkpt>
      <trkpt lat="44.14571" lon="5.95006">
        <ele>620.19</ele>
        <time>2012-05-28T08:39:35Z</time>
      </trkpt>
      <trkpt lat="44.14558" lon="5.95021">
        <ele>615.86</ele>
        <time>2012-05-28T08:39:42Z</time>
      </trkpt>
      <trkpt lat="44.1455" lon="5.95033">
        <ele>612.02</ele>
        <time>2012-05-28T08:39:46Z</time>
      </trkpt>
      <trkpt lat="44.1454" lon="5.9505">
        <ele>607.69</ele>
        <time>2012-05-28T08:39:54Z</time>
      </trkpt>
      <trkpt lat="44.1454" lon="5.95058">
        <ele>606.73</ele>
        <time>2012-05-28T08:40:28Z</time>
      </trkpt>
      <trkpt lat="44.14544" lon="5.95069">
        <ele>606.25</ele>
        <time>2012-05-28T08:40:34Z</time>
      </trkpt>
      <trkpt lat="44.14543" lon="5.95083">
        <ele>603.36</ele>
        <time>2012-05-28T08:40:41Z</time>
      </trkpt>
      <trkpt lat="44.14545" lon="5.95094">
        <ele>600.48</ele>
        <time>2012-05-28T08:40:57Z</time>
      </trkpt>
      <trkpt lat="44.14469" lon="5.95096">
        <ele>600.48</ele>
        <time>2012-05-28T08:41:02Z</time>
      </trkpt>
      <trkpt lat="44.14459" lon="5.95092">
        <ele>600.96</ele>
        <time>2012-05-28T08:41:07Z</time>
      </trkpt>
      <trkpt lat="44.14454" lon="5.95092">
        <ele>600.48</ele>
        <time>2012-05-28T08:41:12Z</time>
      </trkpt>
      <trkpt lat="44.1448" lon="5.95085">
        <ele>600.48</ele>
        <time>2012-05-28T08:41:34Z</time>
      </trkpt>
      <trkpt lat="44.1451" lon="5.95076">
        <ele>600.96</ele>
        <time>2012-05-28T08:42:18Z</time>
      </trkpt>
      <trkpt lat="44.14511" lon="5.95076">
        <ele>600.48</ele>
        <time>2012-05-28T08:42:33Z</time>
      </trkpt>
      <trkpt lat="44.14525" lon="5.95077">
        <ele>600.48</ele>
        <time>2012-05-28T08:42:39Z</time>
      </trkpt>
      <trkpt lat="44.14524" lon="5.95113">
        <ele>600</ele>
        <time>2012-05-28T08:43:04Z</time>
      </trkpt>
      <trkpt lat="44.14524" lon="5.95112">
        <ele>594.23</ele>
        <time>2012-05-28T08:43:06Z</time>
      </trkpt>
      <trkpt lat="44.14524" lon="5.95113">
        <ele>594.71</ele>
        <time>2012-05-28T08:43:07Z</time>
      </trkpt>
      <trkpt lat="44.14528" lon="5.95112">
        <ele>596.15</ele>
        <time>2012-05-28T08:43:30Z</time>
      </trkpt>
      <trkpt lat="44.1453" lon="5.95108">
        <ele>596.15</ele>
        <time>2012-05-28T08:43:33Z</time>
      </trkpt>
      <trkpt lat="44.1453" lon="5.95092">
        <ele>599.52</ele>
        <time>2012-05-28T08:43:45Z</time>
      </trkpt>
      <trkpt lat="44.14534" lon="5.95082">
        <ele>601.92</ele>
        <time>2012-05-28T08:44:12Z</time>
      </trkpt>
      <trkpt lat="44.14544" lon="5.95072">
        <ele>604.81</ele>
        <time>2012-05-28T08:44:41Z</time>
      </trkpt>
      <trkpt lat="44.1454" lon="5.95037">
        <ele>610.09</ele>
        <time>2012-05-28T08:45:09Z</time>
      </trkpt>
      <trkpt lat="44.14555" lon="5.95021">
        <ele>614.9</ele>
        <time>2012-05-28T08:45:35Z</time>
      </trkpt>
      <trkpt lat="44.14566" lon="5.95004">
        <ele>619.23</ele>
        <time>2012-05-28T08:46:01Z</time>
      </trkpt>
      <trkpt lat="44.14564" lon="5.94999">
        <ele>619.23</ele>
        <time>2012-05-28T08:46:11Z</time>
      </trkpt>
      <trkpt lat="44.14558" lon="5.94968">
        <ele>615.38</ele>
        <time>2012-05-28T08:46:20Z</time>
      </trkpt>
      <trkpt lat="44.14559" lon="5.94952">
        <ele>615.38</ele>
        <time>2012-05-28T08:46:30Z</time>
      </trkpt>
      <trkpt lat="44.14553" lon="5.94973">
        <ele>611.54</ele>
        <time>2012-05-28T08:46:39Z</time>
      </trkpt>
      <trkpt lat="44.14552" lon="5.94979">
        <ele>610.57</ele>
        <time>2012-05-28T08:46:41Z</time>
      </trkpt>
      <trkpt lat="44.14549" lon="5.94993">
        <ele>607.21</ele>
        <time>2012-05-28T08:46:47Z</time>
      </trkpt>
      <trkpt lat="44.14542" lon="5.94983">
        <ele>604.81</ele>
        <time>2012-05-28T08:47:03Z</time>
      </trkpt>
      <trkpt lat="44.1453" lon="5.94998">
        <ele>605.29</ele>
        <time>2012-05-28T08:47:28Z</time>
      </trkpt>
      <trkpt lat="44.14523" lon="5.95011">
        <ele>605.29</ele>
        <time>2012-05-28T08:47:36Z</time>
      </trkpt>
      <trkpt lat="44.14516" lon="5.95021">
        <ele>606.25</ele>
        <time>2012-05-28T08:47:44Z</time>
      </trkpt>
      <trkpt lat="44.14488" lon="5.95067">
        <ele>606.73</ele>
        <time>2012-05-28T08:48:04Z</time>
      </trkpt>
      <trkpt lat="44.14485" lon="5.95069">
        <ele>607.69</ele>
        <time>2012-05-28T08:48:06Z</time>
      </trkpt>
      <trkpt lat="44.14468" lon="5.95103">
        <ele>605.29</ele>
        <time>2012-05-28T08:48:19Z</time>
      </trkpt>
      <trkpt lat="44.14458" lon="5.95099">
        <ele>604.33</ele>
        <time>2012-05-28T08:48:24Z</time>
      </trkpt>
      <trkpt lat="44.14404" lon="5.95059">
        <ele>602.88</ele>
        <time>2012-05-28T08:49:04Z</time>
      </trkpt>
      <trkpt lat="44.14369" lon="5.95028">
        <ele>602.4</ele>
        <time>2012-05-28T08:49:21Z</time>
      </trkpt>
      <trkpt lat="44.14356" lon="5.95012">
        <ele>603.36</ele>
        <time>2012-05-28T08:49:29Z</time>
      </trkpt>
      <trkpt lat="44.1432" lon="5.94996">
        <ele>602.88</ele>
        <time>2012-05-28T08:50:02Z</time>
      </trkpt>
      <trkpt lat="44.143" lon="5.9501">
        <ele>600</ele>
        <time>2012-05-28T08:51:18Z</time>
      </trkpt>
      <trkpt lat="44.14276" lon="5.95023">
        <ele>596.64</ele>
        <time>2012-05-28T08:51:22Z</time>
      </trkpt>
      <trkpt lat="44.14249" lon="5.9503">
        <ele>592.79</ele>
        <time>2012-05-28T08:51:28Z</time>
      </trkpt>
      <trkpt lat="44.14244" lon="5.9504">
        <ele>592.31</ele>
        <time>2012-05-28T08:51:33Z</time>
      </trkpt>
      <trkpt lat="44.14242" lon="5.95118">
        <ele>595.67</ele>
        <time>2012-05-28T08:52:06Z</time>
      </trkpt>
      <trkpt lat="44.14246" lon="5.95137">
        <ele>597.12</ele>
        <time>2012-05-28T08:52:16Z</time>
      </trkpt>
      <trkpt lat="44.14247" lon="5.95164">
        <ele>593.27</ele>
        <time>2012-05-28T08:52:23Z</time>
      </trkpt>
      <trkpt lat="44.14248" lon="5.95174">
        <ele>592.31</ele>
        <time>2012-05-28T08:52:25Z</time>
      </trkpt>
      <trkpt lat="44.14245" lon="5.95179">
        <ele>591.35</ele>
        <time>2012-05-28T08:52:27Z</time>
      </trkpt>
      <trkpt lat="44.1424" lon="5.95178">
        <ele>590.39</ele>
        <time>2012-05-28T08:52:29Z</time>
      </trkpt>
      <trkpt lat="44.14211" lon="5.95175">
        <ele>586.54</ele>
        <time>2012-05-28T08:52:41Z</time>
      </trkpt>
      <trkpt lat="44.14196" lon="5.95178">
        <ele>584.62</ele>
        <time>2012-05-28T08:52:58Z</time>
      </trkpt>
      <trkpt lat="44.14176" lon="5.95192">
        <ele>580.29</ele>
        <time>2012-05-28T08:53:05Z</time>
      </trkpt>
      <trkpt lat="44.14151" lon="5.9521">
        <ele>574.04</ele>
        <time>2012-05-28T08:53:13Z</time>
      </trkpt>
      <trkpt lat="44.14131" lon="5.95225">
        <ele>567.8</ele>
        <time>2012-05-28T08:53:23Z</time>
      </trkpt>
      <trkpt lat="44.14129" lon="5.95227">
        <ele>567.8</ele>
        <time>2012-05-28T08:53:24Z</time>
      </trkpt>
      <trkpt lat="44.14116" lon="5.95237">
        <ele>564.43</ele>
        <time>2012-05-28T08:53:29Z</time>
      </trkpt>
      <trkpt lat="44.14113" lon="5.95242">
        <ele>562.51</ele>
        <time>2012-05-28T08:54:00Z</time>
      </trkpt>
      <trkpt lat="44.14103" lon="5.95251">
        <ele>558.66</ele>
        <time>2012-05-28T08:54:06Z</time>
      </trkpt>
      <trkpt lat="44.14077" lon="5.95258">
        <ele>553.86</ele>
        <time>2012-05-28T08:54:13Z</time>
      </trkpt>
      <trkpt lat="44.14042" lon="5.95261">
        <ele>548.09</ele>
        <time>2012-05-28T08:54:21Z</time>
      </trkpt>
      <trkpt lat="44.14031" lon="5.9526">
        <ele>547.61</ele>
        <time>2012-05-28T08:54:24Z</time>
      </trkpt>
      <trkpt lat="44.14009" lon="5.95262">
        <ele>543.76</ele>
        <time>2012-05-28T08:54:28Z</time>
      </trkpt>
      <trkpt lat="44.13987" lon="5.95277">
        <ele>537.99</ele>
        <time>2012-05-28T08:54:32Z</time>
      </trkpt>
      <trkpt lat="44.13966" lon="5.95294">
        <ele>533.67</ele>
        <time>2012-05-28T08:54:36Z</time>
      </trkpt>
      <trkpt lat="44.13954" lon="5.95306">
        <ele>530.79</ele>
        <time>2012-05-28T08:54:38Z</time>
      </trkpt>
      <trkpt lat="44.13941" lon="5.95318">
        <ele>528.38</ele>
        <time>2012-05-28T08:54:41Z</time>
      </trkpt>
      <trkpt lat="44.13917" lon="5.95333">
        <ele>525.02</ele>
        <time>2012-05-28T08:54:45Z</time>
      </trkpt>
      <trkpt lat="44.13889" lon="5.95342">
        <ele>519.25</ele>
        <time>2012-05-28T08:54:49Z</time>
      </trkpt>
      <trkpt lat="44.13886" lon="5.95342">
        <ele>519.25</ele>
        <time>2012-05-28T08:54:50Z</time>
      </trkpt>
      <trkpt lat="44.13881" lon="5.95341">
        <ele>518.29</ele>
        <time>2012-05-28T08:56:03Z</time>
      </trkpt>
      <trkpt lat="44.13842" lon="5.95359">
        <ele>515.4</ele>
        <time>2012-05-28T08:56:11Z</time>
      </trkpt>
      <trkpt lat="44.13827" lon="5.95357">
        <ele>513.48</ele>
        <time>2012-05-28T08:56:15Z</time>
      </trkpt>
      <trkpt lat="44.13822" lon="5.95351">
        <ele>512.52</ele>
        <time>2012-05-28T08:56:18Z</time>
      </trkpt>
      <trkpt lat="44.13816" lon="5.9536">
        <ele>511.08</ele>
        <time>2012-05-28T08:56:22Z</time>
      </trkpt>
      <trkpt lat="44.13796" lon="5.95424">
        <ele>505.79</ele>
        <time>2012-05-28T08:56:30Z</time>
      </trkpt>
      <trkpt lat="44.13787" lon="5.95443">
        <ele>503.39</ele>
        <time>2012-05-28T08:56:32Z</time>
      </trkpt>
      <trkpt lat="44.13767" lon="5.95488">
        <ele>501.95</ele>
        <time>2012-05-28T08:56:36Z</time>
      </trkpt>
      <trkpt lat="44.13763" lon="5.95498">
        <ele>501.95</ele>
        <time>2012-05-28T08:56:37Z</time>
      </trkpt>
      <trkpt lat="44.13747" lon="5.95536">
        <ele>498.1</ele>
        <time>2012-05-28T08:56:46Z</time>
      </trkpt>
      <trkpt lat="44.13745" lon="5.95537">
        <ele>498.58</ele>
        <time>2012-05-28T08:56:47Z</time>
      </trkpt>
      <trkpt lat="44.13735" lon="5.95636">
        <ele>497.62</ele>
        <time>2012-05-28T08:57:07Z</time>
      </trkpt>
      <trkpt lat="44.13739" lon="5.95702">
        <ele>497.62</ele>
        <time>2012-05-28T08:57:51Z</time>
      </trkpt>
      <trkpt lat="44.13741" lon="5.95717">
        <ele>496.66</ele>
        <time>2012-05-28T08:58:54Z</time>
      </trkpt>
      <trkpt lat="44.1379" lon="5.95779">
        <ele>493.77</ele>
        <time>2012-05-28T08:59:09Z</time>
      </trkpt>
      <trkpt lat="44.1382" lon="5.95823">
        <ele>489.93</ele>
        <time>2012-05-28T08:59:16Z</time>
      </trkpt>
      <trkpt lat="44.13848" lon="5.95873">
        <ele>487.53</ele>
        <time>2012-05-28T08:59:25Z</time>
      </trkpt>
      <trkpt lat="44.13851" lon="5.95905">
        <ele>486.08</ele>
        <time>2012-05-28T08:59:29Z</time>
      </trkpt>
      <trkpt lat="44.13847" lon="5.95987">
        <ele>483.68</ele>
        <time>2012-05-28T08:59:41Z</time>
      </trkpt>
      <trkpt lat="44.13845" lon="5.95995">
        <ele>483.68</ele>
        <time>2012-05-28T08:59:42Z</time>
      </trkpt>
      <trkpt lat="44.13837" lon="5.96016">
        <ele>483.2</ele>
        <time>2012-05-28T08:59:45Z</time>
      </trkpt>
      <trkpt lat="44.13788" lon="5.96081">
        <ele>479.84</ele>
        <time>2012-05-28T08:59:57Z</time>
      </trkpt>
      <trkpt lat="44.13695" lon="5.9617">
        <ele>476.95</ele>
        <time>2012-05-28T09:00:20Z</time>
      </trkpt>
      <trkpt lat="44.13498" lon="5.96296">
        <ele>475.03</ele>
        <time>2012-05-28T09:00:53Z</time>
      </trkpt>
      <trkpt lat="44.13378" lon="5.96381">
        <ele>473.11</ele>
        <time>2012-05-28T09:01:13Z</time>
      </trkpt>
      <trkpt lat="44.13305" lon="5.96436">
        <ele>469.74</ele>
        <time>2012-05-28T09:01:25Z</time>
      </trkpt>
      <trkpt lat="44.13288" lon="5.9645">
        <ele>472.14</ele>
        <time>2012-05-28T09:01:28Z</time>
      </trkpt>
      <trkpt lat="44.13284" lon="5.96455">
        <ele>471.66</ele>
        <time>2012-05-28T09:01:29Z</time>
      </trkpt>
      <trkpt lat="44.13269" lon="5.96474">
        <ele>473.11</ele>
        <time>2012-05-28T09:01:33Z</time>
      </trkpt>
      <trkpt lat="44.13226" lon="5.96506">
        <ele>474.07</ele>
        <time>2012-05-28T09:01:44Z</time>
      </trkpt>
      <trkpt lat="44.13222" lon="5.96509">
        <ele>474.07</ele>
        <time>2012-05-28T09:01:45Z</time>
      </trkpt>
      <trkpt lat="44.13181" lon="5.96527">
        <ele>475.03</ele>
        <time>2012-05-28T09:01:55Z</time>
      </trkpt>
      <trkpt lat="44.13117" lon="5.96541">
        <ele>477.43</ele>
        <time>2012-05-28T09:02:14Z</time>
      </trkpt>
      <trkpt lat="44.13087" lon="5.96621">
        <ele>480.8</ele>
        <time>2012-05-28T09:02:40Z</time>
      </trkpt>
      <trkpt lat="44.13063" lon="5.96733">
        <ele>480.32</ele>
        <time>2012-05-28T09:02:59Z</time>
      </trkpt>
      <trkpt lat="44.13062" lon="5.9674">
        <ele>480.32</ele>
        <time>2012-05-28T09:03:00Z</time>
      </trkpt>
      <trkpt lat="44.13045" lon="5.9681">
        <ele>480.32</ele>
        <time>2012-05-28T09:03:11Z</time>
      </trkpt>
      <trkpt lat="44.13025" lon="5.96889">
        <ele>480.32</ele>
        <time>2012-05-28T09:03:22Z</time>
      </trkpt>
      <trkpt lat="44.12981" lon="5.96946">
        <ele>480.8</ele>
        <time>2012-05-28T09:03:34Z</time>
      </trkpt>
      <trkpt lat="44.12927" lon="5.96912">
        <ele>483.68</ele>
        <time>2012-05-28T09:03:51Z</time>
      </trkpt>
      <trkpt lat="44.12878" lon="5.96861">
        <ele>488.49</ele>
        <time>2012-05-28T09:04:18Z</time>
      </trkpt>
      <trkpt lat="44.12857" lon="5.96823">
        <ele>491.85</ele>
        <time>2012-05-28T09:04:36Z</time>
      </trkpt>
      <trkpt lat="44.12849" lon="5.96773">
        <ele>495.7</ele>
        <time>2012-05-28T09:04:56Z</time>
      </trkpt>
      <trkpt lat="44.1285" lon="5.9677">
        <ele>495.7</ele>
        <time>2012-05-28T09:04:57Z</time>
      </trkpt>
      <trkpt lat="44.12851" lon="5.96708">
        <ele>501.95</ele>
        <time>2012-05-28T09:05:27Z</time>
      </trkpt>
      <trkpt lat="44.12851" lon="5.96706">
        <ele>501.95</ele>
        <time>2012-05-28T09:05:28Z</time>
      </trkpt>
      <trkpt lat="44.1285" lon="5.96692">
        <ele>503.39</ele>
        <time>2012-05-28T09:05:35Z</time>
      </trkpt>
      <trkpt lat="44.12849" lon="5.96679">
        <ele>504.83</ele>
        <time>2012-05-28T09:05:42Z</time>
      </trkpt>
      <trkpt lat="44.12886" lon="5.96661">
        <ele>507.71</ele>
        <time>2012-05-28T09:06:09Z</time>
      </trkpt>
      <trkpt lat="44.1291" lon="5.96684">
        <ele>509.64</ele>
        <time>2012-05-28T09:06:22Z</time>
      </trkpt>
      <trkpt lat="44.12912" lon="5.96685">
        <ele>510.6</ele>
        <time>2012-05-28T09:06:23Z</time>
      </trkpt>
      <trkpt lat="44.12934" lon="5.967">
        <ele>513.96</ele>
        <time>2012-05-28T09:06:37Z</time>
      </trkpt>
      <trkpt lat="44.12936" lon="5.967">
        <ele>513.96</ele>
        <time>2012-05-28T09:06:38Z</time>
      </trkpt>
      <trkpt lat="44.12938" lon="5.967">
        <ele>513.96</ele>
        <time>2012-05-28T09:06:39Z</time>
      </trkpt>
      <trkpt lat="44.12946" lon="5.96701">
        <ele>514.92</ele>
        <time>2012-05-28T09:06:44Z</time>
      </trkpt>
      <trkpt lat="44.12948" lon="5.96702">
        <ele>514.92</ele>
        <time>2012-05-28T09:06:45Z</time>
      </trkpt>
      <trkpt lat="44.12972" lon="5.96733">
        <ele>513.48</ele>
        <time>2012-05-28T09:06:58Z</time>
      </trkpt>
      <trkpt lat="44.12977" lon="5.96749">
        <ele>510.12</ele>
        <time>2012-05-28T09:07:02Z</time>
      </trkpt>
      <trkpt lat="44.12979" lon="5.96752">
        <ele>510.6</ele>
        <time>2012-05-28T09:07:03Z</time>
      </trkpt>
      <trkpt lat="44.1299" lon="5.96757">
        <ele>507.23</ele>
        <time>2012-05-28T09:07:10Z</time>
      </trkpt>
      <trkpt lat="44.13016" lon="5.96698">
        <ele>501.95</ele>
        <time>2012-05-28T09:07:23Z</time>
      </trkpt>
      <trkpt lat="44.13018" lon="5.96692">
        <ele>500.98</ele>
        <time>2012-05-28T09:07:24Z</time>
      </trkpt>
      <trkpt lat="44.1302" lon="5.96685">
        <ele>500.98</ele>
        <time>2012-05-28T09:07:25Z</time>
      </trkpt>
      <trkpt lat="44.13032" lon="5.96635">
        <ele>496.18</ele>
        <time>2012-05-28T09:07:31Z</time>
      </trkpt>
      <trkpt lat="44.13039" lon="5.9661">
        <ele>492.33</ele>
        <time>2012-05-28T09:07:34Z</time>
      </trkpt>
      <trkpt lat="44.13045" lon="5.9657">
        <ele>488.49</ele>
        <time>2012-05-28T09:07:40Z</time>
      </trkpt>
      <trkpt lat="44.13044" lon="5.96568">
        <ele>488.49</ele>
        <time>2012-05-28T09:07:41Z</time>
      </trkpt>
      <trkpt lat="44.13045" lon="5.9653">
        <ele>485.12</ele>
        <time>2012-05-28T09:07:52Z</time>
      </trkpt>
      <trkpt lat="44.1306" lon="5.96518">
        <ele>483.68</ele>
        <time>2012-05-28T09:08:03Z</time>
      </trkpt>
      <trkpt lat="44.13059" lon="5.96526">
        <ele>483.68</ele>
        <time>2012-05-28T09:08:08Z</time>
      </trkpt>
      <trkpt lat="44.13043" lon="5.96538">
        <ele>485.6</ele>
        <time>2012-05-28T09:08:19Z</time>
      </trkpt>
      <trkpt lat="44.13047" lon="5.96582">
        <ele>489.45</ele>
        <time>2012-05-28T09:08:40Z</time>
      </trkpt>
      <trkpt lat="44.1304" lon="5.96573">
        <ele>491.37</ele>
        <time>2012-05-28T09:09:09Z</time>
      </trkpt>
      <trkpt lat="44.13017" lon="5.96533">
        <ele>494.74</ele>
        <time>2012-05-28T09:09:26Z</time>
      </trkpt>
      <trkpt lat="44.13015" lon="5.96533">
        <ele>494.74</ele>
        <time>2012-05-28T09:09:27Z</time>
      </trkpt>
      <trkpt lat="44.13014" lon="5.96533">
        <ele>495.22</ele>
        <time>2012-05-28T09:09:28Z</time>
      </trkpt>
      <trkpt lat="44.12989" lon="5.96537">
        <ele>497.62</ele>
        <time>2012-05-28T09:09:44Z</time>
      </trkpt>
      <trkpt lat="44.12919" lon="5.96533">
        <ele>500.5</ele>
        <time>2012-05-28T09:10:25Z</time>
      </trkpt>
      <trkpt lat="44.1291" lon="5.9652">
        <ele>500.5</ele>
        <time>2012-05-28T09:10:32Z</time>
      </trkpt>
      <trkpt lat="44.12905" lon="5.96511">
        <ele>500.02</ele>
        <time>2012-05-28T09:10:50Z</time>
      </trkpt>
      <trkpt lat="44.1289" lon="5.96445">
        <ele>497.62</ele>
        <time>2012-05-28T09:11:06Z</time>
      </trkpt>
      <trkpt lat="44.12872" lon="5.96396">
        <ele>498.1</ele>
        <time>2012-05-28T09:11:26Z</time>
      </trkpt>
      <trkpt lat="44.12868" lon="5.96388">
        <ele>499.54</ele>
        <time>2012-05-28T09:11:31Z</time>
      </trkpt>
      <trkpt lat="44.12856" lon="5.96362">
        <ele>502.91</ele>
        <time>2012-05-28T09:11:48Z</time>
      </trkpt>
      <trkpt lat="44.12846" lon="5.9633">
        <ele>508.19</ele>
        <time>2012-05-28T09:12:10Z</time>
      </trkpt>
      <trkpt lat="44.12841" lon="5.96316">
        <ele>510.12</ele>
        <time>2012-05-28T09:14:12Z</time>
      </trkpt>
      <trkpt lat="44.12834" lon="5.96313">
        <ele>510.12</ele>
        <time>2012-05-28T09:14:35Z</time>
      </trkpt>
      <trkpt lat="44.12814" lon="5.96305">
        <ele>509.64</ele>
        <time>2012-05-28T09:15:23Z</time>
      </trkpt>
      <trkpt lat="44.12797" lon="5.96272">
        <ele>508.19</ele>
        <time>2012-05-28T09:15:33Z</time>
      </trkpt>
      <trkpt lat="44.12781" lon="5.96244">
        <ele>511.08</ele>
        <time>2012-05-28T09:15:48Z</time>
      </trkpt>
      <trkpt lat="44.12763" lon="5.96245">
        <ele>508.67</ele>
        <time>2012-05-28T09:15:58Z</time>
      </trkpt>
      <trkpt lat="44.12759" lon="5.96247">
        <ele>508.67</ele>
        <time>2012-05-28T09:15:59Z</time>
      </trkpt>
      <trkpt lat="44.12734" lon="5.96254">
        <ele>505.31</ele>
        <time>2012-05-28T09:16:07Z</time>
      </trkpt>
      <trkpt lat="44.12731" lon="5.9625">
        <ele>505.31</ele>
        <time>2012-05-28T09:16:10Z</time>
      </trkpt>
      <trkpt lat="44.12725" lon="5.9625">
        <ele>504.83</ele>
        <time>2012-05-28T09:16:45Z</time>
      </trkpt>
      <trkpt lat="44.12727" lon="5.9623">
        <ele>508.67</ele>
        <time>2012-05-28T09:16:56Z</time>
      </trkpt>
      <trkpt lat="44.1272" lon="5.96215">
        <ele>513</ele>
        <time>2012-05-28T09:17:22Z</time>
      </trkpt>
      <trkpt lat="44.1271" lon="5.96209">
        <ele>517.33</ele>
        <time>2012-05-28T09:17:42Z</time>
      </trkpt>
      <trkpt lat="44.12696" lon="5.96208">
        <ele>521.65</ele>
        <time>2012-05-28T09:18:13Z</time>
      </trkpt>
      <trkpt lat="44.12693" lon="5.96212">
        <ele>521.65</ele>
        <time>2012-05-28T09:21:24Z</time>
      </trkpt>
      <trkpt lat="44.12693" lon="5.96212">
        <ele>521.65</ele>
        <time>2012-05-28T09:22:23Z</time>
      </trkpt>
      <trkpt lat="44.12666" lon="5.96227">
        <ele>517.81</ele>
        <time>2012-05-28T09:22:31Z</time>
      </trkpt>
      <trkpt lat="44.1265" lon="5.96238">
        <ele>517.81</ele>
        <time>2012-05-28T09:22:38Z</time>
      </trkpt>
      <trkpt lat="44.12644" lon="5.96239">
        <ele>518.77</ele>
        <time>2012-05-28T09:22:51Z</time>
      </trkpt>
      <trkpt lat="44.12639" lon="5.96222">
        <ele>522.13</ele>
        <time>2012-05-28T09:23:02Z</time>
      </trkpt>
      <trkpt lat="44.12639" lon="5.96219">
        <ele>523.09</ele>
        <time>2012-05-28T09:23:07Z</time>
      </trkpt>
      <trkpt lat="44.12648" lon="5.96208">
        <ele>524.54</ele>
        <time>2012-05-28T09:23:26Z</time>
      </trkpt>
      <trkpt lat="44.12651" lon="5.96204">
        <ele>525.02</ele>
        <time>2012-05-28T09:23:29Z</time>
      </trkpt>
      <trkpt lat="44.12654" lon="5.96186">
        <ele>522.13</ele>
        <time>2012-05-28T09:23:41Z</time>
      </trkpt>
      <trkpt lat="44.1266" lon="5.96173">
        <ele>517.81</ele>
        <time>2012-05-28T09:23:46Z</time>
      </trkpt>
      <trkpt lat="44.12663" lon="5.96166">
        <ele>516.85</ele>
        <time>2012-05-28T09:23:48Z</time>
      </trkpt>
      <trkpt lat="44.12635" lon="5.96164">
        <ele>510.6</ele>
        <time>2012-05-28T09:24:00Z</time>
      </trkpt>
      <trkpt lat="44.12626" lon="5.96164">
        <ele>509.64</ele>
        <time>2012-05-28T09:24:02Z</time>
      </trkpt>
      <trkpt lat="44.12619" lon="5.96153">
        <ele>508.19</ele>
        <time>2012-05-28T09:24:23Z</time>
      </trkpt>
      <trkpt lat="44.12624" lon="5.96115">
        <ele>509.64</ele>
        <time>2012-05-28T09:24:49Z</time>
      </trkpt>
      <trkpt lat="44.1262" lon="5.96081">
        <ele>512.52</ele>
        <time>2012-05-28T09:25:06Z</time>
      </trkpt>
      <trkpt lat="44.12616" lon="5.96074">
        <ele>512.52</ele>
        <time>2012-05-28T09:25:08Z</time>
      </trkpt>
      <trkpt lat="44.12599" lon="5.96039">
        <ele>511.08</ele>
        <time>2012-05-28T09:25:18Z</time>
      </trkpt>
      <trkpt lat="44.12567" lon="5.9604">
        <ele>513.48</ele>
        <time>2012-05-28T09:25:36Z</time>
      </trkpt>
      <trkpt lat="44.12544" lon="5.96042">
        <ele>509.64</ele>
        <time>2012-05-28T09:25:42Z</time>
      </trkpt>
      <trkpt lat="44.12533" lon="5.96035">
        <ele>510.6</ele>
        <time>2012-05-28T09:25:48Z</time>
      </trkpt>
      <trkpt lat="44.1251" lon="5.96011">
        <ele>513</ele>
        <time>2012-05-28T09:26:15Z</time>
      </trkpt>
      <trkpt lat="44.12506" lon="5.96008">
        <ele>513</ele>
        <time>2012-05-28T09:27:00Z</time>
      </trkpt>
      <trkpt lat="44.12466" lon="5.95998">
        <ele>512.52</ele>
        <time>2012-05-28T09:27:12Z</time>
      </trkpt>
      <trkpt lat="44.12432" lon="5.95999">
        <ele>514.92</ele>
        <time>2012-05-28T09:27:33Z</time>
      </trkpt>
      <trkpt lat="44.12397" lon="5.9602">
        <ele>517.33</ele>
        <time>2012-05-28T09:27:54Z</time>
      </trkpt>
      <trkpt lat="44.12384" lon="5.96092">
        <ele>519.25</ele>
        <time>2012-05-28T09:28:18Z</time>
      </trkpt>
      <trkpt lat="44.12384" lon="5.96094">
        <ele>519.25</ele>
        <time>2012-05-28T09:28:19Z</time>
      </trkpt>
      <trkpt lat="44.12348" lon="5.96095">
        <ele>517.33</ele>
        <time>2012-05-28T09:28:37Z</time>
      </trkpt>
      <trkpt lat="44.12336" lon="5.96083">
        <ele>521.65</ele>
        <time>2012-05-28T09:29:00Z</time>
      </trkpt>
      <trkpt lat="44.12325" lon="5.96074">
        <ele>525.5</ele>
        <time>2012-05-28T09:29:47Z</time>
      </trkpt>
      <trkpt lat="44.12321" lon="5.96069">
        <ele>525.5</ele>
        <time>2012-05-28T09:30:27Z</time>
      </trkpt>
      <trkpt lat="44.12313" lon="5.96061">
        <ele>522.13</ele>
        <time>2012-05-28T09:30:33Z</time>
      </trkpt>
      <trkpt lat="44.12306" lon="5.96061">
        <ele>519.73</ele>
        <time>2012-05-28T09:30:36Z</time>
      </trkpt>
      <trkpt lat="44.12301" lon="5.96059">
        <ele>518.77</ele>
        <time>2012-05-28T09:30:39Z</time>
      </trkpt>
      <trkpt lat="44.1228" lon="5.96051">
        <ele>517.33</ele>
        <time>2012-05-28T09:30:53Z</time>
      </trkpt>
      <trkpt lat="44.12255" lon="5.96039">
        <ele>520.69</ele>
        <time>2012-05-28T09:31:10Z</time>
      </trkpt>
      <trkpt lat="44.12189" lon="5.96016">
        <ele>522.13</ele>
        <time>2012-05-28T09:31:36Z</time>
      </trkpt>
      <trkpt lat="44.12147" lon="5.95989">
        <ele>525.02</ele>
        <time>2012-05-28T09:32:05Z</time>
      </trkpt>
      <trkpt lat="44.12134" lon="5.95977">
        <ele>526.46</ele>
        <time>2012-05-28T09:32:46Z</time>
      </trkpt>
      <trkpt lat="44.12122" lon="5.9594">
        <ele>522.61</ele>
        <time>2012-05-28T09:32:59Z</time>
      </trkpt>
      <trkpt lat="44.12106" lon="5.95913">
        <ele>518.77</ele>
        <time>2012-05-28T09:33:09Z</time>
      </trkpt>
      <trkpt lat="44.12097" lon="5.95885">
        <ele>521.65</ele>
        <time>2012-05-28T09:33:30Z</time>
      </trkpt>
      <trkpt lat="44.12092" lon="5.95877">
        <ele>523.09</ele>
        <time>2012-05-28T09:33:41Z</time>
      </trkpt>
      <trkpt lat="44.12072" lon="5.95868">
        <ele>526.46</ele>
        <time>2012-05-28T09:33:57Z</time>
      </trkpt>
      <trkpt lat="44.12024" lon="5.95877">
        <ele>524.54</ele>
        <time>2012-05-28T09:34:19Z</time>
      </trkpt>
      <trkpt lat="44.12021" lon="5.9588">
        <ele>524.54</ele>
        <time>2012-05-28T09:34:20Z</time>
      </trkpt>
      <trkpt lat="44.12003" lon="5.95869">
        <ele>524.54</ele>
        <time>2012-05-28T09:34:30Z</time>
      </trkpt>
      <trkpt lat="44.11996" lon="5.95863">
        <ele>527.42</ele>
        <time>2012-05-28T09:34:40Z</time>
      </trkpt>
      <trkpt lat="44.11976" lon="5.95855">
        <ele>528.86</ele>
        <time>2012-05-28T09:34:52Z</time>
      </trkpt>
      <trkpt lat="44.11921" lon="5.9586">
        <ele>526.94</ele>
        <time>2012-05-28T09:35:13Z</time>
      </trkpt>
      <trkpt lat="44.11892" lon="5.95842">
        <ele>528.86</ele>
        <time>2012-05-28T09:35:26Z</time>
      </trkpt>
      <trkpt lat="44.11865" lon="5.9583">
        <ele>527.9</ele>
        <time>2012-05-28T09:35:50Z</time>
      </trkpt>
      <trkpt lat="44.11831" lon="5.95817">
        <ele>529.82</ele>
        <time>2012-05-28T09:36:05Z</time>
      </trkpt>
      <trkpt lat="44.11823" lon="5.95814">
        <ele>529.34</ele>
        <time>2012-05-28T09:36:09Z</time>
      </trkpt>
      <trkpt lat="44.11815" lon="5.95813">
        <ele>529.82</ele>
        <time>2012-05-28T09:36:13Z</time>
      </trkpt>
      <trkpt lat="44.11783" lon="5.95795">
        <ele>530.79</ele>
        <time>2012-05-28T09:36:28Z</time>
      </trkpt>
      <trkpt lat="44.1175" lon="5.95815">
        <ele>531.75</ele>
        <time>2012-05-28T09:36:49Z</time>
      </trkpt>
      <trkpt lat="44.11724" lon="5.95813">
        <ele>526.94</ele>
        <time>2012-05-28T09:37:03Z</time>
      </trkpt>
      <trkpt lat="44.11699" lon="5.95825">
        <ele>521.65</ele>
        <time>2012-05-28T09:37:14Z</time>
      </trkpt>
      <trkpt lat="44.11679" lon="5.95763">
        <ele>517.33</ele>
        <time>2012-05-28T09:37:37Z</time>
      </trkpt>
      <trkpt lat="44.11678" lon="5.95755">
        <ele>517.33</ele>
        <time>2012-05-28T09:37:41Z</time>
      </trkpt>
      <trkpt lat="44.11674" lon="5.9572">
        <ele>515.88</ele>
        <time>2012-05-28T09:37:53Z</time>
      </trkpt>
      <trkpt lat="44.11669" lon="5.9571">
        <ele>515.88</ele>
        <time>2012-05-28T09:37:57Z</time>
      </trkpt>
      <trkpt lat="44.11629" lon="5.95735">
        <ele>518.77</ele>
        <time>2012-05-28T09:38:26Z</time>
      </trkpt>
      <trkpt lat="44.11589" lon="5.9578">
        <ele>525.02</ele>
        <time>2012-05-28T09:39:01Z</time>
      </trkpt>
      <trkpt lat="44.11584" lon="5.95814">
        <ele>529.34</ele>
        <time>2012-05-28T09:39:23Z</time>
      </trkpt>
      <trkpt lat="44.11583" lon="5.95826">
        <ele>530.3</ele>
        <time>2012-05-28T09:39:31Z</time>
      </trkpt>
      <trkpt lat="44.11579" lon="5.95844">
        <ele>531.75</ele>
        <time>2012-05-28T09:39:42Z</time>
      </trkpt>
      <trkpt lat="44.11578" lon="5.95851">
        <ele>532.23</ele>
        <time>2012-05-28T09:39:46Z</time>
      </trkpt>
      <trkpt lat="44.11573" lon="5.95871">
        <ele>534.15</ele>
        <time>2012-05-28T09:39:59Z</time>
      </trkpt>
      <trkpt lat="44.11598" lon="5.95896">
        <ele>537.03</ele>
        <time>2012-05-28T09:40:22Z</time>
      </trkpt>
      <trkpt lat="44.11614" lon="5.95913">
        <ele>538.48</ele>
        <time>2012-05-28T09:40:37Z</time>
      </trkpt>
      <trkpt lat="44.11607" lon="5.95934">
        <ele>539.92</ele>
        <time>2012-05-28T09:40:49Z</time>
      </trkpt>
      <trkpt lat="44.1159" lon="5.95966">
        <ele>541.84</ele>
        <time>2012-05-28T09:41:09Z</time>
      </trkpt>
      <trkpt lat="44.11586" lon="5.95974">
        <ele>542.32</ele>
        <time>2012-05-28T09:41:14Z</time>
      </trkpt>
      <trkpt lat="44.11594" lon="5.95985">
        <ele>544.24</ele>
        <time>2012-05-28T09:41:22Z</time>
      </trkpt>
      <trkpt lat="44.11645" lon="5.95955">
        <ele>549.53</ele>
        <time>2012-05-28T09:41:58Z</time>
      </trkpt>
      <trkpt lat="44.11637" lon="5.95984">
        <ele>552.9</ele>
        <time>2012-05-28T09:42:21Z</time>
      </trkpt>
      <trkpt lat="44.11614" lon="5.96009">
        <ele>554.82</ele>
        <time>2012-05-28T09:42:42Z</time>
      </trkpt>
      <trkpt lat="44.11586" lon="5.96041">
        <ele>558.18</ele>
        <time>2012-05-28T09:43:07Z</time>
      </trkpt>
      <trkpt lat="44.11572" lon="5.96096">
        <ele>562.99</ele>
        <time>2012-05-28T09:43:39Z</time>
      </trkpt>
      <trkpt lat="44.11562" lon="5.9612">
        <ele>564.43</ele>
        <time>2012-05-28T09:43:54Z</time>
      </trkpt>
      <trkpt lat="44.11523" lon="5.96185">
        <ele>568.76</ele>
        <time>2012-05-28T09:44:34Z</time>
      </trkpt>
      <trkpt lat="44.11505" lon="5.96223">
        <ele>567.32</ele>
        <time>2012-05-28T09:44:43Z</time>
      </trkpt>
      <trkpt lat="44.11487" lon="5.96262">
        <ele>566.35</ele>
        <time>2012-05-28T09:44:51Z</time>
      </trkpt>
      <trkpt lat="44.11462" lon="5.96287">
        <ele>566.35</ele>
        <time>2012-05-28T09:44:59Z</time>
      </trkpt>
      <trkpt lat="44.11434" lon="5.96274">
        <ele>564.91</ele>
        <time>2012-05-28T09:45:06Z</time>
      </trkpt>
      <trkpt lat="44.11399" lon="5.96271">
        <ele>562.51</ele>
        <time>2012-05-28T09:45:12Z</time>
      </trkpt>
      <trkpt lat="44.11379" lon="5.96316">
        <ele>561.55</ele>
        <time>2012-05-28T09:45:19Z</time>
      </trkpt>
      <trkpt lat="44.11349" lon="5.96427">
        <ele>562.99</ele>
        <time>2012-05-28T09:45:42Z</time>
      </trkpt>
      <trkpt lat="44.11368" lon="5.96463">
        <ele>562.51</ele>
        <time>2012-05-28T09:45:52Z</time>
      </trkpt>
      <trkpt lat="44.11392" lon="5.96492">
        <ele>560.59</ele>
        <time>2012-05-28T09:46:39Z</time>
      </trkpt>
      <trkpt lat="44.11401" lon="5.96487">
        <ele>560.59</ele>
        <time>2012-05-28T09:48:37Z</time>
      </trkpt>
      <trkpt lat="44.11422" lon="5.96531">
        <ele>561.55</ele>
        <time>2012-05-28T09:48:52Z</time>
      </trkpt>
      <trkpt lat="44.11415" lon="5.96578">
        <ele>560.59</ele>
        <time>2012-05-28T09:49:02Z</time>
      </trkpt>
      <trkpt lat="44.11389" lon="5.96602">
        <ele>560.11</ele>
        <time>2012-05-28T09:49:20Z</time>
      </trkpt>
      <trkpt lat="44.11374" lon="5.96626">
        <ele>556.74</ele>
        <time>2012-05-28T09:49:25Z</time>
      </trkpt>
      <trkpt lat="44.11365" lon="5.96629">
        <ele>555.78</ele>
        <time>2012-05-28T09:49:27Z</time>
      </trkpt>
      <trkpt lat="44.11344" lon="5.9664">
        <ele>555.78</ele>
        <time>2012-05-28T09:49:33Z</time>
      </trkpt>
      <trkpt lat="44.1134" lon="5.96689">
        <ele>554.34</ele>
        <time>2012-05-28T09:49:44Z</time>
      </trkpt>
      <trkpt lat="44.11351" lon="5.96733">
        <ele>552.9</ele>
        <time>2012-05-28T09:49:50Z</time>
      </trkpt>
      <trkpt lat="44.11353" lon="5.9674">
        <ele>551.45</ele>
        <time>2012-05-28T09:49:51Z</time>
      </trkpt>
      <trkpt lat="44.11353" lon="5.96748">
        <ele>551.45</ele>
        <time>2012-05-28T09:49:52Z</time>
      </trkpt>
      <trkpt lat="44.11352" lon="5.96756">
        <ele>550.97</ele>
        <time>2012-05-28T09:49:53Z</time>
      </trkpt>
      <trkpt lat="44.11358" lon="5.96777">
        <ele>549.05</ele>
        <time>2012-05-28T09:49:56Z</time>
      </trkpt>
      <trkpt lat="44.11351" lon="5.96807">
        <ele>544.24</ele>
        <time>2012-05-28T09:50:03Z</time>
      </trkpt>
      <trkpt lat="44.1134" lon="5.96824">
        <ele>540.88</ele>
        <time>2012-05-28T09:50:08Z</time>
      </trkpt>
      <trkpt lat="44.11328" lon="5.96847">
        <ele>537.99</ele>
        <time>2012-05-28T09:50:12Z</time>
      </trkpt>
      <trkpt lat="44.11316" lon="5.96869">
        <ele>535.11</ele>
        <time>2012-05-28T09:50:16Z</time>
      </trkpt>
      <trkpt lat="44.11297" lon="5.96878">
        <ele>529.34</ele>
        <time>2012-05-28T09:50:24Z</time>
      </trkpt>
      <trkpt lat="44.11289" lon="5.96894">
        <ele>525.5</ele>
        <time>2012-05-28T09:50:29Z</time>
      </trkpt>
      <trkpt lat="44.11293" lon="5.96898">
        <ele>525.5</ele>
        <time>2012-05-28T09:50:32Z</time>
      </trkpt>
      <trkpt lat="44.113" lon="5.9692">
        <ele>521.17</ele>
        <time>2012-05-28T09:50:39Z</time>
      </trkpt>
      <trkpt lat="44.11291" lon="5.96922">
        <ele>517.81</ele>
        <time>2012-05-28T09:50:45Z</time>
      </trkpt>
      <trkpt lat="44.11285" lon="5.96918">
        <ele>518.77</ele>
        <time>2012-05-28T09:50:48Z</time>
      </trkpt>
      <trkpt lat="44.11275" lon="5.96923">
        <ele>515.4</ele>
        <time>2012-05-28T09:50:53Z</time>
      </trkpt>
      <trkpt lat="44.11272" lon="5.9693">
        <ele>514.44</ele>
        <time>2012-05-28T09:50:55Z</time>
      </trkpt>
      <trkpt lat="44.11263" lon="5.96951">
        <ele>510.12</ele>
        <time>2012-05-28T09:51:05Z</time>
      </trkpt>
      <trkpt lat="44.1126" lon="5.96947">
        <ele>509.64</ele>
        <time>2012-05-28T09:51:45Z</time>
      </trkpt>
      <trkpt lat="44.11257" lon="5.96957">
        <ele>510.12</ele>
        <time>2012-05-28T09:56:48Z</time>
      </trkpt>
      <trkpt lat="44.11248" lon="5.96955">
        <ele>511.56</ele>
        <time>2012-05-28T09:57:30Z</time>
      </trkpt>
      <trkpt lat="44.11252" lon="5.96936">
        <ele>512.04</ele>
        <time>2012-05-28T09:58:10Z</time>
      </trkpt>
      <trkpt lat="44.1125" lon="5.96925">
        <ele>515.4</ele>
        <time>2012-05-28T09:58:24Z</time>
      </trkpt>
      <trkpt lat="44.11248" lon="5.96904">
        <ele>518.77</ele>
        <time>2012-05-28T09:58:43Z</time>
      </trkpt>
      <trkpt lat="44.11248" lon="5.96899">
        <ele>520.21</ele>
        <time>2012-05-28T09:58:55Z</time>
      </trkpt>
      <trkpt lat="44.11255" lon="5.96848">
        <ele>525.5</ele>
        <time>2012-05-28T09:59:30Z</time>
      </trkpt>
      <trkpt lat="44.11249" lon="5.96828">
        <ele>529.82</ele>
        <time>2012-05-28T10:00:01Z</time>
      </trkpt>
      <trkpt lat="44.11233" lon="5.9682">
        <ele>534.15</ele>
        <time>2012-05-28T10:00:32Z</time>
      </trkpt>
      <trkpt lat="44.11222" lon="5.96818">
        <ele>539.44</ele>
        <time>2012-05-28T10:01:08Z</time>
      </trkpt>
      <trkpt lat="44.11205" lon="5.9683">
        <ele>546.17</ele>
        <time>2012-05-28T10:01:48Z</time>
      </trkpt>
      <trkpt lat="44.11189" lon="5.96836">
        <ele>549.53</ele>
        <time>2012-05-28T10:02:17Z</time>
      </trkpt>
      <trkpt lat="44.11187" lon="5.96836">
        <ele>549.53</ele>
        <time>2012-05-28T10:02:20Z</time>
      </trkpt>
      <trkpt lat="44.11175" lon="5.96843">
        <ele>550.97</ele>
        <time>2012-05-28T10:02:31Z</time>
      </trkpt>
      <trkpt lat="44.11154" lon="5.96832">
        <ele>553.86</ele>
        <time>2012-05-28T10:02:46Z</time>
      </trkpt>
      <trkpt lat="44.11133" lon="5.96819">
        <ele>557.7</ele>
        <time>2012-05-28T10:03:11Z</time>
      </trkpt>
      <trkpt lat="44.11105" lon="5.96804">
        <ele>561.07</ele>
        <time>2012-05-28T10:03:39Z</time>
      </trkpt>
      <trkpt lat="44.11104" lon="5.96803">
        <ele>561.07</ele>
        <time>2012-05-28T10:03:40Z</time>
      </trkpt>
      <trkpt lat="44.11097" lon="5.96788">
        <ele>561.55</ele>
        <time>2012-05-28T10:04:18Z</time>
      </trkpt>
      <trkpt lat="44.11071" lon="5.96785">
        <ele>561.07</ele>
        <time>2012-05-28T10:04:28Z</time>
      </trkpt>
      <trkpt lat="44.11035" lon="5.96805">
        <ele>564.43</ele>
        <time>2012-05-28T10:04:58Z</time>
      </trkpt>
      <trkpt lat="44.11016" lon="5.96817">
        <ele>567.8</ele>
        <time>2012-05-28T10:05:42Z</time>
      </trkpt>
      <trkpt lat="44.10992" lon="5.96813">
        <ele>570.68</ele>
        <time>2012-05-28T10:05:57Z</time>
      </trkpt>
      <trkpt lat="44.10942" lon="5.96837">
        <ele>570.2</ele>
        <time>2012-05-28T10:06:19Z</time>
      </trkpt>
      <trkpt lat="44.10887" lon="5.96854">
        <ele>570.2</ele>
        <time>2012-05-28T10:06:38Z</time>
      </trkpt>
      <trkpt lat="44.10857" lon="5.96858">
        <ele>571.16</ele>
        <time>2012-05-28T10:06:50Z</time>
      </trkpt>
      <trkpt lat="44.10778" lon="5.96885">
        <ele>570.2</ele>
        <time>2012-05-28T10:07:22Z</time>
      </trkpt>
      <trkpt lat="44.10768" lon="5.96895">
        <ele>571.64</ele>
        <time>2012-05-28T10:07:28Z</time>
      </trkpt>
      <trkpt lat="44.10754" lon="5.96895">
        <ele>573.56</ele>
        <time>2012-05-28T10:07:53Z</time>
      </trkpt>
      <trkpt lat="44.10745" lon="5.96895">
        <ele>575.01</ele>
        <time>2012-05-28T10:09:14Z</time>
      </trkpt>
      <trkpt lat="44.10742" lon="5.96907">
        <ele>571.16</ele>
        <time>2012-05-28T10:09:21Z</time>
      </trkpt>
      <trkpt lat="44.10742" lon="5.96909">
        <ele>571.16</ele>
        <time>2012-05-28T10:09:22Z</time>
      </trkpt>
      <trkpt lat="44.10748" lon="5.96957">
        <ele>575.49</ele>
        <time>2012-05-28T10:09:55Z</time>
      </trkpt>
      <trkpt lat="44.10749" lon="5.96975">
        <ele>578.85</ele>
        <time>2012-05-28T10:10:20Z</time>
      </trkpt>
      <trkpt lat="44.10733" lon="5.96977">
        <ele>581.73</ele>
        <time>2012-05-28T10:10:33Z</time>
      </trkpt>
      <trkpt lat="44.10714" lon="5.9698">
        <ele>584.62</ele>
        <time>2012-05-28T10:10:46Z</time>
      </trkpt>
      <trkpt lat="44.10678" lon="5.96976">
        <ele>587.02</ele>
        <time>2012-05-28T10:11:26Z</time>
      </trkpt>
      <trkpt lat="44.10647" lon="5.96974">
        <ele>591.83</ele>
        <time>2012-05-28T10:11:57Z</time>
      </trkpt>
      <trkpt lat="44.10625" lon="5.96984">
        <ele>595.67</ele>
        <time>2012-05-28T10:12:26Z</time>
      </trkpt>
      <trkpt lat="44.10626" lon="5.96983">
        <ele>595.67</ele>
        <time>2012-05-28T10:12:54Z</time>
      </trkpt>
      <trkpt lat="44.10607" lon="5.96979">
        <ele>598.56</ele>
        <time>2012-05-28T10:13:35Z</time>
      </trkpt>
      <trkpt lat="44.10599" lon="5.96981">
        <ele>600.96</ele>
        <time>2012-05-28T10:17:36Z</time>
      </trkpt>
      <trkpt lat="44.10574" lon="5.96973">
        <ele>604.33</ele>
        <time>2012-05-28T10:17:55Z</time>
      </trkpt>
      <trkpt lat="44.10572" lon="5.96973">
        <ele>605.29</ele>
        <time>2012-05-28T10:17:57Z</time>
      </trkpt>
      <trkpt lat="44.1057" lon="5.96972">
        <ele>605.29</ele>
        <time>2012-05-28T10:17:59Z</time>
      </trkpt>
      <trkpt lat="44.10534" lon="5.96956">
        <ele>610.09</ele>
        <time>2012-05-28T10:18:37Z</time>
      </trkpt>
      <trkpt lat="44.10525" lon="5.96954">
        <ele>611.06</ele>
        <time>2012-05-28T10:18:45Z</time>
      </trkpt>
      <trkpt lat="44.10517" lon="5.96947">
        <ele>612.02</ele>
        <time>2012-05-28T10:18:49Z</time>
      </trkpt>
      <trkpt lat="44.10509" lon="5.96942">
        <ele>613.46</ele>
        <time>2012-05-28T10:18:56Z</time>
      </trkpt>
      <trkpt lat="44.10465" lon="5.9693">
        <ele>617.3</ele>
        <time>2012-05-28T10:19:32Z</time>
      </trkpt>
      <trkpt lat="44.10465" lon="5.96928">
        <ele>617.3</ele>
        <time>2012-05-28T10:19:34Z</time>
      </trkpt>
      <trkpt lat="44.10445" lon="5.96901">
        <ele>620.67</ele>
        <time>2012-05-28T10:20:00Z</time>
      </trkpt>
      <trkpt lat="44.10439" lon="5.96899">
        <ele>621.63</ele>
        <time>2012-05-28T10:20:14Z</time>
      </trkpt>
      <trkpt lat="44.10385" lon="5.96872">
        <ele>620.67</ele>
        <time>2012-05-28T10:21:01Z</time>
      </trkpt>
      <trkpt lat="44.10358" lon="5.96855">
        <ele>623.55</ele>
        <time>2012-05-28T10:21:33Z</time>
      </trkpt>
      <trkpt lat="44.1036" lon="5.96852">
        <ele>623.07</ele>
        <time>2012-05-28T10:21:36Z</time>
      </trkpt>
      <trkpt lat="44.10408" lon="5.96743">
        <ele>623.07</ele>
        <time>2012-05-28T10:21:40Z</time>
      </trkpt>
      <trkpt lat="44.1038" lon="5.96817">
        <ele>623.55</ele>
        <time>2012-05-28T10:21:51Z</time>
      </trkpt>
      <trkpt lat="44.1038" lon="5.96819">
        <ele>626.44</ele>
        <time>2012-05-28T10:22:56Z</time>
      </trkpt>
      <trkpt lat="44.10376" lon="5.96821">
        <ele>626.92</ele>
        <time>2012-05-28T10:23:10Z</time>
      </trkpt>
      <trkpt lat="44.10372" lon="5.96821">
        <ele>627.88</ele>
        <time>2012-05-28T10:23:14Z</time>
      </trkpt>
      <trkpt lat="44.10351" lon="5.96822">
        <ele>629.32</ele>
        <time>2012-05-28T10:23:30Z</time>
      </trkpt>
      <trkpt lat="44.10316" lon="5.96801">
        <ele>632.68</ele>
        <time>2012-05-28T10:24:06Z</time>
      </trkpt>
      <trkpt lat="44.10313" lon="5.96797">
        <ele>632.68</ele>
        <time>2012-05-28T10:24:14Z</time>
      </trkpt>
      <trkpt lat="44.10299" lon="5.96779">
        <ele>636.05</ele>
        <time>2012-05-28T10:24:34Z</time>
      </trkpt>
      <trkpt lat="44.10279" lon="5.96761">
        <ele>639.41</ele>
        <time>2012-05-28T10:25:04Z</time>
      </trkpt>
      <trkpt lat="44.10236" lon="5.96718">
        <ele>643.74</ele>
        <time>2012-05-28T10:25:42Z</time>
      </trkpt>
      <trkpt lat="44.10231" lon="5.9671">
        <ele>644.22</ele>
        <time>2012-05-28T10:25:48Z</time>
      </trkpt>
      <trkpt lat="44.10202" lon="5.96681">
        <ele>648.55</ele>
        <time>2012-05-28T10:26:23Z</time>
      </trkpt>
      <trkpt lat="44.10175" lon="5.96655">
        <ele>654.8</ele>
        <time>2012-05-28T10:27:03Z</time>
      </trkpt>
      <trkpt lat="44.10174" lon="5.96655">
        <ele>653.35</ele>
        <time>2012-05-28T10:27:16Z</time>
      </trkpt>
      <trkpt lat="44.10144" lon="5.96653">
        <ele>655.28</ele>
        <time>2012-05-28T10:27:36Z</time>
      </trkpt>
      <trkpt lat="44.10137" lon="5.96655">
        <ele>654.8</ele>
        <time>2012-05-28T10:27:40Z</time>
      </trkpt>
      <trkpt lat="44.10107" lon="5.96661">
        <ele>654.8</ele>
        <time>2012-05-28T10:28:02Z</time>
      </trkpt>
      <trkpt lat="44.10107" lon="5.96661">
        <ele>655.28</ele>
        <time>2012-05-28T10:28:11Z</time>
      </trkpt>
      <trkpt lat="44.10088" lon="5.96639">
        <ele>654.8</ele>
        <time>2012-05-28T10:28:25Z</time>
      </trkpt>
      <trkpt lat="44.10052" lon="5.96657">
        <ele>654.8</ele>
        <time>2012-05-28T10:28:42Z</time>
      </trkpt>
      <trkpt lat="44.10024" lon="5.96595">
        <ele>659.12</ele>
        <time>2012-05-28T10:29:12Z</time>
      </trkpt>
      <trkpt lat="44.10017" lon="5.96586">
        <ele>658.64</ele>
        <time>2012-05-28T10:29:16Z</time>
      </trkpt>
      <trkpt lat="44.09992" lon="5.96548">
        <ele>657.68</ele>
        <time>2012-05-28T10:29:44Z</time>
      </trkpt>
      <trkpt lat="44.09977" lon="5.96523">
        <ele>655.76</ele>
        <time>2012-05-28T10:29:48Z</time>
      </trkpt>
      <trkpt lat="44.09966" lon="5.9651">
        <ele>654.8</ele>
        <time>2012-05-28T10:29:51Z</time>
      </trkpt>
      <trkpt lat="44.09925" lon="5.96461">
        <ele>651.43</ele>
        <time>2012-05-28T10:30:22Z</time>
      </trkpt>
      <trkpt lat="44.09924" lon="5.96461">
        <ele>651.43</ele>
        <time>2012-05-28T10:30:32Z</time>
      </trkpt>
      <trkpt lat="44.09925" lon="5.96466">
        <ele>650.95</ele>
        <time>2012-05-28T10:30:41Z</time>
      </trkpt>
      <trkpt lat="44.09911" lon="5.96475">
        <ele>650.47</ele>
        <time>2012-05-28T10:30:53Z</time>
      </trkpt>
      <trkpt lat="44.09904" lon="5.96439">
        <ele>648.55</ele>
        <time>2012-05-28T10:31:13Z</time>
      </trkpt>
      <trkpt lat="44.09876" lon="5.96419">
        <ele>644.22</ele>
        <time>2012-05-28T10:31:29Z</time>
      </trkpt>
      <trkpt lat="44.09859" lon="5.96404">
        <ele>640.86</ele>
        <time>2012-05-28T10:31:36Z</time>
      </trkpt>
      <trkpt lat="44.09844" lon="5.9639">
        <ele>637.49</ele>
        <time>2012-05-28T10:31:42Z</time>
      </trkpt>
      <trkpt lat="44.09836" lon="5.96387">
        <ele>635.57</ele>
        <time>2012-05-28T10:31:46Z</time>
      </trkpt>
      <trkpt lat="44.09813" lon="5.9635">
        <ele>628.84</ele>
        <time>2012-05-28T10:32:04Z</time>
      </trkpt>
      <trkpt lat="44.09804" lon="5.96341">
        <ele>627.88</ele>
        <time>2012-05-28T10:32:07Z</time>
      </trkpt>
      <trkpt lat="44.09801" lon="5.96337">
        <ele>626.92</ele>
        <time>2012-05-28T10:32:08Z</time>
      </trkpt>
      <trkpt lat="44.09778" lon="5.96333">
        <ele>624.03</ele>
        <time>2012-05-28T10:32:29Z</time>
      </trkpt>
      <trkpt lat="44.09774" lon="5.96329">
        <ele>621.63</ele>
        <time>2012-05-28T10:32:55Z</time>
      </trkpt>
      <trkpt lat="44.09748" lon="5.96323">
        <ele>624.99</ele>
        <time>2012-05-28T10:33:17Z</time>
      </trkpt>
      <trkpt lat="44.09725" lon="5.963">
        <ele>628.36</ele>
        <time>2012-05-28T10:33:57Z</time>
      </trkpt>
      <trkpt lat="44.09717" lon="5.96284">
        <ele>630.76</ele>
        <time>2012-05-28T10:34:51Z</time>
      </trkpt>
      <trkpt lat="44.09691" lon="5.96288">
        <ele>631.24</ele>
        <time>2012-05-28T10:38:07Z</time>
      </trkpt>
      <trkpt lat="44.09636" lon="5.96299">
        <ele>633.17</ele>
        <time>2012-05-28T10:38:26Z</time>
      </trkpt>
      <trkpt lat="44.0962" lon="5.963">
        <ele>635.57</ele>
        <time>2012-05-28T10:38:38Z</time>
      </trkpt>
      <trkpt lat="44.096" lon="5.96269">
        <ele>639.89</ele>
        <time>2012-05-28T10:39:03Z</time>
      </trkpt>
      <trkpt lat="44.09593" lon="5.96248">
        <ele>638.45</ele>
        <time>2012-05-28T10:39:09Z</time>
      </trkpt>
      <trkpt lat="44.09601" lon="5.96228">
        <ele>639.41</ele>
        <time>2012-05-28T10:39:15Z</time>
      </trkpt>
      <trkpt lat="44.09547" lon="5.96186">
        <ele>637.01</ele>
        <time>2012-05-28T10:39:30Z</time>
      </trkpt>
      <trkpt lat="44.09502" lon="5.96183">
        <ele>640.86</ele>
        <time>2012-05-28T10:39:56Z</time>
      </trkpt>
      <trkpt lat="44.09498" lon="5.96185">
        <ele>641.82</ele>
        <time>2012-05-28T10:40:00Z</time>
      </trkpt>
      <trkpt lat="44.09471" lon="5.9622">
        <ele>638.93</ele>
        <time>2012-05-28T10:40:11Z</time>
      </trkpt>
      <trkpt lat="44.09408" lon="5.96256">
        <ele>641.82</ele>
        <time>2012-05-28T10:40:39Z</time>
      </trkpt>
      <trkpt lat="44.094" lon="5.96257">
        <ele>641.82</ele>
        <time>2012-05-28T10:40:41Z</time>
      </trkpt>
      <trkpt lat="44.09325" lon="5.96254">
        <ele>640.38</ele>
        <time>2012-05-28T10:40:57Z</time>
      </trkpt>
      <trkpt lat="44.09267" lon="5.96249">
        <ele>641.34</ele>
        <time>2012-05-28T10:41:14Z</time>
      </trkpt>
      <trkpt lat="44.09251" lon="5.96254">
        <ele>639.89</ele>
        <time>2012-05-28T10:41:18Z</time>
      </trkpt>
      <trkpt lat="44.09211" lon="5.96262">
        <ele>638.45</ele>
        <time>2012-05-28T10:41:27Z</time>
      </trkpt>
      <trkpt lat="44.09163" lon="5.96269">
        <ele>634.61</ele>
        <time>2012-05-28T10:41:37Z</time>
      </trkpt>
      <trkpt lat="44.09123" lon="5.96276">
        <ele>631.24</ele>
        <time>2012-05-28T10:41:47Z</time>
      </trkpt>
      <trkpt lat="44.09086" lon="5.96284">
        <ele>624.99</ele>
        <time>2012-05-28T10:41:59Z</time>
      </trkpt>
      <trkpt lat="44.09065" lon="5.9629">
        <ele>622.11</ele>
        <time>2012-05-28T10:42:05Z</time>
      </trkpt>
      <trkpt lat="44.09036" lon="5.96327">
        <ele>617.78</ele>
        <time>2012-05-28T10:42:16Z</time>
      </trkpt>
      <trkpt lat="44.09033" lon="5.9634">
        <ele>615.38</ele>
        <time>2012-05-28T10:42:20Z</time>
      </trkpt>
      <trkpt lat="44.0903" lon="5.96342">
        <ele>614.9</ele>
        <time>2012-05-28T10:42:22Z</time>
      </trkpt>
      <trkpt lat="44.09024" lon="5.96343">
        <ele>613.94</ele>
        <time>2012-05-28T10:42:24Z</time>
      </trkpt>
      <trkpt lat="44.09014" lon="5.96364">
        <ele>611.54</ele>
        <time>2012-05-28T10:42:29Z</time>
      </trkpt>
      <trkpt lat="44.09011" lon="5.96399">
        <ele>607.69</ele>
        <time>2012-05-28T10:42:34Z</time>
      </trkpt>
      <trkpt lat="44.09013" lon="5.96406">
        <ele>607.69</ele>
        <time>2012-05-28T10:42:35Z</time>
      </trkpt>
      <trkpt lat="44.09022" lon="5.96438">
        <ele>603.36</ele>
        <time>2012-05-28T10:42:39Z</time>
      </trkpt>
      <trkpt lat="44.09021" lon="5.96447">
        <ele>603.36</ele>
        <time>2012-05-28T10:42:40Z</time>
      </trkpt>
      <trkpt lat="44.09018" lon="5.96478">
        <ele>600</ele>
        <time>2012-05-28T10:42:43Z</time>
      </trkpt>
      <trkpt lat="44.09018" lon="5.96506">
        <ele>596.64</ele>
        <time>2012-05-28T10:42:46Z</time>
      </trkpt>
      <trkpt lat="44.09024" lon="5.96542">
        <ele>593.27</ele>
        <time>2012-05-28T10:42:52Z</time>
      </trkpt>
      <trkpt lat="44.09064" lon="5.96551">
        <ele>591.83</ele>
        <time>2012-05-28T10:43:05Z</time>
      </trkpt>
      <trkpt lat="44.09066" lon="5.96552">
        <ele>591.83</ele>
        <time>2012-05-28T10:43:09Z</time>
      </trkpt>
      <trkpt lat="44.09095" lon="5.96559">
        <ele>591.35</ele>
        <time>2012-05-28T10:43:19Z</time>
      </trkpt>
      <trkpt lat="44.09129" lon="5.96562">
        <ele>590.39</ele>
        <time>2012-05-28T10:43:26Z</time>
      </trkpt>
      <trkpt lat="44.09168" lon="5.96588">
        <ele>588.46</ele>
        <time>2012-05-28T10:43:39Z</time>
      </trkpt>
      <trkpt lat="44.09143" lon="5.96639">
        <ele>590.39</ele>
        <time>2012-05-28T10:43:56Z</time>
      </trkpt>
      <trkpt lat="44.0911" lon="5.96642">
        <ele>590.39</ele>
        <time>2012-05-28T10:44:07Z</time>
      </trkpt>
      <trkpt lat="44.09055" lon="5.96659">
        <ele>587.98</ele>
        <time>2012-05-28T10:44:21Z</time>
      </trkpt>
      <trkpt lat="44.09029" lon="5.96699">
        <ele>584.14</ele>
        <time>2012-05-28T10:44:27Z</time>
      </trkpt>
      <trkpt lat="44.09007" lon="5.96722">
        <ele>583.66</ele>
        <time>2012-05-28T10:44:31Z</time>
      </trkpt>
      <trkpt lat="44.0895" lon="5.96747">
        <ele>581.25</ele>
        <time>2012-05-28T10:44:42Z</time>
      </trkpt>
      <trkpt lat="44.08944" lon="5.96747">
        <ele>580.29</ele>
        <time>2012-05-28T10:44:43Z</time>
      </trkpt>
      <trkpt lat="44.08931" lon="5.96748">
        <ele>579.33</ele>
        <time>2012-05-28T10:44:45Z</time>
      </trkpt>
      <trkpt lat="44.08924" lon="5.96749">
        <ele>579.33</ele>
        <time>2012-05-28T10:44:46Z</time>
      </trkpt>
      <trkpt lat="44.08888" lon="5.96769">
        <ele>575.97</ele>
        <time>2012-05-28T10:44:51Z</time>
      </trkpt>
      <trkpt lat="44.08878" lon="5.96797">
        <ele>574.53</ele>
        <time>2012-05-28T10:44:54Z</time>
      </trkpt>
      <trkpt lat="44.08885" lon="5.96815">
        <ele>573.08</ele>
        <time>2012-05-28T10:44:56Z</time>
      </trkpt>
      <trkpt lat="44.0889" lon="5.96823">
        <ele>572.12</ele>
        <time>2012-05-28T10:44:57Z</time>
      </trkpt>
      <trkpt lat="44.08893" lon="5.96832">
        <ele>572.12</ele>
        <time>2012-05-28T10:44:58Z</time>
      </trkpt>
      <trkpt lat="44.0888" lon="5.96857">
        <ele>571.64</ele>
        <time>2012-05-28T10:45:03Z</time>
      </trkpt>
      <trkpt lat="44.08872" lon="5.96855">
        <ele>571.16</ele>
        <time>2012-05-28T10:45:06Z</time>
      </trkpt>
      <trkpt lat="44.08865" lon="5.96851">
        <ele>572.6</ele>
        <time>2012-05-28T10:45:09Z</time>
      </trkpt>
      <trkpt lat="44.08845" lon="5.96869">
        <ele>575.01</ele>
        <time>2012-05-28T10:45:22Z</time>
      </trkpt>
      <trkpt lat="44.0881" lon="5.96886">
        <ele>577.89</ele>
        <time>2012-05-28T10:45:43Z</time>
      </trkpt>
      <trkpt lat="44.08787" lon="5.96895">
        <ele>579.81</ele>
        <time>2012-05-28T10:45:58Z</time>
      </trkpt>
      <trkpt lat="44.08764" lon="5.96929">
        <ele>583.66</ele>
        <time>2012-05-28T10:46:20Z</time>
      </trkpt>
      <trkpt lat="44.08754" lon="5.96945">
        <ele>585.1</ele>
        <time>2012-05-28T10:46:30Z</time>
      </trkpt>
      <trkpt lat="44.08672" lon="5.97024">
        <ele>588.46</ele>
        <time>2012-05-28T10:47:18Z</time>
      </trkpt>
      <trkpt lat="44.08605" lon="5.97098">
        <ele>592.31</ele>
        <time>2012-05-28T10:47:54Z</time>
      </trkpt>
      <trkpt lat="44.08591" lon="5.9715">
        <ele>595.67</ele>
        <time>2012-05-28T10:48:09Z</time>
      </trkpt>
      <trkpt lat="44.0856" lon="5.97278">
        <ele>599.04</ele>
        <time>2012-05-28T10:48:45Z</time>
      </trkpt>
      <trkpt lat="44.0857" lon="5.97336">
        <ele>600.48</ele>
        <time>2012-05-28T10:49:01Z</time>
      </trkpt>
      <trkpt lat="44.08572" lon="5.97389">
        <ele>600.48</ele>
        <time>2012-05-28T10:49:12Z</time>
      </trkpt>
      <trkpt lat="44.08557" lon="5.97418">
        <ele>601.44</ele>
        <time>2012-05-28T10:49:19Z</time>
      </trkpt>
      <trkpt lat="44.08517" lon="5.9753">
        <ele>602.4</ele>
        <time>2012-05-28T10:49:40Z</time>
      </trkpt>
      <trkpt lat="44.08516" lon="5.97534">
        <ele>602.4</ele>
        <time>2012-05-28T10:49:41Z</time>
      </trkpt>
      <trkpt lat="44.08523" lon="5.97633">
        <ele>601.44</ele>
        <time>2012-05-28T10:49:57Z</time>
      </trkpt>
      <trkpt lat="44.08531" lon="5.97648">
        <ele>600.48</ele>
        <time>2012-05-28T10:49:59Z</time>
      </trkpt>
      <trkpt lat="44.08557" lon="5.97695">
        <ele>595.67</ele>
        <time>2012-05-28T10:50:06Z</time>
      </trkpt>
      <trkpt lat="44.08581" lon="5.97748">
        <ele>591.35</ele>
        <time>2012-05-28T10:50:14Z</time>
      </trkpt>
      <trkpt lat="44.08585" lon="5.97754">
        <ele>591.35</ele>
        <time>2012-05-28T10:50:15Z</time>
      </trkpt>
      <trkpt lat="44.08601" lon="5.9778">
        <ele>589.43</ele>
        <time>2012-05-28T10:50:19Z</time>
      </trkpt>
      <trkpt lat="44.08651" lon="5.97898">
        <ele>586.06</ele>
        <time>2012-05-28T10:50:33Z</time>
      </trkpt>
      <trkpt lat="44.08663" lon="5.97909">
        <ele>585.1</ele>
        <time>2012-05-28T10:50:35Z</time>
      </trkpt>
      <trkpt lat="44.08708" lon="5.9794">
        <ele>581.25</ele>
        <time>2012-05-28T10:50:41Z</time>
      </trkpt>
      <trkpt lat="44.08736" lon="5.9796">
        <ele>577.41</ele>
        <time>2012-05-28T10:50:45Z</time>
      </trkpt>
      <trkpt lat="44.08748" lon="5.97968">
        <ele>575.49</ele>
        <time>2012-05-28T10:50:47Z</time>
      </trkpt>
      <trkpt lat="44.08755" lon="5.97969">
        <ele>575.49</ele>
        <time>2012-05-28T10:50:48Z</time>
      </trkpt>
      <trkpt lat="44.08831" lon="5.97982">
        <ele>573.56</ele>
        <time>2012-05-28T10:51:03Z</time>
      </trkpt>
      <trkpt lat="44.08856" lon="5.97987">
        <ele>570.2</ele>
        <time>2012-05-28T10:51:08Z</time>
      </trkpt>
      <trkpt lat="44.08884" lon="5.97994">
        <ele>565.87</ele>
        <time>2012-05-28T10:51:15Z</time>
      </trkpt>
      <trkpt lat="44.08886" lon="5.97997">
        <ele>565.87</ele>
        <time>2012-05-28T10:51:16Z</time>
      </trkpt>
      <trkpt lat="44.08885" lon="5.98009">
        <ele>564.91</ele>
        <time>2012-05-28T10:51:19Z</time>
      </trkpt>
      <trkpt lat="44.0889" lon="5.98051">
        <ele>561.55</ele>
        <time>2012-05-28T10:51:27Z</time>
      </trkpt>
      <trkpt lat="44.0889" lon="5.9806">
        <ele>561.07</ele>
        <time>2012-05-28T10:51:28Z</time>
      </trkpt>
      <trkpt lat="44.08891" lon="5.98109">
        <ele>555.78</ele>
        <time>2012-05-28T10:51:33Z</time>
      </trkpt>
      <trkpt lat="44.08891" lon="5.98119">
        <ele>554.82</ele>
        <time>2012-05-28T10:51:34Z</time>
      </trkpt>
      <trkpt lat="44.08886" lon="5.98175">
        <ele>550.97</ele>
        <time>2012-05-28T10:51:39Z</time>
      </trkpt>
      <trkpt lat="44.08888" lon="5.98187">
        <ele>550.97</ele>
        <time>2012-05-28T10:51:40Z</time>
      </trkpt>
      <trkpt lat="44.0889" lon="5.98225">
        <ele>548.09</ele>
        <time>2012-05-28T10:51:43Z</time>
      </trkpt>
      <trkpt lat="44.0889" lon="5.98237">
        <ele>548.09</ele>
        <time>2012-05-28T10:51:44Z</time>
      </trkpt>
      <trkpt lat="44.0889" lon="5.98292">
        <ele>545.2</ele>
        <time>2012-05-28T10:51:49Z</time>
      </trkpt>
      <trkpt lat="44.08896" lon="5.98351">
        <ele>543.76</ele>
        <time>2012-05-28T10:51:56Z</time>
      </trkpt>
      <trkpt lat="44.08901" lon="5.98407">
        <ele>544.24</ele>
        <time>2012-05-28T10:52:04Z</time>
      </trkpt>
      <trkpt lat="44.08892" lon="5.98463">
        <ele>548.57</ele>
        <time>2012-05-28T10:52:18Z</time>
      </trkpt>
      <trkpt lat="44.08853" lon="5.98532">
        <ele>552.41</ele>
        <time>2012-05-28T10:52:43Z</time>
      </trkpt>
      <trkpt lat="44.08832" lon="5.98569">
        <ele>555.78</ele>
        <time>2012-05-28T10:52:58Z</time>
      </trkpt>
      <trkpt lat="44.08807" lon="5.98629">
        <ele>559.14</ele>
        <time>2012-05-28T10:53:19Z</time>
      </trkpt>
      <trkpt lat="44.08811" lon="5.98676">
        <ele>558.66</ele>
        <time>2012-05-28T10:53:31Z</time>
      </trkpt>
      <trkpt lat="44.08874" lon="5.98721">
        <ele>559.14</ele>
        <time>2012-05-28T10:53:47Z</time>
      </trkpt>
      <trkpt lat="44.08927" lon="5.98755">
        <ele>560.11</ele>
        <time>2012-05-28T10:54:02Z</time>
      </trkpt>
      <trkpt lat="44.08987" lon="5.98825">
        <ele>556.26</ele>
        <time>2012-05-28T10:54:15Z</time>
      </trkpt>
      <trkpt lat="44.09021" lon="5.98869">
        <ele>552.41</ele>
        <time>2012-05-28T10:54:20Z</time>
      </trkpt>
      <trkpt lat="44.09029" lon="5.98876">
        <ele>553.38</ele>
        <time>2012-05-28T10:54:21Z</time>
      </trkpt>
      <trkpt lat="44.09127" lon="5.98925">
        <ele>548.57</ele>
        <time>2012-05-28T10:54:32Z</time>
      </trkpt>
      <trkpt lat="44.09171" lon="5.98937">
        <ele>547.61</ele>
        <time>2012-05-28T10:54:37Z</time>
      </trkpt>
      <trkpt lat="44.09238" lon="5.98897">
        <ele>546.17</ele>
        <time>2012-05-28T10:54:46Z</time>
      </trkpt>
      <trkpt lat="44.09258" lon="5.98897">
        <ele>545.69</ele>
        <time>2012-05-28T10:54:49Z</time>
      </trkpt>
      <trkpt lat="44.0927" lon="5.98903">
        <ele>545.69</ele>
        <time>2012-05-28T10:54:51Z</time>
      </trkpt>
      <trkpt lat="44.09279" lon="5.98935">
        <ele>546.17</ele>
        <time>2012-05-28T10:54:56Z</time>
      </trkpt>
      <trkpt lat="44.09265" lon="5.99094">
        <ele>546.65</ele>
        <time>2012-05-28T10:55:20Z</time>
      </trkpt>
      <trkpt lat="44.09265" lon="5.99243">
        <ele>544.24</ele>
        <time>2012-05-28T10:55:39Z</time>
      </trkpt>
      <trkpt lat="44.09266" lon="5.9926">
        <ele>544.24</ele>
        <time>2012-05-28T10:55:41Z</time>
      </trkpt>
      <trkpt lat="44.09346" lon="5.99425">
        <ele>542.32</ele>
        <time>2012-05-28T10:56:07Z</time>
      </trkpt>
      <trkpt lat="44.09351" lon="5.9943">
        <ele>542.32</ele>
        <time>2012-05-28T10:56:08Z</time>
      </trkpt>
      <trkpt lat="44.09419" lon="5.99552">
        <ele>540.88</ele>
        <time>2012-05-28T10:56:28Z</time>
      </trkpt>
      <trkpt lat="44.09459" lon="5.99631">
        <ele>536.07</ele>
        <time>2012-05-28T10:56:40Z</time>
      </trkpt>
      <trkpt lat="44.09471" lon="5.99681">
        <ele>532.71</ele>
        <time>2012-05-28T10:56:44Z</time>
      </trkpt>
      <trkpt lat="44.0948" lon="5.99749">
        <ele>528.86</ele>
        <time>2012-05-28T10:56:49Z</time>
      </trkpt>
      <trkpt lat="44.09485" lon="5.99826">
        <ele>525.02</ele>
        <time>2012-05-28T10:56:56Z</time>
      </trkpt>
      <trkpt lat="44.09488" lon="5.99881">
        <ele>521.65</ele>
        <time>2012-05-28T10:57:01Z</time>
      </trkpt>
      <trkpt lat="44.09509" lon="5.99918">
        <ele>518.29</ele>
        <time>2012-05-28T10:57:06Z</time>
      </trkpt>
      <trkpt lat="44.09518" lon="5.99933">
        <ele>515.4</ele>
        <time>2012-05-28T10:57:08Z</time>
      </trkpt>
      <trkpt lat="44.0952" lon="5.99939">
        <ele>515.4</ele>
        <time>2012-05-28T10:57:09Z</time>
      </trkpt>
      <trkpt lat="44.09522" lon="5.99953">
        <ele>514.44</ele>
        <time>2012-05-28T10:57:11Z</time>
      </trkpt>
      <trkpt lat="44.09524" lon="5.99988">
        <ele>513.48</ele>
        <time>2012-05-28T10:57:15Z</time>
      </trkpt>
      <trkpt lat="44.09523" lon="5.99998">
        <ele>513.48</ele>
        <time>2012-05-28T10:57:16Z</time>
      </trkpt>
      <trkpt lat="44.09519" lon="6.00073">
        <ele>510.12</ele>
        <time>2012-05-28T10:57:23Z</time>
      </trkpt>
      <trkpt lat="44.09517" lon="6.00148">
        <ele>506.75</ele>
        <time>2012-05-28T10:57:30Z</time>
      </trkpt>
      <trkpt lat="44.09528" lon="6.00249">
        <ele>503.39</ele>
        <time>2012-05-28T10:57:40Z</time>
      </trkpt>
      <trkpt lat="44.09532" lon="6.00259">
        <ele>502.43</ele>
        <time>2012-05-28T10:57:41Z</time>
      </trkpt>
      <trkpt lat="44.09535" lon="6.00269">
        <ele>502.43</ele>
        <time>2012-05-28T10:57:42Z</time>
      </trkpt>
      <trkpt lat="44.0959" lon="6.00324">
        <ele>497.62</ele>
        <time>2012-05-28T10:57:49Z</time>
      </trkpt>
      <trkpt lat="44.09598" lon="6.00333">
        <ele>497.14</ele>
        <time>2012-05-28T10:57:50Z</time>
      </trkpt>
      <trkpt lat="44.09625" lon="6.00376">
        <ele>494.26</ele>
        <time>2012-05-28T10:57:54Z</time>
      </trkpt>
      <trkpt lat="44.09633" lon="6.004">
        <ele>493.29</ele>
        <time>2012-05-28T10:57:56Z</time>
      </trkpt>
      <trkpt lat="44.09656" lon="6.00466">
        <ele>490.41</ele>
        <time>2012-05-28T10:58:05Z</time>
      </trkpt>
      <trkpt lat="44.09657" lon="6.00472">
        <ele>490.41</ele>
        <time>2012-05-28T10:58:06Z</time>
      </trkpt>
      <trkpt lat="44.09674" lon="6.00486">
        <ele>489.93</ele>
        <time>2012-05-28T10:58:15Z</time>
      </trkpt>
      <trkpt lat="44.09676" lon="6.00484">
        <ele>490.41</ele>
        <time>2012-05-28T10:58:23Z</time>
      </trkpt>
      <trkpt lat="44.0966" lon="6.0049">
        <ele>489.93</ele>
        <time>2012-05-28T10:58:32Z</time>
      </trkpt>
      <trkpt lat="44.09659" lon="6.00488">
        <ele>489.93</ele>
        <time>2012-05-28T10:58:33Z</time>
      </trkpt>
      <trkpt lat="44.0966" lon="6.00475">
        <ele>489.45</ele>
        <time>2012-05-28T10:58:57Z</time>
      </trkpt>
      <trkpt lat="44.09656" lon="6.00475">
        <ele>489.93</ele>
        <time>2012-05-28T10:59:29Z</time>
      </trkpt>
      <trkpt lat="44.09656" lon="6.00421">
        <ele>490.41</ele>
        <time>2012-05-28T10:59:43Z</time>
      </trkpt>
      <trkpt lat="44.09663" lon="6.00401">
        <ele>490.41</ele>
        <time>2012-05-28T11:00:04Z</time>
      </trkpt>
      <trkpt lat="44.09658" lon="6.00398">
        <ele>490.41</ele>
        <time>2012-05-28T11:03:24Z</time>
      </trkpt>
      <trkpt lat="44.09658" lon="6.00401">
        <ele>492.33</ele>
        <time>2012-05-28T11:04:59Z</time>
      </trkpt>
      <trkpt lat="44.09662" lon="6.00412">
        <ele>491.85</ele>
        <time>2012-05-28T11:05:03Z</time>
      </trkpt>
      <trkpt lat="44.09646" lon="6.00446">
        <ele>490.89</ele>
        <time>2012-05-28T11:05:17Z</time>
      </trkpt>
      <trkpt lat="44.09671" lon="6.00486">
        <ele>491.37</ele>
        <time>2012-05-28T11:05:29Z</time>
      </trkpt>
      <trkpt lat="44.09748" lon="6.00419">
        <ele>492.33</ele>
        <time>2012-05-28T11:05:52Z</time>
      </trkpt>
      <trkpt lat="44.09759" lon="6.0043">
        <ele>492.81</ele>
        <time>2012-05-28T11:05:56Z</time>
      </trkpt>
      <trkpt lat="44.09796" lon="6.00539">
        <ele>494.26</ele>
        <time>2012-05-28T11:06:18Z</time>
      </trkpt>
      <trkpt lat="44.09836" lon="6.00624">
        <ele>494.26</ele>
        <time>2012-05-28T11:06:36Z</time>
      </trkpt>
      <trkpt lat="44.09896" lon="6.00691">
        <ele>491.37</ele>
        <time>2012-05-28T11:06:55Z</time>
      </trkpt>
      <trkpt lat="44.09922" lon="6.00682">
        <ele>488.49</ele>
        <time>2012-05-28T11:07:00Z</time>
      </trkpt>
      <trkpt lat="44.09937" lon="6.00676">
        <ele>485.12</ele>
        <time>2012-05-28T11:07:03Z</time>
      </trkpt>
      <trkpt lat="44.09956" lon="6.00677">
        <ele>482.24</ele>
        <time>2012-05-28T11:07:06Z</time>
      </trkpt>
      <trkpt lat="44.09977" lon="6.00685">
        <ele>477.91</ele>
        <time>2012-05-28T11:07:09Z</time>
      </trkpt>
      <trkpt lat="44.09987" lon="6.00688">
        <ele>475.51</ele>
        <time>2012-05-28T11:07:11Z</time>
      </trkpt>
      <trkpt lat="44.09992" lon="6.00688">
        <ele>475.51</ele>
        <time>2012-05-28T11:07:12Z</time>
      </trkpt>
      <trkpt lat="44.10008" lon="6.00699">
        <ele>472.14</ele>
        <time>2012-05-28T11:07:15Z</time>
      </trkpt>
      <trkpt lat="44.09999" lon="6.00699">
        <ele>471.66</ele>
        <time>2012-05-28T11:07:20Z</time>
      </trkpt>
      <trkpt lat="44.09974" lon="6.00721">
        <ele>469.26</ele>
        <time>2012-05-28T11:07:26Z</time>
      </trkpt>
      <trkpt lat="44.099" lon="6.00791">
        <ele>465.9</ele>
        <time>2012-05-28T11:07:39Z</time>
      </trkpt>
      <trkpt lat="44.0988" lon="6.00817">
        <ele>462.53</ele>
        <time>2012-05-28T11:07:43Z</time>
      </trkpt>
      <trkpt lat="44.09862" lon="6.00847">
        <ele>459.17</ele>
        <time>2012-05-28T11:07:55Z</time>
      </trkpt>
      <trkpt lat="44.09863" lon="6.0085">
        <ele>459.65</ele>
        <time>2012-05-28T11:07:56Z</time>
      </trkpt>
      <trkpt lat="44.09874" lon="6.00864">
        <ele>458.21</ele>
        <time>2012-05-28T11:07:59Z</time>
      </trkpt>
      <trkpt lat="44.09884" lon="6.00925">
        <ele>454.84</ele>
        <time>2012-05-28T11:08:06Z</time>
      </trkpt>
      <trkpt lat="44.0987" lon="6.00967">
        <ele>452.44</ele>
        <time>2012-05-28T11:08:10Z</time>
      </trkpt>
      <trkpt lat="44.09865" lon="6.00976">
        <ele>451.96</ele>
        <time>2012-05-28T11:08:11Z</time>
      </trkpt>
      <trkpt lat="44.09867" lon="6.01023">
        <ele>451.48</ele>
        <time>2012-05-28T11:08:17Z</time>
      </trkpt>
      <trkpt lat="44.0988" lon="6.01024">
        <ele>451</ele>
        <time>2012-05-28T11:08:20Z</time>
      </trkpt>
      <trkpt lat="44.10004" lon="6.00973">
        <ele>451.96</ele>
        <time>2012-05-28T11:08:46Z</time>
      </trkpt>
      <trkpt lat="44.10155" lon="6.00879">
        <ele>451.48</ele>
        <time>2012-05-28T11:09:22Z</time>
      </trkpt>
      <trkpt lat="44.10171" lon="6.00927">
        <ele>451.96</ele>
        <time>2012-05-28T11:09:34Z</time>
      </trkpt>
      <trkpt lat="44.10175" lon="6.00939">
        <ele>451.96</ele>
        <time>2012-05-28T11:09:36Z</time>
      </trkpt>
      <trkpt lat="44.1016" lon="6.00975">
        <ele>451</ele>
        <time>2012-05-28T11:09:42Z</time>
      </trkpt>
      <trkpt lat="44.1006" lon="6.01061">
        <ele>450.52</ele>
        <time>2012-05-28T11:10:05Z</time>
      </trkpt>
      <trkpt lat="44.10054" lon="6.01093">
        <ele>451</ele>
        <time>2012-05-28T11:10:12Z</time>
      </trkpt>
      <trkpt lat="44.10067" lon="6.0112">
        <ele>451</ele>
        <time>2012-05-28T11:10:17Z</time>
      </trkpt>
      <trkpt lat="44.10075" lon="6.01129">
        <ele>451</ele>
        <time>2012-05-28T11:10:19Z</time>
      </trkpt>
      <trkpt lat="44.10116" lon="6.01129">
        <ele>450.52</ele>
        <time>2012-05-28T11:10:27Z</time>
      </trkpt>
      <trkpt lat="44.10121" lon="6.01125">
        <ele>451</ele>
        <time>2012-05-28T11:10:28Z</time>
      </trkpt>
      <trkpt lat="44.10216" lon="6.01038">
        <ele>450.52</ele>
        <time>2012-05-28T11:10:48Z</time>
      </trkpt>
      <trkpt lat="44.10275" lon="6.01002">
        <ele>448.59</ele>
        <time>2012-05-28T11:10:59Z</time>
      </trkpt>
      <trkpt lat="44.1028" lon="6.00998">
        <ele>447.63</ele>
        <time>2012-05-28T11:11:00Z</time>
      </trkpt>
      <trkpt lat="44.10305" lon="6.0097">
        <ele>445.23</ele>
        <time>2012-05-28T11:11:06Z</time>
      </trkpt>
      <trkpt lat="44.10307" lon="6.00962">
        <ele>445.23</ele>
        <time>2012-05-28T11:11:07Z</time>
      </trkpt>
      <trkpt lat="44.10311" lon="6.00954">
        <ele>445.71</ele>
        <time>2012-05-28T11:11:08Z</time>
      </trkpt>
      <trkpt lat="44.10329" lon="6.00913">
        <ele>445.23</ele>
        <time>2012-05-28T11:11:14Z</time>
      </trkpt>
      <trkpt lat="44.10337" lon="6.009">
        <ele>445.23</ele>
        <time>2012-05-28T11:11:16Z</time>
      </trkpt>
      <trkpt lat="44.1035" lon="6.00885">
        <ele>445.23</ele>
        <time>2012-05-28T11:11:19Z</time>
      </trkpt>
      <trkpt lat="44.10402" lon="6.00827">
        <ele>444.75</ele>
        <time>2012-05-28T11:11:33Z</time>
      </trkpt>
      <trkpt lat="44.10508" lon="6.00766">
        <ele>444.75</ele>
        <time>2012-05-28T11:11:56Z</time>
      </trkpt>
      <trkpt lat="44.10623" lon="6.00713">
        <ele>444.75</ele>
        <time>2012-05-28T11:12:19Z</time>
      </trkpt>
      <trkpt lat="44.10644" lon="6.00702">
        <ele>444.27</ele>
        <time>2012-05-28T11:12:23Z</time>
      </trkpt>
      <trkpt lat="44.10754" lon="6.0065">
        <ele>445.71</ele>
        <time>2012-05-28T11:12:45Z</time>
      </trkpt>
      <trkpt lat="44.10757" lon="6.00647">
        <ele>445.71</ele>
        <time>2012-05-28T11:12:46Z</time>
      </trkpt>
      <trkpt lat="44.10783" lon="6.00641">
        <ele>446.19</ele>
        <time>2012-05-28T11:12:54Z</time>
      </trkpt>
      <trkpt lat="44.10853" lon="6.00771">
        <ele>448.59</ele>
        <time>2012-05-28T11:13:27Z</time>
      </trkpt>
      <trkpt lat="44.10952" lon="6.00942">
        <ele>445.71</ele>
        <time>2012-05-28T11:13:55Z</time>
      </trkpt>
      <trkpt lat="44.10994" lon="6.01029">
        <ele>446.19</ele>
        <time>2012-05-28T11:14:09Z</time>
      </trkpt>
      <trkpt lat="44.11008" lon="6.01077">
        <ele>448.59</ele>
        <time>2012-05-28T11:14:22Z</time>
      </trkpt>
      <trkpt lat="44.11038" lon="6.01186">
        <ele>452.92</ele>
        <time>2012-05-28T11:14:50Z</time>
      </trkpt>
      <trkpt lat="44.11063" lon="6.01279">
        <ele>455.8</ele>
        <time>2012-05-28T11:15:20Z</time>
      </trkpt>
      <trkpt lat="44.11096" lon="6.01407">
        <ele>460.61</ele>
        <time>2012-05-28T11:15:56Z</time>
      </trkpt>
      <trkpt lat="44.11105" lon="6.01422">
        <ele>461.57</ele>
        <time>2012-05-28T11:16:01Z</time>
      </trkpt>
      <trkpt lat="44.11104" lon="6.01428">
        <ele>461.57</ele>
        <time>2012-05-28T11:16:03Z</time>
      </trkpt>
      <trkpt lat="44.11097" lon="6.01436">
        <ele>462.53</ele>
        <time>2012-05-28T11:16:08Z</time>
      </trkpt>
      <trkpt lat="44.11085" lon="6.01436">
        <ele>462.53</ele>
        <time>2012-05-28T11:16:18Z</time>
      </trkpt>
      <trkpt lat="44.111" lon="6.01444">
        <ele>461.57</ele>
        <time>2012-05-28T11:16:26Z</time>
      </trkpt>
      <trkpt lat="44.11101" lon="6.01423">
        <ele>461.09</ele>
        <time>2012-05-28T11:16:48Z</time>
      </trkpt>
      <trkpt lat="44.11103" lon="6.01419">
        <ele>460.61</ele>
        <time>2012-05-28T11:18:11Z</time>
      </trkpt>
      <trkpt lat="44.11106" lon="6.0142">
        <ele>462.05</ele>
        <time>2012-05-28T11:18:26Z</time>
      </trkpt>
      <trkpt lat="44.11108" lon="6.01414">
        <ele>462.05</ele>
        <time>2012-05-28T11:20:03Z</time>
      </trkpt>
      <trkpt lat="44.11107" lon="6.01416">
        <ele>461.57</ele>
        <time>2012-05-28T11:20:12Z</time>
      </trkpt>
      <trkpt lat="44.11107" lon="6.0142">
        <ele>462.05</ele>
        <time>2012-05-28T11:21:14Z</time>
      </trkpt>
      <trkpt lat="44.11112" lon="6.01424">
        <ele>462.53</ele>
        <time>2012-05-28T11:25:35Z</time>
      </trkpt>
      <trkpt lat="44.11109" lon="6.01421">
        <ele>465.42</ele>
        <time>2012-05-28T11:40:29Z</time>
      </trkpt>
      <trkpt lat="44.11112" lon="6.01418">
        <ele>464.45</ele>
        <time>2012-05-28T11:40:45Z</time>
      </trkpt>
      <trkpt lat="44.11109" lon="6.01414">
        <ele>464.45</ele>
        <time>2012-05-28T11:41:50Z</time>
      </trkpt>
      <trkpt lat="44.11107" lon="6.01402">
        <ele>463.49</ele>
        <time>2012-05-28T11:41:56Z</time>
      </trkpt>
      <trkpt lat="44.11088" lon="6.01341">
        <ele>462.05</ele>
        <time>2012-05-28T11:42:11Z</time>
      </trkpt>
      <trkpt lat="44.11056" lon="6.01241">
        <ele>458.69</ele>
        <time>2012-05-28T11:42:32Z</time>
      </trkpt>
      <trkpt lat="44.11028" lon="6.01145">
        <ele>455.32</ele>
        <time>2012-05-28T11:42:44Z</time>
      </trkpt>
      <trkpt lat="44.11004" lon="6.01063">
        <ele>451.96</ele>
        <time>2012-05-28T11:42:52Z</time>
      </trkpt>
      <trkpt lat="44.10974" lon="6.00999">
        <ele>447.63</ele>
        <time>2012-05-28T11:42:59Z</time>
      </trkpt>
      <trkpt lat="44.10967" lon="6.00999">
        <ele>447.63</ele>
        <time>2012-05-28T11:43:00Z</time>
      </trkpt>
      <trkpt lat="44.10916" lon="6.01065">
        <ele>447.15</ele>
        <time>2012-05-28T11:43:13Z</time>
      </trkpt>
      <trkpt lat="44.10881" lon="6.01017">
        <ele>445.71</ele>
        <time>2012-05-28T11:43:33Z</time>
      </trkpt>
      <trkpt lat="44.10872" lon="6.01002">
        <ele>446.19</ele>
        <time>2012-05-28T11:43:37Z</time>
      </trkpt>
      <trkpt lat="44.10796" lon="6.01049">
        <ele>445.71</ele>
        <time>2012-05-28T11:44:02Z</time>
      </trkpt>
      <trkpt lat="44.10752" lon="6.01145">
        <ele>445.71</ele>
        <time>2012-05-28T11:44:22Z</time>
      </trkpt>
      <trkpt lat="44.10736" lon="6.01155">
        <ele>445.23</ele>
        <time>2012-05-28T11:44:26Z</time>
      </trkpt>
      <trkpt lat="44.10665" lon="6.01189">
        <ele>444.75</ele>
        <time>2012-05-28T11:44:44Z</time>
      </trkpt>
      <trkpt lat="44.10629" lon="6.01212">
        <ele>444.75</ele>
        <time>2012-05-28T11:44:58Z</time>
      </trkpt>
      <trkpt lat="44.10609" lon="6.0128">
        <ele>446.19</ele>
        <time>2012-05-28T11:45:11Z</time>
      </trkpt>
      <trkpt lat="44.10547" lon="6.01301">
        <ele>445.71</ele>
        <time>2012-05-28T11:45:27Z</time>
      </trkpt>
      <trkpt lat="44.10491" lon="6.01328">
        <ele>444.75</ele>
        <time>2012-05-28T11:45:47Z</time>
      </trkpt>
      <trkpt lat="44.10439" lon="6.01387">
        <ele>444.75</ele>
        <time>2012-05-28T11:46:02Z</time>
      </trkpt>
      <trkpt lat="44.10384" lon="6.01453">
        <ele>444.27</ele>
        <time>2012-05-28T11:46:17Z</time>
      </trkpt>
      <trkpt lat="44.1033" lon="6.01547">
        <ele>444.75</ele>
        <time>2012-05-28T11:46:35Z</time>
      </trkpt>
      <trkpt lat="44.10275" lon="6.01711">
        <ele>444.75</ele>
        <time>2012-05-28T11:47:05Z</time>
      </trkpt>
      <trkpt lat="44.10287" lon="6.01786">
        <ele>444.27</ele>
        <time>2012-05-28T11:47:21Z</time>
      </trkpt>
      <trkpt lat="44.10289" lon="6.01809">
        <ele>444.27</ele>
        <time>2012-05-28T11:47:26Z</time>
      </trkpt>
      <trkpt lat="44.10294" lon="6.01864">
        <ele>443.79</ele>
        <time>2012-05-28T11:47:36Z</time>
      </trkpt>
      <trkpt lat="44.10288" lon="6.01963">
        <ele>443.79</ele>
        <time>2012-05-28T11:47:51Z</time>
      </trkpt>
      <trkpt lat="44.10249" lon="6.02147">
        <ele>443.31</ele>
        <time>2012-05-28T11:48:14Z</time>
      </trkpt>
      <trkpt lat="44.10246" lon="6.0216">
        <ele>443.31</ele>
        <time>2012-05-28T11:48:16Z</time>
      </trkpt>
      <trkpt lat="44.10238" lon="6.02186">
        <ele>443.31</ele>
        <time>2012-05-28T11:48:20Z</time>
      </trkpt>
      <trkpt lat="44.10221" lon="6.02231">
        <ele>443.31</ele>
        <time>2012-05-28T11:48:27Z</time>
      </trkpt>
      <trkpt lat="44.10217" lon="6.02252">
        <ele>443.31</ele>
        <time>2012-05-28T11:48:30Z</time>
      </trkpt>
      <trkpt lat="44.10205" lon="6.02282">
        <ele>443.31</ele>
        <time>2012-05-28T11:48:35Z</time>
      </trkpt>
      <trkpt lat="44.10192" lon="6.02306">
        <ele>443.31</ele>
        <time>2012-05-28T11:48:39Z</time>
      </trkpt>
      <trkpt lat="44.10132" lon="6.02286">
        <ele>443.31</ele>
        <time>2012-05-28T11:48:52Z</time>
      </trkpt>
      <trkpt lat="44.10119" lon="6.0232">
        <ele>442.82</ele>
        <time>2012-05-28T11:49:01Z</time>
      </trkpt>
      <trkpt lat="44.10156" lon="6.0237">
        <ele>443.31</ele>
        <time>2012-05-28T11:49:12Z</time>
      </trkpt>
      <trkpt lat="44.10186" lon="6.02406">
        <ele>443.79</ele>
        <time>2012-05-28T11:49:21Z</time>
      </trkpt>
      <trkpt lat="44.10194" lon="6.02415">
        <ele>444.75</ele>
        <time>2012-05-28T11:49:25Z</time>
      </trkpt>
      <trkpt lat="44.1022" lon="6.02446">
        <ele>446.67</ele>
        <time>2012-05-28T11:49:37Z</time>
      </trkpt>
      <trkpt lat="44.10204" lon="6.0245">
        <ele>448.59</ele>
        <time>2012-05-28T11:49:46Z</time>
      </trkpt>
      <trkpt lat="44.10193" lon="6.02439">
        <ele>449.55</ele>
        <time>2012-05-28T11:49:51Z</time>
      </trkpt>
      <trkpt lat="44.10137" lon="6.02402">
        <ele>448.59</ele>
        <time>2012-05-28T11:50:08Z</time>
      </trkpt>
      <trkpt lat="44.10061" lon="6.02341">
        <ele>449.07</ele>
        <time>2012-05-28T11:50:27Z</time>
      </trkpt>
      <trkpt lat="44.10019" lon="6.02346">
        <ele>448.59</ele>
        <time>2012-05-28T11:50:36Z</time>
      </trkpt>
      <trkpt lat="44.09922" lon="6.02416">
        <ele>443.79</ele>
        <time>2012-05-28T11:50:56Z</time>
      </trkpt>
      <trkpt lat="44.09896" lon="6.0242">
        <ele>443.79</ele>
        <time>2012-05-28T11:51:00Z</time>
      </trkpt>
      <trkpt lat="44.098" lon="6.02426">
        <ele>443.79</ele>
        <time>2012-05-28T11:51:17Z</time>
      </trkpt>
      <trkpt lat="44.09795" lon="6.02425">
        <ele>443.79</ele>
        <time>2012-05-28T11:51:18Z</time>
      </trkpt>
      <trkpt lat="44.09737" lon="6.02407">
        <ele>444.75</ele>
        <time>2012-05-28T11:51:31Z</time>
      </trkpt>
      <trkpt lat="44.09675" lon="6.02411">
        <ele>443.79</ele>
        <time>2012-05-28T11:51:44Z</time>
      </trkpt>
      <trkpt lat="44.0967" lon="6.0241">
        <ele>443.31</ele>
        <time>2012-05-28T11:51:45Z</time>
      </trkpt>
      <trkpt lat="44.09582" lon="6.02355">
        <ele>444.75</ele>
        <time>2012-05-28T11:52:06Z</time>
      </trkpt>
      <trkpt lat="44.09555" lon="6.02342">
        <ele>445.23</ele>
        <time>2012-05-28T11:52:12Z</time>
      </trkpt>
      <trkpt lat="44.09514" lon="6.02324">
        <ele>445.71</ele>
        <time>2012-05-28T11:52:21Z</time>
      </trkpt>
      <trkpt lat="44.09483" lon="6.02321">
        <ele>445.71</ele>
        <time>2012-05-28T11:52:27Z</time>
      </trkpt>
      <trkpt lat="44.09355" lon="6.02244">
        <ele>445.71</ele>
        <time>2012-05-28T11:52:54Z</time>
      </trkpt>
      <trkpt lat="44.09347" lon="6.02238">
        <ele>445.71</ele>
        <time>2012-05-28T11:52:56Z</time>
      </trkpt>
      <trkpt lat="44.0932" lon="6.02221">
        <ele>443.31</ele>
        <time>2012-05-28T11:53:02Z</time>
      </trkpt>
      <trkpt lat="44.09308" lon="6.02199">
        <ele>442.82</ele>
        <time>2012-05-28T11:53:06Z</time>
      </trkpt>
      <trkpt lat="44.09289" lon="6.02166">
        <ele>442.34</ele>
        <time>2012-05-28T11:53:12Z</time>
      </trkpt>
      <trkpt lat="44.09285" lon="6.02164">
        <ele>442.82</ele>
        <time>2012-05-28T11:53:13Z</time>
      </trkpt>
      <trkpt lat="44.0928" lon="6.02162">
        <ele>442.82</ele>
        <time>2012-05-28T11:53:14Z</time>
      </trkpt>
      <trkpt lat="44.09245" lon="6.02151">
        <ele>442.82</ele>
        <time>2012-05-28T11:53:21Z</time>
      </trkpt>
      <trkpt lat="44.09211" lon="6.02179">
        <ele>444.27</ele>
        <time>2012-05-28T11:53:30Z</time>
      </trkpt>
      <trkpt lat="44.09158" lon="6.02192">
        <ele>445.23</ele>
        <time>2012-05-28T11:53:42Z</time>
      </trkpt>
      <trkpt lat="44.09141" lon="6.02189">
        <ele>443.31</ele>
        <time>2012-05-28T11:53:45Z</time>
      </trkpt>
      <trkpt lat="44.09063" lon="6.02179">
        <ele>442.34</ele>
        <time>2012-05-28T11:53:58Z</time>
      </trkpt>
      <trkpt lat="44.08951" lon="6.02135">
        <ele>441.86</ele>
        <time>2012-05-28T11:54:19Z</time>
      </trkpt>
      <trkpt lat="44.08941" lon="6.02129">
        <ele>442.34</ele>
        <time>2012-05-28T11:54:21Z</time>
      </trkpt>
      <trkpt lat="44.08924" lon="6.02126">
        <ele>442.34</ele>
        <time>2012-05-28T11:54:24Z</time>
      </trkpt>
      <trkpt lat="44.08902" lon="6.02123">
        <ele>442.34</ele>
        <time>2012-05-28T11:54:28Z</time>
      </trkpt>
      <trkpt lat="44.08886" lon="6.02119">
        <ele>442.34</ele>
        <time>2012-05-28T11:54:31Z</time>
      </trkpt>
      <trkpt lat="44.0886" lon="6.02111">
        <ele>442.82</ele>
        <time>2012-05-28T11:54:36Z</time>
      </trkpt>
      <trkpt lat="44.08856" lon="6.02111">
        <ele>442.82</ele>
        <time>2012-05-28T11:54:37Z</time>
      </trkpt>
      <trkpt lat="44.08772" lon="6.0213">
        <ele>447.15</ele>
        <time>2012-05-28T11:55:06Z</time>
      </trkpt>
      <trkpt lat="44.08737" lon="6.02128">
        <ele>448.59</ele>
        <time>2012-05-28T11:55:20Z</time>
      </trkpt>
      <trkpt lat="44.08736" lon="6.02128">
        <ele>448.11</ele>
        <time>2012-05-28T11:55:21Z</time>
      </trkpt>
      <trkpt lat="44.08742" lon="6.02123">
        <ele>448.11</ele>
        <time>2012-05-28T11:55:25Z</time>
      </trkpt>
      <trkpt lat="44.08762" lon="6.02127">
        <ele>447.63</ele>
        <time>2012-05-28T11:55:31Z</time>
      </trkpt>
      <trkpt lat="44.08756" lon="6.02133">
        <ele>449.07</ele>
        <time>2012-05-28T11:55:37Z</time>
      </trkpt>
      <trkpt lat="44.08677" lon="6.02129">
        <ele>450.03</ele>
        <time>2012-05-28T11:55:55Z</time>
      </trkpt>
      <trkpt lat="44.08601" lon="6.02138">
        <ele>449.07</ele>
        <time>2012-05-28T11:56:12Z</time>
      </trkpt>
      <trkpt lat="44.08595" lon="6.02137">
        <ele>449.07</ele>
        <time>2012-05-28T11:56:13Z</time>
      </trkpt>
      <trkpt lat="44.08487" lon="6.02128">
        <ele>449.07</ele>
        <time>2012-05-28T11:56:39Z</time>
      </trkpt>
      <trkpt lat="44.08475" lon="6.02126">
        <ele>449.55</ele>
        <time>2012-05-28T11:56:42Z</time>
      </trkpt>
      <trkpt lat="44.08448" lon="6.02138">
        <ele>449.07</ele>
        <time>2012-05-28T11:56:47Z</time>
      </trkpt>
      <trkpt lat="44.08367" lon="6.02153">
        <ele>448.11</ele>
        <time>2012-05-28T11:57:01Z</time>
      </trkpt>
      <trkpt lat="44.08246" lon="6.02142">
        <ele>450.52</ele>
        <time>2012-05-28T11:57:28Z</time>
      </trkpt>
      <trkpt lat="44.08128" lon="6.02146">
        <ele>454.36</ele>
        <time>2012-05-28T11:57:56Z</time>
      </trkpt>
      <trkpt lat="44.0807" lon="6.02152">
        <ele>457.24</ele>
        <time>2012-05-28T11:58:14Z</time>
      </trkpt>
      <trkpt lat="44.08047" lon="6.02182">
        <ele>459.65</ele>
        <time>2012-05-28T11:58:28Z</time>
      </trkpt>
      <trkpt lat="44.08022" lon="6.02233">
        <ele>461.57</ele>
        <time>2012-05-28T11:58:51Z</time>
      </trkpt>
      <trkpt lat="44.08009" lon="6.02256">
        <ele>463.01</ele>
        <time>2012-05-28T11:59:02Z</time>
      </trkpt>
      <trkpt lat="44.07971" lon="6.02324">
        <ele>467.34</ele>
        <time>2012-05-28T11:59:34Z</time>
      </trkpt>
      <trkpt lat="44.07938" lon="6.02384">
        <ele>470.7</ele>
        <time>2012-05-28T12:00:03Z</time>
      </trkpt>
      <trkpt lat="44.07892" lon="6.02492">
        <ele>474.55</ele>
        <time>2012-05-28T12:00:36Z</time>
      </trkpt>
      <trkpt lat="44.07837" lon="6.02601">
        <ele>477.91</ele>
        <time>2012-05-28T12:01:09Z</time>
      </trkpt>
      <trkpt lat="44.07851" lon="6.0265">
        <ele>480.32</ele>
        <time>2012-05-28T12:01:23Z</time>
      </trkpt>
      <trkpt lat="44.07868" lon="6.0271">
        <ele>483.68</ele>
        <time>2012-05-28T12:01:39Z</time>
      </trkpt>
      <trkpt lat="44.07882" lon="6.02809">
        <ele>488.97</ele>
        <time>2012-05-28T12:02:06Z</time>
      </trkpt>
      <trkpt lat="44.07886" lon="6.02823">
        <ele>489.93</ele>
        <time>2012-05-28T12:02:19Z</time>
      </trkpt>
      <trkpt lat="44.07885" lon="6.02918">
        <ele>494.26</ele>
        <time>2012-05-28T12:02:51Z</time>
      </trkpt>
      <trkpt lat="44.07869" lon="6.02955">
        <ele>497.62</ele>
        <time>2012-05-28T12:03:10Z</time>
      </trkpt>
      <trkpt lat="44.07858" lon="6.02979">
        <ele>499.06</ele>
        <time>2012-05-28T12:03:23Z</time>
      </trkpt>
      <trkpt lat="44.07856" lon="6.03">
        <ele>500.02</ele>
        <time>2012-05-28T12:03:33Z</time>
      </trkpt>
      <trkpt lat="44.07849" lon="6.03032">
        <ele>501.95</ele>
        <time>2012-05-28T12:03:46Z</time>
      </trkpt>
      <trkpt lat="44.07842" lon="6.03076">
        <ele>504.35</ele>
        <time>2012-05-28T12:04:07Z</time>
      </trkpt>
      <trkpt lat="44.07836" lon="6.03101">
        <ele>505.79</ele>
        <time>2012-05-28T12:04:18Z</time>
      </trkpt>
      <trkpt lat="44.07834" lon="6.03107">
        <ele>506.27</ele>
        <time>2012-05-28T12:04:21Z</time>
      </trkpt>
      <trkpt lat="44.07828" lon="6.03134">
        <ele>507.23</ele>
        <time>2012-05-28T12:04:32Z</time>
      </trkpt>
      <trkpt lat="44.07827" lon="6.03169">
        <ele>509.16</ele>
        <time>2012-05-28T12:04:47Z</time>
      </trkpt>
      <trkpt lat="44.07827" lon="6.03171">
        <ele>509.64</ele>
        <time>2012-05-28T12:04:48Z</time>
      </trkpt>
      <trkpt lat="44.07825" lon="6.03178">
        <ele>510.6</ele>
        <time>2012-05-28T12:04:51Z</time>
      </trkpt>
      <trkpt lat="44.07799" lon="6.03227">
        <ele>513</ele>
        <time>2012-05-28T12:05:16Z</time>
      </trkpt>
      <trkpt lat="44.07751" lon="6.03266">
        <ele>517.81</ele>
        <time>2012-05-28T12:05:48Z</time>
      </trkpt>
      <trkpt lat="44.07724" lon="6.03288">
        <ele>521.17</ele>
        <time>2012-05-28T12:06:08Z</time>
      </trkpt>
      <trkpt lat="44.07709" lon="6.03295">
        <ele>523.09</ele>
        <time>2012-05-28T12:06:16Z</time>
      </trkpt>
      <trkpt lat="44.07707" lon="6.03296">
        <ele>522.61</ele>
        <time>2012-05-28T12:06:17Z</time>
      </trkpt>
      <trkpt lat="44.07689" lon="6.03311">
        <ele>524.54</ele>
        <time>2012-05-28T12:06:29Z</time>
      </trkpt>
      <trkpt lat="44.07652" lon="6.03321">
        <ele>527.42</ele>
        <time>2012-05-28T12:06:50Z</time>
      </trkpt>
      <trkpt lat="44.07614" lon="6.03326">
        <ele>532.23</ele>
        <time>2012-05-28T12:07:15Z</time>
      </trkpt>
      <trkpt lat="44.07603" lon="6.03326">
        <ele>531.75</ele>
        <time>2012-05-28T12:07:25Z</time>
      </trkpt>
      <trkpt lat="44.07582" lon="6.03327">
        <ele>535.11</ele>
        <time>2012-05-28T12:07:41Z</time>
      </trkpt>
      <trkpt lat="44.07581" lon="6.03328">
        <ele>535.11</ele>
        <time>2012-05-28T12:07:42Z</time>
      </trkpt>
      <trkpt lat="44.0757" lon="6.03329">
        <ele>537.03</ele>
        <time>2012-05-28T12:07:52Z</time>
      </trkpt>
      <trkpt lat="44.07543" lon="6.03346">
        <ele>540.4</ele>
        <time>2012-05-28T12:08:11Z</time>
      </trkpt>
      <trkpt lat="44.07533" lon="6.03382">
        <ele>543.28</ele>
        <time>2012-05-28T12:08:29Z</time>
      </trkpt>
      <trkpt lat="44.07508" lon="6.03409">
        <ele>546.65</ele>
        <time>2012-05-28T12:08:51Z</time>
      </trkpt>
      <trkpt lat="44.07496" lon="6.03419">
        <ele>548.57</ele>
        <time>2012-05-28T12:09:00Z</time>
      </trkpt>
      <trkpt lat="44.07479" lon="6.03458">
        <ele>551.93</ele>
        <time>2012-05-28T12:09:22Z</time>
      </trkpt>
      <trkpt lat="44.07474" lon="6.03504">
        <ele>555.78</ele>
        <time>2012-05-28T12:09:46Z</time>
      </trkpt>
      <trkpt lat="44.07461" lon="6.03538">
        <ele>559.62</ele>
        <time>2012-05-28T12:10:05Z</time>
      </trkpt>
      <trkpt lat="44.07446" lon="6.03586">
        <ele>564.43</ele>
        <time>2012-05-28T12:10:32Z</time>
      </trkpt>
      <trkpt lat="44.07446" lon="6.03588">
        <ele>564.43</ele>
        <time>2012-05-28T12:10:33Z</time>
      </trkpt>
      <trkpt lat="44.0744" lon="6.03613">
        <ele>567.32</ele>
        <time>2012-05-28T12:10:49Z</time>
      </trkpt>
      <trkpt lat="44.0744" lon="6.03614">
        <ele>567.32</ele>
        <time>2012-05-28T12:10:50Z</time>
      </trkpt>
      <trkpt lat="44.07441" lon="6.03636">
        <ele>569.24</ele>
        <time>2012-05-28T12:11:04Z</time>
      </trkpt>
      <trkpt lat="44.07493" lon="6.03593">
        <ele>575.01</ele>
        <time>2012-05-28T12:11:41Z</time>
      </trkpt>
      <trkpt lat="44.07509" lon="6.03571">
        <ele>577.41</ele>
        <time>2012-05-28T12:11:55Z</time>
      </trkpt>
      <trkpt lat="44.07515" lon="6.03564">
        <ele>577.41</ele>
        <time>2012-05-28T12:12:00Z</time>
      </trkpt>
      <trkpt lat="44.07566" lon="6.0351">
        <ele>582.7</ele>
        <time>2012-05-28T12:12:38Z</time>
      </trkpt>
      <trkpt lat="44.07616" lon="6.03495">
        <ele>587.02</ele>
        <time>2012-05-28T12:13:11Z</time>
      </trkpt>
      <trkpt lat="44.07625" lon="6.03516">
        <ele>588.95</ele>
        <time>2012-05-28T12:13:23Z</time>
      </trkpt>
      <trkpt lat="44.07583" lon="6.03581">
        <ele>594.23</ele>
        <time>2012-05-28T12:14:00Z</time>
      </trkpt>
      <trkpt lat="44.07517" lon="6.03649">
        <ele>599.04</ele>
        <time>2012-05-28T12:14:40Z</time>
      </trkpt>
      <trkpt lat="44.07462" lon="6.03712">
        <ele>603.36</ele>
        <time>2012-05-28T12:15:27Z</time>
      </trkpt>
      <trkpt lat="44.07445" lon="6.03741">
        <ele>607.69</ele>
        <time>2012-05-28T12:15:48Z</time>
      </trkpt>
      <trkpt lat="44.07428" lon="6.03758">
        <ele>612.02</ele>
        <time>2012-05-28T12:16:11Z</time>
      </trkpt>
      <trkpt lat="44.07415" lon="6.03778">
        <ele>615.86</ele>
        <time>2012-05-28T12:16:39Z</time>
      </trkpt>
      <trkpt lat="44.07412" lon="6.0378">
        <ele>616.34</ele>
        <time>2012-05-28T12:16:42Z</time>
      </trkpt>
      <trkpt lat="44.07385" lon="6.03808">
        <ele>620.19</ele>
        <time>2012-05-28T12:17:06Z</time>
      </trkpt>
      <trkpt lat="44.0736" lon="6.03845">
        <ele>624.03</ele>
        <time>2012-05-28T12:17:34Z</time>
      </trkpt>
      <trkpt lat="44.07353" lon="6.03858">
        <ele>625.47</ele>
        <time>2012-05-28T12:17:42Z</time>
      </trkpt>
      <trkpt lat="44.07313" lon="6.03884">
        <ele>629.32</ele>
        <time>2012-05-28T12:18:13Z</time>
      </trkpt>
      <trkpt lat="44.07293" lon="6.03901">
        <ele>632.2</ele>
        <time>2012-05-28T12:18:29Z</time>
      </trkpt>
      <trkpt lat="44.07289" lon="6.03904">
        <ele>632.2</ele>
        <time>2012-05-28T12:18:32Z</time>
      </trkpt>
      <trkpt lat="44.07287" lon="6.03906">
        <ele>632.68</ele>
        <time>2012-05-28T12:18:34Z</time>
      </trkpt>
      <trkpt lat="44.07277" lon="6.03918">
        <ele>633.65</ele>
        <time>2012-05-28T12:18:42Z</time>
      </trkpt>
      <trkpt lat="44.07242" lon="6.03984">
        <ele>637.97</ele>
        <time>2012-05-28T12:19:16Z</time>
      </trkpt>
      <trkpt lat="44.07241" lon="6.03986">
        <ele>637.97</ele>
        <time>2012-05-28T12:19:17Z</time>
      </trkpt>
      <trkpt lat="44.07213" lon="6.04016">
        <ele>639.89</ele>
        <time>2012-05-28T12:19:33Z</time>
      </trkpt>
      <trkpt lat="44.0721" lon="6.04042">
        <ele>640.38</ele>
        <time>2012-05-28T12:19:41Z</time>
      </trkpt>
      <trkpt lat="44.07212" lon="6.04044">
        <ele>640.38</ele>
        <time>2012-05-28T12:19:42Z</time>
      </trkpt>
      <trkpt lat="44.07224" lon="6.04081">
        <ele>641.82</ele>
        <time>2012-05-28T12:19:55Z</time>
      </trkpt>
      <trkpt lat="44.072" lon="6.04129">
        <ele>643.26</ele>
        <time>2012-05-28T12:20:11Z</time>
      </trkpt>
      <trkpt lat="44.07187" lon="6.04188">
        <ele>643.74</ele>
        <time>2012-05-28T12:20:25Z</time>
      </trkpt>
      <trkpt lat="44.07176" lon="6.04254">
        <ele>642.78</ele>
        <time>2012-05-28T12:20:44Z</time>
      </trkpt>
      <trkpt lat="44.07192" lon="6.04266">
        <ele>643.26</ele>
        <time>2012-05-28T12:20:50Z</time>
      </trkpt>
      <trkpt lat="44.07276" lon="6.04209">
        <ele>645.18</ele>
        <time>2012-05-28T12:21:20Z</time>
      </trkpt>
      <trkpt lat="44.07312" lon="6.04181">
        <ele>645.18</ele>
        <time>2012-05-28T12:21:32Z</time>
      </trkpt>
      <trkpt lat="44.0739" lon="6.04169">
        <ele>646.14</ele>
        <time>2012-05-28T12:21:54Z</time>
      </trkpt>
      <trkpt lat="44.07409" lon="6.0423">
        <ele>647.1</ele>
        <time>2012-05-28T12:22:10Z</time>
      </trkpt>
      <trkpt lat="44.07419" lon="6.04266">
        <ele>650.47</ele>
        <time>2012-05-28T12:22:23Z</time>
      </trkpt>
      <trkpt lat="44.0742" lon="6.04268">
        <ele>650.47</ele>
        <time>2012-05-28T12:22:24Z</time>
      </trkpt>
      <trkpt lat="44.07424" lon="6.04281">
        <ele>650.95</ele>
        <time>2012-05-28T12:22:30Z</time>
      </trkpt>
      <trkpt lat="44.07402" lon="6.043">
        <ele>653.35</ele>
        <time>2012-05-28T12:22:47Z</time>
      </trkpt>
      <trkpt lat="44.07376" lon="6.04288">
        <ele>655.28</ele>
        <time>2012-05-28T12:23:01Z</time>
      </trkpt>
      <trkpt lat="44.07338" lon="6.04271">
        <ele>655.76</ele>
        <time>2012-05-28T12:23:14Z</time>
      </trkpt>
      <trkpt lat="44.07296" lon="6.04231">
        <ele>654.8</ele>
        <time>2012-05-28T12:23:29Z</time>
      </trkpt>
      <trkpt lat="44.07207" lon="6.04294">
        <ele>654.8</ele>
        <time>2012-05-28T12:23:52Z</time>
      </trkpt>
      <trkpt lat="44.07136" lon="6.0433">
        <ele>660.08</ele>
        <time>2012-05-28T12:24:19Z</time>
      </trkpt>
      <trkpt lat="44.07114" lon="6.04334">
        <ele>659.6</ele>
        <time>2012-05-28T12:24:29Z</time>
      </trkpt>
      <trkpt lat="44.07114" lon="6.04292">
        <ele>665.37</ele>
        <time>2012-05-28T12:24:51Z</time>
      </trkpt>
      <trkpt lat="44.07128" lon="6.04279">
        <ele>664.89</ele>
        <time>2012-05-28T12:25:01Z</time>
      </trkpt>
      <trkpt lat="44.07136" lon="6.04238">
        <ele>668.25</ele>
        <time>2012-05-28T12:25:21Z</time>
      </trkpt>
      <trkpt lat="44.07148" lon="6.04171">
        <ele>673.06</ele>
        <time>2012-05-28T12:25:52Z</time>
      </trkpt>
      <trkpt lat="44.07148" lon="6.0417">
        <ele>673.06</ele>
        <time>2012-05-28T12:25:53Z</time>
      </trkpt>
      <trkpt lat="44.07142" lon="6.04117">
        <ele>676.42</ele>
        <time>2012-05-28T12:26:15Z</time>
      </trkpt>
      <trkpt lat="44.07145" lon="6.04064">
        <ele>678.35</ele>
        <time>2012-05-28T12:26:33Z</time>
      </trkpt>
      <trkpt lat="44.0715" lon="6.03948">
        <ele>680.75</ele>
        <time>2012-05-28T12:27:05Z</time>
      </trkpt>
      <trkpt lat="44.07099" lon="6.03916">
        <ele>684.6</ele>
        <time>2012-05-28T12:27:32Z</time>
      </trkpt>
      <trkpt lat="44.07089" lon="6.03888">
        <ele>686.04</ele>
        <time>2012-05-28T12:27:44Z</time>
      </trkpt>
      <trkpt lat="44.07081" lon="6.03905">
        <ele>687.96</ele>
        <time>2012-05-28T12:27:53Z</time>
      </trkpt>
      <trkpt lat="44.07103" lon="6.03949">
        <ele>690.36</ele>
        <time>2012-05-28T12:28:28Z</time>
      </trkpt>
      <trkpt lat="44.07104" lon="6.03954">
        <ele>690.84</ele>
        <time>2012-05-28T12:28:44Z</time>
      </trkpt>
      <trkpt lat="44.0712" lon="6.03982">
        <ele>693.73</ele>
        <time>2012-05-28T12:29:00Z</time>
      </trkpt>
      <trkpt lat="44.0712" lon="6.03984">
        <ele>693.73</ele>
        <time>2012-05-28T12:29:01Z</time>
      </trkpt>
      <trkpt lat="44.07106" lon="6.04016">
        <ele>697.09</ele>
        <time>2012-05-28T12:29:15Z</time>
      </trkpt>
      <trkpt lat="44.07088" lon="6.04053">
        <ele>700.46</ele>
        <time>2012-05-28T12:29:32Z</time>
      </trkpt>
      <trkpt lat="44.07079" lon="6.04098">
        <ele>703.82</ele>
        <time>2012-05-28T12:29:51Z</time>
      </trkpt>
      <trkpt lat="44.07063" lon="6.04169">
        <ele>710.07</ele>
        <time>2012-05-28T12:30:25Z</time>
      </trkpt>
      <trkpt lat="44.07044" lon="6.04203">
        <ele>713.44</ele>
        <time>2012-05-28T12:30:45Z</time>
      </trkpt>
      <trkpt lat="44.07043" lon="6.04204">
        <ele>713.44</ele>
        <time>2012-05-28T12:30:46Z</time>
      </trkpt>
      <trkpt lat="44.07021" lon="6.04221">
        <ele>716.8</ele>
        <time>2012-05-28T12:31:38Z</time>
      </trkpt>
      <trkpt lat="44.06986" lon="6.04235">
        <ele>721.13</ele>
        <time>2012-05-28T12:32:00Z</time>
      </trkpt>
      <trkpt lat="44.06961" lon="6.04288">
        <ele>727.37</ele>
        <time>2012-05-28T12:32:31Z</time>
      </trkpt>
      <trkpt lat="44.06967" lon="6.04312">
        <ele>728.82</ele>
        <time>2012-05-28T12:32:42Z</time>
      </trkpt>
      <trkpt lat="44.06967" lon="6.04317">
        <ele>729.3</ele>
        <time>2012-05-28T12:32:44Z</time>
      </trkpt>
      <trkpt lat="44.0697" lon="6.04362">
        <ele>733.14</ele>
        <time>2012-05-28T12:33:04Z</time>
      </trkpt>
      <trkpt lat="44.06971" lon="6.04403">
        <ele>736.51</ele>
        <time>2012-05-28T12:33:22Z</time>
      </trkpt>
      <trkpt lat="44.06946" lon="6.04439">
        <ele>739.87</ele>
        <time>2012-05-28T12:33:43Z</time>
      </trkpt>
      <trkpt lat="44.06922" lon="6.04511">
        <ele>740.35</ele>
        <time>2012-05-28T12:34:06Z</time>
      </trkpt>
      <trkpt lat="44.06923" lon="6.04516">
        <ele>740.35</ele>
        <time>2012-05-28T12:34:07Z</time>
      </trkpt>
      <trkpt lat="44.06931" lon="6.0454">
        <ele>740.83</ele>
        <time>2012-05-28T12:34:12Z</time>
      </trkpt>
      <trkpt lat="44.06956" lon="6.04671">
        <ele>736.99</ele>
        <time>2012-05-28T12:34:30Z</time>
      </trkpt>
      <trkpt lat="44.06972" lon="6.04702">
        <ele>735.55</ele>
        <time>2012-05-28T12:34:35Z</time>
      </trkpt>
      <trkpt lat="44.06986" lon="6.04718">
        <ele>733.62</ele>
        <time>2012-05-28T12:35:11Z</time>
      </trkpt>
      <trkpt lat="44.06987" lon="6.04716">
        <ele>733.62</ele>
        <time>2012-05-28T12:36:07Z</time>
      </trkpt>
      <trkpt lat="44.07001" lon="6.04724">
        <ele>734.1</ele>
        <time>2012-05-28T12:36:28Z</time>
      </trkpt>
      <trkpt lat="44.07001" lon="6.04726">
        <ele>735.55</ele>
        <time>2012-05-28T12:41:06Z</time>
      </trkpt>
      <trkpt lat="44.07006" lon="6.04739">
        <ele>736.51</ele>
        <time>2012-05-28T12:41:12Z</time>
      </trkpt>
      <trkpt lat="44.07012" lon="6.04795">
        <ele>735.55</ele>
        <time>2012-05-28T12:41:26Z</time>
      </trkpt>
      <trkpt lat="44.07025" lon="6.04894">
        <ele>730.74</ele>
        <time>2012-05-28T12:41:37Z</time>
      </trkpt>
      <trkpt lat="44.07043" lon="6.04945">
        <ele>727.37</ele>
        <time>2012-05-28T12:41:42Z</time>
      </trkpt>
      <trkpt lat="44.07052" lon="6.0496">
        <ele>726.41</ele>
        <time>2012-05-28T12:41:44Z</time>
      </trkpt>
      <trkpt lat="44.07066" lon="6.04976">
        <ele>724.97</ele>
        <time>2012-05-28T12:41:47Z</time>
      </trkpt>
      <trkpt lat="44.07078" lon="6.05032">
        <ele>722.09</ele>
        <time>2012-05-28T12:41:53Z</time>
      </trkpt>
      <trkpt lat="44.07078" lon="6.05041">
        <ele>721.61</ele>
        <time>2012-05-28T12:41:54Z</time>
      </trkpt>
      <trkpt lat="44.07098" lon="6.05079">
        <ele>720.16</ele>
        <time>2012-05-28T12:41:59Z</time>
      </trkpt>
      <trkpt lat="44.07113" lon="6.05098">
        <ele>719.2</ele>
        <time>2012-05-28T12:42:02Z</time>
      </trkpt>
      <trkpt lat="44.07124" lon="6.05117">
        <ele>717.28</ele>
        <time>2012-05-28T12:42:05Z</time>
      </trkpt>
      <trkpt lat="44.07154" lon="6.05156">
        <ele>713.92</ele>
        <time>2012-05-28T12:42:12Z</time>
      </trkpt>
      <trkpt lat="44.0715" lon="6.0519">
        <ele>711.03</ele>
        <time>2012-05-28T12:42:16Z</time>
      </trkpt>
      <trkpt lat="44.07147" lon="6.05197">
        <ele>711.03</ele>
        <time>2012-05-28T12:42:17Z</time>
      </trkpt>
      <trkpt lat="44.07138" lon="6.05214">
        <ele>709.11</ele>
        <time>2012-05-28T12:42:19Z</time>
      </trkpt>
      <trkpt lat="44.07129" lon="6.05251">
        <ele>706.23</ele>
        <time>2012-05-28T12:42:23Z</time>
      </trkpt>
      <trkpt lat="44.07128" lon="6.05262">
        <ele>706.23</ele>
        <time>2012-05-28T12:42:24Z</time>
      </trkpt>
      <trkpt lat="44.07113" lon="6.05312">
        <ele>703.82</ele>
        <time>2012-05-28T12:42:29Z</time>
      </trkpt>
      <trkpt lat="44.07102" lon="6.05345">
        <ele>701.42</ele>
        <time>2012-05-28T12:42:33Z</time>
      </trkpt>
      <trkpt lat="44.07105" lon="6.05385">
        <ele>698.53</ele>
        <time>2012-05-28T12:42:38Z</time>
      </trkpt>
      <trkpt lat="44.07112" lon="6.05402">
        <ele>697.57</ele>
        <time>2012-05-28T12:42:40Z</time>
      </trkpt>
      <trkpt lat="44.07118" lon="6.05419">
        <ele>697.09</ele>
        <time>2012-05-28T12:42:42Z</time>
      </trkpt>
      <trkpt lat="44.07149" lon="6.05473">
        <ele>695.65</ele>
        <time>2012-05-28T12:42:54Z</time>
      </trkpt>
      <trkpt lat="44.07148" lon="6.05502">
        <ele>695.17</ele>
        <time>2012-05-28T12:43:01Z</time>
      </trkpt>
      <trkpt lat="44.07103" lon="6.05527">
        <ele>698.05</ele>
        <time>2012-05-28T12:43:20Z</time>
      </trkpt>
      <trkpt lat="44.07082" lon="6.05642">
        <ele>699.5</ele>
        <time>2012-05-28T12:43:47Z</time>
      </trkpt>
      <trkpt lat="44.07042" lon="6.05704">
        <ele>697.57</ele>
        <time>2012-05-28T12:44:03Z</time>
      </trkpt>
      <trkpt lat="44.07045" lon="6.05746">
        <ele>697.57</ele>
        <time>2012-05-28T12:44:09Z</time>
      </trkpt>
      <trkpt lat="44.07044" lon="6.05789">
        <ele>696.61</ele>
        <time>2012-05-28T12:44:16Z</time>
      </trkpt>
      <trkpt lat="44.07044" lon="6.05844">
        <ele>695.17</ele>
        <time>2012-05-28T12:44:25Z</time>
      </trkpt>
      <trkpt lat="44.07038" lon="6.05876">
        <ele>692.77</ele>
        <time>2012-05-28T12:44:30Z</time>
      </trkpt>
      <trkpt lat="44.07038" lon="6.05883">
        <ele>692.29</ele>
        <time>2012-05-28T12:44:31Z</time>
      </trkpt>
      <trkpt lat="44.07037" lon="6.05909">
        <ele>690.36</ele>
        <time>2012-05-28T12:44:35Z</time>
      </trkpt>
      <trkpt lat="44.0705" lon="6.05967">
        <ele>686.04</ele>
        <time>2012-05-28T12:44:43Z</time>
      </trkpt>
      <trkpt lat="44.07039" lon="6.06019">
        <ele>682.19</ele>
        <time>2012-05-28T12:44:49Z</time>
      </trkpt>
      <trkpt lat="44.07039" lon="6.06028">
        <ele>681.23</ele>
        <time>2012-05-28T12:44:50Z</time>
      </trkpt>
      <trkpt lat="44.07043" lon="6.06066">
        <ele>678.35</ele>
        <time>2012-05-28T12:44:54Z</time>
      </trkpt>
      <trkpt lat="44.07034" lon="6.06095">
        <ele>675.46</ele>
        <time>2012-05-28T12:44:58Z</time>
      </trkpt>
      <trkpt lat="44.07004" lon="6.06105">
        <ele>672.1</ele>
        <time>2012-05-28T12:45:04Z</time>
      </trkpt>
      <trkpt lat="44.06997" lon="6.06116">
        <ele>670.66</ele>
        <time>2012-05-28T12:45:06Z</time>
      </trkpt>
      <trkpt lat="44.06989" lon="6.06129">
        <ele>669.7</ele>
        <time>2012-05-28T12:45:08Z</time>
      </trkpt>
      <trkpt lat="44.06958" lon="6.06135">
        <ele>666.33</ele>
        <time>2012-05-28T12:45:14Z</time>
      </trkpt>
      <trkpt lat="44.06953" lon="6.06132">
        <ele>665.85</ele>
        <time>2012-05-28T12:45:15Z</time>
      </trkpt>
      <trkpt lat="44.06943" lon="6.06124">
        <ele>664.41</ele>
        <time>2012-05-28T12:45:17Z</time>
      </trkpt>
      <trkpt lat="44.06919" lon="6.06123">
        <ele>661.04</ele>
        <time>2012-05-28T12:45:21Z</time>
      </trkpt>
      <trkpt lat="44.06885" lon="6.06149">
        <ele>657.68</ele>
        <time>2012-05-28T12:45:27Z</time>
      </trkpt>
      <trkpt lat="44.06863" lon="6.06191">
        <ele>656.72</ele>
        <time>2012-05-28T12:45:34Z</time>
      </trkpt>
      <trkpt lat="44.06862" lon="6.06199">
        <ele>656.24</ele>
        <time>2012-05-28T12:45:35Z</time>
      </trkpt>
      <trkpt lat="44.0686" lon="6.06228">
        <ele>654.31</ele>
        <time>2012-05-28T12:45:39Z</time>
      </trkpt>
      <trkpt lat="44.06853" lon="6.06241">
        <ele>653.35</ele>
        <time>2012-05-28T12:45:41Z</time>
      </trkpt>
      <trkpt lat="44.06842" lon="6.06259">
        <ele>650.95</ele>
        <time>2012-05-28T12:45:44Z</time>
      </trkpt>
      <trkpt lat="44.06828" lon="6.06288">
        <ele>647.1</ele>
        <time>2012-05-28T12:45:48Z</time>
      </trkpt>
      <trkpt lat="44.06834" lon="6.06327">
        <ele>643.74</ele>
        <time>2012-05-28T12:45:53Z</time>
      </trkpt>
      <trkpt lat="44.06866" lon="6.06333">
        <ele>640.38</ele>
        <time>2012-05-28T12:45:58Z</time>
      </trkpt>
      <trkpt lat="44.06871" lon="6.06332">
        <ele>640.38</ele>
        <time>2012-05-28T12:45:59Z</time>
      </trkpt>
      <trkpt lat="44.06884" lon="6.06332">
        <ele>639.89</ele>
        <time>2012-05-28T12:46:02Z</time>
      </trkpt>
      <trkpt lat="44.06907" lon="6.06304">
        <ele>638.45</ele>
        <time>2012-05-28T12:46:12Z</time>
      </trkpt>
      <trkpt lat="44.06909" lon="6.06305">
        <ele>638.93</ele>
        <time>2012-05-28T12:46:13Z</time>
      </trkpt>
      <trkpt lat="44.06898" lon="6.06347">
        <ele>637.49</ele>
        <time>2012-05-28T12:46:25Z</time>
      </trkpt>
      <trkpt lat="44.06846" lon="6.06402">
        <ele>637.97</ele>
        <time>2012-05-28T12:46:43Z</time>
      </trkpt>
      <trkpt lat="44.06836" lon="6.06415">
        <ele>638.45</ele>
        <time>2012-05-28T12:46:46Z</time>
      </trkpt>
      <trkpt lat="44.0684" lon="6.06506">
        <ele>638.45</ele>
        <time>2012-05-28T12:47:07Z</time>
      </trkpt>
      <trkpt lat="44.06818" lon="6.06528">
        <ele>641.82</ele>
        <time>2012-05-28T12:47:20Z</time>
      </trkpt>
      <trkpt lat="44.06785" lon="6.06566">
        <ele>641.82</ele>
        <time>2012-05-28T12:47:36Z</time>
      </trkpt>
      <trkpt lat="44.06775" lon="6.06613">
        <ele>639.89</ele>
        <time>2012-05-28T12:47:42Z</time>
      </trkpt>
      <trkpt lat="44.06755" lon="6.06627">
        <ele>638.93</ele>
        <time>2012-05-28T12:47:46Z</time>
      </trkpt>
      <trkpt lat="44.06745" lon="6.06629">
        <ele>638.93</ele>
        <time>2012-05-28T12:47:48Z</time>
      </trkpt>
      <trkpt lat="44.06675" lon="6.06677">
        <ele>639.41</ele>
        <time>2012-05-28T12:48:07Z</time>
      </trkpt>
      <trkpt lat="44.06671" lon="6.06678">
        <ele>639.41</ele>
        <time>2012-05-28T12:48:08Z</time>
      </trkpt>
      <trkpt lat="44.06622" lon="6.06694">
        <ele>642.78</ele>
        <time>2012-05-28T12:48:22Z</time>
      </trkpt>
      <trkpt lat="44.06602" lon="6.06723">
        <ele>645.66</ele>
        <time>2012-05-28T12:48:43Z</time>
      </trkpt>
      <trkpt lat="44.06582" lon="6.06751">
        <ele>648.07</ele>
        <time>2012-05-28T12:48:58Z</time>
      </trkpt>
      <trkpt lat="44.06556" lon="6.06862">
        <ele>646.14</ele>
        <time>2012-05-28T12:49:21Z</time>
      </trkpt>
      <trkpt lat="44.06559" lon="6.06944">
        <ele>642.3</ele>
        <time>2012-05-28T12:49:30Z</time>
      </trkpt>
      <trkpt lat="44.06564" lon="6.06951">
        <ele>640.86</ele>
        <time>2012-05-28T12:49:31Z</time>
      </trkpt>
      <trkpt lat="44.06562" lon="6.06981">
        <ele>639.89</ele>
        <time>2012-05-28T12:49:36Z</time>
      </trkpt>
      <trkpt lat="44.06554" lon="6.06995">
        <ele>639.41</ele>
        <time>2012-05-28T12:49:40Z</time>
      </trkpt>
      <trkpt lat="44.06556" lon="6.07002">
        <ele>639.41</ele>
        <time>2012-05-28T12:49:43Z</time>
      </trkpt>
      <trkpt lat="44.06546" lon="6.07047">
        <ele>641.82</ele>
        <time>2012-05-28T12:50:07Z</time>
      </trkpt>
      <trkpt lat="44.06547" lon="6.07049">
        <ele>641.34</ele>
        <time>2012-05-28T12:52:16Z</time>
      </trkpt>
      <trkpt lat="44.06545" lon="6.07119">
        <ele>638.93</ele>
        <time>2012-05-28T12:52:29Z</time>
      </trkpt>
      <trkpt lat="44.0655" lon="6.07156">
        <ele>637.01</ele>
        <time>2012-05-28T12:52:33Z</time>
      </trkpt>
      <trkpt lat="44.06562" lon="6.07202">
        <ele>633.17</ele>
        <time>2012-05-28T12:52:37Z</time>
      </trkpt>
      <trkpt lat="44.06566" lon="6.07213">
        <ele>633.17</ele>
        <time>2012-05-28T12:52:38Z</time>
      </trkpt>
      <trkpt lat="44.06581" lon="6.07228">
        <ele>631.24</ele>
        <time>2012-05-28T12:52:41Z</time>
      </trkpt>
      <trkpt lat="44.06578" lon="6.07243">
        <ele>630.76</ele>
        <time>2012-05-28T12:52:46Z</time>
      </trkpt>
      <trkpt lat="44.06531" lon="6.07264">
        <ele>634.61</ele>
        <time>2012-05-28T12:53:08Z</time>
      </trkpt>
      <trkpt lat="44.0651" lon="6.07302">
        <ele>635.57</ele>
        <time>2012-05-28T12:53:22Z</time>
      </trkpt>
      <trkpt lat="44.06517" lon="6.07328">
        <ele>633.65</ele>
        <time>2012-05-28T12:53:26Z</time>
      </trkpt>
      <trkpt lat="44.06527" lon="6.07355">
        <ele>632.2</ele>
        <time>2012-05-28T12:53:30Z</time>
      </trkpt>
      <trkpt lat="44.06542" lon="6.0738">
        <ele>630.28</ele>
        <time>2012-05-28T12:53:35Z</time>
      </trkpt>
      <trkpt lat="44.06526" lon="6.07384">
        <ele>630.28</ele>
        <time>2012-05-28T12:53:41Z</time>
      </trkpt>
      <trkpt lat="44.0648" lon="6.07368">
        <ele>629.8</ele>
        <time>2012-05-28T12:53:54Z</time>
      </trkpt>
      <trkpt lat="44.06454" lon="6.07387">
        <ele>628.36</ele>
        <time>2012-05-28T12:54:01Z</time>
      </trkpt>
      <trkpt lat="44.06425" lon="6.07504">
        <ele>634.13</ele>
        <time>2012-05-28T12:54:27Z</time>
      </trkpt>
      <trkpt lat="44.06411" lon="6.07641">
        <ele>637.97</ele>
        <time>2012-05-28T12:55:00Z</time>
      </trkpt>
      <trkpt lat="44.06405" lon="6.07714">
        <ele>638.45</ele>
        <time>2012-05-28T12:55:14Z</time>
      </trkpt>
      <trkpt lat="44.06384" lon="6.078">
        <ele>638.93</ele>
        <time>2012-05-28T12:55:29Z</time>
      </trkpt>
      <trkpt lat="44.06381" lon="6.0798">
        <ele>644.22</ele>
        <time>2012-05-28T12:56:02Z</time>
      </trkpt>
      <trkpt lat="44.0637" lon="6.08044">
        <ele>649.03</ele>
        <time>2012-05-28T12:56:18Z</time>
      </trkpt>
      <trkpt lat="44.06363" lon="6.08092">
        <ele>652.39</ele>
        <time>2012-05-28T12:56:29Z</time>
      </trkpt>
      <trkpt lat="44.06372" lon="6.08181">
        <ele>654.8</ele>
        <time>2012-05-28T12:56:49Z</time>
      </trkpt>
      <trkpt lat="44.0637" lon="6.08194">
        <ele>654.31</ele>
        <time>2012-05-28T12:56:51Z</time>
      </trkpt>
      <trkpt lat="44.06367" lon="6.08212">
        <ele>653.35</ele>
        <time>2012-05-28T12:56:53Z</time>
      </trkpt>
      <trkpt lat="44.06365" lon="6.08271">
        <ele>649.51</ele>
        <time>2012-05-28T12:56:58Z</time>
      </trkpt>
      <trkpt lat="44.06361" lon="6.08331">
        <ele>647.1</ele>
        <time>2012-05-28T12:57:03Z</time>
      </trkpt>
      <trkpt lat="44.06372" lon="6.08354">
        <ele>645.66</ele>
        <time>2012-05-28T12:57:06Z</time>
      </trkpt>
      <trkpt lat="44.06413" lon="6.0835">
        <ele>641.82</ele>
        <time>2012-05-28T12:57:12Z</time>
      </trkpt>
      <trkpt lat="44.06434" lon="6.08367">
        <ele>639.89</ele>
        <time>2012-05-28T12:57:15Z</time>
      </trkpt>
      <trkpt lat="44.06453" lon="6.08435">
        <ele>637.49</ele>
        <time>2012-05-28T12:57:23Z</time>
      </trkpt>
      <trkpt lat="44.06452" lon="6.08443">
        <ele>637.49</ele>
        <time>2012-05-28T12:57:24Z</time>
      </trkpt>
      <trkpt lat="44.06417" lon="6.08487">
        <ele>635.09</ele>
        <time>2012-05-28T12:57:31Z</time>
      </trkpt>
      <trkpt lat="44.06393" lon="6.08673">
        <ele>632.68</ele>
        <time>2012-05-28T12:57:50Z</time>
      </trkpt>
      <trkpt lat="44.06388" lon="6.08735">
        <ele>631.72</ele>
        <time>2012-05-28T12:57:57Z</time>
      </trkpt>
      <trkpt lat="44.06338" lon="6.0886">
        <ele>629.8</ele>
        <time>2012-05-28T12:58:14Z</time>
      </trkpt>
      <trkpt lat="44.06299" lon="6.0893">
        <ele>626.92</ele>
        <time>2012-05-28T12:58:24Z</time>
      </trkpt>
      <trkpt lat="44.0628" lon="6.08983">
        <ele>626.92</ele>
        <time>2012-05-28T12:58:54Z</time>
      </trkpt>
      <trkpt lat="44.06277" lon="6.08987">
        <ele>626.92</ele>
        <time>2012-05-28T13:01:02Z</time>
      </trkpt>
      <trkpt lat="44.06277" lon="6.08969">
        <ele>626.44</ele>
        <time>2012-05-28T13:01:07Z</time>
      </trkpt>
      <trkpt lat="44.06254" lon="6.08951">
        <ele>623.07</ele>
        <time>2012-05-28T13:01:13Z</time>
      </trkpt>
      <trkpt lat="44.06245" lon="6.08919">
        <ele>621.15</ele>
        <time>2012-05-28T13:01:18Z</time>
      </trkpt>
      <trkpt lat="44.06212" lon="6.08819">
        <ele>618.75</ele>
        <time>2012-05-28T13:01:35Z</time>
      </trkpt>
      <trkpt lat="44.06209" lon="6.08819">
        <ele>618.26</ele>
        <time>2012-05-28T13:01:53Z</time>
      </trkpt>
      <trkpt lat="44.06204" lon="6.08804">
        <ele>619.71</ele>
        <time>2012-05-28T13:02:02Z</time>
      </trkpt>
      <trkpt lat="44.06173" lon="6.08863">
        <ele>616.82</ele>
        <time>2012-05-28T13:02:14Z</time>
      </trkpt>
      <trkpt lat="44.06135" lon="6.0898">
        <ele>613.46</ele>
        <time>2012-05-28T13:02:28Z</time>
      </trkpt>
      <trkpt lat="44.06096" lon="6.09118">
        <ele>608.65</ele>
        <time>2012-05-28T13:02:42Z</time>
      </trkpt>
      <trkpt lat="44.06058" lon="6.0921">
        <ele>603.85</ele>
        <time>2012-05-28T13:02:51Z</time>
      </trkpt>
      <trkpt lat="44.06034" lon="6.09285">
        <ele>600.48</ele>
        <time>2012-05-28T13:02:58Z</time>
      </trkpt>
      <trkpt lat="44.06031" lon="6.09293">
        <ele>600</ele>
        <time>2012-05-28T13:02:59Z</time>
      </trkpt>
      <trkpt lat="44.06009" lon="6.09343">
        <ele>598.08</ele>
        <time>2012-05-28T13:03:06Z</time>
      </trkpt>
      <trkpt lat="44.06007" lon="6.0935">
        <ele>598.08</ele>
        <time>2012-05-28T13:03:07Z</time>
      </trkpt>
      <trkpt lat="44.06011" lon="6.09419">
        <ele>594.71</ele>
        <time>2012-05-28T13:03:14Z</time>
      </trkpt>
      <trkpt lat="44.06003" lon="6.09494">
        <ele>591.35</ele>
        <time>2012-05-28T13:03:21Z</time>
      </trkpt>
      <trkpt lat="44.05981" lon="6.09676">
        <ele>584.62</ele>
        <time>2012-05-28T13:03:37Z</time>
      </trkpt>
      <trkpt lat="44.05973" lon="6.09735">
        <ele>582.7</ele>
        <time>2012-05-28T13:03:42Z</time>
      </trkpt>
      <trkpt lat="44.05973" lon="6.09748">
        <ele>582.7</ele>
        <time>2012-05-28T13:03:43Z</time>
      </trkpt>
      <trkpt lat="44.05981" lon="6.0986">
        <ele>577.41</ele>
        <time>2012-05-28T13:03:52Z</time>
      </trkpt>
      <trkpt lat="44.05981" lon="6.09873">
        <ele>577.89</ele>
        <time>2012-05-28T13:03:53Z</time>
      </trkpt>
      <trkpt lat="44.05975" lon="6.09917">
        <ele>575.01</ele>
        <time>2012-05-28T13:03:57Z</time>
      </trkpt>
      <trkpt lat="44.0597" lon="6.09932">
        <ele>574.04</ele>
        <time>2012-05-28T13:04:02Z</time>
      </trkpt>
      <trkpt lat="44.05968" lon="6.09916">
        <ele>574.04</ele>
        <time>2012-05-28T13:04:09Z</time>
      </trkpt>
      <trkpt lat="44.05933" lon="6.09847">
        <ele>575.49</ele>
        <time>2012-05-28T13:04:38Z</time>
      </trkpt>
      <trkpt lat="44.05899" lon="6.09824">
        <ele>576.93</ele>
        <time>2012-05-28T13:05:10Z</time>
      </trkpt>
      <trkpt lat="44.05858" lon="6.09804">
        <ele>580.29</ele>
        <time>2012-05-28T13:06:44Z</time>
      </trkpt>
      <trkpt lat="44.05847" lon="6.09801">
        <ele>581.73</ele>
        <time>2012-05-28T13:07:05Z</time>
      </trkpt>
      <trkpt lat="44.05825" lon="6.09778">
        <ele>585.1</ele>
        <time>2012-05-28T13:07:30Z</time>
      </trkpt>
      <trkpt lat="44.05809" lon="6.09774">
        <ele>585.58</ele>
        <time>2012-05-28T13:07:40Z</time>
      </trkpt>
      <trkpt lat="44.058" lon="6.09756">
        <ele>586.06</ele>
        <time>2012-05-28T13:07:45Z</time>
      </trkpt>
      <trkpt lat="44.05792" lon="6.09753">
        <ele>586.06</ele>
        <time>2012-05-28T13:07:48Z</time>
      </trkpt>
      <trkpt lat="44.05765" lon="6.09755">
        <ele>585.1</ele>
        <time>2012-05-28T13:08:09Z</time>
      </trkpt>
      <trkpt lat="44.05734" lon="6.09749">
        <ele>583.18</ele>
        <time>2012-05-28T13:08:19Z</time>
      </trkpt>
      <trkpt lat="44.05664" lon="6.09794">
        <ele>577.89</ele>
        <time>2012-05-28T13:08:30Z</time>
      </trkpt>
      <trkpt lat="44.05583" lon="6.09848">
        <ele>573.08</ele>
        <time>2012-05-28T13:08:40Z</time>
      </trkpt>
      <trkpt lat="44.05497" lon="6.09911">
        <ele>567.32</ele>
        <time>2012-05-28T13:08:50Z</time>
      </trkpt>
      <trkpt lat="44.05444" lon="6.09947">
        <ele>563.95</ele>
        <time>2012-05-28T13:08:56Z</time>
      </trkpt>
      <trkpt lat="44.05409" lon="6.09972">
        <ele>560.59</ele>
        <time>2012-05-28T13:09:00Z</time>
      </trkpt>
      <trkpt lat="44.05355" lon="6.10014">
        <ele>557.22</ele>
        <time>2012-05-28T13:09:06Z</time>
      </trkpt>
      <trkpt lat="44.05291" lon="6.10057">
        <ele>553.38</ele>
        <time>2012-05-28T13:09:13Z</time>
      </trkpt>
      <trkpt lat="44.05253" lon="6.10084">
        <ele>550.01</ele>
        <time>2012-05-28T13:09:18Z</time>
      </trkpt>
      <trkpt lat="44.05227" lon="6.10102">
        <ele>548.57</ele>
        <time>2012-05-28T13:09:22Z</time>
      </trkpt>
      <trkpt lat="44.05194" lon="6.10118">
        <ele>544.72</ele>
        <time>2012-05-28T13:09:26Z</time>
      </trkpt>
      <trkpt lat="44.05164" lon="6.10151">
        <ele>540.4</ele>
        <time>2012-05-28T13:09:30Z</time>
      </trkpt>
      <trkpt lat="44.05142" lon="6.102">
        <ele>536.55</ele>
        <time>2012-05-28T13:09:35Z</time>
      </trkpt>
      <trkpt lat="44.05131" lon="6.10216">
        <ele>535.11</ele>
        <time>2012-05-28T13:09:38Z</time>
      </trkpt>
      <trkpt lat="44.05113" lon="6.10253">
        <ele>533.19</ele>
        <time>2012-05-28T13:09:54Z</time>
      </trkpt>
      <trkpt lat="44.05107" lon="6.10268">
        <ele>532.23</ele>
        <time>2012-05-28T13:09:57Z</time>
      </trkpt>
      <trkpt lat="44.0509" lon="6.10328">
        <ele>529.82</ele>
        <time>2012-05-28T13:10:05Z</time>
      </trkpt>
      <trkpt lat="44.05066" lon="6.104">
        <ele>525.5</ele>
        <time>2012-05-28T13:10:13Z</time>
      </trkpt>
      <trkpt lat="44.0505" lon="6.10446">
        <ele>523.09</ele>
        <time>2012-05-28T13:10:17Z</time>
      </trkpt>
      <trkpt lat="44.0504" lon="6.10478">
        <ele>523.09</ele>
        <time>2012-05-28T13:10:20Z</time>
      </trkpt>
      <trkpt lat="44.05029" lon="6.10661">
        <ele>524.06</ele>
        <time>2012-05-28T13:10:46Z</time>
      </trkpt>
      <trkpt lat="44.05031" lon="6.10666">
        <ele>524.06</ele>
        <time>2012-05-28T13:10:47Z</time>
      </trkpt>
      <trkpt lat="44.05033" lon="6.10671">
        <ele>524.06</ele>
        <time>2012-05-28T13:10:48Z</time>
      </trkpt>
      <trkpt lat="44.05146" lon="6.10811">
        <ele>526.46</ele>
        <time>2012-05-28T13:11:30Z</time>
      </trkpt>
      <trkpt lat="44.05292" lon="6.10945">
        <ele>528.86</ele>
        <time>2012-05-28T13:12:26Z</time>
      </trkpt>
      <trkpt lat="44.05332" lon="6.11012">
        <ele>530.3</ele>
        <time>2012-05-28T13:12:45Z</time>
      </trkpt>
      <trkpt lat="44.05393" lon="6.11012">
        <ele>531.27</ele>
        <time>2012-05-28T13:13:11Z</time>
      </trkpt>
      <trkpt lat="44.05463" lon="6.1099">
        <ele>532.71</ele>
        <time>2012-05-28T13:13:41Z</time>
      </trkpt>
      <trkpt lat="44.05442" lon="6.11">
        <ele>533.67</ele>
        <time>2012-05-28T13:13:50Z</time>
      </trkpt>
      <trkpt lat="44.05364" lon="6.11071">
        <ele>533.67</ele>
        <time>2012-05-28T13:14:10Z</time>
      </trkpt>
      <trkpt lat="44.05347" lon="6.11158">
        <ele>535.11</ele>
        <time>2012-05-28T13:14:24Z</time>
      </trkpt>
      <trkpt lat="44.05347" lon="6.11165">
        <ele>535.11</ele>
        <time>2012-05-28T13:14:25Z</time>
      </trkpt>
      <trkpt lat="44.05339" lon="6.11194">
        <ele>536.07</ele>
        <time>2012-05-28T13:14:30Z</time>
      </trkpt>
      <trkpt lat="44.05331" lon="6.11215">
        <ele>536.55</ele>
        <time>2012-05-28T13:14:34Z</time>
      </trkpt>
      <trkpt lat="44.05308" lon="6.11284">
        <ele>538.96</ele>
        <time>2012-05-28T13:14:50Z</time>
      </trkpt>
      <trkpt lat="44.0528" lon="6.11331">
        <ele>541.84</ele>
        <time>2012-05-28T13:15:06Z</time>
      </trkpt>
      <trkpt lat="44.05205" lon="6.11465">
        <ele>547.13</ele>
        <time>2012-05-28T13:15:49Z</time>
      </trkpt>
      <trkpt lat="44.05141" lon="6.11588">
        <ele>550.49</ele>
        <time>2012-05-28T13:16:23Z</time>
      </trkpt>
      <trkpt lat="44.05051" lon="6.1175">
        <ele>554.82</ele>
        <time>2012-05-28T13:17:02Z</time>
      </trkpt>
      <trkpt lat="44.05008" lon="6.1183">
        <ele>557.22</ele>
        <time>2012-05-28T13:17:22Z</time>
      </trkpt>
      <trkpt lat="44.04981" lon="6.11894">
        <ele>556.74</ele>
        <time>2012-05-28T13:17:35Z</time>
      </trkpt>
      <trkpt lat="44.04969" lon="6.11976">
        <ele>557.22</ele>
        <time>2012-05-28T13:17:50Z</time>
      </trkpt>
      <trkpt lat="44.04963" lon="6.12041">
        <ele>556.74</ele>
        <time>2012-05-28T13:17:59Z</time>
      </trkpt>
      <trkpt lat="44.05008" lon="6.1208">
        <ele>555.3</ele>
        <time>2012-05-28T13:18:10Z</time>
      </trkpt>
      <trkpt lat="44.05059" lon="6.12097">
        <ele>557.7</ele>
        <time>2012-05-28T13:18:34Z</time>
      </trkpt>
      <trkpt lat="44.05076" lon="6.1211">
        <ele>558.18</ele>
        <time>2012-05-28T13:19:46Z</time>
      </trkpt>
      <trkpt lat="44.05097" lon="6.12152">
        <ele>560.59</ele>
        <time>2012-05-28T13:20:02Z</time>
      </trkpt>
      <trkpt lat="44.05051" lon="6.12169">
        <ele>562.99</ele>
        <time>2012-05-28T13:20:30Z</time>
      </trkpt>
      <trkpt lat="44.05037" lon="6.12199">
        <ele>566.35</ele>
        <time>2012-05-28T13:20:44Z</time>
      </trkpt>
      <trkpt lat="44.05035" lon="6.12203">
        <ele>566.83</ele>
        <time>2012-05-28T13:20:46Z</time>
      </trkpt>
      <trkpt lat="44.05035" lon="6.12214">
        <ele>567.8</ele>
        <time>2012-05-28T13:20:50Z</time>
      </trkpt>
      <trkpt lat="44.05016" lon="6.12251">
        <ele>570.2</ele>
        <time>2012-05-28T13:21:04Z</time>
      </trkpt>
      <trkpt lat="44.04996" lon="6.12289">
        <ele>572.12</ele>
        <time>2012-05-28T13:21:18Z</time>
      </trkpt>
      <trkpt lat="44.04993" lon="6.12289">
        <ele>571.64</ele>
        <time>2012-05-28T13:21:19Z</time>
      </trkpt>
      <trkpt lat="44.04987" lon="6.12303">
        <ele>571.16</ele>
        <time>2012-05-28T13:21:25Z</time>
      </trkpt>
      <trkpt lat="44.04973" lon="6.12321">
        <ele>568.76</ele>
        <time>2012-05-28T13:21:30Z</time>
      </trkpt>
      <trkpt lat="44.04944" lon="6.12421">
        <ele>569.24</ele>
        <time>2012-05-28T13:21:54Z</time>
      </trkpt>
      <trkpt lat="44.04925" lon="6.12518">
        <ele>565.87</ele>
        <time>2012-05-28T13:22:09Z</time>
      </trkpt>
      <trkpt lat="44.04914" lon="6.12569">
        <ele>562.99</ele>
        <time>2012-05-28T13:22:14Z</time>
      </trkpt>
      <trkpt lat="44.04878" lon="6.12649">
        <ele>564.43</ele>
        <time>2012-05-28T13:22:38Z</time>
      </trkpt>
      <trkpt lat="44.04846" lon="6.12744">
        <ele>568.76</ele>
        <time>2012-05-28T13:23:11Z</time>
      </trkpt>
      <trkpt lat="44.0483" lon="6.12804">
        <ele>570.68</ele>
        <time>2012-05-28T13:23:29Z</time>
      </trkpt>
      <trkpt lat="44.0483" lon="6.12819">
        <ele>569.72</ele>
        <time>2012-05-28T13:23:32Z</time>
      </trkpt>
      <trkpt lat="44.0482" lon="6.12856">
        <ele>566.83</ele>
        <time>2012-05-28T13:23:37Z</time>
      </trkpt>
      <trkpt lat="44.04793" lon="6.12916">
        <ele>565.39</ele>
        <time>2012-05-28T13:23:54Z</time>
      </trkpt>
      <trkpt lat="44.04738" lon="6.13003">
        <ele>561.07</ele>
        <time>2012-05-28T13:24:09Z</time>
      </trkpt>
      <trkpt lat="44.04698" lon="6.13033">
        <ele>557.7</ele>
        <time>2012-05-28T13:24:15Z</time>
      </trkpt>
      <trkpt lat="44.04691" lon="6.13038">
        <ele>556.74</ele>
        <time>2012-05-28T13:24:16Z</time>
      </trkpt>
      <trkpt lat="44.0464" lon="6.13079">
        <ele>550.97</ele>
        <time>2012-05-28T13:24:29Z</time>
      </trkpt>
      <trkpt lat="44.0463" lon="6.13099">
        <ele>549.53</ele>
        <time>2012-05-28T13:24:54Z</time>
      </trkpt>
      <trkpt lat="44.04631" lon="6.13096">
        <ele>548.57</ele>
        <time>2012-05-28T13:26:08Z</time>
      </trkpt>
      <trkpt lat="44.04631" lon="6.13106">
        <ele>548.09</ele>
        <time>2012-05-28T13:26:19Z</time>
      </trkpt>
      <trkpt lat="44.04624" lon="6.13139">
        <ele>541.84</ele>
        <time>2012-05-28T13:26:29Z</time>
      </trkpt>
      <trkpt lat="44.04625" lon="6.13166">
        <ele>538.48</ele>
        <time>2012-05-28T13:26:33Z</time>
      </trkpt>
      <trkpt lat="44.04619" lon="6.1319">
        <ele>535.11</ele>
        <time>2012-05-28T13:26:36Z</time>
      </trkpt>
      <trkpt lat="44.04613" lon="6.13205">
        <ele>533.19</ele>
        <time>2012-05-28T13:26:38Z</time>
      </trkpt>
      <trkpt lat="44.04598" lon="6.13232">
        <ele>530.3</ele>
        <time>2012-05-28T13:26:44Z</time>
      </trkpt>
      <trkpt lat="44.04556" lon="6.13262">
        <ele>527.42</ele>
        <time>2012-05-28T13:26:56Z</time>
      </trkpt>
      <trkpt lat="44.04534" lon="6.13314">
        <ele>525.5</ele>
        <time>2012-05-28T13:27:04Z</time>
      </trkpt>
      <trkpt lat="44.04461" lon="6.13391">
        <ele>520.69</ele>
        <time>2012-05-28T13:27:23Z</time>
      </trkpt>
      <trkpt lat="44.04457" lon="6.13394">
        <ele>520.69</ele>
        <time>2012-05-28T13:27:24Z</time>
      </trkpt>
      <trkpt lat="44.04406" lon="6.13425">
        <ele>517.81</ele>
        <time>2012-05-28T13:27:37Z</time>
      </trkpt>
      <trkpt lat="44.04279" lon="6.13507">
        <ele>513.48</ele>
        <time>2012-05-28T13:28:13Z</time>
      </trkpt>
      <trkpt lat="44.04279" lon="6.13509">
        <ele>513.96</ele>
        <time>2012-05-28T13:28:20Z</time>
      </trkpt>
      <trkpt lat="44.04285" lon="6.13518">
        <ele>513.48</ele>
        <time>2012-05-28T13:28:36Z</time>
      </trkpt>
      <trkpt lat="44.04239" lon="6.13545">
        <ele>511.08</ele>
        <time>2012-05-28T13:28:54Z</time>
      </trkpt>
      <trkpt lat="44.04219" lon="6.13555">
        <ele>510.6</ele>
        <time>2012-05-28T13:28:59Z</time>
      </trkpt>
      <trkpt lat="44.04148" lon="6.13595">
        <ele>508.67</ele>
        <time>2012-05-28T13:29:34Z</time>
      </trkpt>
      <trkpt lat="44.04148" lon="6.13597">
        <ele>508.67</ele>
        <time>2012-05-28T13:29:35Z</time>
      </trkpt>
      <trkpt lat="44.04124" lon="6.13607">
        <ele>508.67</ele>
        <time>2012-05-28T13:29:47Z</time>
      </trkpt>
      <trkpt lat="44.04121" lon="6.13606">
        <ele>509.16</ele>
        <time>2012-05-28T13:29:49Z</time>
      </trkpt>
      <trkpt lat="44.04079" lon="6.13626">
        <ele>509.16</ele>
        <time>2012-05-28T13:30:03Z</time>
      </trkpt>
      <trkpt lat="44.04065" lon="6.13633">
        <ele>509.16</ele>
        <time>2012-05-28T13:30:07Z</time>
      </trkpt>
      <trkpt lat="44.04057" lon="6.13623">
        <ele>509.64</ele>
        <time>2012-05-28T13:30:11Z</time>
      </trkpt>
      <trkpt lat="44.04055" lon="6.13618">
        <ele>509.16</ele>
        <time>2012-05-28T13:30:12Z</time>
      </trkpt>
      <trkpt lat="44.04011" lon="6.13612">
        <ele>508.19</ele>
        <time>2012-05-28T13:30:30Z</time>
      </trkpt>
      <trkpt lat="44.04001" lon="6.13621">
        <ele>507.71</ele>
        <time>2012-05-28T13:30:33Z</time>
      </trkpt>
      <trkpt lat="44.0393" lon="6.13675">
        <ele>507.71</ele>
        <time>2012-05-28T13:30:58Z</time>
      </trkpt>
      <trkpt lat="44.03896" lon="6.13707">
        <ele>508.19</ele>
        <time>2012-05-28T13:31:08Z</time>
      </trkpt>
      <trkpt lat="44.03858" lon="6.13744">
        <ele>507.71</ele>
        <time>2012-05-28T13:31:20Z</time>
      </trkpt>
      <trkpt lat="44.03859" lon="6.13748">
        <ele>508.19</ele>
        <time>2012-05-28T13:31:28Z</time>
      </trkpt>
      <trkpt lat="44.0386" lon="6.13744">
        <ele>507.71</ele>
        <time>2012-05-28T13:31:43Z</time>
      </trkpt>
      <trkpt lat="44.03909" lon="6.13699">
        <ele>507.71</ele>
        <time>2012-05-28T13:31:59Z</time>
      </trkpt>
      <trkpt lat="44.03949" lon="6.13671">
        <ele>507.71</ele>
        <time>2012-05-28T13:32:10Z</time>
      </trkpt>
      <trkpt lat="44.03959" lon="6.13683">
        <ele>507.71</ele>
        <time>2012-05-28T13:32:13Z</time>
      </trkpt>
      <trkpt lat="44.03987" lon="6.13753">
        <ele>508.19</ele>
        <time>2012-05-28T13:32:25Z</time>
      </trkpt>
      <trkpt lat="44.04002" lon="6.13784">
        <ele>508.67</ele>
        <time>2012-05-28T13:32:31Z</time>
      </trkpt>
      <trkpt lat="44.04089" lon="6.14">
        <ele>509.64</ele>
        <time>2012-05-28T13:33:12Z</time>
      </trkpt>
      <trkpt lat="44.04087" lon="6.14001">
        <ele>509.64</ele>
        <time>2012-05-28T13:34:52Z</time>
      </trkpt>
      <trkpt lat="44.04079" lon="6.14003">
        <ele>509.64</ele>
        <time>2012-05-28T13:35:06Z</time>
      </trkpt>
      <trkpt lat="44.04026" lon="6.14048">
        <ele>510.6</ele>
        <time>2012-05-28T13:35:27Z</time>
      </trkpt>
      <trkpt lat="44.04007" lon="6.14065">
        <ele>510.12</ele>
        <time>2012-05-28T13:35:34Z</time>
      </trkpt>
      <trkpt lat="44.04009" lon="6.14068">
        <ele>510.12</ele>
        <time>2012-05-28T13:35:35Z</time>
      </trkpt>
      <trkpt lat="44.04057" lon="6.14181">
        <ele>513.48</ele>
        <time>2012-05-28T13:36:07Z</time>
      </trkpt>
      <trkpt lat="44.04057" lon="6.14181">
        <ele>512.52</ele>
        <time>2012-05-28T13:36:11Z</time>
      </trkpt>
      <trkpt lat="44.0402" lon="6.14218">
        <ele>513.48</ele>
        <time>2012-05-28T13:36:24Z</time>
      </trkpt>
      <trkpt lat="44.03937" lon="6.14298">
        <ele>512.52</ele>
        <time>2012-05-28T13:36:45Z</time>
      </trkpt>
      <trkpt lat="44.03906" lon="6.14364">
        <ele>512.04</ele>
        <time>2012-05-28T13:36:57Z</time>
      </trkpt>
      <trkpt lat="44.03929" lon="6.14404">
        <ele>512.04</ele>
        <time>2012-05-28T13:37:08Z</time>
      </trkpt>
      <trkpt lat="44.03996" lon="6.14482">
        <ele>512.04</ele>
        <time>2012-05-28T13:37:33Z</time>
      </trkpt>
      <trkpt lat="44.04" lon="6.14485">
        <ele>512.04</ele>
        <time>2012-05-28T13:37:35Z</time>
      </trkpt>
      <trkpt lat="44.04043" lon="6.1451">
        <ele>512.04</ele>
        <time>2012-05-28T13:37:51Z</time>
      </trkpt>
      <trkpt lat="44.04084" lon="6.14567">
        <ele>512.52</ele>
        <time>2012-05-28T13:38:06Z</time>
      </trkpt>
      <trkpt lat="44.04117" lon="6.14637">
        <ele>513.48</ele>
        <time>2012-05-28T13:38:22Z</time>
      </trkpt>
      <trkpt lat="44.04158" lon="6.1472">
        <ele>514.44</ele>
        <time>2012-05-28T13:38:39Z</time>
      </trkpt>
      <trkpt lat="44.04183" lon="6.14853">
        <ele>514.92</ele>
        <time>2012-05-28T13:39:03Z</time>
      </trkpt>
      <trkpt lat="44.04187" lon="6.14887">
        <ele>515.4</ele>
        <time>2012-05-28T13:39:11Z</time>
      </trkpt>
      <trkpt lat="44.04185" lon="6.14905">
        <ele>515.88</ele>
        <time>2012-05-28T13:39:16Z</time>
      </trkpt>
      <trkpt lat="44.04183" lon="6.1491">
        <ele>516.37</ele>
        <time>2012-05-28T13:39:17Z</time>
      </trkpt>
      <trkpt lat="44.04155" lon="6.14939">
        <ele>517.33</ele>
        <time>2012-05-28T13:39:29Z</time>
      </trkpt>
      <trkpt lat="44.04109" lon="6.14994">
        <ele>520.69</ele>
        <time>2012-05-28T13:39:51Z</time>
      </trkpt>
      <trkpt lat="44.04107" lon="6.14996">
        <ele>520.21</ele>
        <time>2012-05-28T13:39:52Z</time>
      </trkpt>
      <trkpt lat="44.03981" lon="6.15117">
        <ele>526.46</ele>
        <time>2012-05-28T13:40:42Z</time>
      </trkpt>
      <trkpt lat="44.03973" lon="6.15127">
        <ele>527.42</ele>
        <time>2012-05-28T13:40:48Z</time>
      </trkpt>
      <trkpt lat="44.03969" lon="6.15143">
        <ele>527.42</ele>
        <time>2012-05-28T13:40:55Z</time>
      </trkpt>
      <trkpt lat="44.0397" lon="6.15147">
        <ele>527.9</ele>
        <time>2012-05-28T13:40:56Z</time>
      </trkpt>
      <trkpt lat="44.03982" lon="6.15217">
        <ele>528.38</ele>
        <time>2012-05-28T13:41:09Z</time>
      </trkpt>
      <trkpt lat="44.03985" lon="6.15267">
        <ele>527.42</ele>
        <time>2012-05-28T13:41:16Z</time>
      </trkpt>
      <trkpt lat="44.04003" lon="6.1545">
        <ele>527.42</ele>
        <time>2012-05-28T13:41:38Z</time>
      </trkpt>
      <trkpt lat="44.04072" lon="6.1561">
        <ele>529.34</ele>
        <time>2012-05-28T13:42:01Z</time>
      </trkpt>
      <trkpt lat="44.0409" lon="6.15637">
        <ele>528.38</ele>
        <time>2012-05-28T13:42:14Z</time>
      </trkpt>
      <trkpt lat="44.04119" lon="6.15693">
        <ele>528.86</ele>
        <time>2012-05-28T13:42:35Z</time>
      </trkpt>
      <trkpt lat="44.04161" lon="6.1577">
        <ele>531.27</ele>
        <time>2012-05-28T13:43:02Z</time>
      </trkpt>
      <trkpt lat="44.0422" lon="6.15868">
        <ele>530.79</ele>
        <time>2012-05-28T13:43:26Z</time>
      </trkpt>
      <trkpt lat="44.04278" lon="6.15954">
        <ele>530.3</ele>
        <time>2012-05-28T13:44:00Z</time>
      </trkpt>
      <trkpt lat="44.04315" lon="6.16024">
        <ele>530.79</ele>
        <time>2012-05-28T13:44:27Z</time>
      </trkpt>
      <trkpt lat="44.04339" lon="6.16051">
        <ele>531.75</ele>
        <time>2012-05-28T13:44:43Z</time>
      </trkpt>
      <trkpt lat="44.04404" lon="6.16199">
        <ele>535.59</ele>
        <time>2012-05-28T13:45:36Z</time>
      </trkpt>
      <trkpt lat="44.04434" lon="6.16325">
        <ele>538.48</ele>
        <time>2012-05-28T13:46:20Z</time>
      </trkpt>
      <trkpt lat="44.04437" lon="6.16331">
        <ele>538.96</ele>
        <time>2012-05-28T13:46:23Z</time>
      </trkpt>
      <trkpt lat="44.04444" lon="6.16349">
        <ele>539.92</ele>
        <time>2012-05-28T13:46:51Z</time>
      </trkpt>
      <trkpt lat="44.04462" lon="6.16354">
        <ele>538.96</ele>
        <time>2012-05-28T13:46:59Z</time>
      </trkpt>
      <trkpt lat="44.04483" lon="6.16359">
        <ele>537.51</ele>
        <time>2012-05-28T13:47:06Z</time>
      </trkpt>
      <trkpt lat="44.04508" lon="6.16381">
        <ele>537.51</ele>
        <time>2012-05-28T13:47:17Z</time>
      </trkpt>
      <trkpt lat="44.04572" lon="6.16347">
        <ele>535.11</ele>
        <time>2012-05-28T13:47:36Z</time>
      </trkpt>
      <trkpt lat="44.04582" lon="6.16341">
        <ele>535.11</ele>
        <time>2012-05-28T13:47:38Z</time>
      </trkpt>
      <trkpt lat="44.04623" lon="6.16319">
        <ele>534.15</ele>
        <time>2012-05-28T13:47:46Z</time>
      </trkpt>
      <trkpt lat="44.04686" lon="6.16237">
        <ele>531.75</ele>
        <time>2012-05-28T13:48:04Z</time>
      </trkpt>
      <trkpt lat="44.04699" lon="6.16221">
        <ele>532.23</ele>
        <time>2012-05-28T13:48:30Z</time>
      </trkpt>
      <trkpt lat="44.04725" lon="6.16183">
        <ele>530.79</ele>
        <time>2012-05-28T13:48:47Z</time>
      </trkpt>
      <trkpt lat="44.04742" lon="6.16149">
        <ele>531.27</ele>
        <time>2012-05-28T13:48:55Z</time>
      </trkpt>
      <trkpt lat="44.04769" lon="6.16146">
        <ele>531.27</ele>
        <time>2012-05-28T13:49:02Z</time>
      </trkpt>
      <trkpt lat="44.04773" lon="6.16154">
        <ele>531.27</ele>
        <time>2012-05-28T13:49:04Z</time>
      </trkpt>
      <trkpt lat="44.04775" lon="6.1616">
        <ele>531.75</ele>
        <time>2012-05-28T13:49:05Z</time>
      </trkpt>
      <trkpt lat="44.04798" lon="6.16265">
        <ele>530.79</ele>
        <time>2012-05-28T13:49:21Z</time>
      </trkpt>
      <trkpt lat="44.04867" lon="6.16376">
        <ele>530.79</ele>
        <time>2012-05-28T13:49:41Z</time>
      </trkpt>
      <trkpt lat="44.04878" lon="6.1639">
        <ele>530.79</ele>
        <time>2012-05-28T13:49:44Z</time>
      </trkpt>
      <trkpt lat="44.04937" lon="6.16419">
        <ele>531.27</ele>
        <time>2012-05-28T13:49:56Z</time>
      </trkpt>
      <trkpt lat="44.04962" lon="6.1643">
        <ele>531.75</ele>
        <time>2012-05-28T13:50:01Z</time>
      </trkpt>
      <trkpt lat="44.04995" lon="6.16434">
        <ele>532.23</ele>
        <time>2012-05-28T13:50:11Z</time>
      </trkpt>
      <trkpt lat="44.04998" lon="6.16429">
        <ele>532.23</ele>
        <time>2012-05-28T13:50:12Z</time>
      </trkpt>
      <trkpt lat="44.05004" lon="6.16418">
        <ele>533.19</ele>
        <time>2012-05-28T13:50:14Z</time>
      </trkpt>
      <trkpt lat="44.05054" lon="6.16348">
        <ele>528.86</ele>
        <time>2012-05-28T13:50:25Z</time>
      </trkpt>
      <trkpt lat="44.05111" lon="6.16289">
        <ele>528.38</ele>
        <time>2012-05-28T13:50:35Z</time>
      </trkpt>
      <trkpt lat="44.05155" lon="6.16284">
        <ele>528.38</ele>
        <time>2012-05-28T13:50:42Z</time>
      </trkpt>
      <trkpt lat="44.05203" lon="6.16288">
        <ele>528.86</ele>
        <time>2012-05-28T13:50:50Z</time>
      </trkpt>
      <trkpt lat="44.05209" lon="6.16293">
        <ele>528.86</ele>
        <time>2012-05-28T13:50:51Z</time>
      </trkpt>
      <trkpt lat="44.05214" lon="6.16298">
        <ele>528.86</ele>
        <time>2012-05-28T13:50:52Z</time>
      </trkpt>
      <trkpt lat="44.05223" lon="6.1631">
        <ele>528.38</ele>
        <time>2012-05-28T13:50:54Z</time>
      </trkpt>
      <trkpt lat="44.05275" lon="6.16391">
        <ele>529.34</ele>
        <time>2012-05-28T13:51:07Z</time>
      </trkpt>
      <trkpt lat="44.05335" lon="6.16466">
        <ele>529.82</ele>
        <time>2012-05-28T13:51:22Z</time>
      </trkpt>
      <trkpt lat="44.05442" lon="6.16583">
        <ele>531.27</ele>
        <time>2012-05-28T13:51:52Z</time>
      </trkpt>
      <trkpt lat="44.05516" lon="6.16673">
        <ele>532.71</ele>
        <time>2012-05-28T13:52:14Z</time>
      </trkpt>
      <trkpt lat="44.05605" lon="6.16786">
        <ele>534.15</ele>
        <time>2012-05-28T13:52:39Z</time>
      </trkpt>
      <trkpt lat="44.05668" lon="6.16941">
        <ele>536.55</ele>
        <time>2012-05-28T13:53:06Z</time>
      </trkpt>
      <trkpt lat="44.05681" lon="6.16991">
        <ele>538.96</ele>
        <time>2012-05-28T13:53:15Z</time>
      </trkpt>
      <trkpt lat="44.05681" lon="6.17082">
        <ele>538.96</ele>
        <time>2012-05-28T13:53:37Z</time>
      </trkpt>
      <trkpt lat="44.05687" lon="6.17133">
        <ele>538.96</ele>
        <time>2012-05-28T13:53:45Z</time>
      </trkpt>
      <trkpt lat="44.05707" lon="6.17175">
        <ele>538.48</ele>
        <time>2012-05-28T13:53:52Z</time>
      </trkpt>
      <trkpt lat="44.05912" lon="6.17451">
        <ele>537.99</ele>
        <time>2012-05-28T13:54:46Z</time>
      </trkpt>
      <trkpt lat="44.05929" lon="6.17475">
        <ele>538.48</ele>
        <time>2012-05-28T13:54:51Z</time>
      </trkpt>
      <trkpt lat="44.05935" lon="6.17492">
        <ele>538.48</ele>
        <time>2012-05-28T13:54:54Z</time>
      </trkpt>
      <trkpt lat="44.05951" lon="6.17505">
        <ele>539.92</ele>
        <time>2012-05-28T13:54:58Z</time>
      </trkpt>
      <trkpt lat="44.05956" lon="6.17507">
        <ele>539.92</ele>
        <time>2012-05-28T13:54:59Z</time>
      </trkpt>
      <trkpt lat="44.05988" lon="6.17529">
        <ele>540.4</ele>
        <time>2012-05-28T13:55:06Z</time>
      </trkpt>
      <trkpt lat="44.06047" lon="6.17598">
        <ele>541.84</ele>
        <time>2012-05-28T13:55:24Z</time>
      </trkpt>
      <trkpt lat="44.06119" lon="6.17686">
        <ele>543.76</ele>
        <time>2012-05-28T13:55:48Z</time>
      </trkpt>
      <trkpt lat="44.06123" lon="6.17687">
        <ele>543.28</ele>
        <time>2012-05-28T13:55:49Z</time>
      </trkpt>
      <trkpt lat="44.0618" lon="6.17617">
        <ele>542.8</ele>
        <time>2012-05-28T13:56:03Z</time>
      </trkpt>
      <trkpt lat="44.06192" lon="6.17602">
        <ele>542.8</ele>
        <time>2012-05-28T13:56:06Z</time>
      </trkpt>
      <trkpt lat="44.06214" lon="6.17569">
        <ele>542.8</ele>
        <time>2012-05-28T13:56:12Z</time>
      </trkpt>
      <trkpt lat="44.06215" lon="6.17518">
        <ele>541.84</ele>
        <time>2012-05-28T13:56:19Z</time>
      </trkpt>
      <trkpt lat="44.06167" lon="6.17414">
        <ele>541.84</ele>
        <time>2012-05-28T13:56:34Z</time>
      </trkpt>
      <trkpt lat="44.06067" lon="6.17205">
        <ele>538.96</ele>
        <time>2012-05-28T13:57:04Z</time>
      </trkpt>
      <trkpt lat="44.06038" lon="6.17153">
        <ele>537.51</ele>
        <time>2012-05-28T13:57:12Z</time>
      </trkpt>
      <trkpt lat="44.0601" lon="6.17056">
        <ele>536.55</ele>
        <time>2012-05-28T13:57:28Z</time>
      </trkpt>
      <trkpt lat="44.05994" lon="6.17032">
        <ele>536.55</ele>
        <time>2012-05-28T13:57:41Z</time>
      </trkpt>
      <trkpt lat="44.05991" lon="6.17031">
        <ele>536.55</ele>
        <time>2012-05-28T13:58:05Z</time>
      </trkpt>
      <trkpt lat="44.05979" lon="6.17013">
        <ele>536.55</ele>
        <time>2012-05-28T13:58:26Z</time>
      </trkpt>
      <trkpt lat="44.06005" lon="6.17051">
        <ele>537.51</ele>
        <time>2012-05-28T13:58:38Z</time>
      </trkpt>
      <trkpt lat="44.0601" lon="6.17059">
        <ele>537.51</ele>
        <time>2012-05-28T13:58:40Z</time>
      </trkpt>
      <trkpt lat="44.06015" lon="6.17079">
        <ele>537.51</ele>
        <time>2012-05-28T13:58:45Z</time>
      </trkpt>
      <trkpt lat="44.06036" lon="6.17134">
        <ele>537.51</ele>
        <time>2012-05-28T13:58:55Z</time>
      </trkpt>
      <trkpt lat="44.06041" lon="6.17154">
        <ele>537.03</ele>
        <time>2012-05-28T13:58:58Z</time>
      </trkpt>
      <trkpt lat="44.06046" lon="6.17166">
        <ele>536.55</ele>
        <time>2012-05-28T13:59:00Z</time>
      </trkpt>
      <trkpt lat="44.06055" lon="6.17183">
        <ele>537.51</ele>
        <time>2012-05-28T13:59:03Z</time>
      </trkpt>
      <trkpt lat="44.06059" lon="6.17187">
        <ele>537.03</ele>
        <time>2012-05-28T13:59:04Z</time>
      </trkpt>
      <trkpt lat="44.06097" lon="6.1725">
        <ele>538.96</ele>
        <time>2012-05-28T13:59:23Z</time>
      </trkpt>
      <trkpt lat="44.06163" lon="6.174">
        <ele>539.44</ele>
        <time>2012-05-28T13:59:58Z</time>
      </trkpt>
      <trkpt lat="44.0622" lon="6.17536">
        <ele>540.88</ele>
        <time>2012-05-28T14:00:27Z</time>
      </trkpt>
      <trkpt lat="44.06224" lon="6.17553">
        <ele>540.4</ele>
        <time>2012-05-28T14:00:39Z</time>
      </trkpt>
      <trkpt lat="44.06234" lon="6.17551">
        <ele>539.92</ele>
        <time>2012-05-28T14:00:52Z</time>
      </trkpt>
      <trkpt lat="44.06257" lon="6.17547">
        <ele>539.92</ele>
        <time>2012-05-28T14:01:11Z</time>
      </trkpt>
      <trkpt lat="44.06295" lon="6.17574">
        <ele>540.88</ele>
        <time>2012-05-28T14:01:31Z</time>
      </trkpt>
      <trkpt lat="44.06316" lon="6.17563">
        <ele>540.4</ele>
        <time>2012-05-28T14:01:38Z</time>
      </trkpt>
      <trkpt lat="44.06332" lon="6.17545">
        <ele>540.4</ele>
        <time>2012-05-28T14:01:42Z</time>
      </trkpt>
      <trkpt lat="44.06324" lon="6.17553">
        <ele>540.4</ele>
        <time>2012-05-28T14:01:50Z</time>
      </trkpt>
      <trkpt lat="44.06344" lon="6.17519">
        <ele>540.88</ele>
        <time>2012-05-28T14:02:02Z</time>
      </trkpt>
      <trkpt lat="44.06349" lon="6.17511">
        <ele>540.88</ele>
        <time>2012-05-28T14:02:04Z</time>
      </trkpt>
      <trkpt lat="44.06375" lon="6.17521">
        <ele>540.88</ele>
        <time>2012-05-28T14:02:18Z</time>
      </trkpt>
      <trkpt lat="44.06381" lon="6.17554">
        <ele>541.36</ele>
        <time>2012-05-28T14:02:31Z</time>
      </trkpt>
      <trkpt lat="44.06424" lon="6.17584">
        <ele>542.32</ele>
        <time>2012-05-28T14:02:47Z</time>
      </trkpt>
      <trkpt lat="44.06487" lon="6.17603">
        <ele>543.28</ele>
        <time>2012-05-28T14:03:07Z</time>
      </trkpt>
      <trkpt lat="44.0651" lon="6.17613">
        <ele>543.76</ele>
        <time>2012-05-28T14:03:14Z</time>
      </trkpt>
      <trkpt lat="44.06532" lon="6.17637">
        <ele>544.72</ele>
        <time>2012-05-28T14:03:20Z</time>
      </trkpt>
      <trkpt lat="44.06572" lon="6.17665">
        <ele>545.2</ele>
        <time>2012-05-28T14:03:30Z</time>
      </trkpt>
      <trkpt lat="44.06632" lon="6.17763">
        <ele>545.2</ele>
        <time>2012-05-28T14:03:49Z</time>
      </trkpt>
      <trkpt lat="44.06644" lon="6.17813">
        <ele>545.2</ele>
        <time>2012-05-28T14:03:58Z</time>
      </trkpt>
      <trkpt lat="44.06639" lon="6.17819">
        <ele>545.2</ele>
        <time>2012-05-28T14:03:59Z</time>
      </trkpt>
      <trkpt lat="44.06492" lon="6.17999">
        <ele>545.2</ele>
        <time>2012-05-28T14:04:30Z</time>
      </trkpt>
      <trkpt lat="44.0643" lon="6.18092">
        <ele>545.2</ele>
        <time>2012-05-28T14:04:46Z</time>
      </trkpt>
      <trkpt lat="44.06427" lon="6.18104">
        <ele>544.72</ele>
        <time>2012-05-28T14:04:48Z</time>
      </trkpt>
      <trkpt lat="44.06418" lon="6.18178">
        <ele>545.69</ele>
        <time>2012-05-28T14:05:05Z</time>
      </trkpt>
      <trkpt lat="44.06448" lon="6.18239">
        <ele>546.17</ele>
        <time>2012-05-28T14:05:20Z</time>
      </trkpt>
      <trkpt lat="44.06528" lon="6.18426">
        <ele>548.09</ele>
        <time>2012-05-28T14:06:03Z</time>
      </trkpt>
      <trkpt lat="44.06536" lon="6.18478">
        <ele>548.09</ele>
        <time>2012-05-28T14:06:12Z</time>
      </trkpt>
      <trkpt lat="44.06536" lon="6.18484">
        <ele>548.09</ele>
        <time>2012-05-28T14:06:13Z</time>
      </trkpt>
      <trkpt lat="44.06536" lon="6.18545">
        <ele>548.09</ele>
        <time>2012-05-28T14:06:31Z</time>
      </trkpt>
      <trkpt lat="44.06524" lon="6.18692">
        <ele>549.53</ele>
        <time>2012-05-28T14:07:01Z</time>
      </trkpt>
      <trkpt lat="44.06525" lon="6.18862">
        <ele>554.34</ele>
        <time>2012-05-28T14:07:48Z</time>
      </trkpt>
      <trkpt lat="44.06528" lon="6.18885">
        <ele>555.3</ele>
        <time>2012-05-28T14:07:55Z</time>
      </trkpt>
      <trkpt lat="44.06534" lon="6.18901">
        <ele>556.26</ele>
        <time>2012-05-28T14:08:00Z</time>
      </trkpt>
      <trkpt lat="44.06568" lon="6.18978">
        <ele>556.26</ele>
        <time>2012-05-28T14:08:19Z</time>
      </trkpt>
      <trkpt lat="44.06625" lon="6.19083">
        <ele>556.26</ele>
        <time>2012-05-28T14:08:47Z</time>
      </trkpt>
      <trkpt lat="44.06666" lon="6.19167">
        <ele>558.66</ele>
        <time>2012-05-28T14:09:10Z</time>
      </trkpt>
      <trkpt lat="44.06659" lon="6.19222">
        <ele>560.59</ele>
        <time>2012-05-28T14:09:26Z</time>
      </trkpt>
      <trkpt lat="44.0666" lon="6.19225">
        <ele>560.11</ele>
        <time>2012-05-28T14:09:27Z</time>
      </trkpt>
      <trkpt lat="44.06713" lon="6.19331">
        <ele>562.51</ele>
        <time>2012-05-28T14:09:51Z</time>
      </trkpt>
      <trkpt lat="44.06766" lon="6.19472">
        <ele>566.83</ele>
        <time>2012-05-28T14:10:18Z</time>
      </trkpt>
      <trkpt lat="44.06768" lon="6.19476">
        <ele>566.35</ele>
        <time>2012-05-28T14:10:19Z</time>
      </trkpt>
      <trkpt lat="44.0679" lon="6.19531">
        <ele>568.28</ele>
        <time>2012-05-28T14:10:30Z</time>
      </trkpt>
      <trkpt lat="44.06858" lon="6.19695">
        <ele>570.2</ele>
        <time>2012-05-28T14:11:01Z</time>
      </trkpt>
      <trkpt lat="44.0686" lon="6.19702">
        <ele>570.2</ele>
        <time>2012-05-28T14:11:02Z</time>
      </trkpt>
      <trkpt lat="44.06928" lon="6.19821">
        <ele>570.68</ele>
        <time>2012-05-28T14:11:25Z</time>
      </trkpt>
      <trkpt lat="44.0708" lon="6.20072">
        <ele>571.64</ele>
        <time>2012-05-28T14:12:09Z</time>
      </trkpt>
      <trkpt lat="44.07184" lon="6.20226">
        <ele>572.12</ele>
        <time>2012-05-28T14:12:37Z</time>
      </trkpt>
      <trkpt lat="44.0727" lon="6.20285">
        <ele>574.53</ele>
        <time>2012-05-28T14:12:57Z</time>
      </trkpt>
      <trkpt lat="44.07394" lon="6.20439">
        <ele>576.93</ele>
        <time>2012-05-28T14:13:33Z</time>
      </trkpt>
      <trkpt lat="44.07443" lon="6.20511">
        <ele>576.93</ele>
        <time>2012-05-28T14:13:47Z</time>
      </trkpt>
      <trkpt lat="44.07551" lon="6.20624">
        <ele>576.45</ele>
        <time>2012-05-28T14:14:16Z</time>
      </trkpt>
      <trkpt lat="44.07554" lon="6.20629">
        <ele>576.93</ele>
        <time>2012-05-28T14:14:24Z</time>
      </trkpt>
      <trkpt lat="44.07578" lon="6.2067">
        <ele>575.97</ele>
        <time>2012-05-28T14:14:36Z</time>
      </trkpt>
      <trkpt lat="44.07688" lon="6.20862">
        <ele>572.6</ele>
        <time>2012-05-28T14:15:05Z</time>
      </trkpt>
      <trkpt lat="44.07687" lon="6.20862">
        <ele>572.12</ele>
        <time>2012-05-28T14:15:18Z</time>
      </trkpt>
      <trkpt lat="44.07684" lon="6.20859">
        <ele>572.12</ele>
        <time>2012-05-28T14:20:56Z</time>
      </trkpt>
      <trkpt lat="44.07684" lon="6.20858">
        <ele>572.12</ele>
        <time>2012-05-28T14:22:04Z</time>
      </trkpt>
      <trkpt lat="44.07678" lon="6.20849">
        <ele>572.12</ele>
        <time>2012-05-28T14:22:09Z</time>
      </trkpt>
      <trkpt lat="44.07632" lon="6.20763">
        <ele>573.08</ele>
        <time>2012-05-28T14:22:34Z</time>
      </trkpt>
      <trkpt lat="44.07554" lon="6.20619">
        <ele>576.45</ele>
        <time>2012-05-28T14:23:12Z</time>
      </trkpt>
      <trkpt lat="44.07556" lon="6.20616">
        <ele>576.45</ele>
        <time>2012-05-28T14:23:13Z</time>
      </trkpt>
      <trkpt lat="44.0756" lon="6.20613">
        <ele>575.97</ele>
        <time>2012-05-28T14:23:14Z</time>
      </trkpt>
      <trkpt lat="44.076" lon="6.20585">
        <ele>573.08</ele>
        <time>2012-05-28T14:23:21Z</time>
      </trkpt>
      <trkpt lat="44.07604" lon="6.20577">
        <ele>573.08</ele>
        <time>2012-05-28T14:23:22Z</time>
      </trkpt>
      <trkpt lat="44.07608" lon="6.20568">
        <ele>573.56</ele>
        <time>2012-05-28T14:23:23Z</time>
      </trkpt>
      <trkpt lat="44.07617" lon="6.20544">
        <ele>572.12</ele>
        <time>2012-05-28T14:23:26Z</time>
      </trkpt>
      <trkpt lat="44.07643" lon="6.20546">
        <ele>570.68</ele>
        <time>2012-05-28T14:23:31Z</time>
      </trkpt>
      <trkpt lat="44.07648" lon="6.20549">
        <ele>571.16</ele>
        <time>2012-05-28T14:23:32Z</time>
      </trkpt>
      <trkpt lat="44.07658" lon="6.20553">
        <ele>570.68</ele>
        <time>2012-05-28T14:23:34Z</time>
      </trkpt>
      <trkpt lat="44.07709" lon="6.20573">
        <ele>569.72</ele>
        <time>2012-05-28T14:23:44Z</time>
      </trkpt>
      <trkpt lat="44.07734" lon="6.20586">
        <ele>568.76</ele>
        <time>2012-05-28T14:23:49Z</time>
      </trkpt>
      <trkpt lat="44.0778" lon="6.20686">
        <ele>569.72</ele>
        <time>2012-05-28T14:24:13Z</time>
      </trkpt>
      <trkpt lat="44.07778" lon="6.20718">
        <ele>569.72</ele>
        <time>2012-05-28T14:24:27Z</time>
      </trkpt>
      <trkpt lat="44.07779" lon="6.20779">
        <ele>569.72</ele>
        <time>2012-05-28T14:24:38Z</time>
      </trkpt>
      <trkpt lat="44.07783" lon="6.20789">
        <ele>569.72</ele>
        <time>2012-05-28T14:24:40Z</time>
      </trkpt>
      <trkpt lat="44.07863" lon="6.20996">
        <ele>571.64</ele>
        <time>2012-05-28T14:25:20Z</time>
      </trkpt>
      <trkpt lat="44.07925" lon="6.21149">
        <ele>573.08</ele>
        <time>2012-05-28T14:25:46Z</time>
      </trkpt>
      <trkpt lat="44.0798" lon="6.21274">
        <ele>573.56</ele>
        <time>2012-05-28T14:26:07Z</time>
      </trkpt>
      <trkpt lat="44.0801" lon="6.21356">
        <ele>574.04</ele>
        <time>2012-05-28T14:26:26Z</time>
      </trkpt>
      <trkpt lat="44.08025" lon="6.21405">
        <ele>574.53</ele>
        <time>2012-05-28T14:26:34Z</time>
      </trkpt>
      <trkpt lat="44.08035" lon="6.21439">
        <ele>574.53</ele>
        <time>2012-05-28T14:26:40Z</time>
      </trkpt>
      <trkpt lat="44.0804" lon="6.21458">
        <ele>574.53</ele>
        <time>2012-05-28T14:26:48Z</time>
      </trkpt>
      <trkpt lat="44.08047" lon="6.21514">
        <ele>575.01</ele>
        <time>2012-05-28T14:26:59Z</time>
      </trkpt>
      <trkpt lat="44.08045" lon="6.21528">
        <ele>575.01</ele>
        <time>2012-05-28T14:27:02Z</time>
      </trkpt>
      <trkpt lat="44.08058" lon="6.21548">
        <ele>575.97</ele>
        <time>2012-05-28T14:27:08Z</time>
      </trkpt>
      <trkpt lat="44.08063" lon="6.21576">
        <ele>576.93</ele>
        <time>2012-05-28T14:27:16Z</time>
      </trkpt>
      <trkpt lat="44.081" lon="6.21689">
        <ele>576.93</ele>
        <time>2012-05-28T14:27:36Z</time>
      </trkpt>
      <trkpt lat="44.08118" lon="6.21743">
        <ele>575.01</ele>
        <time>2012-05-28T14:27:43Z</time>
      </trkpt>
      <trkpt lat="44.08119" lon="6.21751">
        <ele>575.01</ele>
        <time>2012-05-28T14:27:44Z</time>
      </trkpt>
      <trkpt lat="44.08126" lon="6.21784">
        <ele>575.49</ele>
        <time>2012-05-28T14:27:48Z</time>
      </trkpt>
      <trkpt lat="44.08144" lon="6.218">
        <ele>576.45</ele>
        <time>2012-05-28T14:27:52Z</time>
      </trkpt>
      <trkpt lat="44.08151" lon="6.21814">
        <ele>576.93</ele>
        <time>2012-05-28T14:27:55Z</time>
      </trkpt>
      <trkpt lat="44.08194" lon="6.21929">
        <ele>578.37</ele>
        <time>2012-05-28T14:28:18Z</time>
      </trkpt>
      <trkpt lat="44.08226" lon="6.22014">
        <ele>578.37</ele>
        <time>2012-05-28T14:28:32Z</time>
      </trkpt>
      <trkpt lat="44.08257" lon="6.2208">
        <ele>579.33</ele>
        <time>2012-05-28T14:28:56Z</time>
      </trkpt>
      <trkpt lat="44.08257" lon="6.22082">
        <ele>579.33</ele>
        <time>2012-05-28T14:29:23Z</time>
      </trkpt>
      <trkpt lat="44.08244" lon="6.2206">
        <ele>579.81</ele>
        <time>2012-05-28T14:29:32Z</time>
      </trkpt>
      <trkpt lat="44.08241" lon="6.22053">
        <ele>579.81</ele>
        <time>2012-05-28T14:29:33Z</time>
      </trkpt>
      <trkpt lat="44.08236" lon="6.22039">
        <ele>579.81</ele>
        <time>2012-05-28T14:29:35Z</time>
      </trkpt>
      <trkpt lat="44.08198" lon="6.21935">
        <ele>578.85</ele>
        <time>2012-05-28T14:29:48Z</time>
      </trkpt>
      <trkpt lat="44.0815" lon="6.21833">
        <ele>576.93</ele>
        <time>2012-05-28T14:30:04Z</time>
      </trkpt>
      <trkpt lat="44.08147" lon="6.21791">
        <ele>577.89</ele>
        <time>2012-05-28T14:30:11Z</time>
      </trkpt>
      <trkpt lat="44.08148" lon="6.21758">
        <ele>578.37</ele>
        <time>2012-05-28T14:30:22Z</time>
      </trkpt>
      <trkpt lat="44.08228" lon="6.21741">
        <ele>578.85</ele>
        <time>2012-05-28T14:30:41Z</time>
      </trkpt>
      <trkpt lat="44.08253" lon="6.21757">
        <ele>578.85</ele>
        <time>2012-05-28T14:30:52Z</time>
      </trkpt>
      <trkpt lat="44.08261" lon="6.21756">
        <ele>578.85</ele>
        <time>2012-05-28T14:30:55Z</time>
      </trkpt>
      <trkpt lat="44.08308" lon="6.21757">
        <ele>579.33</ele>
        <time>2012-05-28T14:31:07Z</time>
      </trkpt>
      <trkpt lat="44.08381" lon="6.21707">
        <ele>580.77</ele>
        <time>2012-05-28T14:31:30Z</time>
      </trkpt>
      <trkpt lat="44.08389" lon="6.21647">
        <ele>578.37</ele>
        <time>2012-05-28T14:31:45Z</time>
      </trkpt>
      <trkpt lat="44.0839" lon="6.21645">
        <ele>578.37</ele>
        <time>2012-05-28T14:31:46Z</time>
      </trkpt>
      <trkpt lat="44.084" lon="6.2163">
        <ele>578.85</ele>
        <time>2012-05-28T14:31:54Z</time>
      </trkpt>
      <trkpt lat="44.08399" lon="6.21627">
        <ele>578.37</ele>
        <time>2012-05-28T14:31:55Z</time>
      </trkpt>
      <trkpt lat="44.084" lon="6.21617">
        <ele>578.37</ele>
        <time>2012-05-28T14:31:58Z</time>
      </trkpt>
      <trkpt lat="44.08404" lon="6.21591">
        <ele>577.89</ele>
        <time>2012-05-28T14:32:15Z</time>
      </trkpt>
      <trkpt lat="44.08398" lon="6.216">
        <ele>577.89</ele>
        <time>2012-05-28T14:32:21Z</time>
      </trkpt>
      <trkpt lat="44.0839" lon="6.21632">
        <ele>578.37</ele>
        <time>2012-05-28T14:35:06Z</time>
      </trkpt>
      <trkpt lat="44.08391" lon="6.21635">
        <ele>578.37</ele>
        <time>2012-05-28T14:35:31Z</time>
      </trkpt>
      <trkpt lat="44.08388" lon="6.21635">
        <ele>578.37</ele>
        <time>2012-05-28T14:35:48Z</time>
      </trkpt>
      <trkpt lat="44.08391" lon="6.21634">
        <ele>578.37</ele>
        <time>2012-05-28T14:37:56Z</time>
      </trkpt>
      <trkpt lat="44.08389" lon="6.21632">
        <ele>586.06</ele>
        <time>2012-05-28T16:27:26Z</time>
      </trkpt>
      <trkpt lat="44.08986" lon="6.23827">
        <ele>600</ele>
        <time>2012-05-28T16:27:51Z</time>
      </trkpt>
      <trkpt lat="44.08988" lon="6.23823">
        <ele>599.52</ele>
        <time>2012-05-28T16:28:20Z</time>
      </trkpt>
      <trkpt lat="44.08982" lon="6.23826">
        <ele>599.52</ele>
        <time>2012-05-28T16:29:11Z</time>
      </trkpt>
      <trkpt lat="44.08976" lon="6.23835">
        <ele>600.48</ele>
        <time>2012-05-28T16:29:26Z</time>
      </trkpt>
      <trkpt lat="44.08974" lon="6.23835">
        <ele>600</ele>
        <time>2012-05-28T16:30:09Z</time>
      </trkpt>
    </trkseg>
  </trk>
</gpx>